<?xml version="1.0" encoding="UTF-8" standalone="no" ?>
<gpx xmlns="http://www.topografix.com/GPX/1/1" xmlns:xsi="http://www.w3.org/2001/XMLSchema-instance" xsi:schemaLocation="http://www.topografix.com/GPX/1/1 http://www.topografix.com/GPX/1/1/gpx.xsd" version="1.1" creator="VisuGPX - https://www.visugpx.com">
  <metadata>
    <name>Pic de bacanère en boucle</name>
    <desc><![CDATA[Pic de bacanère en boucle]]></desc>
  </metadata>
  <trk>
    <name><![CDATA[Randocourse]]></name>
    <trkseg>
      <trkpt lat="42.85614" lon="0.62029">
        <ele>933.57739257812</ele>
        <time>2011-06-14T07:18:10Z</time>
      </trkpt>
      <trkpt lat="42.85615" lon="0.6203">
        <ele>933.0966796875</ele>
        <time>2011-06-14T07:18:11Z</time>
      </trkpt>
      <trkpt lat="42.85619" lon="0.62033">
        <ele>932.6162109375</ele>
        <time>2011-06-14T07:18:16Z</time>
      </trkpt>
      <trkpt lat="42.85625" lon="0.62031">
        <ele>931.17431640625</ele>
        <time>2011-06-14T07:18:21Z</time>
      </trkpt>
      <trkpt lat="42.85632" lon="0.62025">
        <ele>932.13549804688</ele>
        <time>2011-06-14T07:18:27Z</time>
      </trkpt>
      <trkpt lat="42.85639" lon="0.6202">
        <ele>934.05810546875</ele>
        <time>2011-06-14T07:18:33Z</time>
      </trkpt>
      <trkpt lat="42.85646" lon="0.62014">
        <ele>934.05810546875</ele>
        <time>2011-06-14T07:18:39Z</time>
      </trkpt>
      <trkpt lat="42.85652" lon="0.62012">
        <ele>934.53881835938</ele>
        <time>2011-06-14T07:18:43Z</time>
      </trkpt>
      <trkpt lat="42.85661" lon="0.62011">
        <ele>935.5</ele>
        <time>2011-06-14T07:18:51Z</time>
      </trkpt>
      <trkpt lat="42.85667" lon="0.62011">
        <ele>936.46142578125</ele>
        <time>2011-06-14T07:18:56Z</time>
      </trkpt>
      <trkpt lat="42.8567" lon="0.6201">
        <ele>936.94189453125</ele>
        <time>2011-06-14T07:19:00Z</time>
      </trkpt>
      <trkpt lat="42.85683" lon="0.62008">
        <ele>939.82592773438</ele>
        <time>2011-06-14T07:19:09Z</time>
      </trkpt>
      <trkpt lat="42.85691" lon="0.62006">
        <ele>940.30688476562</ele>
        <time>2011-06-14T07:19:16Z</time>
      </trkpt>
      <trkpt lat="42.85699" lon="0.62008">
        <ele>941.74877929688</ele>
        <time>2011-06-14T07:19:22Z</time>
      </trkpt>
      <trkpt lat="42.85704" lon="0.62011">
        <ele>942.71020507812</ele>
        <time>2011-06-14T07:19:27Z</time>
      </trkpt>
      <trkpt lat="42.85711" lon="0.62018">
        <ele>944.63256835938</ele>
        <time>2011-06-14T07:19:35Z</time>
      </trkpt>
      <trkpt lat="42.85717" lon="0.62023">
        <ele>944.63256835938</ele>
        <time>2011-06-14T07:19:42Z</time>
      </trkpt>
      <trkpt lat="42.85727" lon="0.62029">
        <ele>945.11328125</ele>
        <time>2011-06-14T07:19:51Z</time>
      </trkpt>
      <trkpt lat="42.85735" lon="0.62036">
        <ele>947.03588867188</ele>
        <time>2011-06-14T07:19:59Z</time>
      </trkpt>
      <trkpt lat="42.85744" lon="0.62041">
        <ele>950.88110351562</ele>
        <time>2011-06-14T07:20:07Z</time>
      </trkpt>
      <trkpt lat="42.85752" lon="0.62045">
        <ele>952.32299804688</ele>
        <time>2011-06-14T07:20:14Z</time>
      </trkpt>
      <trkpt lat="42.85761" lon="0.62049">
        <ele>951.36181640625</ele>
        <time>2011-06-14T07:20:22Z</time>
      </trkpt>
      <trkpt lat="42.85768" lon="0.62052">
        <ele>950.40063476562</ele>
        <time>2011-06-14T07:20:28Z</time>
      </trkpt>
      <trkpt lat="42.85773" lon="0.62057">
        <ele>952.32299804688</ele>
        <time>2011-06-14T07:20:34Z</time>
      </trkpt>
      <trkpt lat="42.85778" lon="0.62059">
        <ele>953.28442382812</ele>
        <time>2011-06-14T07:20:38Z</time>
      </trkpt>
      <trkpt lat="42.85786" lon="0.62065">
        <ele>955.68774414062</ele>
        <time>2011-06-14T07:20:47Z</time>
      </trkpt>
      <trkpt lat="42.85789" lon="0.62068">
        <ele>956.16845703125</ele>
        <time>2011-06-14T07:20:50Z</time>
      </trkpt>
      <trkpt lat="42.85799" lon="0.62075">
        <ele>956.64916992188</ele>
        <time>2011-06-14T07:21:00Z</time>
      </trkpt>
      <trkpt lat="42.85807" lon="0.62082">
        <ele>957.1298828125</ele>
        <time>2011-06-14T07:21:09Z</time>
      </trkpt>
      <trkpt lat="42.85817" lon="0.6209">
        <ele>959.533203125</ele>
        <time>2011-06-14T07:21:18Z</time>
      </trkpt>
      <trkpt lat="42.85826" lon="0.62094">
        <ele>961.9365234375</ele>
        <time>2011-06-14T07:21:25Z</time>
      </trkpt>
      <trkpt lat="42.85833" lon="0.62096">
        <ele>961.9365234375</ele>
        <time>2011-06-14T07:21:31Z</time>
      </trkpt>
      <trkpt lat="42.85841" lon="0.62094">
        <ele>962.89770507812</ele>
        <time>2011-06-14T07:21:38Z</time>
      </trkpt>
      <trkpt lat="42.8585" lon="0.62092">
        <ele>964.8203125</ele>
        <time>2011-06-14T07:21:46Z</time>
      </trkpt>
      <trkpt lat="42.8586" lon="0.62091">
        <ele>968.18481445312</ele>
        <time>2011-06-14T07:21:55Z</time>
      </trkpt>
      <trkpt lat="42.85867" lon="0.62088">
        <ele>969.626953125</ele>
        <time>2011-06-14T07:22:01Z</time>
      </trkpt>
      <trkpt lat="42.85872" lon="0.62084">
        <ele>970.58813476562</ele>
        <time>2011-06-14T07:22:06Z</time>
      </trkpt>
      <trkpt lat="42.85877" lon="0.6208">
        <ele>972.0302734375</ele>
        <time>2011-06-14T07:22:11Z</time>
      </trkpt>
      <trkpt lat="42.85884" lon="0.62073">
        <ele>974.91430664062</ele>
        <time>2011-06-14T07:22:19Z</time>
      </trkpt>
      <trkpt lat="42.85886" lon="0.6207">
        <ele>975.87548828125</ele>
        <time>2011-06-14T07:22:22Z</time>
      </trkpt>
      <trkpt lat="42.85889" lon="0.62067">
        <ele>976.35620117188</ele>
        <time>2011-06-14T07:22:28Z</time>
      </trkpt>
      <trkpt lat="42.85894" lon="0.62066">
        <ele>977.79809570312</ele>
        <time>2011-06-14T07:22:33Z</time>
      </trkpt>
      <trkpt lat="42.85899" lon="0.62067">
        <ele>978.27880859375</ele>
        <time>2011-06-14T07:22:38Z</time>
      </trkpt>
      <trkpt lat="42.85907" lon="0.62073">
        <ele>979.23999023438</ele>
        <time>2011-06-14T07:22:47Z</time>
      </trkpt>
      <trkpt lat="42.85913" lon="0.62074">
        <ele>980.68212890625</ele>
        <time>2011-06-14T07:22:53Z</time>
      </trkpt>
      <trkpt lat="42.85915" lon="0.62075">
        <ele>981.64331054688</ele>
        <time>2011-06-14T07:22:56Z</time>
      </trkpt>
      <trkpt lat="42.85923" lon="0.62076">
        <ele>983.56591796875</ele>
        <time>2011-06-14T07:23:04Z</time>
      </trkpt>
      <trkpt lat="42.85924" lon="0.62076">
        <ele>983.56591796875</ele>
        <time>2011-06-14T07:23:05Z</time>
      </trkpt>
      <trkpt lat="42.85933" lon="0.62076">
        <ele>985.00805664062</ele>
        <time>2011-06-14T07:23:12Z</time>
      </trkpt>
      <trkpt lat="42.85937" lon="0.62079">
        <ele>985.96923828125</ele>
        <time>2011-06-14T07:23:16Z</time>
      </trkpt>
      <trkpt lat="42.85939" lon="0.62086">
        <ele>986.93041992188</ele>
        <time>2011-06-14T07:23:21Z</time>
      </trkpt>
      <trkpt lat="42.85939" lon="0.62094">
        <ele>988.853515625</ele>
        <time>2011-06-14T07:23:27Z</time>
      </trkpt>
      <trkpt lat="42.85936" lon="0.62095">
        <ele>990.77587890625</ele>
        <time>2011-06-14T07:23:34Z</time>
      </trkpt>
      <trkpt lat="42.85938" lon="0.62096">
        <ele>991.25659179688</ele>
        <time>2011-06-14T07:23:40Z</time>
      </trkpt>
      <trkpt lat="42.85936" lon="0.62102">
        <ele>992.21801757812</ele>
        <time>2011-06-14T07:23:46Z</time>
      </trkpt>
      <trkpt lat="42.85928" lon="0.62106">
        <ele>994.140625</ele>
        <time>2011-06-14T07:23:54Z</time>
      </trkpt>
      <trkpt lat="42.85923" lon="0.62113">
        <ele>995.58251953125</ele>
        <time>2011-06-14T07:24:01Z</time>
      </trkpt>
      <trkpt lat="42.85918" lon="0.62125">
        <ele>997.0244140625</ele>
        <time>2011-06-14T07:24:09Z</time>
      </trkpt>
      <trkpt lat="42.85917" lon="0.62133">
        <ele>997.50512695312</ele>
        <time>2011-06-14T07:24:15Z</time>
      </trkpt>
      <trkpt lat="42.8592" lon="0.62138">
        <ele>998.46630859375</ele>
        <time>2011-06-14T07:24:20Z</time>
      </trkpt>
      <trkpt lat="42.85925" lon="0.62137">
        <ele>999.90844726562</ele>
        <time>2011-06-14T07:24:25Z</time>
      </trkpt>
      <trkpt lat="42.85933" lon="0.62136">
        <ele>1001.3503417969</ele>
        <time>2011-06-14T07:24:32Z</time>
      </trkpt>
      <trkpt lat="42.85939" lon="0.62141">
        <ele>1001.8310546875</ele>
        <time>2011-06-14T07:24:39Z</time>
      </trkpt>
      <trkpt lat="42.85944" lon="0.62148">
        <ele>1002.3115234375</ele>
        <time>2011-06-14T07:24:45Z</time>
      </trkpt>
      <trkpt lat="42.85942" lon="0.62156">
        <ele>1003.7536621094</ele>
        <time>2011-06-14T07:24:51Z</time>
      </trkpt>
      <trkpt lat="42.85937" lon="0.62164">
        <ele>1005.1958007812</ele>
        <time>2011-06-14T07:24:59Z</time>
      </trkpt>
      <trkpt lat="42.85936" lon="0.62166">
        <ele>1005.6765136719</ele>
        <time>2011-06-14T07:25:05Z</time>
      </trkpt>
      <trkpt lat="42.85935" lon="0.6217">
        <ele>1006.1569824219</ele>
        <time>2011-06-14T07:25:08Z</time>
      </trkpt>
      <trkpt lat="42.85934" lon="0.62182">
        <ele>1007.5991210938</ele>
        <time>2011-06-14T07:25:16Z</time>
      </trkpt>
      <trkpt lat="42.85935" lon="0.6219">
        <ele>1009.041015625</ele>
        <time>2011-06-14T07:25:21Z</time>
      </trkpt>
      <trkpt lat="42.85936" lon="0.62204">
        <ele>1010.9636230469</ele>
        <time>2011-06-14T07:25:30Z</time>
      </trkpt>
      <trkpt lat="42.85933" lon="0.62215">
        <ele>1012.8862304688</ele>
        <time>2011-06-14T07:25:37Z</time>
      </trkpt>
      <trkpt lat="42.85931" lon="0.62223">
        <ele>1013.8474121094</ele>
        <time>2011-06-14T07:25:43Z</time>
      </trkpt>
      <trkpt lat="42.85928" lon="0.62231">
        <ele>1014.328125</ele>
        <time>2011-06-14T07:25:49Z</time>
      </trkpt>
      <trkpt lat="42.85923" lon="0.62242">
        <ele>1015.2895507812</ele>
        <time>2011-06-14T07:25:57Z</time>
      </trkpt>
      <trkpt lat="42.85921" lon="0.6225">
        <ele>1015.2895507812</ele>
        <time>2011-06-14T07:26:03Z</time>
      </trkpt>
      <trkpt lat="42.85919" lon="0.62258">
        <ele>1015.7702636719</ele>
        <time>2011-06-14T07:26:09Z</time>
      </trkpt>
      <trkpt lat="42.85919" lon="0.62268">
        <ele>1019.134765625</ele>
        <time>2011-06-14T07:26:16Z</time>
      </trkpt>
      <trkpt lat="42.85918" lon="0.62273">
        <ele>1020.0961914062</ele>
        <time>2011-06-14T07:26:19Z</time>
      </trkpt>
      <trkpt lat="42.85914" lon="0.62281">
        <ele>1022.0187988281</ele>
        <time>2011-06-14T07:26:26Z</time>
      </trkpt>
      <trkpt lat="42.85908" lon="0.62277">
        <ele>1023.4609375</ele>
        <time>2011-06-14T07:26:33Z</time>
      </trkpt>
      <trkpt lat="42.85908" lon="0.62269">
        <ele>1025.8640136719</ele>
        <time>2011-06-14T07:26:38Z</time>
      </trkpt>
      <trkpt lat="42.85907" lon="0.62266">
        <ele>1026.3447265625</ele>
        <time>2011-06-14T07:26:40Z</time>
      </trkpt>
      <trkpt lat="42.85899" lon="0.62263">
        <ele>1027.7866210938</ele>
        <time>2011-06-14T07:26:48Z</time>
      </trkpt>
      <trkpt lat="42.85898" lon="0.62264">
        <ele>1027.7866210938</ele>
        <time>2011-06-14T07:26:49Z</time>
      </trkpt>
      <trkpt lat="42.85897" lon="0.62268">
        <ele>1028.2673339844</ele>
        <time>2011-06-14T07:26:52Z</time>
      </trkpt>
      <trkpt lat="42.85896" lon="0.62279">
        <ele>1028.748046875</ele>
        <time>2011-06-14T07:26:58Z</time>
      </trkpt>
      <trkpt lat="42.85896" lon="0.62281">
        <ele>1028.748046875</ele>
        <time>2011-06-14T07:26:59Z</time>
      </trkpt>
      <trkpt lat="42.85897" lon="0.62294">
        <ele>1029.7092285156</ele>
        <time>2011-06-14T07:27:07Z</time>
      </trkpt>
      <trkpt lat="42.85898" lon="0.62302">
        <ele>1030.6706542969</ele>
        <time>2011-06-14T07:27:12Z</time>
      </trkpt>
      <trkpt lat="42.85899" lon="0.62312">
        <ele>1030.6706542969</ele>
        <time>2011-06-14T07:27:19Z</time>
      </trkpt>
      <trkpt lat="42.85899" lon="0.62319">
        <ele>1030.6706542969</ele>
        <time>2011-06-14T07:27:24Z</time>
      </trkpt>
      <trkpt lat="42.85898" lon="0.62325">
        <ele>1031.1513671875</ele>
        <time>2011-06-14T07:27:28Z</time>
      </trkpt>
      <trkpt lat="42.85899" lon="0.62336">
        <ele>1031.6318359375</ele>
        <time>2011-06-14T07:27:36Z</time>
      </trkpt>
      <trkpt lat="42.85897" lon="0.62342">
        <ele>1031.6318359375</ele>
        <time>2011-06-14T07:27:40Z</time>
      </trkpt>
      <trkpt lat="42.85896" lon="0.62345">
        <ele>1035.4770507812</ele>
        <time>2011-06-14T07:27:43Z</time>
      </trkpt>
      <trkpt lat="42.85896" lon="0.62356">
        <ele>1034.9965820312</ele>
        <time>2011-06-14T07:27:49Z</time>
      </trkpt>
      <trkpt lat="42.85897" lon="0.6237">
        <ele>1035.4770507812</ele>
        <time>2011-06-14T07:27:57Z</time>
      </trkpt>
      <trkpt lat="42.85898" lon="0.62379">
        <ele>1035.4770507812</ele>
        <time>2011-06-14T07:28:02Z</time>
      </trkpt>
      <trkpt lat="42.85898" lon="0.62392">
        <ele>1036.9191894531</ele>
        <time>2011-06-14T07:28:10Z</time>
      </trkpt>
      <trkpt lat="42.85899" lon="0.62402">
        <ele>1038.8420410156</ele>
        <time>2011-06-14T07:28:16Z</time>
      </trkpt>
      <trkpt lat="42.85899" lon="0.62414">
        <ele>1040.2839355469</ele>
        <time>2011-06-14T07:28:23Z</time>
      </trkpt>
      <trkpt lat="42.85902" lon="0.62422">
        <ele>1041.2451171875</ele>
        <time>2011-06-14T07:28:28Z</time>
      </trkpt>
      <trkpt lat="42.85903" lon="0.62431">
        <ele>1043.1677246094</ele>
        <time>2011-06-14T07:28:34Z</time>
      </trkpt>
      <trkpt lat="42.85903" lon="0.62433">
        <ele>1044.1291503906</ele>
        <time>2011-06-14T07:28:36Z</time>
      </trkpt>
      <trkpt lat="42.85897" lon="0.62435">
        <ele>1046.5324707031</ele>
        <time>2011-06-14T07:28:43Z</time>
      </trkpt>
      <trkpt lat="42.85892" lon="0.62432">
        <ele>1046.5324707031</ele>
        <time>2011-06-14T07:28:49Z</time>
      </trkpt>
      <trkpt lat="42.85888" lon="0.62428">
        <ele>1048.4548339844</ele>
        <time>2011-06-14T07:28:55Z</time>
      </trkpt>
      <trkpt lat="42.85883" lon="0.62425">
        <ele>1051.3388671875</ele>
        <time>2011-06-14T07:29:01Z</time>
      </trkpt>
      <trkpt lat="42.85876" lon="0.62422">
        <ele>1053.7424316406</ele>
        <time>2011-06-14T07:29:08Z</time>
      </trkpt>
      <trkpt lat="42.85873" lon="0.62417">
        <ele>1057.5876464844</ele>
        <time>2011-06-14T07:29:14Z</time>
      </trkpt>
      <trkpt lat="42.85872" lon="0.62412">
        <ele>1059.5102539062</ele>
        <time>2011-06-14T07:29:17Z</time>
      </trkpt>
      <trkpt lat="42.85868" lon="0.62401">
        <ele>1062.8747558594</ele>
        <time>2011-06-14T07:29:25Z</time>
      </trkpt>
      <trkpt lat="42.85865" lon="0.62391">
        <ele>1065.7587890625</ele>
        <time>2011-06-14T07:29:32Z</time>
      </trkpt>
      <trkpt lat="42.85863" lon="0.62378">
        <ele>1068.162109375</ele>
        <time>2011-06-14T07:29:40Z</time>
      </trkpt>
      <trkpt lat="42.85863" lon="0.62365">
        <ele>1068.6428222656</ele>
        <time>2011-06-14T07:29:47Z</time>
      </trkpt>
      <trkpt lat="42.85859" lon="0.62354">
        <ele>1069.1235351562</ele>
        <time>2011-06-14T07:29:54Z</time>
      </trkpt>
      <trkpt lat="42.85852" lon="0.6235">
        <ele>1069.6042480469</ele>
        <time>2011-06-14T07:30:01Z</time>
      </trkpt>
      <trkpt lat="42.85845" lon="0.62355">
        <ele>1069.6042480469</ele>
        <time>2011-06-14T07:30:07Z</time>
      </trkpt>
      <trkpt lat="42.85841" lon="0.62362">
        <ele>1069.1235351562</ele>
        <time>2011-06-14T07:30:12Z</time>
      </trkpt>
      <trkpt lat="42.85835" lon="0.62368">
        <ele>1069.6042480469</ele>
        <time>2011-06-14T07:30:17Z</time>
      </trkpt>
      <trkpt lat="42.85828" lon="0.62378">
        <ele>1071.0461425781</ele>
        <time>2011-06-14T07:30:24Z</time>
      </trkpt>
      <trkpt lat="42.85822" lon="0.62387">
        <ele>1071.5266113281</ele>
        <time>2011-06-14T07:30:31Z</time>
      </trkpt>
      <trkpt lat="42.85818" lon="0.62394">
        <ele>1072.0073242188</ele>
        <time>2011-06-14T07:30:36Z</time>
      </trkpt>
      <trkpt lat="42.85813" lon="0.62402">
        <ele>1073.4494628906</ele>
        <time>2011-06-14T07:30:42Z</time>
      </trkpt>
      <trkpt lat="42.85807" lon="0.62414">
        <ele>1074.8913574219</ele>
        <time>2011-06-14T07:30:50Z</time>
      </trkpt>
      <trkpt lat="42.85805" lon="0.62421">
        <ele>1076.3332519531</ele>
        <time>2011-06-14T07:30:55Z</time>
      </trkpt>
      <trkpt lat="42.85803" lon="0.62427">
        <ele>1077.2946777344</ele>
        <time>2011-06-14T07:30:59Z</time>
      </trkpt>
      <trkpt lat="42.85805" lon="0.62439">
        <ele>1079.2170410156</ele>
        <time>2011-06-14T07:31:07Z</time>
      </trkpt>
      <trkpt lat="42.85809" lon="0.62441">
        <ele>1080.1784667969</ele>
        <time>2011-06-14T07:31:12Z</time>
      </trkpt>
      <trkpt lat="42.85816" lon="0.6244">
        <ele>1082.1010742188</ele>
        <time>2011-06-14T07:31:19Z</time>
      </trkpt>
      <trkpt lat="42.85822" lon="0.62439">
        <ele>1084.5046386719</ele>
        <time>2011-06-14T07:31:25Z</time>
      </trkpt>
      <trkpt lat="42.85829" lon="0.62439">
        <ele>1086.9077148438</ele>
        <time>2011-06-14T07:31:32Z</time>
      </trkpt>
      <trkpt lat="42.85838" lon="0.62443">
        <ele>1089.3110351562</ele>
        <time>2011-06-14T07:31:41Z</time>
      </trkpt>
      <trkpt lat="42.85841" lon="0.62446">
        <ele>1089.7917480469</ele>
        <time>2011-06-14T07:31:44Z</time>
      </trkpt>
      <trkpt lat="42.8584" lon="0.62453">
        <ele>1089.7917480469</ele>
        <time>2011-06-14T07:31:48Z</time>
      </trkpt>
      <trkpt lat="42.85835" lon="0.6246">
        <ele>1091.2336425781</ele>
        <time>2011-06-14T07:31:55Z</time>
      </trkpt>
      <trkpt lat="42.85831" lon="0.62462">
        <ele>1092.1950683594</ele>
        <time>2011-06-14T07:31:58Z</time>
      </trkpt>
      <trkpt lat="42.85828" lon="0.62474">
        <ele>1093.6369628906</ele>
        <time>2011-06-14T07:32:06Z</time>
      </trkpt>
      <trkpt lat="42.85829" lon="0.62483">
        <ele>1094.1176757812</ele>
        <time>2011-06-14T07:32:12Z</time>
      </trkpt>
      <trkpt lat="42.85828" lon="0.62494">
        <ele>1095.5595703125</ele>
        <time>2011-06-14T07:32:20Z</time>
      </trkpt>
      <trkpt lat="42.85827" lon="0.625">
        <ele>1096.5209960938</ele>
        <time>2011-06-14T07:32:25Z</time>
      </trkpt>
      <trkpt lat="42.85827" lon="0.62508">
        <ele>1097.0014648438</ele>
        <time>2011-06-14T07:32:30Z</time>
      </trkpt>
      <trkpt lat="42.85826" lon="0.62515">
        <ele>1097.962890625</ele>
        <time>2011-06-14T07:32:35Z</time>
      </trkpt>
      <trkpt lat="42.85826" lon="0.62518">
        <ele>1098.443359375</ele>
        <time>2011-06-14T07:32:37Z</time>
      </trkpt>
      <trkpt lat="42.85826" lon="0.62526">
        <ele>1099.8854980469</ele>
        <time>2011-06-14T07:32:43Z</time>
      </trkpt>
      <trkpt lat="42.85826" lon="0.62531">
        <ele>1100.8469238281</ele>
        <time>2011-06-14T07:32:47Z</time>
      </trkpt>
      <trkpt lat="42.85832" lon="0.62531">
        <ele>1101.8083496094</ele>
        <time>2011-06-14T07:32:52Z</time>
      </trkpt>
      <trkpt lat="42.85839" lon="0.62531">
        <ele>1103.7309570312</ele>
        <time>2011-06-14T07:32:58Z</time>
      </trkpt>
      <trkpt lat="42.85841" lon="0.6254">
        <ele>1104.6921386719</ele>
        <time>2011-06-14T07:33:04Z</time>
      </trkpt>
      <trkpt lat="42.85834" lon="0.62548">
        <ele>1106.1340332031</ele>
        <time>2011-06-14T07:33:12Z</time>
      </trkpt>
      <trkpt lat="42.85831" lon="0.62552">
        <ele>1106.6147460938</ele>
        <time>2011-06-14T07:33:16Z</time>
      </trkpt>
      <trkpt lat="42.85831" lon="0.62555">
        <ele>1106.6147460938</ele>
        <time>2011-06-14T07:33:18Z</time>
      </trkpt>
      <trkpt lat="42.85839" lon="0.62562">
        <ele>1108.5373535156</ele>
        <time>2011-06-14T07:33:26Z</time>
      </trkpt>
      <trkpt lat="42.85842" lon="0.62564">
        <ele>1108.5373535156</ele>
        <time>2011-06-14T07:33:29Z</time>
      </trkpt>
      <trkpt lat="42.85847" lon="0.62569">
        <ele>1110.4599609375</ele>
        <time>2011-06-14T07:33:35Z</time>
      </trkpt>
      <trkpt lat="42.85848" lon="0.62571">
        <ele>1110.4599609375</ele>
        <time>2011-06-14T07:33:36Z</time>
      </trkpt>
      <trkpt lat="42.85848" lon="0.62578">
        <ele>1111.9020996094</ele>
        <time>2011-06-14T07:33:42Z</time>
      </trkpt>
      <trkpt lat="42.85844" lon="0.62587">
        <ele>1113.3439941406</ele>
        <time>2011-06-14T07:33:49Z</time>
      </trkpt>
      <trkpt lat="42.85843" lon="0.62592">
        <ele>1113.8244628906</ele>
        <time>2011-06-14T07:33:52Z</time>
      </trkpt>
      <trkpt lat="42.85839" lon="0.62603">
        <ele>1114.7858886719</ele>
        <time>2011-06-14T07:34:00Z</time>
      </trkpt>
      <trkpt lat="42.85836" lon="0.62611">
        <ele>1115.7473144531</ele>
        <time>2011-06-14T07:34:06Z</time>
      </trkpt>
      <trkpt lat="42.85833" lon="0.62618">
        <ele>1119.5927734375</ele>
        <time>2011-06-14T07:34:12Z</time>
      </trkpt>
      <trkpt lat="42.85832" lon="0.62625">
        <ele>1120.5539550781</ele>
        <time>2011-06-14T07:34:17Z</time>
      </trkpt>
      <trkpt lat="42.85837" lon="0.6263">
        <ele>1122.4765625</ele>
        <time>2011-06-14T07:34:24Z</time>
      </trkpt>
      <trkpt lat="42.85838" lon="0.62631">
        <ele>1122.4765625</ele>
        <time>2011-06-14T07:34:25Z</time>
      </trkpt>
      <trkpt lat="42.85841" lon="0.62631">
        <ele>1123.4379882812</ele>
        <time>2011-06-14T07:34:28Z</time>
      </trkpt>
      <trkpt lat="42.85847" lon="0.6263">
        <ele>1125.3603515625</ele>
        <time>2011-06-14T07:34:34Z</time>
      </trkpt>
      <trkpt lat="42.85858" lon="0.62629">
        <ele>1127.763671875</ele>
        <time>2011-06-14T07:34:43Z</time>
      </trkpt>
      <trkpt lat="42.85863" lon="0.6263">
        <ele>1128.2443847656</ele>
        <time>2011-06-14T07:34:47Z</time>
      </trkpt>
      <trkpt lat="42.85865" lon="0.62632">
        <ele>1128.7250976562</ele>
        <time>2011-06-14T07:34:49Z</time>
      </trkpt>
      <trkpt lat="42.85871" lon="0.62642">
        <ele>1131.1284179688</ele>
        <time>2011-06-14T07:34:57Z</time>
      </trkpt>
      <trkpt lat="42.8587" lon="0.62652">
        <ele>1132.5705566406</ele>
        <time>2011-06-14T07:35:03Z</time>
      </trkpt>
      <trkpt lat="42.85868" lon="0.6266">
        <ele>1134.0124511719</ele>
        <time>2011-06-14T07:35:08Z</time>
      </trkpt>
      <trkpt lat="42.85865" lon="0.62671">
        <ele>1135.4543457031</ele>
        <time>2011-06-14T07:35:15Z</time>
      </trkpt>
      <trkpt lat="42.85862" lon="0.62677">
        <ele>1137.8576660156</ele>
        <time>2011-06-14T07:35:21Z</time>
      </trkpt>
      <trkpt lat="42.85861" lon="0.62683">
        <ele>1138.3383789062</ele>
        <time>2011-06-14T07:35:25Z</time>
      </trkpt>
      <trkpt lat="42.85861" lon="0.62686">
        <ele>1139.2995605469</ele>
        <time>2011-06-14T07:35:27Z</time>
      </trkpt>
      <trkpt lat="42.8586" lon="0.62695">
        <ele>1139.7802734375</ele>
        <time>2011-06-14T07:35:33Z</time>
      </trkpt>
      <trkpt lat="42.85857" lon="0.62705">
        <ele>1140.2609863281</ele>
        <time>2011-06-14T07:35:40Z</time>
      </trkpt>
      <trkpt lat="42.85853" lon="0.6271">
        <ele>1140.2609863281</ele>
        <time>2011-06-14T07:35:45Z</time>
      </trkpt>
      <trkpt lat="42.85852" lon="0.62711">
        <ele>1140.7414550781</ele>
        <time>2011-06-14T07:35:46Z</time>
      </trkpt>
      <trkpt lat="42.85844" lon="0.62717">
        <ele>1142.6643066406</ele>
        <time>2011-06-14T07:35:54Z</time>
      </trkpt>
      <trkpt lat="42.85837" lon="0.62721">
        <ele>1144.1062011719</ele>
        <time>2011-06-14T07:36:01Z</time>
      </trkpt>
      <trkpt lat="42.85836" lon="0.62721">
        <ele>1143.6254882812</ele>
        <time>2011-06-14T07:36:02Z</time>
      </trkpt>
      <trkpt lat="42.8583" lon="0.62722">
        <ele>1141.2221679688</ele>
        <time>2011-06-14T07:36:08Z</time>
      </trkpt>
      <trkpt lat="42.85828" lon="0.62722">
        <ele>1141.2221679688</ele>
        <time>2011-06-14T07:36:10Z</time>
      </trkpt>
      <trkpt lat="42.8582" lon="0.62719">
        <ele>1139.7802734375</ele>
        <time>2011-06-14T07:36:17Z</time>
      </trkpt>
      <trkpt lat="42.85812" lon="0.62715">
        <ele>1144.5866699219</ele>
        <time>2011-06-14T07:36:25Z</time>
      </trkpt>
      <trkpt lat="42.85804" lon="0.62715">
        <ele>1146.9899902344</ele>
        <time>2011-06-14T07:36:32Z</time>
      </trkpt>
      <trkpt lat="42.85796" lon="0.62716">
        <ele>1150.3549804688</ele>
        <time>2011-06-14T07:36:40Z</time>
      </trkpt>
      <trkpt lat="42.85791" lon="0.62719">
        <ele>1153.7194824219</ele>
        <time>2011-06-14T07:36:46Z</time>
      </trkpt>
      <trkpt lat="42.85786" lon="0.62726">
        <ele>1157.083984375</ele>
        <time>2011-06-14T07:36:53Z</time>
      </trkpt>
      <trkpt lat="42.85787" lon="0.62734">
        <ele>1157.5646972656</ele>
        <time>2011-06-14T07:37:01Z</time>
      </trkpt>
      <trkpt lat="42.8579" lon="0.62739">
        <ele>1159.4873046875</ele>
        <time>2011-06-14T07:37:06Z</time>
      </trkpt>
      <trkpt lat="42.85794" lon="0.62748">
        <ele>1160.9291992188</ele>
        <time>2011-06-14T07:37:13Z</time>
      </trkpt>
      <trkpt lat="42.85794" lon="0.62749">
        <ele>1160.9291992188</ele>
        <time>2011-06-14T07:37:14Z</time>
      </trkpt>
      <trkpt lat="42.85796" lon="0.62761">
        <ele>1162.8518066406</ele>
        <time>2011-06-14T07:37:23Z</time>
      </trkpt>
      <trkpt lat="42.85797" lon="0.62765">
        <ele>1163.3325195312</ele>
        <time>2011-06-14T07:37:26Z</time>
      </trkpt>
      <trkpt lat="42.85796" lon="0.62775">
        <ele>1164.7746582031</ele>
        <time>2011-06-14T07:37:34Z</time>
      </trkpt>
      <trkpt lat="42.85793" lon="0.62781">
        <ele>1167.6584472656</ele>
        <time>2011-06-14T07:37:40Z</time>
      </trkpt>
      <trkpt lat="42.85791" lon="0.62786">
        <ele>1168.1391601562</ele>
        <time>2011-06-14T07:37:44Z</time>
      </trkpt>
      <trkpt lat="42.85788" lon="0.62788">
        <ele>1168.1391601562</ele>
        <time>2011-06-14T07:37:47Z</time>
      </trkpt>
      <trkpt lat="42.8578" lon="0.62791">
        <ele>1168.6198730469</ele>
        <time>2011-06-14T07:37:54Z</time>
      </trkpt>
      <trkpt lat="42.85775" lon="0.62793">
        <ele>1169.1005859375</ele>
        <time>2011-06-14T07:37:59Z</time>
      </trkpt>
      <trkpt lat="42.85768" lon="0.6279">
        <ele>1170.0617675781</ele>
        <time>2011-06-14T07:38:06Z</time>
      </trkpt>
      <trkpt lat="42.85764" lon="0.62788">
        <ele>1170.5424804688</ele>
        <time>2011-06-14T07:38:10Z</time>
      </trkpt>
      <trkpt lat="42.85758" lon="0.62787">
        <ele>1171.984375</ele>
        <time>2011-06-14T07:38:16Z</time>
      </trkpt>
      <trkpt lat="42.85756" lon="0.62792">
        <ele>1174.3876953125</ele>
        <time>2011-06-14T07:38:22Z</time>
      </trkpt>
      <trkpt lat="42.85758" lon="0.62798">
        <ele>1175.3488769531</ele>
        <time>2011-06-14T07:38:27Z</time>
      </trkpt>
      <trkpt lat="42.85762" lon="0.62804">
        <ele>1176.791015625</ele>
        <time>2011-06-14T07:38:32Z</time>
      </trkpt>
      <trkpt lat="42.85765" lon="0.62814">
        <ele>1179.6748046875</ele>
        <time>2011-06-14T07:38:39Z</time>
      </trkpt>
      <trkpt lat="42.8577" lon="0.62825">
        <ele>1183.5202636719</ele>
        <time>2011-06-14T07:38:46Z</time>
      </trkpt>
      <trkpt lat="42.8577" lon="0.62835">
        <ele>1183.0395507812</ele>
        <time>2011-06-14T07:38:52Z</time>
      </trkpt>
      <trkpt lat="42.8577" lon="0.62843">
        <ele>1184.9624023438</ele>
        <time>2011-06-14T07:38:57Z</time>
      </trkpt>
      <trkpt lat="42.85772" lon="0.6285">
        <ele>1186.404296875</ele>
        <time>2011-06-14T07:39:02Z</time>
      </trkpt>
      <trkpt lat="42.85773" lon="0.62859">
        <ele>1188.3269042969</ele>
        <time>2011-06-14T07:39:08Z</time>
      </trkpt>
      <trkpt lat="42.85773" lon="0.62863">
        <ele>1188.8076171875</ele>
        <time>2011-06-14T07:39:11Z</time>
      </trkpt>
      <trkpt lat="42.85769" lon="0.6287">
        <ele>1189.7687988281</ele>
        <time>2011-06-14T07:39:16Z</time>
      </trkpt>
      <trkpt lat="42.85761" lon="0.62869">
        <ele>1189.2880859375</ele>
        <time>2011-06-14T07:39:24Z</time>
      </trkpt>
      <trkpt lat="42.85755" lon="0.62866">
        <ele>1189.2880859375</ele>
        <time>2011-06-14T07:39:29Z</time>
      </trkpt>
      <trkpt lat="42.85746" lon="0.62865">
        <ele>1190.2495117188</ele>
        <time>2011-06-14T07:39:37Z</time>
      </trkpt>
      <trkpt lat="42.85742" lon="0.62868">
        <ele>1191.69140625</ele>
        <time>2011-06-14T07:39:43Z</time>
      </trkpt>
      <trkpt lat="42.85736" lon="0.62873">
        <ele>1191.69140625</ele>
        <time>2011-06-14T07:42:47Z</time>
      </trkpt>
      <trkpt lat="42.85739" lon="0.62877">
        <ele>1190.2495117188</ele>
        <time>2011-06-14T07:42:51Z</time>
      </trkpt>
      <trkpt lat="42.85742" lon="0.62882">
        <ele>1189.7687988281</ele>
        <time>2011-06-14T07:42:57Z</time>
      </trkpt>
      <trkpt lat="42.85743" lon="0.62891">
        <ele>1191.69140625</ele>
        <time>2011-06-14T07:43:04Z</time>
      </trkpt>
      <trkpt lat="42.85744" lon="0.62898">
        <ele>1195.0559082031</ele>
        <time>2011-06-14T07:43:09Z</time>
      </trkpt>
      <trkpt lat="42.85745" lon="0.62909">
        <ele>1198.4206542969</ele>
        <time>2011-06-14T07:43:17Z</time>
      </trkpt>
      <trkpt lat="42.85745" lon="0.62918">
        <ele>1199.3820800781</ele>
        <time>2011-06-14T07:43:23Z</time>
      </trkpt>
      <trkpt lat="42.85745" lon="0.62925">
        <ele>1201.3046875</ele>
        <time>2011-06-14T07:43:28Z</time>
      </trkpt>
      <trkpt lat="42.85745" lon="0.62932">
        <ele>1202.2658691406</ele>
        <time>2011-06-14T07:43:32Z</time>
      </trkpt>
      <trkpt lat="42.85747" lon="0.62943">
        <ele>1208.0339355469</ele>
        <time>2011-06-14T07:43:39Z</time>
      </trkpt>
      <trkpt lat="42.85746" lon="0.6295">
        <ele>1210.4370117188</ele>
        <time>2011-06-14T07:43:44Z</time>
      </trkpt>
      <trkpt lat="42.85745" lon="0.62954">
        <ele>1211.3984375</ele>
        <time>2011-06-14T07:43:47Z</time>
      </trkpt>
      <trkpt lat="42.85744" lon="0.62964">
        <ele>1211.3984375</ele>
        <time>2011-06-14T07:43:54Z</time>
      </trkpt>
      <trkpt lat="42.85743" lon="0.62975">
        <ele>1211.3984375</ele>
        <time>2011-06-14T07:44:01Z</time>
      </trkpt>
      <trkpt lat="42.85742" lon="0.62983">
        <ele>1211.8791503906</ele>
        <time>2011-06-14T07:44:06Z</time>
      </trkpt>
      <trkpt lat="42.85742" lon="0.62985">
        <ele>1212.8405761719</ele>
        <time>2011-06-14T07:44:07Z</time>
      </trkpt>
      <trkpt lat="42.85741" lon="0.62995">
        <ele>1213.8017578125</ele>
        <time>2011-06-14T07:44:14Z</time>
      </trkpt>
      <trkpt lat="42.85742" lon="0.62999">
        <ele>1214.2824707031</ele>
        <time>2011-06-14T07:44:17Z</time>
      </trkpt>
      <trkpt lat="42.85742" lon="0.63">
        <ele>1212.8405761719</ele>
        <time>2011-06-14T07:44:26Z</time>
      </trkpt>
      <trkpt lat="42.85741" lon="0.63001">
        <ele>1212.8405761719</ele>
        <time>2011-06-14T07:44:41Z</time>
      </trkpt>
      <trkpt lat="42.8574" lon="0.63008">
        <ele>1212.3598632812</ele>
        <time>2011-06-14T07:44:56Z</time>
      </trkpt>
      <trkpt lat="42.85738" lon="0.63014">
        <ele>1212.8405761719</ele>
        <time>2011-06-14T07:45:01Z</time>
      </trkpt>
      <trkpt lat="42.85737" lon="0.63022">
        <ele>1214.7631835938</ele>
        <time>2011-06-14T07:45:07Z</time>
      </trkpt>
      <trkpt lat="42.85738" lon="0.63028">
        <ele>1219.5698242188</ele>
        <time>2011-06-14T07:45:12Z</time>
      </trkpt>
      <trkpt lat="42.85737" lon="0.63038">
        <ele>1220.0502929688</ele>
        <time>2011-06-14T07:45:18Z</time>
      </trkpt>
      <trkpt lat="42.85736" lon="0.63041">
        <ele>1221.01171875</ele>
        <time>2011-06-14T07:45:21Z</time>
      </trkpt>
      <trkpt lat="42.85735" lon="0.63049">
        <ele>1222.9343261719</ele>
        <time>2011-06-14T07:45:27Z</time>
      </trkpt>
      <trkpt lat="42.85735" lon="0.63059">
        <ele>1223.4150390625</ele>
        <time>2011-06-14T07:45:34Z</time>
      </trkpt>
      <trkpt lat="42.85735" lon="0.63066">
        <ele>1225.8181152344</ele>
        <time>2011-06-14T07:45:40Z</time>
      </trkpt>
      <trkpt lat="42.85734" lon="0.63072">
        <ele>1226.298828125</ele>
        <time>2011-06-14T07:45:45Z</time>
      </trkpt>
      <trkpt lat="42.85733" lon="0.6308">
        <ele>1227.2602539062</ele>
        <time>2011-06-14T07:45:51Z</time>
      </trkpt>
      <trkpt lat="42.8573" lon="0.63084">
        <ele>1229.1828613281</ele>
        <time>2011-06-14T07:45:56Z</time>
      </trkpt>
      <trkpt lat="42.85724" lon="0.63087">
        <ele>1231.1057128906</ele>
        <time>2011-06-14T07:46:03Z</time>
      </trkpt>
      <trkpt lat="42.85718" lon="0.63092">
        <ele>1233.0280761719</ele>
        <time>2011-06-14T07:46:11Z</time>
      </trkpt>
      <trkpt lat="42.85716" lon="0.63098">
        <ele>1233.5087890625</ele>
        <time>2011-06-14T07:46:17Z</time>
      </trkpt>
      <trkpt lat="42.85715" lon="0.63105">
        <ele>1235.912109375</ele>
        <time>2011-06-14T07:46:23Z</time>
      </trkpt>
      <trkpt lat="42.85714" lon="0.63111">
        <ele>1237.3540039062</ele>
        <time>2011-06-14T07:46:29Z</time>
      </trkpt>
      <trkpt lat="42.85715" lon="0.63117">
        <ele>1237.3540039062</ele>
        <time>2011-06-14T07:46:34Z</time>
      </trkpt>
      <trkpt lat="42.85717" lon="0.63124">
        <ele>1238.3154296875</ele>
        <time>2011-06-14T07:46:40Z</time>
      </trkpt>
      <trkpt lat="42.85717" lon="0.6313">
        <ele>1240.2380371094</ele>
        <time>2011-06-14T07:46:45Z</time>
      </trkpt>
      <trkpt lat="42.85717" lon="0.63135">
        <ele>1240.2380371094</ele>
        <time>2011-06-14T07:46:49Z</time>
      </trkpt>
      <trkpt lat="42.85718" lon="0.63141">
        <ele>1241.19921875</ele>
        <time>2011-06-14T07:46:55Z</time>
      </trkpt>
      <trkpt lat="42.85717" lon="0.63148">
        <ele>1242.1606445312</ele>
        <time>2011-06-14T07:47:00Z</time>
      </trkpt>
      <trkpt lat="42.85715" lon="0.63154">
        <ele>1242.1606445312</ele>
        <time>2011-06-14T07:47:05Z</time>
      </trkpt>
      <trkpt lat="42.85715" lon="0.63158">
        <ele>1242.6413574219</ele>
        <time>2011-06-14T07:47:08Z</time>
      </trkpt>
      <trkpt lat="42.85712" lon="0.63165">
        <ele>1246.0061035156</ele>
        <time>2011-06-14T07:47:14Z</time>
      </trkpt>
      <trkpt lat="42.85708" lon="0.63171">
        <ele>1246.9672851562</ele>
        <time>2011-06-14T07:47:20Z</time>
      </trkpt>
      <trkpt lat="42.85704" lon="0.63176">
        <ele>1249.3706054688</ele>
        <time>2011-06-14T07:47:26Z</time>
      </trkpt>
      <trkpt lat="42.85699" lon="0.63181">
        <ele>1251.7739257812</ele>
        <time>2011-06-14T07:47:32Z</time>
      </trkpt>
      <trkpt lat="42.85696" lon="0.63186">
        <ele>1253.2158203125</ele>
        <time>2011-06-14T07:47:38Z</time>
      </trkpt>
      <trkpt lat="42.85691" lon="0.63188">
        <ele>1254.1772460938</ele>
        <time>2011-06-14T07:47:43Z</time>
      </trkpt>
      <trkpt lat="42.85689" lon="0.63189">
        <ele>1254.1772460938</ele>
        <time>2011-06-14T07:47:45Z</time>
      </trkpt>
      <trkpt lat="42.85684" lon="0.6319">
        <ele>1255.1384277344</ele>
        <time>2011-06-14T07:47:49Z</time>
      </trkpt>
      <trkpt lat="42.85677" lon="0.6319">
        <ele>1257.0610351562</ele>
        <time>2011-06-14T07:47:55Z</time>
      </trkpt>
      <trkpt lat="42.85669" lon="0.63192">
        <ele>1257.5417480469</ele>
        <time>2011-06-14T07:48:02Z</time>
      </trkpt>
      <trkpt lat="42.85668" lon="0.63192">
        <ele>1258.0224609375</ele>
        <time>2011-06-14T07:48:07Z</time>
      </trkpt>
      <trkpt lat="42.8566" lon="0.63197">
        <ele>1259.9448242188</ele>
        <time>2011-06-14T07:48:14Z</time>
      </trkpt>
      <trkpt lat="42.85653" lon="0.63203">
        <ele>1261.3872070312</ele>
        <time>2011-06-14T07:48:21Z</time>
      </trkpt>
      <trkpt lat="42.85647" lon="0.6321">
        <ele>1262.8291015625</ele>
        <time>2011-06-14T07:48:28Z</time>
      </trkpt>
      <trkpt lat="42.85641" lon="0.63216">
        <ele>1264.7517089844</ele>
        <time>2011-06-14T07:48:34Z</time>
      </trkpt>
      <trkpt lat="42.85634" lon="0.63226">
        <ele>1266.1936035156</ele>
        <time>2011-06-14T07:48:42Z</time>
      </trkpt>
      <trkpt lat="42.85628" lon="0.63232">
        <ele>1267.1550292969</ele>
        <time>2011-06-14T07:48:49Z</time>
      </trkpt>
      <trkpt lat="42.85622" lon="0.63242">
        <ele>1268.1162109375</ele>
        <time>2011-06-14T07:48:57Z</time>
      </trkpt>
      <trkpt lat="42.85618" lon="0.63247">
        <ele>1268.5969238281</ele>
        <time>2011-06-14T07:49:01Z</time>
      </trkpt>
      <trkpt lat="42.85612" lon="0.63256">
        <ele>1269.5583496094</ele>
        <time>2011-06-14T07:49:08Z</time>
      </trkpt>
      <trkpt lat="42.85604" lon="0.63265">
        <ele>1271.0002441406</ele>
        <time>2011-06-14T07:49:16Z</time>
      </trkpt>
      <trkpt lat="42.85599" lon="0.63271">
        <ele>1271.4807128906</ele>
        <time>2011-06-14T07:49:22Z</time>
      </trkpt>
      <trkpt lat="42.85595" lon="0.63279">
        <ele>1271.9614257812</ele>
        <time>2011-06-14T07:49:28Z</time>
      </trkpt>
      <trkpt lat="42.85592" lon="0.63291">
        <ele>1274.3647460938</ele>
        <time>2011-06-14T07:49:36Z</time>
      </trkpt>
      <trkpt lat="42.85592" lon="0.63299">
        <ele>1276.2875976562</ele>
        <time>2011-06-14T07:49:41Z</time>
      </trkpt>
      <trkpt lat="42.85593" lon="0.63308">
        <ele>1278.2102050781</ele>
        <time>2011-06-14T07:49:47Z</time>
      </trkpt>
      <trkpt lat="42.85595" lon="0.63318">
        <ele>1280.6135253906</ele>
        <time>2011-06-14T07:49:54Z</time>
      </trkpt>
      <trkpt lat="42.85597" lon="0.63325">
        <ele>1281.5747070312</ele>
        <time>2011-06-14T07:49:59Z</time>
      </trkpt>
      <trkpt lat="42.85599" lon="0.6333">
        <ele>1282.0554199219</ele>
        <time>2011-06-14T07:50:03Z</time>
      </trkpt>
      <trkpt lat="42.85602" lon="0.63337">
        <ele>1283.4973144531</ele>
        <time>2011-06-14T07:50:09Z</time>
      </trkpt>
      <trkpt lat="42.85604" lon="0.6334">
        <ele>1283.9780273438</ele>
        <time>2011-06-14T07:50:11Z</time>
      </trkpt>
      <trkpt lat="42.85609" lon="0.6335">
        <ele>1284.4587402344</ele>
        <time>2011-06-14T07:50:19Z</time>
      </trkpt>
      <trkpt lat="42.85613" lon="0.63356">
        <ele>1285.9006347656</ele>
        <time>2011-06-14T07:50:24Z</time>
      </trkpt>
      <trkpt lat="42.8562" lon="0.63363">
        <ele>1286.3813476562</ele>
        <time>2011-06-14T07:50:31Z</time>
      </trkpt>
      <trkpt lat="42.85626" lon="0.63368">
        <ele>1288.3039550781</ele>
        <time>2011-06-14T07:50:37Z</time>
      </trkpt>
      <trkpt lat="42.85633" lon="0.63373">
        <ele>1290.2265625</ele>
        <time>2011-06-14T07:50:43Z</time>
      </trkpt>
      <trkpt lat="42.85641" lon="0.63378">
        <ele>1292.6301269531</ele>
        <time>2011-06-14T07:50:50Z</time>
      </trkpt>
      <trkpt lat="42.85647" lon="0.63382">
        <ele>1293.5913085938</ele>
        <time>2011-06-14T07:50:56Z</time>
      </trkpt>
      <trkpt lat="42.85654" lon="0.63385">
        <ele>1295.033203125</ele>
        <time>2011-06-14T07:51:02Z</time>
      </trkpt>
      <trkpt lat="42.85662" lon="0.63389">
        <ele>1296.4753417969</ele>
        <time>2011-06-14T07:51:09Z</time>
      </trkpt>
      <trkpt lat="42.85672" lon="0.63394">
        <ele>1296.9558105469</ele>
        <time>2011-06-14T07:51:17Z</time>
      </trkpt>
      <trkpt lat="42.85681" lon="0.63399">
        <ele>1297.4365234375</ele>
        <time>2011-06-14T07:51:25Z</time>
      </trkpt>
      <trkpt lat="42.8569" lon="0.63403">
        <ele>1298.3977050781</ele>
        <time>2011-06-14T07:51:33Z</time>
      </trkpt>
      <trkpt lat="42.85698" lon="0.63404">
        <ele>1299.3591308594</ele>
        <time>2011-06-14T07:51:40Z</time>
      </trkpt>
      <trkpt lat="42.85706" lon="0.63404">
        <ele>1300.3205566406</ele>
        <time>2011-06-14T07:51:47Z</time>
      </trkpt>
      <trkpt lat="42.85714" lon="0.63407">
        <ele>1301.2817382812</ele>
        <time>2011-06-14T07:51:54Z</time>
      </trkpt>
      <trkpt lat="42.85724" lon="0.63411">
        <ele>1302.7236328125</ele>
        <time>2011-06-14T07:52:02Z</time>
      </trkpt>
      <trkpt lat="42.8573" lon="0.63415">
        <ele>1303.6850585938</ele>
        <time>2011-06-14T07:52:08Z</time>
      </trkpt>
      <trkpt lat="42.85736" lon="0.6342">
        <ele>1305.6076660156</ele>
        <time>2011-06-14T07:52:14Z</time>
      </trkpt>
      <trkpt lat="42.85742" lon="0.63426">
        <ele>1306.0881347656</ele>
        <time>2011-06-14T07:52:20Z</time>
      </trkpt>
      <trkpt lat="42.85751" lon="0.63433">
        <ele>1307.5302734375</ele>
        <time>2011-06-14T07:52:28Z</time>
      </trkpt>
      <trkpt lat="42.85757" lon="0.63442">
        <ele>1307.5302734375</ele>
        <time>2011-06-14T07:52:35Z</time>
      </trkpt>
      <trkpt lat="42.85765" lon="0.63448">
        <ele>1311.8564453125</ele>
        <time>2011-06-14T07:52:42Z</time>
      </trkpt>
      <trkpt lat="42.85767" lon="0.63449">
        <ele>1312.8176269531</ele>
        <time>2011-06-14T07:52:43Z</time>
      </trkpt>
      <trkpt lat="42.85767" lon="0.6345">
        <ele>1314.740234375</ele>
        <time>2011-06-14T07:52:46Z</time>
      </trkpt>
      <trkpt lat="42.85771" lon="0.63446">
        <ele>1326.7568359375</ele>
        <time>2011-06-14T07:53:20Z</time>
      </trkpt>
      <trkpt lat="42.8577" lon="0.63445">
        <ele>1326.2761230469</ele>
        <time>2011-06-14T07:53:21Z</time>
      </trkpt>
      <trkpt lat="42.85766" lon="0.63443">
        <ele>1324.8342285156</ele>
        <time>2011-06-14T07:53:23Z</time>
      </trkpt>
      <trkpt lat="42.85753" lon="0.63439">
        <ele>1319.546875</ele>
        <time>2011-06-14T07:53:33Z</time>
      </trkpt>
      <trkpt lat="42.85752" lon="0.6344">
        <ele>1318.5854492188</ele>
        <time>2011-06-14T07:53:34Z</time>
      </trkpt>
      <trkpt lat="42.85745" lon="0.63443">
        <ele>1315.2209472656</ele>
        <time>2011-06-14T07:53:41Z</time>
      </trkpt>
      <trkpt lat="42.85738" lon="0.63447">
        <ele>1315.2209472656</ele>
        <time>2011-06-14T07:53:48Z</time>
      </trkpt>
      <trkpt lat="42.85731" lon="0.6345">
        <ele>1315.2209472656</ele>
        <time>2011-06-14T07:53:54Z</time>
      </trkpt>
      <trkpt lat="42.85723" lon="0.63455">
        <ele>1317.1435546875</ele>
        <time>2011-06-14T07:54:02Z</time>
      </trkpt>
      <trkpt lat="42.85713" lon="0.63461">
        <ele>1318.5854492188</ele>
        <time>2011-06-14T07:54:10Z</time>
      </trkpt>
      <trkpt lat="42.85706" lon="0.63466">
        <ele>1319.546875</ele>
        <time>2011-06-14T07:54:16Z</time>
      </trkpt>
      <trkpt lat="42.85698" lon="0.63471">
        <ele>1321.4692382812</ele>
        <time>2011-06-14T07:54:24Z</time>
      </trkpt>
      <trkpt lat="42.8569" lon="0.63475">
        <ele>1322.4306640625</ele>
        <time>2011-06-14T07:54:32Z</time>
      </trkpt>
      <trkpt lat="42.85686" lon="0.63477">
        <ele>1322.9113769531</ele>
        <time>2011-06-14T07:54:38Z</time>
      </trkpt>
      <trkpt lat="42.85682" lon="0.63479">
        <ele>1323.8725585938</ele>
        <time>2011-06-14T07:54:42Z</time>
      </trkpt>
      <trkpt lat="42.85672" lon="0.63486">
        <ele>1325.3146972656</ele>
        <time>2011-06-14T07:54:52Z</time>
      </trkpt>
      <trkpt lat="42.85661" lon="0.63494">
        <ele>1327.2375488281</ele>
        <time>2011-06-14T07:55:02Z</time>
      </trkpt>
      <trkpt lat="42.85653" lon="0.635">
        <ele>1328.6794433594</ele>
        <time>2011-06-14T07:55:10Z</time>
      </trkpt>
      <trkpt lat="42.85647" lon="0.63505">
        <ele>1329.640625</ele>
        <time>2011-06-14T07:55:16Z</time>
      </trkpt>
      <trkpt lat="42.85639" lon="0.6351">
        <ele>1331.0827636719</ele>
        <time>2011-06-14T07:55:23Z</time>
      </trkpt>
      <trkpt lat="42.85632" lon="0.63516">
        <ele>1332.5246582031</ele>
        <time>2011-06-14T07:55:29Z</time>
      </trkpt>
      <trkpt lat="42.8562" lon="0.63524">
        <ele>1333.9665527344</ele>
        <time>2011-06-14T07:55:39Z</time>
      </trkpt>
      <trkpt lat="42.85613" lon="0.63528">
        <ele>1334.447265625</ele>
        <time>2011-06-14T07:55:45Z</time>
      </trkpt>
      <trkpt lat="42.85607" lon="0.63533">
        <ele>1335.4084472656</ele>
        <time>2011-06-14T07:55:51Z</time>
      </trkpt>
      <trkpt lat="42.85598" lon="0.63539">
        <ele>1337.3310546875</ele>
        <time>2011-06-14T07:56:00Z</time>
      </trkpt>
      <trkpt lat="42.8559" lon="0.63543">
        <ele>1338.2924804688</ele>
        <time>2011-06-14T07:56:07Z</time>
      </trkpt>
      <trkpt lat="42.8558" lon="0.63549">
        <ele>1339.734375</ele>
        <time>2011-06-14T07:56:15Z</time>
      </trkpt>
      <trkpt lat="42.85572" lon="0.63554">
        <ele>1341.1765136719</ele>
        <time>2011-06-14T07:56:22Z</time>
      </trkpt>
      <trkpt lat="42.85565" lon="0.63558">
        <ele>1342.6186523438</ele>
        <time>2011-06-14T07:56:28Z</time>
      </trkpt>
      <trkpt lat="42.85558" lon="0.63563">
        <ele>1344.060546875</ele>
        <time>2011-06-14T07:56:34Z</time>
      </trkpt>
      <trkpt lat="42.85551" lon="0.63566">
        <ele>1345.5024414062</ele>
        <time>2011-06-14T07:56:40Z</time>
      </trkpt>
      <trkpt lat="42.85545" lon="0.63569">
        <ele>1346.4638671875</ele>
        <time>2011-06-14T07:56:45Z</time>
      </trkpt>
      <trkpt lat="42.85535" lon="0.63578">
        <ele>1348.3862304688</ele>
        <time>2011-06-14T07:56:54Z</time>
      </trkpt>
      <trkpt lat="42.85529" lon="0.63584">
        <ele>1349.34765625</ele>
        <time>2011-06-14T07:57:00Z</time>
      </trkpt>
      <trkpt lat="42.85523" lon="0.6359">
        <ele>1349.8283691406</ele>
        <time>2011-06-14T07:57:06Z</time>
      </trkpt>
      <trkpt lat="42.85518" lon="0.63598">
        <ele>1351.2702636719</ele>
        <time>2011-06-14T07:57:12Z</time>
      </trkpt>
      <trkpt lat="42.85513" lon="0.63602">
        <ele>1351.7509765625</ele>
        <time>2011-06-14T07:57:16Z</time>
      </trkpt>
      <trkpt lat="42.85506" lon="0.63611">
        <ele>1353.1928710938</ele>
        <time>2011-06-14T07:57:24Z</time>
      </trkpt>
      <trkpt lat="42.85501" lon="0.63617">
        <ele>1354.154296875</ele>
        <time>2011-06-14T07:57:29Z</time>
      </trkpt>
      <trkpt lat="42.85492" lon="0.63629">
        <ele>1356.5576171875</ele>
        <time>2011-06-14T07:57:38Z</time>
      </trkpt>
      <trkpt lat="42.85486" lon="0.63635">
        <ele>1357.9997558594</ele>
        <time>2011-06-14T07:57:44Z</time>
      </trkpt>
      <trkpt lat="42.85481" lon="0.63641">
        <ele>1358.9609375</ele>
        <time>2011-06-14T07:57:49Z</time>
      </trkpt>
      <trkpt lat="42.85479" lon="0.63651">
        <ele>1359.9221191406</ele>
        <time>2011-06-14T07:57:55Z</time>
      </trkpt>
      <trkpt lat="42.85476" lon="0.63663">
        <ele>1360.8835449219</ele>
        <time>2011-06-14T07:58:02Z</time>
      </trkpt>
      <trkpt lat="42.85474" lon="0.63672">
        <ele>1362.3254394531</ele>
        <time>2011-06-14T07:58:07Z</time>
      </trkpt>
      <trkpt lat="42.85473" lon="0.63681">
        <ele>1363.2868652344</ele>
        <time>2011-06-14T07:58:12Z</time>
      </trkpt>
      <trkpt lat="42.85472" lon="0.63693">
        <ele>1364.7287597656</ele>
        <time>2011-06-14T07:58:19Z</time>
      </trkpt>
      <trkpt lat="42.85472" lon="0.63703">
        <ele>1367.1320800781</ele>
        <time>2011-06-14T07:58:25Z</time>
      </trkpt>
      <trkpt lat="42.8547" lon="0.63713">
        <ele>1367.6125488281</ele>
        <time>2011-06-14T07:58:31Z</time>
      </trkpt>
      <trkpt lat="42.85469" lon="0.63722">
        <ele>1369.0546875</ele>
        <time>2011-06-14T07:58:36Z</time>
      </trkpt>
      <trkpt lat="42.85468" lon="0.63723">
        <ele>1369.0546875</ele>
        <time>2011-06-14T07:58:37Z</time>
      </trkpt>
      <trkpt lat="42.85465" lon="0.63738">
        <ele>1369.5354003906</ele>
        <time>2011-06-14T07:58:46Z</time>
      </trkpt>
      <trkpt lat="42.85464" lon="0.63745">
        <ele>1370.0158691406</ele>
        <time>2011-06-14T07:58:50Z</time>
      </trkpt>
      <trkpt lat="42.85461" lon="0.63754">
        <ele>1370.9772949219</ele>
        <time>2011-06-14T07:58:55Z</time>
      </trkpt>
      <trkpt lat="42.85458" lon="0.63768">
        <ele>1371.4577636719</ele>
        <time>2011-06-14T07:59:03Z</time>
      </trkpt>
      <trkpt lat="42.85456" lon="0.63779">
        <ele>1372.9001464844</ele>
        <time>2011-06-14T07:59:09Z</time>
      </trkpt>
      <trkpt lat="42.85455" lon="0.63788">
        <ele>1374.3420410156</ele>
        <time>2011-06-14T07:59:14Z</time>
      </trkpt>
      <trkpt lat="42.85453" lon="0.63798">
        <ele>1374.8227539062</ele>
        <time>2011-06-14T07:59:20Z</time>
      </trkpt>
      <trkpt lat="42.85451" lon="0.63804">
        <ele>1375.3032226562</ele>
        <time>2011-06-14T07:59:24Z</time>
      </trkpt>
      <trkpt lat="42.85447" lon="0.63814">
        <ele>1376.2646484375</ele>
        <time>2011-06-14T07:59:30Z</time>
      </trkpt>
      <trkpt lat="42.85444" lon="0.63823">
        <ele>1377.2260742188</ele>
        <time>2011-06-14T07:59:36Z</time>
      </trkpt>
      <trkpt lat="42.85448" lon="0.63827">
        <ele>1379.6291503906</ele>
        <time>2011-06-14T07:59:42Z</time>
      </trkpt>
      <trkpt lat="42.85455" lon="0.63826">
        <ele>1381.0712890625</ele>
        <time>2011-06-14T07:59:48Z</time>
      </trkpt>
      <trkpt lat="42.85461" lon="0.63824">
        <ele>1382.0324707031</ele>
        <time>2011-06-14T07:59:53Z</time>
      </trkpt>
      <trkpt lat="42.85464" lon="0.63823">
        <ele>1382.5131835938</ele>
        <time>2011-06-14T07:59:56Z</time>
      </trkpt>
      <trkpt lat="42.85472" lon="0.63822">
        <ele>1383.955078125</ele>
        <time>2011-06-14T08:00:03Z</time>
      </trkpt>
      <trkpt lat="42.85478" lon="0.63821">
        <ele>1385.3969726562</ele>
        <time>2011-06-14T08:00:08Z</time>
      </trkpt>
      <trkpt lat="42.85484" lon="0.6382">
        <ele>1386.8388671875</ele>
        <time>2011-06-14T08:00:13Z</time>
      </trkpt>
      <trkpt lat="42.85491" lon="0.63822">
        <ele>1388.28125</ele>
        <time>2011-06-14T08:00:19Z</time>
      </trkpt>
      <trkpt lat="42.85498" lon="0.63822">
        <ele>1390.2038574219</ele>
        <time>2011-06-14T08:00:25Z</time>
      </trkpt>
      <trkpt lat="42.85505" lon="0.63823">
        <ele>1391.6457519531</ele>
        <time>2011-06-14T08:00:31Z</time>
      </trkpt>
      <trkpt lat="42.85513" lon="0.63826">
        <ele>1393.0876464844</ele>
        <time>2011-06-14T08:00:38Z</time>
      </trkpt>
      <trkpt lat="42.85522" lon="0.6383">
        <ele>1395.0102539062</ele>
        <time>2011-06-14T08:00:46Z</time>
      </trkpt>
      <trkpt lat="42.85529" lon="0.63833">
        <ele>1396.9328613281</ele>
        <time>2011-06-14T08:00:52Z</time>
      </trkpt>
      <trkpt lat="42.85535" lon="0.63836">
        <ele>1397.8942871094</ele>
        <time>2011-06-14T08:00:58Z</time>
      </trkpt>
      <trkpt lat="42.85543" lon="0.63841">
        <ele>1399.8168945312</ele>
        <time>2011-06-14T08:01:05Z</time>
      </trkpt>
      <trkpt lat="42.85553" lon="0.63847">
        <ele>1401.2587890625</ele>
        <time>2011-06-14T08:01:14Z</time>
      </trkpt>
      <trkpt lat="42.85559" lon="0.63852">
        <ele>1402.2199707031</ele>
        <time>2011-06-14T08:01:20Z</time>
      </trkpt>
      <trkpt lat="42.85566" lon="0.63859">
        <ele>1404.1430664062</ele>
        <time>2011-06-14T08:01:28Z</time>
      </trkpt>
      <trkpt lat="42.85572" lon="0.63864">
        <ele>1405.5849609375</ele>
        <time>2011-06-14T08:01:34Z</time>
      </trkpt>
      <trkpt lat="42.85573" lon="0.63865">
        <ele>1405.5849609375</ele>
        <time>2011-06-14T08:01:35Z</time>
      </trkpt>
      <trkpt lat="42.85577" lon="0.63869">
        <ele>1406.5461425781</ele>
        <time>2011-06-14T08:01:39Z</time>
      </trkpt>
      <trkpt lat="42.85583" lon="0.63877">
        <ele>1407.98828125</ele>
        <time>2011-06-14T08:01:46Z</time>
      </trkpt>
      <trkpt lat="42.8559" lon="0.63884">
        <ele>1409.9106445312</ele>
        <time>2011-06-14T08:01:53Z</time>
      </trkpt>
      <trkpt lat="42.85595" lon="0.63892">
        <ele>1410.8720703125</ele>
        <time>2011-06-14T08:02:00Z</time>
      </trkpt>
      <trkpt lat="42.85602" lon="0.63899">
        <ele>1411.8334960938</ele>
        <time>2011-06-14T08:02:07Z</time>
      </trkpt>
      <trkpt lat="42.85608" lon="0.63905">
        <ele>1413.755859375</ele>
        <time>2011-06-14T08:02:13Z</time>
      </trkpt>
      <trkpt lat="42.85616" lon="0.63915">
        <ele>1415.6787109375</ele>
        <time>2011-06-14T08:02:22Z</time>
      </trkpt>
      <trkpt lat="42.85619" lon="0.63921">
        <ele>1416.6398925781</ele>
        <time>2011-06-14T08:02:27Z</time>
      </trkpt>
      <trkpt lat="42.85621" lon="0.63925">
        <ele>1416.6398925781</ele>
        <time>2011-06-14T08:02:30Z</time>
      </trkpt>
      <trkpt lat="42.85624" lon="0.63935">
        <ele>1416.6398925781</ele>
        <time>2011-06-14T08:02:36Z</time>
      </trkpt>
      <trkpt lat="42.85627" lon="0.63947">
        <ele>1416.6398925781</ele>
        <time>2011-06-14T08:02:43Z</time>
      </trkpt>
      <trkpt lat="42.85629" lon="0.6395">
        <ele>1416.6398925781</ele>
        <time>2011-06-14T08:02:45Z</time>
      </trkpt>
      <trkpt lat="42.8563" lon="0.63954">
        <ele>1416.1591796875</ele>
        <time>2011-06-14T08:02:47Z</time>
      </trkpt>
      <trkpt lat="42.85633" lon="0.63963">
        <ele>1415.6787109375</ele>
        <time>2011-06-14T08:02:53Z</time>
      </trkpt>
      <trkpt lat="42.85633" lon="0.63965">
        <ele>1416.1591796875</ele>
        <time>2011-06-14T08:02:54Z</time>
      </trkpt>
      <trkpt lat="42.85635" lon="0.6397">
        <ele>1416.1591796875</ele>
        <time>2011-06-14T08:02:57Z</time>
      </trkpt>
      <trkpt lat="42.85637" lon="0.6398">
        <ele>1416.6398925781</ele>
        <time>2011-06-14T08:03:03Z</time>
      </trkpt>
      <trkpt lat="42.85642" lon="0.63988">
        <ele>1417.6010742188</ele>
        <time>2011-06-14T08:03:09Z</time>
      </trkpt>
      <trkpt lat="42.85643" lon="0.63989">
        <ele>1417.6010742188</ele>
        <time>2011-06-14T08:03:10Z</time>
      </trkpt>
      <trkpt lat="42.85643" lon="0.63992">
        <ele>1416.6398925781</ele>
        <time>2011-06-14T08:03:12Z</time>
      </trkpt>
      <trkpt lat="42.85644" lon="0.64002">
        <ele>1417.6010742188</ele>
        <time>2011-06-14T08:03:18Z</time>
      </trkpt>
      <trkpt lat="42.85647" lon="0.6401">
        <ele>1417.1206054688</ele>
        <time>2011-06-14T08:03:23Z</time>
      </trkpt>
      <trkpt lat="42.8565" lon="0.6402">
        <ele>1416.6398925781</ele>
        <time>2011-06-14T08:03:29Z</time>
      </trkpt>
      <trkpt lat="42.8565" lon="0.64028">
        <ele>1414.2365722656</ele>
        <time>2011-06-14T08:03:33Z</time>
      </trkpt>
      <trkpt lat="42.85653" lon="0.64037">
        <ele>1411.3527832031</ele>
        <time>2011-06-14T08:03:39Z</time>
      </trkpt>
      <trkpt lat="42.85655" lon="0.64048">
        <ele>1409.9106445312</ele>
        <time>2011-06-14T08:03:46Z</time>
      </trkpt>
      <trkpt lat="42.85656" lon="0.64058">
        <ele>1409.9106445312</ele>
        <time>2011-06-14T08:03:52Z</time>
      </trkpt>
      <trkpt lat="42.8566" lon="0.64067">
        <ele>1413.275390625</ele>
        <time>2011-06-14T08:03:57Z</time>
      </trkpt>
      <trkpt lat="42.85662" lon="0.64072">
        <ele>1415.6787109375</ele>
        <time>2011-06-14T08:04:00Z</time>
      </trkpt>
      <trkpt lat="42.85664" lon="0.64081">
        <ele>1416.6398925781</ele>
        <time>2011-06-14T08:04:06Z</time>
      </trkpt>
      <trkpt lat="42.85667" lon="0.64088">
        <ele>1416.6398925781</ele>
        <time>2011-06-14T08:04:10Z</time>
      </trkpt>
      <trkpt lat="42.85668" lon="0.64097">
        <ele>1417.6010742188</ele>
        <time>2011-06-14T08:04:15Z</time>
      </trkpt>
      <trkpt lat="42.85672" lon="0.64111">
        <ele>1421.9272460938</ele>
        <time>2011-06-14T08:04:22Z</time>
      </trkpt>
      <trkpt lat="42.85673" lon="0.64112">
        <ele>1422.4079589844</ele>
        <time>2011-06-14T08:04:23Z</time>
      </trkpt>
      <trkpt lat="42.85676" lon="0.64125">
        <ele>1426.7338867188</ele>
        <time>2011-06-14T08:04:30Z</time>
      </trkpt>
      <trkpt lat="42.85677" lon="0.6413">
        <ele>1428.17578125</ele>
        <time>2011-06-14T08:04:33Z</time>
      </trkpt>
      <trkpt lat="42.8568" lon="0.6414">
        <ele>1431.0598144531</ele>
        <time>2011-06-14T08:04:39Z</time>
      </trkpt>
      <trkpt lat="42.85682" lon="0.64148">
        <ele>1432.9821777344</ele>
        <time>2011-06-14T08:04:44Z</time>
      </trkpt>
      <trkpt lat="42.85684" lon="0.64157">
        <ele>1435.3854980469</ele>
        <time>2011-06-14T08:04:49Z</time>
      </trkpt>
      <trkpt lat="42.85685" lon="0.64166">
        <ele>1439.2309570312</ele>
        <time>2011-06-14T08:04:55Z</time>
      </trkpt>
      <trkpt lat="42.85687" lon="0.64176">
        <ele>1441.6342773438</ele>
        <time>2011-06-14T08:05:02Z</time>
      </trkpt>
      <trkpt lat="42.85689" lon="0.64185">
        <ele>1442.1149902344</ele>
        <time>2011-06-14T08:05:07Z</time>
      </trkpt>
      <trkpt lat="42.85691" lon="0.64195">
        <ele>1442.1149902344</ele>
        <time>2011-06-14T08:05:13Z</time>
      </trkpt>
      <trkpt lat="42.85691" lon="0.64198">
        <ele>1442.595703125</ele>
        <time>2011-06-14T08:05:15Z</time>
      </trkpt>
      <trkpt lat="42.85692" lon="0.64209">
        <ele>1443.076171875</ele>
        <time>2011-06-14T08:05:22Z</time>
      </trkpt>
      <trkpt lat="42.85691" lon="0.64217">
        <ele>1443.5568847656</ele>
        <time>2011-06-14T08:05:27Z</time>
      </trkpt>
      <trkpt lat="42.85691" lon="0.64225">
        <ele>1444.5180664062</ele>
        <time>2011-06-14T08:05:32Z</time>
      </trkpt>
      <trkpt lat="42.85691" lon="0.64227">
        <ele>1444.5180664062</ele>
        <time>2011-06-14T08:05:33Z</time>
      </trkpt>
      <trkpt lat="42.85692" lon="0.64236">
        <ele>1447.4020996094</ele>
        <time>2011-06-14T08:05:39Z</time>
      </trkpt>
      <trkpt lat="42.85693" lon="0.64248">
        <ele>1448.36328125</ele>
        <time>2011-06-14T08:05:46Z</time>
      </trkpt>
      <trkpt lat="42.85694" lon="0.64254">
        <ele>1449.3247070312</ele>
        <time>2011-06-14T08:05:50Z</time>
      </trkpt>
      <trkpt lat="42.85696" lon="0.64262">
        <ele>1450.7666015625</ele>
        <time>2011-06-14T08:05:55Z</time>
      </trkpt>
      <trkpt lat="42.85696" lon="0.64266">
        <ele>1450.7666015625</ele>
        <time>2011-06-14T08:05:57Z</time>
      </trkpt>
      <trkpt lat="42.85698" lon="0.64279">
        <ele>1453.6508789062</ele>
        <time>2011-06-14T08:06:05Z</time>
      </trkpt>
      <trkpt lat="42.857" lon="0.64292">
        <ele>1456.0539550781</ele>
        <time>2011-06-14T08:06:13Z</time>
      </trkpt>
      <trkpt lat="42.85701" lon="0.643">
        <ele>1457.49609375</ele>
        <time>2011-06-14T08:06:18Z</time>
      </trkpt>
      <trkpt lat="42.85701" lon="0.64304">
        <ele>1458.4572753906</ele>
        <time>2011-06-14T08:06:20Z</time>
      </trkpt>
      <trkpt lat="42.85702" lon="0.64312">
        <ele>1459.4187011719</ele>
        <time>2011-06-14T08:06:25Z</time>
      </trkpt>
      <trkpt lat="42.85703" lon="0.6432">
        <ele>1460.8605957031</ele>
        <time>2011-06-14T08:06:30Z</time>
      </trkpt>
      <trkpt lat="42.85705" lon="0.64331">
        <ele>1463.2639160156</ele>
        <time>2011-06-14T08:06:37Z</time>
      </trkpt>
      <trkpt lat="42.85706" lon="0.64335">
        <ele>1463.2639160156</ele>
        <time>2011-06-14T08:06:39Z</time>
      </trkpt>
      <trkpt lat="42.85707" lon="0.64344">
        <ele>1465.1865234375</ele>
        <time>2011-06-14T08:06:45Z</time>
      </trkpt>
      <trkpt lat="42.85708" lon="0.64352">
        <ele>1466.6284179688</ele>
        <time>2011-06-14T08:06:50Z</time>
      </trkpt>
      <trkpt lat="42.85709" lon="0.64365">
        <ele>1466.1477050781</ele>
        <time>2011-06-14T08:06:57Z</time>
      </trkpt>
      <trkpt lat="42.85711" lon="0.64374">
        <ele>1467.5895996094</ele>
        <time>2011-06-14T08:07:03Z</time>
      </trkpt>
      <trkpt lat="42.85714" lon="0.64383">
        <ele>1469.0319824219</ele>
        <time>2011-06-14T08:07:08Z</time>
      </trkpt>
      <trkpt lat="42.85714" lon="0.64385">
        <ele>1469.5126953125</ele>
        <time>2011-06-14T08:07:09Z</time>
      </trkpt>
      <trkpt lat="42.85717" lon="0.64391">
        <ele>1471.4350585938</ele>
        <time>2011-06-14T08:07:14Z</time>
      </trkpt>
      <trkpt lat="42.85719" lon="0.64401">
        <ele>1469.5126953125</ele>
        <time>2011-06-14T08:07:20Z</time>
      </trkpt>
      <trkpt lat="42.85719" lon="0.64414">
        <ele>1467.5895996094</ele>
        <time>2011-06-14T08:07:28Z</time>
      </trkpt>
      <trkpt lat="42.85722" lon="0.64424">
        <ele>1472.396484375</ele>
        <time>2011-06-14T08:07:35Z</time>
      </trkpt>
      <trkpt lat="42.85724" lon="0.6443">
        <ele>1474.3190917969</ele>
        <time>2011-06-14T08:07:39Z</time>
      </trkpt>
      <trkpt lat="42.85723" lon="0.64441">
        <ele>1475.2802734375</ele>
        <time>2011-06-14T08:07:45Z</time>
      </trkpt>
      <trkpt lat="42.85723" lon="0.64453">
        <ele>1475.2802734375</ele>
        <time>2011-06-14T08:07:52Z</time>
      </trkpt>
      <trkpt lat="42.85723" lon="0.64455">
        <ele>1475.7609863281</ele>
        <time>2011-06-14T08:07:53Z</time>
      </trkpt>
      <trkpt lat="42.85723" lon="0.6446">
        <ele>1476.2416992188</ele>
        <time>2011-06-14T08:07:56Z</time>
      </trkpt>
      <trkpt lat="42.85723" lon="0.64472">
        <ele>1476.2416992188</ele>
        <time>2011-06-14T08:08:03Z</time>
      </trkpt>
      <trkpt lat="42.85724" lon="0.64478">
        <ele>1477.68359375</ele>
        <time>2011-06-14T08:08:07Z</time>
      </trkpt>
      <trkpt lat="42.85724" lon="0.64481">
        <ele>1478.1643066406</ele>
        <time>2011-06-14T08:08:09Z</time>
      </trkpt>
      <trkpt lat="42.85725" lon="0.64491">
        <ele>1477.68359375</ele>
        <time>2011-06-14T08:08:15Z</time>
      </trkpt>
      <trkpt lat="42.85725" lon="0.64494">
        <ele>1478.1643066406</ele>
        <time>2011-06-14T08:08:17Z</time>
      </trkpt>
      <trkpt lat="42.85727" lon="0.64512">
        <ele>1483.4514160156</ele>
        <time>2011-06-14T08:08:28Z</time>
      </trkpt>
      <trkpt lat="42.85728" lon="0.64521">
        <ele>1488.7390136719</ele>
        <time>2011-06-14T08:08:34Z</time>
      </trkpt>
      <trkpt lat="42.85729" lon="0.64528">
        <ele>1487.296875</ele>
        <time>2011-06-14T08:08:37Z</time>
      </trkpt>
      <trkpt lat="42.8573" lon="0.64541">
        <ele>1488.2583007812</ele>
        <time>2011-06-14T08:08:45Z</time>
      </trkpt>
      <trkpt lat="42.8573" lon="0.64546">
        <ele>1496.9099121094</ele>
        <time>2011-06-14T08:08:50Z</time>
      </trkpt>
      <trkpt lat="42.85729" lon="0.64554">
        <ele>1500.2749023438</ele>
        <time>2011-06-14T08:08:56Z</time>
      </trkpt>
      <trkpt lat="42.8573" lon="0.6456">
        <ele>1501.716796875</ele>
        <time>2011-06-14T08:08:59Z</time>
      </trkpt>
      <trkpt lat="42.85728" lon="0.64576">
        <ele>1501.2360839844</ele>
        <time>2011-06-14T08:09:07Z</time>
      </trkpt>
      <trkpt lat="42.85727" lon="0.64591">
        <ele>1502.197265625</ele>
        <time>2011-06-14T08:09:15Z</time>
      </trkpt>
      <trkpt lat="42.85727" lon="0.64601">
        <ele>1506.0424804688</ele>
        <time>2011-06-14T08:09:20Z</time>
      </trkpt>
      <trkpt lat="42.85725" lon="0.6461">
        <ele>1506.0424804688</ele>
        <time>2011-06-14T08:09:25Z</time>
      </trkpt>
      <trkpt lat="42.85722" lon="0.6462">
        <ele>1506.5231933594</ele>
        <time>2011-06-14T08:09:32Z</time>
      </trkpt>
      <trkpt lat="42.85722" lon="0.64622">
        <ele>1507.00390625</ele>
        <time>2011-06-14T08:09:33Z</time>
      </trkpt>
      <trkpt lat="42.85721" lon="0.64629">
        <ele>1507.9653320312</ele>
        <time>2011-06-14T08:09:37Z</time>
      </trkpt>
      <trkpt lat="42.8572" lon="0.64639">
        <ele>1506.0424804688</ele>
        <time>2011-06-14T08:09:43Z</time>
      </trkpt>
      <trkpt lat="42.8572" lon="0.64643">
        <ele>1505.0812988281</ele>
        <time>2011-06-14T08:09:45Z</time>
      </trkpt>
      <trkpt lat="42.85717" lon="0.64657">
        <ele>1503.1586914062</ele>
        <time>2011-06-14T08:09:52Z</time>
      </trkpt>
      <trkpt lat="42.85718" lon="0.64672">
        <ele>1508.4458007812</ele>
        <time>2011-06-14T08:09:59Z</time>
      </trkpt>
      <trkpt lat="42.85717" lon="0.64684">
        <ele>1507.9653320312</ele>
        <time>2011-06-14T08:10:05Z</time>
      </trkpt>
      <trkpt lat="42.85717" lon="0.64686">
        <ele>1507.9653320312</ele>
        <time>2011-06-14T08:10:06Z</time>
      </trkpt>
      <trkpt lat="42.85716" lon="0.64694">
        <ele>1507.00390625</ele>
        <time>2011-06-14T08:10:10Z</time>
      </trkpt>
      <trkpt lat="42.85715" lon="0.64708">
        <ele>1506.5231933594</ele>
        <time>2011-06-14T08:10:17Z</time>
      </trkpt>
      <trkpt lat="42.85714" lon="0.64717">
        <ele>1507.4846191406</ele>
        <time>2011-06-14T08:10:22Z</time>
      </trkpt>
      <trkpt lat="42.85714" lon="0.64719">
        <ele>1508.4458007812</ele>
        <time>2011-06-14T08:10:23Z</time>
      </trkpt>
      <trkpt lat="42.85712" lon="0.64729">
        <ele>1512.291015625</ele>
        <time>2011-06-14T08:10:28Z</time>
      </trkpt>
      <trkpt lat="42.85712" lon="0.64739">
        <ele>1513.2524414062</ele>
        <time>2011-06-14T08:10:33Z</time>
      </trkpt>
      <trkpt lat="42.8571" lon="0.64754">
        <ele>1515.1750488281</ele>
        <time>2011-06-14T08:10:40Z</time>
      </trkpt>
      <trkpt lat="42.85709" lon="0.64764">
        <ele>1517.0979003906</ele>
        <time>2011-06-14T08:10:45Z</time>
      </trkpt>
      <trkpt lat="42.85706" lon="0.64776">
        <ele>1516.6171875</ele>
        <time>2011-06-14T08:10:52Z</time>
      </trkpt>
      <trkpt lat="42.85703" lon="0.64786">
        <ele>1516.1364746094</ele>
        <time>2011-06-14T08:10:59Z</time>
      </trkpt>
      <trkpt lat="42.85701" lon="0.64795">
        <ele>1517.5783691406</ele>
        <time>2011-06-14T08:11:05Z</time>
      </trkpt>
      <trkpt lat="42.857" lon="0.64802">
        <ele>1518.0590820312</ele>
        <time>2011-06-14T08:11:09Z</time>
      </trkpt>
      <trkpt lat="42.85699" lon="0.64808">
        <ele>1519.5012207031</ele>
        <time>2011-06-14T08:11:13Z</time>
      </trkpt>
      <trkpt lat="42.85698" lon="0.64817">
        <ele>1520.4624023438</ele>
        <time>2011-06-14T08:11:19Z</time>
      </trkpt>
      <trkpt lat="42.85697" lon="0.64821">
        <ele>1521.904296875</ele>
        <time>2011-06-14T08:11:22Z</time>
      </trkpt>
      <trkpt lat="42.85695" lon="0.64832">
        <ele>1522.8657226562</ele>
        <time>2011-06-14T08:11:28Z</time>
      </trkpt>
      <trkpt lat="42.85693" lon="0.6484">
        <ele>1521.904296875</ele>
        <time>2011-06-14T08:11:33Z</time>
      </trkpt>
      <trkpt lat="42.85691" lon="0.64846">
        <ele>1523.3464355469</ele>
        <time>2011-06-14T08:11:37Z</time>
      </trkpt>
      <trkpt lat="42.85691" lon="0.64858">
        <ele>1525.7495117188</ele>
        <time>2011-06-14T08:11:43Z</time>
      </trkpt>
      <trkpt lat="42.85689" lon="0.64867">
        <ele>1527.1916503906</ele>
        <time>2011-06-14T08:11:49Z</time>
      </trkpt>
      <trkpt lat="42.85689" lon="0.64869">
        <ele>1527.1916503906</ele>
        <time>2011-06-14T08:11:50Z</time>
      </trkpt>
      <trkpt lat="42.85689" lon="0.64875">
        <ele>1526.2302246094</ele>
        <time>2011-06-14T08:11:54Z</time>
      </trkpt>
      <trkpt lat="42.85689" lon="0.64883">
        <ele>1525.7495117188</ele>
        <time>2011-06-14T08:11:58Z</time>
      </trkpt>
      <trkpt lat="42.85688" lon="0.64897">
        <ele>1527.1916503906</ele>
        <time>2011-06-14T08:12:05Z</time>
      </trkpt>
      <trkpt lat="42.85688" lon="0.64905">
        <ele>1528.1528320312</ele>
        <time>2011-06-14T08:12:09Z</time>
      </trkpt>
      <trkpt lat="42.85688" lon="0.64917">
        <ele>1530.0754394531</ele>
        <time>2011-06-14T08:12:15Z</time>
      </trkpt>
      <trkpt lat="42.8569" lon="0.64923">
        <ele>1533.4401855469</ele>
        <time>2011-06-14T08:12:18Z</time>
      </trkpt>
      <trkpt lat="42.85688" lon="0.64937">
        <ele>1534.8823242188</ele>
        <time>2011-06-14T08:12:26Z</time>
      </trkpt>
      <trkpt lat="42.85688" lon="0.64946">
        <ele>1535.8435058594</ele>
        <time>2011-06-14T08:12:31Z</time>
      </trkpt>
      <trkpt lat="42.85687" lon="0.64955">
        <ele>1533.9208984375</ele>
        <time>2011-06-14T08:12:36Z</time>
      </trkpt>
      <trkpt lat="42.85686" lon="0.64964">
        <ele>1532.4790039062</ele>
        <time>2011-06-14T08:12:41Z</time>
      </trkpt>
      <trkpt lat="42.85686" lon="0.64973">
        <ele>1532.9594726562</ele>
        <time>2011-06-14T08:12:46Z</time>
      </trkpt>
      <trkpt lat="42.85686" lon="0.64983">
        <ele>1532.9594726562</ele>
        <time>2011-06-14T08:12:52Z</time>
      </trkpt>
      <trkpt lat="42.85686" lon="0.64985">
        <ele>1532.9594726562</ele>
        <time>2011-06-14T08:12:53Z</time>
      </trkpt>
      <trkpt lat="42.85685" lon="0.64994">
        <ele>1533.9208984375</ele>
        <time>2011-06-14T08:12:59Z</time>
      </trkpt>
      <trkpt lat="42.85685" lon="0.65007">
        <ele>1534.4016113281</ele>
        <time>2011-06-14T08:13:07Z</time>
      </trkpt>
      <trkpt lat="42.85686" lon="0.65021">
        <ele>1534.8823242188</ele>
        <time>2011-06-14T08:13:15Z</time>
      </trkpt>
      <trkpt lat="42.85687" lon="0.65031">
        <ele>1535.3627929688</ele>
        <time>2011-06-14T08:13:21Z</time>
      </trkpt>
      <trkpt lat="42.85688" lon="0.65039">
        <ele>1535.8435058594</ele>
        <time>2011-06-14T08:13:26Z</time>
      </trkpt>
      <trkpt lat="42.8569" lon="0.65049">
        <ele>1535.8435058594</ele>
        <time>2011-06-14T08:13:32Z</time>
      </trkpt>
      <trkpt lat="42.85693" lon="0.65064">
        <ele>1536.8046875</ele>
        <time>2011-06-14T08:13:41Z</time>
      </trkpt>
      <trkpt lat="42.85686" lon="0.65066">
        <ele>1537.2854003906</ele>
        <time>2011-06-14T08:13:48Z</time>
      </trkpt>
      <trkpt lat="42.85682" lon="0.65062">
        <ele>1537.2854003906</ele>
        <time>2011-06-14T08:13:52Z</time>
      </trkpt>
      <trkpt lat="42.85685" lon="0.65063">
        <ele>1538.2468261719</ele>
        <time>2011-06-14T08:13:57Z</time>
      </trkpt>
      <trkpt lat="42.85688" lon="0.65069">
        <ele>1538.2468261719</ele>
        <time>2011-06-14T08:14:01Z</time>
      </trkpt>
      <trkpt lat="42.85694" lon="0.65087">
        <ele>1540.6499023438</ele>
        <time>2011-06-14T08:14:12Z</time>
      </trkpt>
      <trkpt lat="42.85697" lon="0.65101">
        <ele>1541.611328125</ele>
        <time>2011-06-14T08:14:21Z</time>
      </trkpt>
      <trkpt lat="42.85698" lon="0.65109">
        <ele>1541.611328125</ele>
        <time>2011-06-14T08:14:26Z</time>
      </trkpt>
      <trkpt lat="42.85699" lon="0.65121">
        <ele>1543.0532226562</ele>
        <time>2011-06-14T08:14:33Z</time>
      </trkpt>
      <trkpt lat="42.857" lon="0.65131">
        <ele>1544.0146484375</ele>
        <time>2011-06-14T08:14:40Z</time>
      </trkpt>
      <trkpt lat="42.857" lon="0.65137">
        <ele>1545.4565429688</ele>
        <time>2011-06-14T08:14:44Z</time>
      </trkpt>
      <trkpt lat="42.85701" lon="0.65149">
        <ele>1546.8984375</ele>
        <time>2011-06-14T08:14:52Z</time>
      </trkpt>
      <trkpt lat="42.85701" lon="0.65157">
        <ele>1548.3405761719</ele>
        <time>2011-06-14T08:14:57Z</time>
      </trkpt>
      <trkpt lat="42.857" lon="0.65167">
        <ele>1549.3020019531</ele>
        <time>2011-06-14T08:15:03Z</time>
      </trkpt>
      <trkpt lat="42.857" lon="0.65174">
        <ele>1551.224609375</ele>
        <time>2011-06-14T08:15:08Z</time>
      </trkpt>
      <trkpt lat="42.85701" lon="0.65184">
        <ele>1553.1472167969</ele>
        <time>2011-06-14T08:15:14Z</time>
      </trkpt>
      <trkpt lat="42.85702" lon="0.65193">
        <ele>1554.5891113281</ele>
        <time>2011-06-14T08:15:20Z</time>
      </trkpt>
      <trkpt lat="42.85702" lon="0.65201">
        <ele>1556.0310058594</ele>
        <time>2011-06-14T08:15:26Z</time>
      </trkpt>
      <trkpt lat="42.85703" lon="0.65209">
        <ele>1556.9924316406</ele>
        <time>2011-06-14T08:15:31Z</time>
      </trkpt>
      <trkpt lat="42.85704" lon="0.65219">
        <ele>1557.4731445312</ele>
        <time>2011-06-14T08:15:38Z</time>
      </trkpt>
      <trkpt lat="42.85707" lon="0.65229">
        <ele>1557.9538574219</ele>
        <time>2011-06-14T08:15:45Z</time>
      </trkpt>
      <trkpt lat="42.85709" lon="0.65237">
        <ele>1558.4343261719</ele>
        <time>2011-06-14T08:15:51Z</time>
      </trkpt>
      <trkpt lat="42.85711" lon="0.65244">
        <ele>1558.9150390625</ele>
        <time>2011-06-14T08:15:55Z</time>
      </trkpt>
      <trkpt lat="42.85713" lon="0.65252">
        <ele>1559.3957519531</ele>
        <time>2011-06-14T08:16:01Z</time>
      </trkpt>
      <trkpt lat="42.85714" lon="0.65255">
        <ele>1559.8762207031</ele>
        <time>2011-06-14T08:16:03Z</time>
      </trkpt>
      <trkpt lat="42.85715" lon="0.6526">
        <ele>1560.8376464844</ele>
        <time>2011-06-14T08:16:06Z</time>
      </trkpt>
      <trkpt lat="42.85717" lon="0.6527">
        <ele>1562.7602539062</ele>
        <time>2011-06-14T08:16:13Z</time>
      </trkpt>
      <trkpt lat="42.85717" lon="0.6528">
        <ele>1564.2023925781</ele>
        <time>2011-06-14T08:16:19Z</time>
      </trkpt>
      <trkpt lat="42.85718" lon="0.65283">
        <ele>1564.6831054688</ele>
        <time>2011-06-14T08:16:21Z</time>
      </trkpt>
      <trkpt lat="42.85718" lon="0.65294">
        <ele>1566.125</ele>
        <time>2011-06-14T08:16:28Z</time>
      </trkpt>
      <trkpt lat="42.85719" lon="0.65297">
        <ele>1566.6057128906</ele>
        <time>2011-06-14T08:16:30Z</time>
      </trkpt>
      <trkpt lat="42.85718" lon="0.65305">
        <ele>1566.6057128906</ele>
        <time>2011-06-14T08:16:36Z</time>
      </trkpt>
      <trkpt lat="42.85719" lon="0.65312">
        <ele>1567.5668945312</ele>
        <time>2011-06-14T08:16:43Z</time>
      </trkpt>
      <trkpt lat="42.85718" lon="0.65318">
        <ele>1568.0476074219</ele>
        <time>2011-06-14T08:16:47Z</time>
      </trkpt>
      <trkpt lat="42.85717" lon="0.6533">
        <ele>1569.9702148438</ele>
        <time>2011-06-14T08:16:55Z</time>
      </trkpt>
      <trkpt lat="42.85715" lon="0.65341">
        <ele>1571.412109375</ele>
        <time>2011-06-14T08:17:02Z</time>
      </trkpt>
      <trkpt lat="42.85713" lon="0.65355">
        <ele>1572.8542480469</ele>
        <time>2011-06-14T08:17:10Z</time>
      </trkpt>
      <trkpt lat="42.85712" lon="0.65368">
        <ele>1574.2961425781</ele>
        <time>2011-06-14T08:17:18Z</time>
      </trkpt>
      <trkpt lat="42.85709" lon="0.65381">
        <ele>1575.7380371094</ele>
        <time>2011-06-14T08:17:26Z</time>
      </trkpt>
      <trkpt lat="42.85707" lon="0.6539">
        <ele>1576.21875</ele>
        <time>2011-06-14T08:17:31Z</time>
      </trkpt>
      <trkpt lat="42.85705" lon="0.65399">
        <ele>1577.1801757812</ele>
        <time>2011-06-14T08:17:37Z</time>
      </trkpt>
      <trkpt lat="42.85702" lon="0.65409">
        <ele>1578.6220703125</ele>
        <time>2011-06-14T08:17:44Z</time>
      </trkpt>
      <trkpt lat="42.85699" lon="0.6542">
        <ele>1580.0642089844</ele>
        <time>2011-06-14T08:17:51Z</time>
      </trkpt>
      <trkpt lat="42.85696" lon="0.65429">
        <ele>1581.5061035156</ele>
        <time>2011-06-14T08:17:57Z</time>
      </trkpt>
      <trkpt lat="42.85694" lon="0.65437">
        <ele>1582.4675292969</ele>
        <time>2011-06-14T08:18:02Z</time>
      </trkpt>
      <trkpt lat="42.85691" lon="0.65446">
        <ele>1583.4287109375</ele>
        <time>2011-06-14T08:18:08Z</time>
      </trkpt>
      <trkpt lat="42.85688" lon="0.65455">
        <ele>1584.8708496094</ele>
        <time>2011-06-14T08:18:14Z</time>
      </trkpt>
      <trkpt lat="42.85684" lon="0.65463">
        <ele>1585.3513183594</ele>
        <time>2011-06-14T08:18:19Z</time>
      </trkpt>
      <trkpt lat="42.85679" lon="0.65474">
        <ele>1586.7932128906</ele>
        <time>2011-06-14T08:18:27Z</time>
      </trkpt>
      <trkpt lat="42.85675" lon="0.65485">
        <ele>1588.2353515625</ele>
        <time>2011-06-14T08:18:34Z</time>
      </trkpt>
      <trkpt lat="42.85669" lon="0.65497">
        <ele>1589.6772460938</ele>
        <time>2011-06-14T08:18:43Z</time>
      </trkpt>
      <trkpt lat="42.85666" lon="0.65506">
        <ele>1591.119140625</ele>
        <time>2011-06-14T08:18:49Z</time>
      </trkpt>
      <trkpt lat="42.85666" lon="0.65507">
        <ele>1591.119140625</ele>
        <time>2011-06-14T08:18:50Z</time>
      </trkpt>
      <trkpt lat="42.85667" lon="0.65516">
        <ele>1592.5612792969</ele>
        <time>2011-06-14T08:18:57Z</time>
      </trkpt>
      <trkpt lat="42.85668" lon="0.65516">
        <ele>1592.5612792969</ele>
        <time>2011-06-14T08:18:58Z</time>
      </trkpt>
      <trkpt lat="42.85676" lon="0.65512">
        <ele>1593.5224609375</ele>
        <time>2011-06-14T08:19:06Z</time>
      </trkpt>
      <trkpt lat="42.85677" lon="0.6551">
        <ele>1594.0031738281</ele>
        <time>2011-06-14T08:19:12Z</time>
      </trkpt>
      <trkpt lat="42.85682" lon="0.65505">
        <ele>1594.0031738281</ele>
        <time>2011-06-14T08:19:17Z</time>
      </trkpt>
      <trkpt lat="42.85684" lon="0.65503">
        <ele>1594.4836425781</ele>
        <time>2011-06-14T08:19:20Z</time>
      </trkpt>
      <trkpt lat="42.85688" lon="0.65501">
        <ele>1595.4450683594</ele>
        <time>2011-06-14T08:19:24Z</time>
      </trkpt>
      <trkpt lat="42.85696" lon="0.65493">
        <ele>1596.8872070312</ele>
        <time>2011-06-14T08:19:32Z</time>
      </trkpt>
      <trkpt lat="42.85704" lon="0.65486">
        <ele>1598.8098144531</ele>
        <time>2011-06-14T08:19:40Z</time>
      </trkpt>
      <trkpt lat="42.85712" lon="0.65481">
        <ele>1600.251953125</ele>
        <time>2011-06-14T08:19:47Z</time>
      </trkpt>
      <trkpt lat="42.85715" lon="0.65479">
        <ele>1601.2131347656</ele>
        <time>2011-06-14T08:19:50Z</time>
      </trkpt>
      <trkpt lat="42.85722" lon="0.65471">
        <ele>1602.6550292969</ele>
        <time>2011-06-14T08:19:57Z</time>
      </trkpt>
      <trkpt lat="42.85727" lon="0.65466">
        <ele>1603.6164550781</ele>
        <time>2011-06-14T08:20:03Z</time>
      </trkpt>
      <trkpt lat="42.85729" lon="0.65464">
        <ele>1604.0971679688</ele>
        <time>2011-06-14T08:20:05Z</time>
      </trkpt>
      <trkpt lat="42.85736" lon="0.65458">
        <ele>1605.0583496094</ele>
        <time>2011-06-14T08:20:12Z</time>
      </trkpt>
      <trkpt lat="42.85738" lon="0.65457">
        <ele>1605.0583496094</ele>
        <time>2011-06-14T08:20:14Z</time>
      </trkpt>
      <trkpt lat="42.85748" lon="0.65452">
        <ele>1606.5002441406</ele>
        <time>2011-06-14T08:20:22Z</time>
      </trkpt>
      <trkpt lat="42.85753" lon="0.65449">
        <ele>1606.9809570312</ele>
        <time>2011-06-14T08:20:27Z</time>
      </trkpt>
      <trkpt lat="42.85761" lon="0.65445">
        <ele>1608.4228515625</ele>
        <time>2011-06-14T08:20:34Z</time>
      </trkpt>
      <trkpt lat="42.85769" lon="0.6544">
        <ele>1609.3842773438</ele>
        <time>2011-06-14T08:20:41Z</time>
      </trkpt>
      <trkpt lat="42.85776" lon="0.65437">
        <ele>1610.3454589844</ele>
        <time>2011-06-14T08:20:47Z</time>
      </trkpt>
      <trkpt lat="42.85781" lon="0.65437">
        <ele>1610.826171875</ele>
        <time>2011-06-14T08:20:51Z</time>
      </trkpt>
      <trkpt lat="42.85783" lon="0.65444">
        <ele>1612.2683105469</ele>
        <time>2011-06-14T08:20:56Z</time>
      </trkpt>
      <trkpt lat="42.85778" lon="0.65454">
        <ele>1614.1909179688</ele>
        <time>2011-06-14T08:21:04Z</time>
      </trkpt>
      <trkpt lat="42.85773" lon="0.6546">
        <ele>1615.15234375</ele>
        <time>2011-06-14T08:21:10Z</time>
      </trkpt>
      <trkpt lat="42.85767" lon="0.6547">
        <ele>1616.1135253906</ele>
        <time>2011-06-14T08:21:17Z</time>
      </trkpt>
      <trkpt lat="42.85761" lon="0.65479">
        <ele>1617.0749511719</ele>
        <time>2011-06-14T08:21:24Z</time>
      </trkpt>
      <trkpt lat="42.85757" lon="0.65486">
        <ele>1617.0749511719</ele>
        <time>2011-06-14T08:21:29Z</time>
      </trkpt>
      <trkpt lat="42.85752" lon="0.65497">
        <ele>1618.0361328125</ele>
        <time>2011-06-14T08:21:36Z</time>
      </trkpt>
      <trkpt lat="42.85747" lon="0.65509">
        <ele>1618.5168457031</ele>
        <time>2011-06-14T08:21:45Z</time>
      </trkpt>
      <trkpt lat="42.85743" lon="0.65521">
        <ele>1619.9587402344</ele>
        <time>2011-06-14T08:21:53Z</time>
      </trkpt>
      <trkpt lat="42.8574" lon="0.65532">
        <ele>1621.4006347656</ele>
        <time>2011-06-14T08:22:01Z</time>
      </trkpt>
      <trkpt lat="42.85739" lon="0.65542">
        <ele>1622.8427734375</ele>
        <time>2011-06-14T08:22:08Z</time>
      </trkpt>
      <trkpt lat="42.85738" lon="0.65546">
        <ele>1622.8427734375</ele>
        <time>2011-06-14T08:22:10Z</time>
      </trkpt>
      <trkpt lat="42.85736" lon="0.65555">
        <ele>1623.8039550781</ele>
        <time>2011-06-14T08:22:16Z</time>
      </trkpt>
      <trkpt lat="42.85734" lon="0.65562">
        <ele>1624.2846679688</ele>
        <time>2011-06-14T08:22:20Z</time>
      </trkpt>
      <trkpt lat="42.85732" lon="0.65574">
        <ele>1625.2458496094</ele>
        <time>2011-06-14T08:22:27Z</time>
      </trkpt>
      <trkpt lat="42.85731" lon="0.65582">
        <ele>1626.2072753906</ele>
        <time>2011-06-14T08:22:32Z</time>
      </trkpt>
      <trkpt lat="42.85731" lon="0.65594">
        <ele>1628.1301269531</ele>
        <time>2011-06-14T08:22:39Z</time>
      </trkpt>
      <trkpt lat="42.85731" lon="0.65607">
        <ele>1628.6108398438</ele>
        <time>2011-06-14T08:22:47Z</time>
      </trkpt>
      <trkpt lat="42.85732" lon="0.65617">
        <ele>1629.0913085938</ele>
        <time>2011-06-14T08:22:53Z</time>
      </trkpt>
      <trkpt lat="42.85732" lon="0.6563">
        <ele>1630.052734375</ele>
        <time>2011-06-14T08:23:00Z</time>
      </trkpt>
      <trkpt lat="42.85733" lon="0.6564">
        <ele>1631.4946289062</ele>
        <time>2011-06-14T08:23:06Z</time>
      </trkpt>
      <trkpt lat="42.85733" lon="0.65648">
        <ele>1631.9753417969</ele>
        <time>2011-06-14T08:23:11Z</time>
      </trkpt>
      <trkpt lat="42.85735" lon="0.6566">
        <ele>1632.4560546875</ele>
        <time>2011-06-14T08:23:18Z</time>
      </trkpt>
      <trkpt lat="42.85735" lon="0.65667">
        <ele>1632.9365234375</ele>
        <time>2011-06-14T08:23:22Z</time>
      </trkpt>
      <trkpt lat="42.85737" lon="0.65676">
        <ele>1632.4560546875</ele>
        <time>2011-06-14T08:23:27Z</time>
      </trkpt>
      <trkpt lat="42.85738" lon="0.65685">
        <ele>1632.9365234375</ele>
        <time>2011-06-14T08:23:32Z</time>
      </trkpt>
      <trkpt lat="42.85739" lon="0.65691">
        <ele>1633.4172363281</ele>
        <time>2011-06-14T08:23:36Z</time>
      </trkpt>
      <trkpt lat="42.85739" lon="0.65701">
        <ele>1634.3786621094</ele>
        <time>2011-06-14T08:23:42Z</time>
      </trkpt>
      <trkpt lat="42.85738" lon="0.65713">
        <ele>1636.3012695312</ele>
        <time>2011-06-14T08:23:49Z</time>
      </trkpt>
      <trkpt lat="42.85738" lon="0.65723">
        <ele>1637.2624511719</ele>
        <time>2011-06-14T08:23:55Z</time>
      </trkpt>
      <trkpt lat="42.85738" lon="0.65731">
        <ele>1638.7045898438</ele>
        <time>2011-06-14T08:24:00Z</time>
      </trkpt>
      <trkpt lat="42.85738" lon="0.6574">
        <ele>1639.1850585938</ele>
        <time>2011-06-14T08:24:05Z</time>
      </trkpt>
      <trkpt lat="42.85738" lon="0.65752">
        <ele>1640.626953125</ele>
        <time>2011-06-14T08:24:12Z</time>
      </trkpt>
      <trkpt lat="42.85739" lon="0.65761">
        <ele>1641.1076660156</ele>
        <time>2011-06-14T08:24:17Z</time>
      </trkpt>
      <trkpt lat="42.85738" lon="0.65769">
        <ele>1642.5498046875</ele>
        <time>2011-06-14T08:24:22Z</time>
      </trkpt>
      <trkpt lat="42.85736" lon="0.6578">
        <ele>1644.4724121094</ele>
        <time>2011-06-14T08:24:28Z</time>
      </trkpt>
      <trkpt lat="42.85734" lon="0.6579">
        <ele>1644.953125</ele>
        <time>2011-06-14T08:24:34Z</time>
      </trkpt>
      <trkpt lat="42.85733" lon="0.658">
        <ele>1645.9145507812</ele>
        <time>2011-06-14T08:24:40Z</time>
      </trkpt>
      <trkpt lat="42.85733" lon="0.65808">
        <ele>1648.3176269531</ele>
        <time>2011-06-14T08:24:45Z</time>
      </trkpt>
      <trkpt lat="42.8573" lon="0.65817">
        <ele>1649.2790527344</ele>
        <time>2011-06-14T08:24:50Z</time>
      </trkpt>
      <trkpt lat="42.85727" lon="0.65827">
        <ele>1650.7209472656</ele>
        <time>2011-06-14T08:24:57Z</time>
      </trkpt>
      <trkpt lat="42.85724" lon="0.65839">
        <ele>1652.6435546875</ele>
        <time>2011-06-14T08:25:05Z</time>
      </trkpt>
      <trkpt lat="42.8572" lon="0.65855">
        <ele>1653.6049804688</ele>
        <time>2011-06-14T08:25:15Z</time>
      </trkpt>
      <trkpt lat="42.85719" lon="0.65868">
        <ele>1654.5661621094</ele>
        <time>2011-06-14T08:25:23Z</time>
      </trkpt>
      <trkpt lat="42.85718" lon="0.65879">
        <ele>1654.0856933594</ele>
        <time>2011-06-14T08:25:29Z</time>
      </trkpt>
      <trkpt lat="42.85717" lon="0.65889">
        <ele>1654.0856933594</ele>
        <time>2011-06-14T08:25:35Z</time>
      </trkpt>
      <trkpt lat="42.85715" lon="0.65896">
        <ele>1654.5661621094</ele>
        <time>2011-06-14T08:25:40Z</time>
      </trkpt>
      <trkpt lat="42.85713" lon="0.65907">
        <ele>1656.4887695312</ele>
        <time>2011-06-14T08:25:47Z</time>
      </trkpt>
      <trkpt lat="42.85712" lon="0.65915">
        <ele>1657.4501953125</ele>
        <time>2011-06-14T08:25:52Z</time>
      </trkpt>
      <trkpt lat="42.8571" lon="0.65923">
        <ele>1658.4113769531</ele>
        <time>2011-06-14T08:25:57Z</time>
      </trkpt>
      <trkpt lat="42.85704" lon="0.65933">
        <ele>1660.3342285156</ele>
        <time>2011-06-14T08:26:05Z</time>
      </trkpt>
      <trkpt lat="42.857" lon="0.65938">
        <ele>1661.2956542969</ele>
        <time>2011-06-14T08:26:10Z</time>
      </trkpt>
      <trkpt lat="42.85698" lon="0.65946">
        <ele>1661.2956542969</ele>
        <time>2011-06-14T08:26:16Z</time>
      </trkpt>
      <trkpt lat="42.85696" lon="0.65955">
        <ele>1660.8149414062</ele>
        <time>2011-06-14T08:26:22Z</time>
      </trkpt>
      <trkpt lat="42.85696" lon="0.65963">
        <ele>1661.2956542969</ele>
        <time>2011-06-14T08:26:27Z</time>
      </trkpt>
      <trkpt lat="42.85694" lon="0.65972">
        <ele>1661.7763671875</ele>
        <time>2011-06-14T08:26:32Z</time>
      </trkpt>
      <trkpt lat="42.85689" lon="0.65979">
        <ele>1663.2182617188</ele>
        <time>2011-06-14T08:26:38Z</time>
      </trkpt>
      <trkpt lat="42.85685" lon="0.65986">
        <ele>1664.66015625</ele>
        <time>2011-06-14T08:26:44Z</time>
      </trkpt>
      <trkpt lat="42.85683" lon="0.65993">
        <ele>1665.6215820312</ele>
        <time>2011-06-14T08:26:49Z</time>
      </trkpt>
      <trkpt lat="42.85683" lon="0.66003">
        <ele>1665.6215820312</ele>
        <time>2011-06-14T08:26:55Z</time>
      </trkpt>
      <trkpt lat="42.85683" lon="0.66006">
        <ele>1665.6215820312</ele>
        <time>2011-06-14T08:26:57Z</time>
      </trkpt>
      <trkpt lat="42.85683" lon="0.66018">
        <ele>1666.5827636719</ele>
        <time>2011-06-14T08:27:04Z</time>
      </trkpt>
      <trkpt lat="42.85682" lon="0.66021">
        <ele>1667.5439453125</ele>
        <time>2011-06-14T08:27:06Z</time>
      </trkpt>
      <trkpt lat="42.85675" lon="0.66026">
        <ele>1668.5053710938</ele>
        <time>2011-06-14T08:27:13Z</time>
      </trkpt>
      <trkpt lat="42.85666" lon="0.66029">
        <ele>1669.947265625</ele>
        <time>2011-06-14T08:27:20Z</time>
      </trkpt>
      <trkpt lat="42.85661" lon="0.66033">
        <ele>1670.4279785156</ele>
        <time>2011-06-14T08:27:25Z</time>
      </trkpt>
      <trkpt lat="42.85653" lon="0.66039">
        <ele>1671.3891601562</ele>
        <time>2011-06-14T08:27:32Z</time>
      </trkpt>
      <trkpt lat="42.85643" lon="0.66046">
        <ele>1673.3120117188</ele>
        <time>2011-06-14T08:27:40Z</time>
      </trkpt>
      <trkpt lat="42.85637" lon="0.66048">
        <ele>1674.2731933594</ele>
        <time>2011-06-14T08:27:45Z</time>
      </trkpt>
      <trkpt lat="42.85631" lon="0.66049">
        <ele>1675.234375</ele>
        <time>2011-06-14T08:27:50Z</time>
      </trkpt>
      <trkpt lat="42.85621" lon="0.66054">
        <ele>1676.6767578125</ele>
        <time>2011-06-14T08:27:58Z</time>
      </trkpt>
      <trkpt lat="42.85608" lon="0.66057">
        <ele>1679.0798339844</ele>
        <time>2011-06-14T08:28:09Z</time>
      </trkpt>
      <trkpt lat="42.85601" lon="0.66061">
        <ele>1680.0412597656</ele>
        <time>2011-06-14T08:28:15Z</time>
      </trkpt>
      <trkpt lat="42.85593" lon="0.66064">
        <ele>1681.0026855469</ele>
        <time>2011-06-14T08:28:21Z</time>
      </trkpt>
      <trkpt lat="42.85584" lon="0.6606">
        <ele>1681.9638671875</ele>
        <time>2011-06-14T08:28:28Z</time>
      </trkpt>
      <trkpt lat="42.85578" lon="0.66054">
        <ele>1682.9250488281</ele>
        <time>2011-06-14T08:28:34Z</time>
      </trkpt>
      <trkpt lat="42.85576" lon="0.66045">
        <ele>1683.8864746094</ele>
        <time>2011-06-14T08:28:39Z</time>
      </trkpt>
      <trkpt lat="42.85573" lon="0.6603">
        <ele>1684.8479003906</ele>
        <time>2011-06-14T08:28:47Z</time>
      </trkpt>
      <trkpt lat="42.85567" lon="0.66016">
        <ele>1684.8479003906</ele>
        <time>2011-06-14T08:28:56Z</time>
      </trkpt>
      <trkpt lat="42.85559" lon="0.66002">
        <ele>1685.3283691406</ele>
        <time>2011-06-14T08:29:06Z</time>
      </trkpt>
      <trkpt lat="42.85552" lon="0.65988">
        <ele>1685.8090820312</ele>
        <time>2011-06-14T08:29:15Z</time>
      </trkpt>
      <trkpt lat="42.85548" lon="0.65973">
        <ele>1687.2509765625</ele>
        <time>2011-06-14T08:29:24Z</time>
      </trkpt>
      <trkpt lat="42.85542" lon="0.65965">
        <ele>1687.7316894531</ele>
        <time>2011-06-14T08:29:31Z</time>
      </trkpt>
      <trkpt lat="42.85533" lon="0.65963">
        <ele>1689.1735839844</ele>
        <time>2011-06-14T08:29:38Z</time>
      </trkpt>
      <trkpt lat="42.85524" lon="0.65964">
        <ele>1690.6154785156</ele>
        <time>2011-06-14T08:29:45Z</time>
      </trkpt>
      <trkpt lat="42.85512" lon="0.65967">
        <ele>1692.0578613281</ele>
        <time>2011-06-14T08:29:55Z</time>
      </trkpt>
      <trkpt lat="42.85504" lon="0.65969">
        <ele>1693.0190429688</ele>
        <time>2011-06-14T08:30:01Z</time>
      </trkpt>
      <trkpt lat="42.85491" lon="0.65969">
        <ele>1694.4609375</ele>
        <time>2011-06-14T08:30:11Z</time>
      </trkpt>
      <trkpt lat="42.8548" lon="0.65971">
        <ele>1695.9030761719</ele>
        <time>2011-06-14T08:30:19Z</time>
      </trkpt>
      <trkpt lat="42.85479" lon="0.65971">
        <ele>1695.9030761719</ele>
        <time>2011-06-14T08:30:20Z</time>
      </trkpt>
      <trkpt lat="42.8547" lon="0.65975">
        <ele>1696.8642578125</ele>
        <time>2011-06-14T08:30:27Z</time>
      </trkpt>
      <trkpt lat="42.85461" lon="0.65981">
        <ele>1697.3449707031</ele>
        <time>2011-06-14T08:30:34Z</time>
      </trkpt>
      <trkpt lat="42.85453" lon="0.65988">
        <ele>1698.3061523438</ele>
        <time>2011-06-14T08:30:42Z</time>
      </trkpt>
      <trkpt lat="42.85445" lon="0.65997">
        <ele>1698.7868652344</ele>
        <time>2011-06-14T08:30:49Z</time>
      </trkpt>
      <trkpt lat="42.85441" lon="0.66003">
        <ele>1699.7482910156</ele>
        <time>2011-06-14T08:30:54Z</time>
      </trkpt>
      <trkpt lat="42.85436" lon="0.66012">
        <ele>1700.7094726562</ele>
        <time>2011-06-14T08:31:00Z</time>
      </trkpt>
      <trkpt lat="42.85434" lon="0.66021">
        <ele>1701.1901855469</ele>
        <time>2011-06-14T08:31:05Z</time>
      </trkpt>
      <trkpt lat="42.85431" lon="0.6603">
        <ele>1702.6320800781</ele>
        <time>2011-06-14T08:31:11Z</time>
      </trkpt>
      <trkpt lat="42.8543" lon="0.66039">
        <ele>1703.1127929688</ele>
        <time>2011-06-14T08:31:16Z</time>
      </trkpt>
      <trkpt lat="42.85429" lon="0.66049">
        <ele>1704.5546875</ele>
        <time>2011-06-14T08:31:22Z</time>
      </trkpt>
      <trkpt lat="42.85427" lon="0.66056">
        <ele>1705.0354003906</ele>
        <time>2011-06-14T08:31:26Z</time>
      </trkpt>
      <trkpt lat="42.85427" lon="0.66067">
        <ele>1705.9965820312</ele>
        <time>2011-06-14T08:31:32Z</time>
      </trkpt>
      <trkpt lat="42.85426" lon="0.66079">
        <ele>1706.9580078125</ele>
        <time>2011-06-14T08:31:39Z</time>
      </trkpt>
      <trkpt lat="42.85425" lon="0.66092">
        <ele>1708.880859375</ele>
        <time>2011-06-14T08:31:46Z</time>
      </trkpt>
      <trkpt lat="42.85424" lon="0.66099">
        <ele>1709.3615722656</ele>
        <time>2011-06-14T08:31:50Z</time>
      </trkpt>
      <trkpt lat="42.85424" lon="0.66105">
        <ele>1710.3227539062</ele>
        <time>2011-06-14T08:31:54Z</time>
      </trkpt>
      <trkpt lat="42.85423" lon="0.66115">
        <ele>1711.7648925781</ele>
        <time>2011-06-14T08:32:00Z</time>
      </trkpt>
      <trkpt lat="42.85421" lon="0.66127">
        <ele>1714.16796875</ele>
        <time>2011-06-14T08:32:07Z</time>
      </trkpt>
      <trkpt lat="42.8542" lon="0.66135">
        <ele>1716.0905761719</ele>
        <time>2011-06-14T08:32:12Z</time>
      </trkpt>
      <trkpt lat="42.85418" lon="0.66142">
        <ele>1717.0520019531</ele>
        <time>2011-06-14T08:32:17Z</time>
      </trkpt>
      <trkpt lat="42.85418" lon="0.66148">
        <ele>1717.5324707031</ele>
        <time>2011-06-14T08:32:21Z</time>
      </trkpt>
      <trkpt lat="42.85419" lon="0.6615">
        <ele>1718.0131835938</ele>
        <time>2011-06-14T08:32:23Z</time>
      </trkpt>
      <trkpt lat="42.85424" lon="0.66149">
        <ele>1719.9357910156</ele>
        <time>2011-06-14T08:32:29Z</time>
      </trkpt>
      <trkpt lat="42.85427" lon="0.66147">
        <ele>1720.4165039062</ele>
        <time>2011-06-14T08:32:31Z</time>
      </trkpt>
      <trkpt lat="42.85433" lon="0.66138">
        <ele>1722.3391113281</ele>
        <time>2011-06-14T08:32:38Z</time>
      </trkpt>
      <trkpt lat="42.85439" lon="0.66134">
        <ele>1723.3005371094</ele>
        <time>2011-06-14T08:32:43Z</time>
      </trkpt>
      <trkpt lat="42.85446" lon="0.66133">
        <ele>1724.7426757812</ele>
        <time>2011-06-14T08:32:49Z</time>
      </trkpt>
      <trkpt lat="42.85452" lon="0.66135">
        <ele>1726.1845703125</ele>
        <time>2011-06-14T08:32:55Z</time>
      </trkpt>
      <trkpt lat="42.85458" lon="0.66141">
        <ele>1728.1071777344</ele>
        <time>2011-06-14T08:33:01Z</time>
      </trkpt>
      <trkpt lat="42.85461" lon="0.6615">
        <ele>1728.587890625</ele>
        <time>2011-06-14T08:33:07Z</time>
      </trkpt>
      <trkpt lat="42.85462" lon="0.66156">
        <ele>1729.068359375</ele>
        <time>2011-06-14T08:33:11Z</time>
      </trkpt>
      <trkpt lat="42.85461" lon="0.66166">
        <ele>1730.0297851562</ele>
        <time>2011-06-14T08:33:18Z</time>
      </trkpt>
      <trkpt lat="42.8546" lon="0.66171">
        <ele>1731.4716796875</ele>
        <time>2011-06-14T08:33:22Z</time>
      </trkpt>
      <trkpt lat="42.85459" lon="0.66174">
        <ele>1731.9523925781</ele>
        <time>2011-06-14T08:33:24Z</time>
      </trkpt>
      <trkpt lat="42.8546" lon="0.66182">
        <ele>1732.9135742188</ele>
        <time>2011-06-14T08:33:30Z</time>
      </trkpt>
      <trkpt lat="42.8546" lon="0.66184">
        <ele>1733.3942871094</ele>
        <time>2011-06-14T08:33:31Z</time>
      </trkpt>
      <trkpt lat="42.85458" lon="0.66193">
        <ele>1734.8364257812</ele>
        <time>2011-06-14T08:33:37Z</time>
      </trkpt>
      <trkpt lat="42.85455" lon="0.66201">
        <ele>1736.7587890625</ele>
        <time>2011-06-14T08:33:43Z</time>
      </trkpt>
      <trkpt lat="42.85454" lon="0.66207">
        <ele>1737.2395019531</ele>
        <time>2011-06-14T08:33:48Z</time>
      </trkpt>
      <trkpt lat="42.85452" lon="0.66213">
        <ele>1738.2009277344</ele>
        <time>2011-06-14T08:33:53Z</time>
      </trkpt>
      <trkpt lat="42.8545" lon="0.66219">
        <ele>1740.6042480469</ele>
        <time>2011-06-14T08:33:59Z</time>
      </trkpt>
      <trkpt lat="42.85447" lon="0.66227">
        <ele>1742.5270996094</ele>
        <time>2011-06-14T08:34:05Z</time>
      </trkpt>
      <trkpt lat="42.85445" lon="0.66233">
        <ele>1743.48828125</ele>
        <time>2011-06-14T08:34:10Z</time>
      </trkpt>
      <trkpt lat="42.85443" lon="0.66238">
        <ele>1744.4494628906</ele>
        <time>2011-06-14T08:34:15Z</time>
      </trkpt>
      <trkpt lat="42.8544" lon="0.66244">
        <ele>1745.8916015625</ele>
        <time>2011-06-14T08:34:20Z</time>
      </trkpt>
      <trkpt lat="42.85439" lon="0.66248">
        <ele>1747.3334960938</ele>
        <time>2011-06-14T08:34:25Z</time>
      </trkpt>
      <trkpt lat="42.85437" lon="0.66254">
        <ele>1748.775390625</ele>
        <time>2011-06-14T08:34:31Z</time>
      </trkpt>
      <trkpt lat="42.85436" lon="0.66258">
        <ele>1749.7368164062</ele>
        <time>2011-06-14T08:34:38Z</time>
      </trkpt>
      <trkpt lat="42.85435" lon="0.66262">
        <ele>1750.2175292969</ele>
        <time>2011-06-14T08:34:42Z</time>
      </trkpt>
      <trkpt lat="42.85433" lon="0.66265">
        <ele>1751.1787109375</ele>
        <time>2011-06-14T08:34:46Z</time>
      </trkpt>
      <trkpt lat="42.85432" lon="0.66268">
        <ele>1753.1013183594</ele>
        <time>2011-06-14T08:34:52Z</time>
      </trkpt>
      <trkpt lat="42.85435" lon="0.66272">
        <ele>1753.58203125</ele>
        <time>2011-06-14T08:34:59Z</time>
      </trkpt>
      <trkpt lat="42.85438" lon="0.66277">
        <ele>1754.5432128906</ele>
        <time>2011-06-14T08:35:04Z</time>
      </trkpt>
      <trkpt lat="42.85439" lon="0.66285">
        <ele>1755.9851074219</ele>
        <time>2011-06-14T08:35:10Z</time>
      </trkpt>
      <trkpt lat="42.85435" lon="0.66287">
        <ele>1756.4660644531</ele>
        <time>2011-06-14T08:35:14Z</time>
      </trkpt>
      <trkpt lat="42.85426" lon="0.66291">
        <ele>1758.388671875</ele>
        <time>2011-06-14T08:35:23Z</time>
      </trkpt>
      <trkpt lat="42.85419" lon="0.66296">
        <ele>1758.8693847656</ele>
        <time>2011-06-14T08:35:30Z</time>
      </trkpt>
      <trkpt lat="42.85412" lon="0.66301">
        <ele>1760.3112792969</ele>
        <time>2011-06-14T08:35:38Z</time>
      </trkpt>
      <trkpt lat="42.85405" lon="0.66306">
        <ele>1761.2727050781</ele>
        <time>2011-06-14T08:35:46Z</time>
      </trkpt>
      <trkpt lat="42.85399" lon="0.66309">
        <ele>1762.2338867188</ele>
        <time>2011-06-14T08:35:52Z</time>
      </trkpt>
      <trkpt lat="42.85389" lon="0.66315">
        <ele>1763.67578125</ele>
        <time>2011-06-14T08:36:02Z</time>
      </trkpt>
      <trkpt lat="42.85381" lon="0.6632">
        <ele>1765.1179199219</ele>
        <time>2011-06-14T08:36:10Z</time>
      </trkpt>
      <trkpt lat="42.85375" lon="0.66323">
        <ele>1765.5986328125</ele>
        <time>2011-06-14T08:36:16Z</time>
      </trkpt>
      <trkpt lat="42.85368" lon="0.66328">
        <ele>1767.0405273438</ele>
        <time>2011-06-14T08:36:23Z</time>
      </trkpt>
      <trkpt lat="42.8536" lon="0.66332">
        <ele>1767.5209960938</ele>
        <time>2011-06-14T08:36:30Z</time>
      </trkpt>
      <trkpt lat="42.85352" lon="0.66335">
        <ele>1767.5209960938</ele>
        <time>2011-06-14T08:36:36Z</time>
      </trkpt>
      <trkpt lat="42.85345" lon="0.66337">
        <ele>1768.0017089844</ele>
        <time>2011-06-14T08:36:42Z</time>
      </trkpt>
      <trkpt lat="42.85336" lon="0.66337">
        <ele>1768.0017089844</ele>
        <time>2011-06-14T08:36:49Z</time>
      </trkpt>
      <trkpt lat="42.85327" lon="0.66334">
        <ele>1768.482421875</ele>
        <time>2011-06-14T08:36:56Z</time>
      </trkpt>
      <trkpt lat="42.8532" lon="0.6633">
        <ele>1768.9631347656</ele>
        <time>2011-06-14T08:37:02Z</time>
      </trkpt>
      <trkpt lat="42.85315" lon="0.66322">
        <ele>1768.9631347656</ele>
        <time>2011-06-14T08:37:08Z</time>
      </trkpt>
      <trkpt lat="42.85306" lon="0.66314">
        <ele>1770.4050292969</ele>
        <time>2011-06-14T08:37:17Z</time>
      </trkpt>
      <trkpt lat="42.85303" lon="0.66316">
        <ele>1770.8857421875</ele>
        <time>2011-06-14T08:37:20Z</time>
      </trkpt>
      <trkpt lat="42.85306" lon="0.66325">
        <ele>1773.2893066406</ele>
        <time>2011-06-14T08:37:27Z</time>
      </trkpt>
      <trkpt lat="42.8531" lon="0.66333">
        <ele>1773.7697753906</ele>
        <time>2011-06-14T08:37:32Z</time>
      </trkpt>
      <trkpt lat="42.85311" lon="0.66342">
        <ele>1775.2116699219</ele>
        <time>2011-06-14T08:37:38Z</time>
      </trkpt>
      <trkpt lat="42.85313" lon="0.66349">
        <ele>1777.1345214844</ele>
        <time>2011-06-14T08:37:43Z</time>
      </trkpt>
      <trkpt lat="42.85317" lon="0.66354">
        <ele>1779.5375976562</ele>
        <time>2011-06-14T08:37:48Z</time>
      </trkpt>
      <trkpt lat="42.85322" lon="0.6636">
        <ele>1781.4602050781</ele>
        <time>2011-06-14T08:37:54Z</time>
      </trkpt>
      <trkpt lat="42.85328" lon="0.66368">
        <ele>1783.8635253906</ele>
        <time>2011-06-14T08:38:01Z</time>
      </trkpt>
      <trkpt lat="42.85335" lon="0.66371">
        <ele>1785.3054199219</ele>
        <time>2011-06-14T08:38:07Z</time>
      </trkpt>
      <trkpt lat="42.8534" lon="0.66375">
        <ele>1786.2668457031</ele>
        <time>2011-06-14T08:38:12Z</time>
      </trkpt>
      <trkpt lat="42.85349" lon="0.66379">
        <ele>1788.1896972656</ele>
        <time>2011-06-14T08:38:20Z</time>
      </trkpt>
      <trkpt lat="42.85353" lon="0.6638">
        <ele>1788.6704101562</ele>
        <time>2011-06-14T08:38:23Z</time>
      </trkpt>
      <trkpt lat="42.85361" lon="0.6638">
        <ele>1791.5541992188</ele>
        <time>2011-06-14T08:38:30Z</time>
      </trkpt>
      <trkpt lat="42.85362" lon="0.6638">
        <ele>1792.0349121094</ele>
        <time>2011-06-14T08:38:31Z</time>
      </trkpt>
      <trkpt lat="42.85365" lon="0.66387">
        <ele>1792.99609375</ele>
        <time>2011-06-14T08:38:36Z</time>
      </trkpt>
      <trkpt lat="42.85364" lon="0.66388">
        <ele>1793.4768066406</ele>
        <time>2011-06-14T08:38:37Z</time>
      </trkpt>
      <trkpt lat="42.85355" lon="0.66392">
        <ele>1794.4379882812</ele>
        <time>2011-06-14T08:38:45Z</time>
      </trkpt>
      <trkpt lat="42.85345" lon="0.66395">
        <ele>1794.9187011719</ele>
        <time>2011-06-14T08:38:54Z</time>
      </trkpt>
      <trkpt lat="42.85337" lon="0.66398">
        <ele>1796.3608398438</ele>
        <time>2011-06-14T08:39:01Z</time>
      </trkpt>
      <trkpt lat="42.8533" lon="0.664">
        <ele>1795.8801269531</ele>
        <time>2011-06-14T08:39:07Z</time>
      </trkpt>
      <trkpt lat="42.85323" lon="0.66399">
        <ele>1795.8801269531</ele>
        <time>2011-06-14T08:39:12Z</time>
      </trkpt>
      <trkpt lat="42.85316" lon="0.66399">
        <ele>1796.3608398438</ele>
        <time>2011-06-14T08:39:18Z</time>
      </trkpt>
      <trkpt lat="42.85309" lon="0.66396">
        <ele>1795.8801269531</ele>
        <time>2011-06-14T08:39:24Z</time>
      </trkpt>
      <trkpt lat="42.85302" lon="0.66396">
        <ele>1795.3994140625</ele>
        <time>2011-06-14T08:39:30Z</time>
      </trkpt>
      <trkpt lat="42.85292" lon="0.66395">
        <ele>1797.3220214844</ele>
        <time>2011-06-14T08:39:38Z</time>
      </trkpt>
      <trkpt lat="42.85285" lon="0.66391">
        <ele>1798.7639160156</ele>
        <time>2011-06-14T08:39:44Z</time>
      </trkpt>
      <trkpt lat="42.85279" lon="0.66383">
        <ele>1800.2060546875</ele>
        <time>2011-06-14T08:39:50Z</time>
      </trkpt>
      <trkpt lat="42.85271" lon="0.66377">
        <ele>1800.6865234375</ele>
        <time>2011-06-14T08:39:57Z</time>
      </trkpt>
      <trkpt lat="42.85262" lon="0.6637">
        <ele>1801.6479492188</ele>
        <time>2011-06-14T08:40:05Z</time>
      </trkpt>
      <trkpt lat="42.85256" lon="0.66363">
        <ele>1802.1284179688</ele>
        <time>2011-06-14T08:40:11Z</time>
      </trkpt>
      <trkpt lat="42.85247" lon="0.6635">
        <ele>1804.0515136719</ele>
        <time>2011-06-14T08:40:21Z</time>
      </trkpt>
      <trkpt lat="42.85241" lon="0.6634">
        <ele>1805.9738769531</ele>
        <time>2011-06-14T08:40:28Z</time>
      </trkpt>
      <trkpt lat="42.85238" lon="0.66332">
        <ele>1805.9738769531</ele>
        <time>2011-06-14T08:40:33Z</time>
      </trkpt>
      <trkpt lat="42.85233" lon="0.66319">
        <ele>1808.3771972656</ele>
        <time>2011-06-14T08:40:42Z</time>
      </trkpt>
      <trkpt lat="42.85229" lon="0.66307">
        <ele>1810.2998046875</ele>
        <time>2011-06-14T08:40:50Z</time>
      </trkpt>
      <trkpt lat="42.85226" lon="0.66296">
        <ele>1812.703125</ele>
        <time>2011-06-14T08:40:57Z</time>
      </trkpt>
      <trkpt lat="42.85223" lon="0.66287">
        <ele>1813.6643066406</ele>
        <time>2011-06-14T08:41:03Z</time>
      </trkpt>
      <trkpt lat="42.8522" lon="0.66278">
        <ele>1816.5483398438</ele>
        <time>2011-06-14T08:41:09Z</time>
      </trkpt>
      <trkpt lat="42.85215" lon="0.6627">
        <ele>1818.9516601562</ele>
        <time>2011-06-14T08:41:15Z</time>
      </trkpt>
      <trkpt lat="42.85208" lon="0.66261">
        <ele>1821.8356933594</ele>
        <time>2011-06-14T08:41:22Z</time>
      </trkpt>
      <trkpt lat="42.85201" lon="0.66252">
        <ele>1823.7583007812</ele>
        <time>2011-06-14T08:41:30Z</time>
      </trkpt>
      <trkpt lat="42.85195" lon="0.66244">
        <ele>1824.2390136719</ele>
        <time>2011-06-14T08:41:37Z</time>
      </trkpt>
      <trkpt lat="42.85186" lon="0.66235">
        <ele>1824.7197265625</ele>
        <time>2011-06-14T08:41:46Z</time>
      </trkpt>
      <trkpt lat="42.85178" lon="0.66229">
        <ele>1825.6809082031</ele>
        <time>2011-06-14T08:41:53Z</time>
      </trkpt>
      <trkpt lat="42.85173" lon="0.66224">
        <ele>1826.6423339844</ele>
        <time>2011-06-14T08:41:58Z</time>
      </trkpt>
      <trkpt lat="42.85165" lon="0.66218">
        <ele>1828.5649414062</ele>
        <time>2011-06-14T08:42:05Z</time>
      </trkpt>
      <trkpt lat="42.8516" lon="0.66214">
        <ele>1829.5261230469</ele>
        <time>2011-06-14T08:42:10Z</time>
      </trkpt>
      <trkpt lat="42.85154" lon="0.6621">
        <ele>1830.4875488281</ele>
        <time>2011-06-14T08:42:18Z</time>
      </trkpt>
      <trkpt lat="42.8515" lon="0.66207">
        <ele>1830.9682617188</ele>
        <time>2011-06-14T08:42:26Z</time>
      </trkpt>
      <trkpt lat="42.85141" lon="0.66203">
        <ele>1832.41015625</ele>
        <time>2011-06-14T08:42:35Z</time>
      </trkpt>
      <trkpt lat="42.85138" lon="0.66202">
        <ele>1832.890625</ele>
        <time>2011-06-14T08:42:40Z</time>
      </trkpt>
      <trkpt lat="42.85134" lon="0.66203">
        <ele>1833.8520507812</ele>
        <time>2011-06-14T08:42:44Z</time>
      </trkpt>
      <trkpt lat="42.8513" lon="0.66206">
        <ele>1834.3327636719</ele>
        <time>2011-06-14T08:42:48Z</time>
      </trkpt>
      <trkpt lat="42.85125" lon="0.66215">
        <ele>1835.7746582031</ele>
        <time>2011-06-14T08:42:56Z</time>
      </trkpt>
      <trkpt lat="42.85122" lon="0.66222">
        <ele>1835.7746582031</ele>
        <time>2011-06-14T08:43:01Z</time>
      </trkpt>
      <trkpt lat="42.85122" lon="0.66228">
        <ele>1836.2556152344</ele>
        <time>2011-06-14T08:43:08Z</time>
      </trkpt>
      <trkpt lat="42.8512" lon="0.66239">
        <ele>1837.6975097656</ele>
        <time>2011-06-14T08:43:15Z</time>
      </trkpt>
      <trkpt lat="42.85118" lon="0.66249">
        <ele>1838.1782226562</ele>
        <time>2011-06-14T08:43:22Z</time>
      </trkpt>
      <trkpt lat="42.85115" lon="0.66262">
        <ele>1839.1394042969</ele>
        <time>2011-06-14T08:43:30Z</time>
      </trkpt>
      <trkpt lat="42.85116" lon="0.66271">
        <ele>1840.1008300781</ele>
        <time>2011-06-14T08:43:37Z</time>
      </trkpt>
      <trkpt lat="42.85122" lon="0.66267">
        <ele>1841.0620117188</ele>
        <time>2011-06-14T08:43:43Z</time>
      </trkpt>
      <trkpt lat="42.85123" lon="0.66264">
        <ele>1841.0620117188</ele>
        <time>2011-06-14T08:43:45Z</time>
      </trkpt>
      <trkpt lat="42.85128" lon="0.66251">
        <ele>1842.0234375</ele>
        <time>2011-06-14T08:43:54Z</time>
      </trkpt>
      <trkpt lat="42.85137" lon="0.66248">
        <ele>1842.9846191406</ele>
        <time>2011-06-14T08:44:01Z</time>
      </trkpt>
      <trkpt lat="42.8514" lon="0.6625">
        <ele>1842.9846191406</ele>
        <time>2011-06-14T08:44:04Z</time>
      </trkpt>
      <trkpt lat="42.85145" lon="0.66257">
        <ele>1844.4265136719</ele>
        <time>2011-06-14T08:44:10Z</time>
      </trkpt>
      <trkpt lat="42.8515" lon="0.66267">
        <ele>1845.8686523438</ele>
        <time>2011-06-14T08:44:17Z</time>
      </trkpt>
      <trkpt lat="42.85154" lon="0.66276">
        <ele>1846.8298339844</ele>
        <time>2011-06-14T08:44:23Z</time>
      </trkpt>
      <trkpt lat="42.85158" lon="0.66288">
        <ele>1848.7524414062</ele>
        <time>2011-06-14T08:44:31Z</time>
      </trkpt>
      <trkpt lat="42.85161" lon="0.66298">
        <ele>1850.1945800781</ele>
        <time>2011-06-14T08:44:38Z</time>
      </trkpt>
      <trkpt lat="42.85162" lon="0.66299">
        <ele>1850.1945800781</ele>
        <time>2011-06-14T08:44:39Z</time>
      </trkpt>
      <trkpt lat="42.85165" lon="0.6631">
        <ele>1851.6364746094</ele>
        <time>2011-06-14T08:44:46Z</time>
      </trkpt>
      <trkpt lat="42.85166" lon="0.66319">
        <ele>1852.1171875</ele>
        <time>2011-06-14T08:44:52Z</time>
      </trkpt>
      <trkpt lat="42.85167" lon="0.66329">
        <ele>1853.0786132812</ele>
        <time>2011-06-14T08:44:58Z</time>
      </trkpt>
      <trkpt lat="42.85168" lon="0.66339">
        <ele>1854.0400390625</ele>
        <time>2011-06-14T08:45:04Z</time>
      </trkpt>
      <trkpt lat="42.8517" lon="0.66349">
        <ele>1855.4819335938</ele>
        <time>2011-06-14T08:45:10Z</time>
      </trkpt>
      <trkpt lat="42.85171" lon="0.66359">
        <ele>1855.9624023438</ele>
        <time>2011-06-14T08:45:16Z</time>
      </trkpt>
      <trkpt lat="42.85172" lon="0.66367">
        <ele>1856.923828125</ele>
        <time>2011-06-14T08:45:21Z</time>
      </trkpt>
      <trkpt lat="42.85172" lon="0.66379">
        <ele>1857.8852539062</ele>
        <time>2011-06-14T08:45:28Z</time>
      </trkpt>
      <trkpt lat="42.85172" lon="0.66389">
        <ele>1857.8852539062</ele>
        <time>2011-06-14T08:45:34Z</time>
      </trkpt>
      <trkpt lat="42.85173" lon="0.66401">
        <ele>1858.8464355469</ele>
        <time>2011-06-14T08:45:41Z</time>
      </trkpt>
      <trkpt lat="42.85172" lon="0.66413">
        <ele>1860.7690429688</ele>
        <time>2011-06-14T08:45:49Z</time>
      </trkpt>
      <trkpt lat="42.85171" lon="0.66426">
        <ele>1862.2109375</ele>
        <time>2011-06-14T08:45:57Z</time>
      </trkpt>
      <trkpt lat="42.85171" lon="0.66436">
        <ele>1863.6528320312</ele>
        <time>2011-06-14T08:46:04Z</time>
      </trkpt>
      <trkpt lat="42.85169" lon="0.66446">
        <ele>1864.6142578125</ele>
        <time>2011-06-14T08:46:10Z</time>
      </trkpt>
      <trkpt lat="42.85168" lon="0.66455">
        <ele>1865.0949707031</ele>
        <time>2011-06-14T08:46:16Z</time>
      </trkpt>
      <trkpt lat="42.85165" lon="0.66468">
        <ele>1867.017578125</ele>
        <time>2011-06-14T08:46:25Z</time>
      </trkpt>
      <trkpt lat="42.85162" lon="0.66477">
        <ele>1867.498046875</ele>
        <time>2011-06-14T08:46:31Z</time>
      </trkpt>
      <trkpt lat="42.8516" lon="0.66484">
        <ele>1868.4597167969</ele>
        <time>2011-06-14T08:46:36Z</time>
      </trkpt>
      <trkpt lat="42.8516" lon="0.66485">
        <ele>1868.9404296875</ele>
        <time>2011-06-14T08:46:37Z</time>
      </trkpt>
      <trkpt lat="42.85157" lon="0.66492">
        <ele>1870.3823242188</ele>
        <time>2011-06-14T08:46:43Z</time>
      </trkpt>
      <trkpt lat="42.85155" lon="0.66497">
        <ele>1871.3435058594</ele>
        <time>2011-06-14T08:46:47Z</time>
      </trkpt>
      <trkpt lat="42.85148" lon="0.66507">
        <ele>1872.7856445312</ele>
        <time>2011-06-14T08:46:56Z</time>
      </trkpt>
      <trkpt lat="42.85141" lon="0.66516">
        <ele>1874.7082519531</ele>
        <time>2011-06-14T08:47:05Z</time>
      </trkpt>
      <trkpt lat="42.85135" lon="0.66525">
        <ele>1875.6694335938</ele>
        <time>2011-06-14T08:47:13Z</time>
      </trkpt>
      <trkpt lat="42.85129" lon="0.66531">
        <ele>1876.1501464844</ele>
        <time>2011-06-14T08:47:20Z</time>
      </trkpt>
      <trkpt lat="42.85128" lon="0.66531">
        <ele>1876.1501464844</ele>
        <time>2011-06-14T08:47:27Z</time>
      </trkpt>
      <trkpt lat="42.85127" lon="0.66535">
        <ele>1876.630859375</ele>
        <time>2011-06-14T08:47:35Z</time>
      </trkpt>
      <trkpt lat="42.85129" lon="0.66543">
        <ele>1877.1115722656</ele>
        <time>2011-06-14T08:47:42Z</time>
      </trkpt>
      <trkpt lat="42.8513" lon="0.66549">
        <ele>1877.1115722656</ele>
        <time>2011-06-14T08:47:46Z</time>
      </trkpt>
      <trkpt lat="42.85132" lon="0.66558">
        <ele>1878.0727539062</ele>
        <time>2011-06-14T08:47:51Z</time>
      </trkpt>
      <trkpt lat="42.85137" lon="0.66572">
        <ele>1879.9953613281</ele>
        <time>2011-06-14T08:48:00Z</time>
      </trkpt>
      <trkpt lat="42.85141" lon="0.66581">
        <ele>1881.91796875</ele>
        <time>2011-06-14T08:48:08Z</time>
      </trkpt>
      <trkpt lat="42.85143" lon="0.66584">
        <ele>1882.3986816406</ele>
        <time>2011-06-14T08:48:15Z</time>
      </trkpt>
      <trkpt lat="42.85147" lon="0.66593">
        <ele>1885.2827148438</ele>
        <time>2011-06-14T08:48:24Z</time>
      </trkpt>
      <trkpt lat="42.85154" lon="0.66595">
        <ele>1886.244140625</ele>
        <time>2011-06-14T08:48:32Z</time>
      </trkpt>
      <trkpt lat="42.85159" lon="0.666">
        <ele>1887.2053222656</ele>
        <time>2011-06-14T08:48:38Z</time>
      </trkpt>
    </trkseg>
  </trk>
  <trk>
    <name><![CDATA[Randocourse]]></name>
    <trkseg>
      <trkpt lat="42.8516" lon="0.66602">
        <ele>1887.2053222656</ele>
        <time>2011-06-14T08:48:42Z</time>
      </trkpt>
      <trkpt lat="42.8516" lon="0.66602">
        <ele>1887.2053222656</ele>
        <time>2011-06-14T08:48:43Z</time>
      </trkpt>
      <trkpt lat="42.8516" lon="0.66604">
        <ele>1887.2053222656</ele>
        <time>2011-06-14T08:48:53Z</time>
      </trkpt>
      <trkpt lat="42.85163" lon="0.66607">
        <ele>1887.2053222656</ele>
        <time>2011-06-14T08:49:01Z</time>
      </trkpt>
      <trkpt lat="42.85165" lon="0.66611">
        <ele>1889.6086425781</ele>
        <time>2011-06-14T08:49:07Z</time>
      </trkpt>
      <trkpt lat="42.85166" lon="0.66616">
        <ele>1890.5698242188</ele>
        <time>2011-06-14T08:49:13Z</time>
      </trkpt>
      <trkpt lat="42.85168" lon="0.66626">
        <ele>1892.0119628906</ele>
        <time>2011-06-14T08:49:20Z</time>
      </trkpt>
      <trkpt lat="42.85168" lon="0.66629">
        <ele>1892.4926757812</ele>
        <time>2011-06-14T08:49:22Z</time>
      </trkpt>
      <trkpt lat="42.85169" lon="0.66641">
        <ele>1893.9345703125</ele>
        <time>2011-06-14T08:49:30Z</time>
      </trkpt>
      <trkpt lat="42.85172" lon="0.66653">
        <ele>1895.3764648438</ele>
        <time>2011-06-14T08:49:38Z</time>
      </trkpt>
      <trkpt lat="42.85173" lon="0.66663">
        <ele>1895.3764648438</ele>
        <time>2011-06-14T08:49:45Z</time>
      </trkpt>
      <trkpt lat="42.85173" lon="0.6667">
        <ele>1894.8957519531</ele>
        <time>2011-06-14T08:49:52Z</time>
      </trkpt>
      <trkpt lat="42.85173" lon="0.66671">
        <ele>1894.8957519531</ele>
        <time>2011-06-14T08:49:59Z</time>
      </trkpt>
      <trkpt lat="42.85174" lon="0.6667">
        <ele>1895.3764648438</ele>
        <time>2011-06-14T08:50:18Z</time>
      </trkpt>
      <trkpt lat="42.8518" lon="0.66671">
        <ele>1895.8571777344</ele>
        <time>2011-06-14T08:50:25Z</time>
      </trkpt>
      <trkpt lat="42.85185" lon="0.66673">
        <ele>1897.2990722656</ele>
        <time>2011-06-14T08:50:30Z</time>
      </trkpt>
      <trkpt lat="42.8519" lon="0.66686">
        <ele>1896.337890625</ele>
        <time>2011-06-14T08:50:38Z</time>
      </trkpt>
      <trkpt lat="42.85192" lon="0.66698">
        <ele>1894.8957519531</ele>
        <time>2011-06-14T08:50:45Z</time>
      </trkpt>
      <trkpt lat="42.85193" lon="0.6671">
        <ele>1894.4150390625</ele>
        <time>2011-06-14T08:50:52Z</time>
      </trkpt>
      <trkpt lat="42.85193" lon="0.66723">
        <ele>1895.3764648438</ele>
        <time>2011-06-14T08:51:01Z</time>
      </trkpt>
      <trkpt lat="42.85189" lon="0.66723">
        <ele>1894.4150390625</ele>
        <time>2011-06-14T08:51:11Z</time>
      </trkpt>
      <trkpt lat="42.85192" lon="0.66728">
        <ele>1895.3764648438</ele>
        <time>2011-06-14T08:51:19Z</time>
      </trkpt>
      <trkpt lat="42.85193" lon="0.66737">
        <ele>1895.3764648438</ele>
        <time>2011-06-14T08:51:25Z</time>
      </trkpt>
      <trkpt lat="42.85193" lon="0.66738">
        <ele>1895.3764648438</ele>
        <time>2011-06-14T08:51:26Z</time>
      </trkpt>
      <trkpt lat="42.85195" lon="0.6675">
        <ele>1897.2990722656</ele>
        <time>2011-06-14T08:51:33Z</time>
      </trkpt>
      <trkpt lat="42.85194" lon="0.66762">
        <ele>1899.2216796875</ele>
        <time>2011-06-14T08:51:40Z</time>
      </trkpt>
      <trkpt lat="42.85194" lon="0.6677">
        <ele>1900.1833496094</ele>
        <time>2011-06-14T08:51:45Z</time>
      </trkpt>
      <trkpt lat="42.85193" lon="0.66775">
        <ele>1901.14453125</ele>
        <time>2011-06-14T08:51:48Z</time>
      </trkpt>
      <trkpt lat="42.85189" lon="0.6679">
        <ele>1903.5478515625</ele>
        <time>2011-06-14T08:51:58Z</time>
      </trkpt>
      <trkpt lat="42.85187" lon="0.668">
        <ele>1906.431640625</ele>
        <time>2011-06-14T08:52:05Z</time>
      </trkpt>
      <trkpt lat="42.85185" lon="0.66807">
        <ele>1907.8737792969</ele>
        <time>2011-06-14T08:52:11Z</time>
      </trkpt>
      <trkpt lat="42.85184" lon="0.66813">
        <ele>1909.3156738281</ele>
        <time>2011-06-14T08:52:16Z</time>
      </trkpt>
      <trkpt lat="42.85181" lon="0.66821">
        <ele>1911.23828125</ele>
        <time>2011-06-14T08:52:23Z</time>
      </trkpt>
      <trkpt lat="42.85178" lon="0.66828">
        <ele>1912.6801757812</ele>
        <time>2011-06-14T08:52:31Z</time>
      </trkpt>
      <trkpt lat="42.85175" lon="0.66837">
        <ele>1913.6413574219</ele>
        <time>2011-06-14T08:52:39Z</time>
      </trkpt>
      <trkpt lat="42.85173" lon="0.66842">
        <ele>1915.0834960938</ele>
        <time>2011-06-14T08:52:43Z</time>
      </trkpt>
      <trkpt lat="42.85172" lon="0.66849">
        <ele>1917.0063476562</ele>
        <time>2011-06-14T08:52:50Z</time>
      </trkpt>
      <trkpt lat="42.8517" lon="0.66854">
        <ele>1917.9675292969</ele>
        <time>2011-06-14T08:52:54Z</time>
      </trkpt>
      <trkpt lat="42.85169" lon="0.66861">
        <ele>1919.4096679688</ele>
        <time>2011-06-14T08:53:00Z</time>
      </trkpt>
      <trkpt lat="42.85167" lon="0.66866">
        <ele>1920.3708496094</ele>
        <time>2011-06-14T08:53:05Z</time>
      </trkpt>
      <trkpt lat="42.85167" lon="0.66872">
        <ele>1920.8515625</ele>
        <time>2011-06-14T08:53:10Z</time>
      </trkpt>
      <trkpt lat="42.85165" lon="0.66878">
        <ele>1921.8127441406</ele>
        <time>2011-06-14T08:53:16Z</time>
      </trkpt>
      <trkpt lat="42.85164" lon="0.66883">
        <ele>1922.7741699219</ele>
        <time>2011-06-14T08:53:20Z</time>
      </trkpt>
      <trkpt lat="42.85162" lon="0.6689">
        <ele>1923.7353515625</ele>
        <time>2011-06-14T08:53:26Z</time>
      </trkpt>
      <trkpt lat="42.8516" lon="0.66897">
        <ele>1925.6579589844</ele>
        <time>2011-06-14T08:53:32Z</time>
      </trkpt>
      <trkpt lat="42.85158" lon="0.66904">
        <ele>1928.0612792969</ele>
        <time>2011-06-14T08:53:38Z</time>
      </trkpt>
      <trkpt lat="42.85155" lon="0.66912">
        <ele>1928.5419921875</ele>
        <time>2011-06-14T08:53:45Z</time>
      </trkpt>
      <trkpt lat="42.85153" lon="0.66917">
        <ele>1929.9838867188</ele>
        <time>2011-06-14T08:53:50Z</time>
      </trkpt>
      <trkpt lat="42.85151" lon="0.66924">
        <ele>1931.42578125</ele>
        <time>2011-06-14T08:53:56Z</time>
      </trkpt>
      <trkpt lat="42.85148" lon="0.66933">
        <ele>1933.8293457031</ele>
        <time>2011-06-14T08:54:03Z</time>
      </trkpt>
      <trkpt lat="42.85146" lon="0.66939">
        <ele>1934.7907714844</ele>
        <time>2011-06-14T08:54:08Z</time>
      </trkpt>
      <trkpt lat="42.85143" lon="0.66948">
        <ele>1935.751953125</ele>
        <time>2011-06-14T08:54:15Z</time>
      </trkpt>
      <trkpt lat="42.85141" lon="0.6696">
        <ele>1937.6745605469</ele>
        <time>2011-06-14T08:54:24Z</time>
      </trkpt>
      <trkpt lat="42.85139" lon="0.66968">
        <ele>1939.1164550781</ele>
        <time>2011-06-14T08:54:30Z</time>
      </trkpt>
      <trkpt lat="42.85139" lon="0.66979">
        <ele>1941.0390625</ele>
        <time>2011-06-14T08:54:37Z</time>
      </trkpt>
      <trkpt lat="42.85138" lon="0.66988">
        <ele>1941.5197753906</ele>
        <time>2011-06-14T08:54:43Z</time>
      </trkpt>
      <trkpt lat="42.85136" lon="0.66999">
        <ele>1942.0004882812</ele>
        <time>2011-06-14T08:54:50Z</time>
      </trkpt>
      <trkpt lat="42.85136" lon="0.67011">
        <ele>1942.9616699219</ele>
        <time>2011-06-14T08:54:57Z</time>
      </trkpt>
      <trkpt lat="42.85135" lon="0.6702">
        <ele>1943.9230957031</ele>
        <time>2011-06-14T08:55:02Z</time>
      </trkpt>
      <trkpt lat="42.85133" lon="0.67033">
        <ele>1943.4423828125</ele>
        <time>2011-06-14T08:55:09Z</time>
      </trkpt>
      <trkpt lat="42.85134" lon="0.67044">
        <ele>1942.9616699219</ele>
        <time>2011-06-14T08:55:15Z</time>
      </trkpt>
      <trkpt lat="42.85136" lon="0.67055">
        <ele>1942.9616699219</ele>
        <time>2011-06-14T08:55:21Z</time>
      </trkpt>
      <trkpt lat="42.85139" lon="0.67066">
        <ele>1943.4423828125</ele>
        <time>2011-06-14T08:55:27Z</time>
      </trkpt>
      <trkpt lat="42.85141" lon="0.67079">
        <ele>1944.8842773438</ele>
        <time>2011-06-14T08:55:34Z</time>
      </trkpt>
      <trkpt lat="42.85143" lon="0.67086">
        <ele>1945.845703125</ele>
        <time>2011-06-14T08:55:38Z</time>
      </trkpt>
      <trkpt lat="42.85143" lon="0.67099">
        <ele>1947.2875976562</ele>
        <time>2011-06-14T08:55:45Z</time>
      </trkpt>
      <trkpt lat="42.85144" lon="0.67107">
        <ele>1948.7297363281</ele>
        <time>2011-06-14T08:55:50Z</time>
      </trkpt>
      <trkpt lat="42.85146" lon="0.67115">
        <ele>1949.2104492188</ele>
        <time>2011-06-14T08:55:55Z</time>
      </trkpt>
      <trkpt lat="42.85148" lon="0.67125">
        <ele>1950.65234375</ele>
        <time>2011-06-14T08:56:01Z</time>
      </trkpt>
      <trkpt lat="42.85149" lon="0.67134">
        <ele>1951.6137695312</ele>
        <time>2011-06-14T08:56:07Z</time>
      </trkpt>
      <trkpt lat="42.85151" lon="0.67145">
        <ele>1952.5749511719</ele>
        <time>2011-06-14T08:56:14Z</time>
      </trkpt>
      <trkpt lat="42.85152" lon="0.67155">
        <ele>1953.0556640625</ele>
        <time>2011-06-14T08:56:20Z</time>
      </trkpt>
      <trkpt lat="42.85154" lon="0.67169">
        <ele>1952.0942382812</ele>
        <time>2011-06-14T08:56:29Z</time>
      </trkpt>
      <trkpt lat="42.85155" lon="0.67181">
        <ele>1953.5363769531</ele>
        <time>2011-06-14T08:56:36Z</time>
      </trkpt>
      <trkpt lat="42.85157" lon="0.67189">
        <ele>1954.4975585938</ele>
        <time>2011-06-14T08:56:41Z</time>
      </trkpt>
      <trkpt lat="42.85159" lon="0.67198">
        <ele>1955.458984375</ele>
        <time>2011-06-14T08:56:46Z</time>
      </trkpt>
      <trkpt lat="42.85162" lon="0.67209">
        <ele>1957.3815917969</ele>
        <time>2011-06-14T08:56:53Z</time>
      </trkpt>
      <trkpt lat="42.85165" lon="0.67217">
        <ele>1958.3427734375</ele>
        <time>2011-06-14T08:56:58Z</time>
      </trkpt>
      <trkpt lat="42.85167" lon="0.67227">
        <ele>1959.7846679688</ele>
        <time>2011-06-14T08:57:04Z</time>
      </trkpt>
      <trkpt lat="42.85169" lon="0.67234">
        <ele>1960.74609375</ele>
        <time>2011-06-14T08:57:09Z</time>
      </trkpt>
      <trkpt lat="42.85171" lon="0.67243">
        <ele>1962.1879882812</ele>
        <time>2011-06-14T08:57:15Z</time>
      </trkpt>
      <trkpt lat="42.85173" lon="0.67251">
        <ele>1963.1494140625</ele>
        <time>2011-06-14T08:57:20Z</time>
      </trkpt>
      <trkpt lat="42.85174" lon="0.67262">
        <ele>1964.1108398438</ele>
        <time>2011-06-14T08:57:26Z</time>
      </trkpt>
      <trkpt lat="42.85176" lon="0.67271">
        <ele>1966.0334472656</ele>
        <time>2011-06-14T08:57:32Z</time>
      </trkpt>
      <trkpt lat="42.85178" lon="0.6728">
        <ele>1966.5141601562</ele>
        <time>2011-06-14T08:57:37Z</time>
      </trkpt>
      <trkpt lat="42.8518" lon="0.6729">
        <ele>1967.9560546875</ele>
        <time>2011-06-14T08:57:43Z</time>
      </trkpt>
      <trkpt lat="42.8518" lon="0.67299">
        <ele>1968.9174804688</ele>
        <time>2011-06-14T08:57:49Z</time>
      </trkpt>
      <trkpt lat="42.85182" lon="0.67308">
        <ele>1969.8786621094</ele>
        <time>2011-06-14T08:57:55Z</time>
      </trkpt>
      <trkpt lat="42.85185" lon="0.67314">
        <ele>1971.8012695312</ele>
        <time>2011-06-14T08:58:00Z</time>
      </trkpt>
      <trkpt lat="42.85186" lon="0.67317">
        <ele>1972.2819824219</ele>
        <time>2011-06-14T08:58:02Z</time>
      </trkpt>
      <trkpt lat="42.85189" lon="0.67322">
        <ele>1973.2434082031</ele>
        <time>2011-06-14T08:58:07Z</time>
      </trkpt>
      <trkpt lat="42.85193" lon="0.6733">
        <ele>1975.646484375</ele>
        <time>2011-06-14T08:58:15Z</time>
      </trkpt>
      <trkpt lat="42.85196" lon="0.67334">
        <ele>1976.6079101562</ele>
        <time>2011-06-14T08:58:20Z</time>
      </trkpt>
      <trkpt lat="42.85199" lon="0.67338">
        <ele>1977.5690917969</ele>
        <time>2011-06-14T08:58:26Z</time>
      </trkpt>
      <trkpt lat="42.85204" lon="0.67342">
        <ele>1978.0498046875</ele>
        <time>2011-06-14T08:58:32Z</time>
      </trkpt>
      <trkpt lat="42.8521" lon="0.67344">
        <ele>1979.4916992188</ele>
        <time>2011-06-14T08:58:40Z</time>
      </trkpt>
      <trkpt lat="42.85212" lon="0.67344">
        <ele>1980.4533691406</ele>
        <time>2011-06-14T08:58:46Z</time>
      </trkpt>
      <trkpt lat="42.85211" lon="0.67344">
        <ele>1981.4145507812</ele>
        <time>2011-06-14T08:59:02Z</time>
      </trkpt>
      <trkpt lat="42.85211" lon="0.67344">
        <ele>1980.9340820312</ele>
        <time>2011-06-14T08:59:06Z</time>
      </trkpt>
      <trkpt lat="42.85208" lon="0.6734">
        <ele>1983.8178710938</ele>
        <time>2011-06-14T09:01:07Z</time>
      </trkpt>
      <trkpt lat="42.85207" lon="0.67339">
        <ele>1983.8178710938</ele>
        <time>2011-06-14T09:01:08Z</time>
      </trkpt>
      <trkpt lat="42.85206" lon="0.67329">
        <ele>1983.3371582031</ele>
        <time>2011-06-14T09:01:14Z</time>
      </trkpt>
      <trkpt lat="42.85206" lon="0.67327">
        <ele>1983.3371582031</ele>
        <time>2011-06-14T09:01:15Z</time>
      </trkpt>
      <trkpt lat="42.85205" lon="0.67318">
        <ele>1984.779296875</ele>
        <time>2011-06-14T09:01:20Z</time>
      </trkpt>
      <trkpt lat="42.85204" lon="0.67304">
        <ele>1986.7016601562</ele>
        <time>2011-06-14T09:01:27Z</time>
      </trkpt>
      <trkpt lat="42.85204" lon="0.67301">
        <ele>1987.1823730469</ele>
        <time>2011-06-14T09:01:29Z</time>
      </trkpt>
      <trkpt lat="42.85204" lon="0.67292">
        <ele>1987.6630859375</ele>
        <time>2011-06-14T09:01:34Z</time>
      </trkpt>
      <trkpt lat="42.85204" lon="0.67291">
        <ele>1987.6630859375</ele>
        <time>2011-06-14T09:01:35Z</time>
      </trkpt>
      <trkpt lat="42.85206" lon="0.67276">
        <ele>1987.6630859375</ele>
        <time>2011-06-14T09:01:44Z</time>
      </trkpt>
      <trkpt lat="42.85208" lon="0.67267">
        <ele>1988.1437988281</ele>
        <time>2011-06-14T09:01:49Z</time>
      </trkpt>
      <trkpt lat="42.85212" lon="0.6725">
        <ele>1987.1823730469</ele>
        <time>2011-06-14T09:01:58Z</time>
      </trkpt>
      <trkpt lat="42.85214" lon="0.67244">
        <ele>1985.7404785156</ele>
        <time>2011-06-14T09:02:02Z</time>
      </trkpt>
      <trkpt lat="42.85216" lon="0.6724">
        <ele>1983.8178710938</ele>
        <time>2011-06-14T09:02:08Z</time>
      </trkpt>
      <trkpt lat="42.85219" lon="0.67235">
        <ele>1983.3371582031</ele>
        <time>2011-06-14T09:02:11Z</time>
      </trkpt>
      <trkpt lat="42.85221" lon="0.67231">
        <ele>1983.8178710938</ele>
        <time>2011-06-14T09:02:14Z</time>
      </trkpt>
      <trkpt lat="42.85226" lon="0.67223">
        <ele>1983.8178710938</ele>
        <time>2011-06-14T09:02:20Z</time>
      </trkpt>
      <trkpt lat="42.85233" lon="0.67218">
        <ele>1982.8564453125</ele>
        <time>2011-06-14T09:02:26Z</time>
      </trkpt>
      <trkpt lat="42.85236" lon="0.67217">
        <ele>1981.8952636719</ele>
        <time>2011-06-14T09:02:29Z</time>
      </trkpt>
      <trkpt lat="42.85246" lon="0.67222">
        <ele>1983.3371582031</ele>
        <time>2011-06-14T09:02:37Z</time>
      </trkpt>
      <trkpt lat="42.85254" lon="0.67232">
        <ele>1983.8178710938</ele>
        <time>2011-06-14T09:02:46Z</time>
      </trkpt>
      <trkpt lat="42.85257" lon="0.67242">
        <ele>1985.259765625</ele>
        <time>2011-06-14T09:02:53Z</time>
      </trkpt>
      <trkpt lat="42.85257" lon="0.67251">
        <ele>1986.2211914062</ele>
        <time>2011-06-14T09:02:59Z</time>
      </trkpt>
      <trkpt lat="42.85256" lon="0.6726">
        <ele>1987.1823730469</ele>
        <time>2011-06-14T09:03:06Z</time>
      </trkpt>
      <trkpt lat="42.85254" lon="0.67268">
        <ele>1987.6630859375</ele>
        <time>2011-06-14T09:03:12Z</time>
      </trkpt>
      <trkpt lat="42.85255" lon="0.67278">
        <ele>1989.1049804688</ele>
        <time>2011-06-14T09:03:19Z</time>
      </trkpt>
      <trkpt lat="42.85255" lon="0.67279">
        <ele>1989.5856933594</ele>
        <time>2011-06-14T09:03:20Z</time>
      </trkpt>
      <trkpt lat="42.85259" lon="0.6729">
        <ele>1990.546875</ele>
        <time>2011-06-14T09:03:28Z</time>
      </trkpt>
      <trkpt lat="42.85262" lon="0.67298">
        <ele>1991.0275878906</ele>
        <time>2011-06-14T09:03:34Z</time>
      </trkpt>
      <trkpt lat="42.85263" lon="0.67309">
        <ele>1991.5083007812</ele>
        <time>2011-06-14T09:03:41Z</time>
      </trkpt>
      <trkpt lat="42.85263" lon="0.67316">
        <ele>1991.9890136719</ele>
        <time>2011-06-14T09:03:46Z</time>
      </trkpt>
      <trkpt lat="42.85262" lon="0.67329">
        <ele>1991.0275878906</ele>
        <time>2011-06-14T09:03:55Z</time>
      </trkpt>
      <trkpt lat="42.85262" lon="0.6733">
        <ele>1991.0275878906</ele>
        <time>2011-06-14T09:04:01Z</time>
      </trkpt>
      <trkpt lat="42.85263" lon="0.67336">
        <ele>1991.5083007812</ele>
        <time>2011-06-14T09:04:13Z</time>
      </trkpt>
      <trkpt lat="42.85263" lon="0.67347">
        <ele>1991.0275878906</ele>
        <time>2011-06-14T09:04:20Z</time>
      </trkpt>
      <trkpt lat="42.85265" lon="0.67354">
        <ele>1990.546875</ele>
        <time>2011-06-14T09:04:25Z</time>
      </trkpt>
      <trkpt lat="42.85272" lon="0.67358">
        <ele>1990.546875</ele>
        <time>2011-06-14T09:04:32Z</time>
      </trkpt>
      <trkpt lat="42.85273" lon="0.67358">
        <ele>1990.546875</ele>
        <time>2011-06-14T09:04:33Z</time>
      </trkpt>
      <trkpt lat="42.85281" lon="0.67362">
        <ele>1991.5083007812</ele>
        <time>2011-06-14T09:04:41Z</time>
      </trkpt>
      <trkpt lat="42.85287" lon="0.67368">
        <ele>1992.4697265625</ele>
        <time>2011-06-14T09:04:48Z</time>
      </trkpt>
      <trkpt lat="42.85289" lon="0.67371">
        <ele>1993.4309082031</ele>
        <time>2011-06-14T09:04:51Z</time>
      </trkpt>
      <trkpt lat="42.8529" lon="0.6738">
        <ele>1993.9116210938</ele>
        <time>2011-06-14T09:04:58Z</time>
      </trkpt>
      <trkpt lat="42.8529" lon="0.67383">
        <ele>1994.3920898438</ele>
        <time>2011-06-14T09:05:04Z</time>
      </trkpt>
      <trkpt lat="42.85291" lon="0.67384">
        <ele>1990.06640625</ele>
        <time>2011-06-14T09:05:17Z</time>
      </trkpt>
      <trkpt lat="42.8529" lon="0.67393">
        <ele>1990.546875</ele>
        <time>2011-06-14T09:05:23Z</time>
      </trkpt>
      <trkpt lat="42.85287" lon="0.67404">
        <ele>1992.9501953125</ele>
        <time>2011-06-14T09:05:30Z</time>
      </trkpt>
      <trkpt lat="42.85282" lon="0.67416">
        <ele>1996.7956542969</ele>
        <time>2011-06-14T09:05:39Z</time>
      </trkpt>
      <trkpt lat="42.8528" lon="0.67422">
        <ele>1998.2375488281</ele>
        <time>2011-06-14T09:05:44Z</time>
      </trkpt>
      <trkpt lat="42.85278" lon="0.67428">
        <ele>2000.1604003906</ele>
        <time>2011-06-14T09:05:49Z</time>
      </trkpt>
      <trkpt lat="42.85273" lon="0.67438">
        <ele>2002.5634765625</ele>
        <time>2011-06-14T09:05:57Z</time>
      </trkpt>
      <trkpt lat="42.85271" lon="0.67447">
        <ele>2004.4860839844</ele>
        <time>2011-06-14T09:06:04Z</time>
      </trkpt>
      <trkpt lat="42.85268" lon="0.67458">
        <ele>2006.4086914062</ele>
        <time>2011-06-14T09:06:12Z</time>
      </trkpt>
      <trkpt lat="42.85265" lon="0.67467">
        <ele>2008.3312988281</ele>
        <time>2011-06-14T09:06:19Z</time>
      </trkpt>
      <trkpt lat="42.85264" lon="0.6747">
        <ele>2009.7731933594</ele>
        <time>2011-06-14T09:06:27Z</time>
      </trkpt>
      <trkpt lat="42.85262" lon="0.67475">
        <ele>2010.25390625</ele>
        <time>2011-06-14T09:06:32Z</time>
      </trkpt>
      <trkpt lat="42.85261" lon="0.67479">
        <ele>2011.2153320312</ele>
        <time>2011-06-14T09:06:36Z</time>
      </trkpt>
      <trkpt lat="42.85258" lon="0.67487">
        <ele>2012.6574707031</ele>
        <time>2011-06-14T09:06:43Z</time>
      </trkpt>
      <trkpt lat="42.85256" lon="0.67494">
        <ele>2014.0993652344</ele>
        <time>2011-06-14T09:06:50Z</time>
      </trkpt>
      <trkpt lat="42.85254" lon="0.67499">
        <ele>2015.5415039062</ele>
        <time>2011-06-14T09:06:55Z</time>
      </trkpt>
      <trkpt lat="42.85252" lon="0.67506">
        <ele>2016.9833984375</ele>
        <time>2011-06-14T09:07:01Z</time>
      </trkpt>
      <trkpt lat="42.85251" lon="0.6751">
        <ele>2016.9833984375</ele>
        <time>2011-06-14T09:07:05Z</time>
      </trkpt>
      <trkpt lat="42.8525" lon="0.67515">
        <ele>2017.9445800781</ele>
        <time>2011-06-14T09:07:17Z</time>
      </trkpt>
      <trkpt lat="42.85249" lon="0.67519">
        <ele>2018.9060058594</ele>
        <time>2011-06-14T09:07:21Z</time>
      </trkpt>
      <trkpt lat="42.85249" lon="0.67525">
        <ele>2020.3479003906</ele>
        <time>2011-06-14T09:07:26Z</time>
      </trkpt>
      <trkpt lat="42.8525" lon="0.67531">
        <ele>2021.7897949219</ele>
        <time>2011-06-14T09:07:32Z</time>
      </trkpt>
      <trkpt lat="42.85251" lon="0.67538">
        <ele>2023.7124023438</ele>
        <time>2011-06-14T09:07:38Z</time>
      </trkpt>
      <trkpt lat="42.8525" lon="0.67544">
        <ele>2025.6350097656</ele>
        <time>2011-06-14T09:07:44Z</time>
      </trkpt>
      <trkpt lat="42.85252" lon="0.67548">
        <ele>2026.5964355469</ele>
        <time>2011-06-14T09:07:49Z</time>
      </trkpt>
      <trkpt lat="42.85256" lon="0.67544">
        <ele>2027.0771484375</ele>
        <time>2011-06-14T09:07:54Z</time>
      </trkpt>
      <trkpt lat="42.85262" lon="0.67538">
        <ele>2028.5192871094</ele>
        <time>2011-06-14T09:08:01Z</time>
      </trkpt>
      <trkpt lat="42.8527" lon="0.67529">
        <ele>2030.4418945312</ele>
        <time>2011-06-14T09:08:11Z</time>
      </trkpt>
      <trkpt lat="42.85279" lon="0.67522">
        <ele>2032.3645019531</ele>
        <time>2011-06-14T09:08:20Z</time>
      </trkpt>
      <trkpt lat="42.85284" lon="0.67515">
        <ele>2032.3645019531</ele>
        <time>2011-06-14T09:08:26Z</time>
      </trkpt>
      <trkpt lat="42.85294" lon="0.67507">
        <ele>2033.3256835938</ele>
        <time>2011-06-14T09:08:35Z</time>
      </trkpt>
      <trkpt lat="42.85301" lon="0.67498">
        <ele>2034.7678222656</ele>
        <time>2011-06-14T09:08:42Z</time>
      </trkpt>
      <trkpt lat="42.85308" lon="0.67491">
        <ele>2033.8063964844</ele>
        <time>2011-06-14T09:08:50Z</time>
      </trkpt>
      <trkpt lat="42.85312" lon="0.67487">
        <ele>2032.8449707031</ele>
        <time>2011-06-14T09:08:57Z</time>
      </trkpt>
      <trkpt lat="42.85313" lon="0.67486">
        <ele>2031.4030761719</ele>
        <time>2011-06-14T09:09:04Z</time>
      </trkpt>
      <trkpt lat="42.85318" lon="0.6748">
        <ele>2029.48046875</ele>
        <time>2011-06-14T09:09:23Z</time>
      </trkpt>
      <trkpt lat="42.85321" lon="0.67475">
        <ele>2029.48046875</ele>
        <time>2011-06-14T09:09:26Z</time>
      </trkpt>
      <trkpt lat="42.8533" lon="0.67468">
        <ele>2030.4418945312</ele>
        <time>2011-06-14T09:09:34Z</time>
      </trkpt>
      <trkpt lat="42.85337" lon="0.67459">
        <ele>2030.4418945312</ele>
        <time>2011-06-14T09:09:42Z</time>
      </trkpt>
      <trkpt lat="42.85344" lon="0.67447">
        <ele>2028.9997558594</ele>
        <time>2011-06-14T09:09:50Z</time>
      </trkpt>
      <trkpt lat="42.8535" lon="0.6744">
        <ele>2029.9611816406</ele>
        <time>2011-06-14T09:09:56Z</time>
      </trkpt>
      <trkpt lat="42.85358" lon="0.67434">
        <ele>2031.4030761719</ele>
        <time>2011-06-14T09:10:03Z</time>
      </trkpt>
      <trkpt lat="42.85365" lon="0.67429">
        <ele>2033.3256835938</ele>
        <time>2011-06-14T09:10:09Z</time>
      </trkpt>
      <trkpt lat="42.85372" lon="0.67424">
        <ele>2035.2482910156</ele>
        <time>2011-06-14T09:10:16Z</time>
      </trkpt>
      <trkpt lat="42.85379" lon="0.67418">
        <ele>2034.7678222656</ele>
        <time>2011-06-14T09:10:22Z</time>
      </trkpt>
      <trkpt lat="42.85385" lon="0.67414">
        <ele>2034.287109375</ele>
        <time>2011-06-14T09:10:27Z</time>
      </trkpt>
      <trkpt lat="42.85392" lon="0.67408">
        <ele>2033.8063964844</ele>
        <time>2011-06-14T09:10:33Z</time>
      </trkpt>
      <trkpt lat="42.85392" lon="0.67408">
        <ele>2033.8063964844</ele>
        <time>2011-06-14T09:10:34Z</time>
      </trkpt>
      <trkpt lat="42.85398" lon="0.67402">
        <ele>2032.8449707031</ele>
        <time>2011-06-14T09:10:40Z</time>
      </trkpt>
      <trkpt lat="42.85408" lon="0.67388">
        <ele>2033.3256835938</ele>
        <time>2011-06-14T09:10:50Z</time>
      </trkpt>
      <trkpt lat="42.85416" lon="0.67378">
        <ele>2031.8837890625</ele>
        <time>2011-06-14T09:10:57Z</time>
      </trkpt>
      <trkpt lat="42.85424" lon="0.67372">
        <ele>2034.287109375</ele>
        <time>2011-06-14T09:11:04Z</time>
      </trkpt>
      <trkpt lat="42.85429" lon="0.67364">
        <ele>2036.2097167969</ele>
        <time>2011-06-14T09:11:10Z</time>
      </trkpt>
      <trkpt lat="42.85436" lon="0.67354">
        <ele>2038.1323242188</ele>
        <time>2011-06-14T09:11:17Z</time>
      </trkpt>
      <trkpt lat="42.85442" lon="0.67348">
        <ele>2038.1323242188</ele>
        <time>2011-06-14T09:11:23Z</time>
      </trkpt>
      <trkpt lat="42.85446" lon="0.67341">
        <ele>2039.0935058594</ele>
        <time>2011-06-14T09:11:28Z</time>
      </trkpt>
      <trkpt lat="42.85452" lon="0.67335">
        <ele>2040.0549316406</ele>
        <time>2011-06-14T09:11:34Z</time>
      </trkpt>
      <trkpt lat="42.85453" lon="0.67333">
        <ele>2040.0549316406</ele>
        <time>2011-06-14T09:11:38Z</time>
      </trkpt>
      <trkpt lat="42.85458" lon="0.67327">
        <ele>2041.0161132812</ele>
        <time>2011-06-14T09:11:43Z</time>
      </trkpt>
      <trkpt lat="42.85459" lon="0.67327">
        <ele>2040.5354003906</ele>
        <time>2011-06-14T09:11:44Z</time>
      </trkpt>
      <trkpt lat="42.85468" lon="0.6732">
        <ele>2041.9775390625</ele>
        <time>2011-06-14T09:11:52Z</time>
      </trkpt>
      <trkpt lat="42.85472" lon="0.67314">
        <ele>2042.4582519531</ele>
        <time>2011-06-14T09:11:57Z</time>
      </trkpt>
      <trkpt lat="42.85479" lon="0.67307">
        <ele>2043.4194335938</ele>
        <time>2011-06-14T09:12:04Z</time>
      </trkpt>
      <trkpt lat="42.85486" lon="0.67303">
        <ele>2043.4194335938</ele>
        <time>2011-06-14T09:12:10Z</time>
      </trkpt>
      <trkpt lat="42.85491" lon="0.67297">
        <ele>2045.3422851562</ele>
        <time>2011-06-14T09:12:16Z</time>
      </trkpt>
      <trkpt lat="42.85498" lon="0.67291">
        <ele>2045.8229980469</ele>
        <time>2011-06-14T09:12:23Z</time>
      </trkpt>
      <trkpt lat="42.85499" lon="0.6729">
        <ele>2045.8229980469</ele>
        <time>2011-06-14T09:12:24Z</time>
      </trkpt>
      <trkpt lat="42.85503" lon="0.67287">
        <ele>2044.8615722656</ele>
        <time>2011-06-14T09:12:32Z</time>
      </trkpt>
      <trkpt lat="42.85506" lon="0.67285">
        <ele>2044.8615722656</ele>
        <time>2011-06-14T09:12:36Z</time>
      </trkpt>
      <trkpt lat="42.85511" lon="0.67282">
        <ele>2045.3422851562</ele>
        <time>2011-06-14T09:12:41Z</time>
      </trkpt>
      <trkpt lat="42.85513" lon="0.6728">
        <ele>2045.3422851562</ele>
        <time>2011-06-14T09:12:43Z</time>
      </trkpt>
      <trkpt lat="42.85519" lon="0.67273">
        <ele>2046.7841796875</ele>
        <time>2011-06-14T09:12:50Z</time>
      </trkpt>
      <trkpt lat="42.85522" lon="0.6727">
        <ele>2047.7456054688</ele>
        <time>2011-06-14T09:12:54Z</time>
      </trkpt>
      <trkpt lat="42.85524" lon="0.67269">
        <ele>2048.2260742188</ele>
        <time>2011-06-14T09:12:56Z</time>
      </trkpt>
      <trkpt lat="42.85529" lon="0.67264">
        <ele>2049.6682128906</ele>
        <time>2011-06-14T09:13:03Z</time>
      </trkpt>
      <trkpt lat="42.8553" lon="0.67256">
        <ele>2052.0712890625</ele>
        <time>2011-06-14T09:13:09Z</time>
      </trkpt>
      <trkpt lat="42.85534" lon="0.67251">
        <ele>2053.994140625</ele>
        <time>2011-06-14T09:13:15Z</time>
      </trkpt>
      <trkpt lat="42.85537" lon="0.67249">
        <ele>2054.474609375</ele>
        <time>2011-06-14T09:13:19Z</time>
      </trkpt>
      <trkpt lat="42.85539" lon="0.67244">
        <ele>2055.9165039062</ele>
        <time>2011-06-14T09:13:24Z</time>
      </trkpt>
      <trkpt lat="42.85542" lon="0.67237">
        <ele>2057.8393554688</ele>
        <time>2011-06-14T09:13:30Z</time>
      </trkpt>
      <trkpt lat="42.85544" lon="0.67231">
        <ele>2059.76171875</ele>
        <time>2011-06-14T09:13:36Z</time>
      </trkpt>
      <trkpt lat="42.85547" lon="0.67227">
        <ele>2060.7233886719</ele>
        <time>2011-06-14T09:13:41Z</time>
      </trkpt>
      <trkpt lat="42.85551" lon="0.67221">
        <ele>2062.6459960938</ele>
        <time>2011-06-14T09:13:48Z</time>
      </trkpt>
      <trkpt lat="42.85554" lon="0.67216">
        <ele>2064.5686035156</ele>
        <time>2011-06-14T09:13:53Z</time>
      </trkpt>
      <trkpt lat="42.85554" lon="0.67216">
        <ele>2065.0493164062</ele>
        <time>2011-06-14T09:14:00Z</time>
      </trkpt>
      <trkpt lat="42.85558" lon="0.67214">
        <ele>2066.0104980469</ele>
        <time>2011-06-14T09:14:15Z</time>
      </trkpt>
      <trkpt lat="42.85563" lon="0.67214">
        <ele>2066.4912109375</ele>
        <time>2011-06-14T09:14:20Z</time>
      </trkpt>
      <trkpt lat="42.85565" lon="0.67219">
        <ele>2066.4912109375</ele>
        <time>2011-06-14T09:14:26Z</time>
      </trkpt>
      <trkpt lat="42.85567" lon="0.67222">
        <ele>2067.9331054688</ele>
        <time>2011-06-14T09:14:31Z</time>
      </trkpt>
      <trkpt lat="42.85571" lon="0.67224">
        <ele>2068.89453125</ele>
        <time>2011-06-14T09:14:36Z</time>
      </trkpt>
      <trkpt lat="42.85576" lon="0.67227">
        <ele>2069.8557128906</ele>
        <time>2011-06-14T09:14:42Z</time>
      </trkpt>
      <trkpt lat="42.8558" lon="0.67232">
        <ele>2070.8171386719</ele>
        <time>2011-06-14T09:14:49Z</time>
      </trkpt>
      <trkpt lat="42.85585" lon="0.67238">
        <ele>2070.8171386719</ele>
        <time>2011-06-14T09:14:56Z</time>
      </trkpt>
      <trkpt lat="42.85588" lon="0.67241">
        <ele>2072.7397460938</ele>
        <time>2011-06-14T09:15:03Z</time>
      </trkpt>
      <trkpt lat="42.8559" lon="0.67237">
        <ele>2075.1428222656</ele>
        <time>2011-06-14T09:15:09Z</time>
      </trkpt>
      <trkpt lat="42.85591" lon="0.67231">
        <ele>2078.0270996094</ele>
        <time>2011-06-14T09:15:15Z</time>
      </trkpt>
      <trkpt lat="42.85594" lon="0.67225">
        <ele>2080.4304199219</ele>
        <time>2011-06-14T09:15:21Z</time>
      </trkpt>
      <trkpt lat="42.85595" lon="0.67222">
        <ele>2080.4304199219</ele>
        <time>2011-06-14T09:15:27Z</time>
      </trkpt>
      <trkpt lat="42.85598" lon="0.67216">
        <ele>2081.8723144531</ele>
        <time>2011-06-14T09:15:32Z</time>
      </trkpt>
      <trkpt lat="42.85599" lon="0.67212">
        <ele>2083.3142089844</ele>
        <time>2011-06-14T09:15:36Z</time>
      </trkpt>
      <trkpt lat="42.85601" lon="0.67207">
        <ele>2084.2756347656</ele>
        <time>2011-06-14T09:15:41Z</time>
      </trkpt>
      <trkpt lat="42.85602" lon="0.67201">
        <ele>2085.7175292969</ele>
        <time>2011-06-14T09:15:47Z</time>
      </trkpt>
      <trkpt lat="42.85602" lon="0.67197">
        <ele>2087.1594238281</ele>
        <time>2011-06-14T09:15:52Z</time>
      </trkpt>
      <trkpt lat="42.85601" lon="0.6719">
        <ele>2088.6015625</ele>
        <time>2011-06-14T09:15:59Z</time>
      </trkpt>
      <trkpt lat="42.85599" lon="0.67184">
        <ele>2089.08203125</ele>
        <time>2011-06-14T09:16:05Z</time>
      </trkpt>
      <trkpt lat="42.85597" lon="0.67177">
        <ele>2090.5239257812</ele>
        <time>2011-06-14T09:16:11Z</time>
      </trkpt>
      <trkpt lat="42.85596" lon="0.67173">
        <ele>2091.4853515625</ele>
        <time>2011-06-14T09:16:16Z</time>
      </trkpt>
      <trkpt lat="42.85595" lon="0.67172">
        <ele>2093.408203125</ele>
        <time>2011-06-14T09:16:26Z</time>
      </trkpt>
      <trkpt lat="42.85595" lon="0.67172">
        <ele>2094.3693847656</ele>
        <time>2011-06-14T09:16:36Z</time>
      </trkpt>
      <trkpt lat="42.85594" lon="0.67172">
        <ele>2094.8500976562</ele>
        <time>2011-06-14T09:16:50Z</time>
      </trkpt>
      <trkpt lat="42.85594" lon="0.67167">
        <ele>2095.3308105469</ele>
        <time>2011-06-14T09:16:56Z</time>
      </trkpt>
      <trkpt lat="42.85593" lon="0.6716">
        <ele>2096.2922363281</ele>
        <time>2011-06-14T09:17:03Z</time>
      </trkpt>
      <trkpt lat="42.85591" lon="0.67153">
        <ele>2098.6953125</ele>
        <time>2011-06-14T09:17:10Z</time>
      </trkpt>
      <trkpt lat="42.85589" lon="0.67146">
        <ele>2102.0598144531</ele>
        <time>2011-06-14T09:17:18Z</time>
      </trkpt>
      <trkpt lat="42.85589" lon="0.67139">
        <ele>2103.9826660156</ele>
        <time>2011-06-14T09:17:24Z</time>
      </trkpt>
      <trkpt lat="42.8559" lon="0.67133">
        <ele>2106.3857421875</ele>
        <time>2011-06-14T09:17:31Z</time>
      </trkpt>
      <trkpt lat="42.85592" lon="0.67127">
        <ele>2106.8664550781</ele>
        <time>2011-06-14T09:17:37Z</time>
      </trkpt>
      <trkpt lat="42.85594" lon="0.67122">
        <ele>2107.8278808594</ele>
        <time>2011-06-14T09:17:43Z</time>
      </trkpt>
      <trkpt lat="42.85593" lon="0.67118">
        <ele>2107.8278808594</ele>
        <time>2011-06-14T09:17:47Z</time>
      </trkpt>
      <trkpt lat="42.85592" lon="0.67112">
        <ele>2108.30859375</ele>
        <time>2011-06-14T09:17:53Z</time>
      </trkpt>
      <trkpt lat="42.85595" lon="0.67107">
        <ele>2109.2700195312</ele>
        <time>2011-06-14T09:18:00Z</time>
      </trkpt>
      <trkpt lat="42.85596" lon="0.67103">
        <ele>2109.7504882812</ele>
        <time>2011-06-14T09:18:05Z</time>
      </trkpt>
      <trkpt lat="42.85599" lon="0.67099">
        <ele>2111.1926269531</ele>
        <time>2011-06-14T09:18:10Z</time>
      </trkpt>
      <trkpt lat="42.856" lon="0.67095">
        <ele>2112.1538085938</ele>
        <time>2011-06-14T09:18:15Z</time>
      </trkpt>
      <trkpt lat="42.856" lon="0.67094">
        <ele>2112.6345214844</ele>
        <time>2011-06-14T09:18:22Z</time>
      </trkpt>
      <trkpt lat="42.85596" lon="0.67094">
        <ele>2112.1538085938</ele>
        <time>2011-06-14T09:18:27Z</time>
      </trkpt>
      <trkpt lat="42.85591" lon="0.67094">
        <ele>2112.6345214844</ele>
        <time>2011-06-14T09:18:34Z</time>
      </trkpt>
      <trkpt lat="42.85588" lon="0.67094">
        <ele>2113.595703125</ele>
        <time>2011-06-14T09:18:53Z</time>
      </trkpt>
      <trkpt lat="42.85582" lon="0.67091">
        <ele>2115.5185546875</ele>
        <time>2011-06-14T09:19:00Z</time>
      </trkpt>
      <trkpt lat="42.85577" lon="0.67089">
        <ele>2116.9604492188</ele>
        <time>2011-06-14T09:19:07Z</time>
      </trkpt>
      <trkpt lat="42.85575" lon="0.67089">
        <ele>2117.4409179688</ele>
        <time>2011-06-14T09:19:14Z</time>
      </trkpt>
      <trkpt lat="42.85572" lon="0.67088">
        <ele>2118.40234375</ele>
        <time>2011-06-14T09:19:24Z</time>
      </trkpt>
      <trkpt lat="42.85567" lon="0.67085">
        <ele>2119.8442382812</ele>
        <time>2011-06-14T09:19:30Z</time>
      </trkpt>
      <trkpt lat="42.85559" lon="0.67081">
        <ele>2121.7668457031</ele>
        <time>2011-06-14T09:19:38Z</time>
      </trkpt>
      <trkpt lat="42.85555" lon="0.67078">
        <ele>2123.208984375</ele>
        <time>2011-06-14T09:19:44Z</time>
      </trkpt>
      <trkpt lat="42.85551" lon="0.67074">
        <ele>2125.1315917969</ele>
        <time>2011-06-14T09:19:50Z</time>
      </trkpt>
      <trkpt lat="42.85548" lon="0.67071">
        <ele>2126.5737304688</ele>
        <time>2011-06-14T09:19:56Z</time>
      </trkpt>
      <trkpt lat="42.85545" lon="0.67067">
        <ele>2128.015625</ele>
        <time>2011-06-14T09:20:02Z</time>
      </trkpt>
      <trkpt lat="42.85542" lon="0.67063">
        <ele>2128.9768066406</ele>
        <time>2011-06-14T09:20:09Z</time>
      </trkpt>
      <trkpt lat="42.85537" lon="0.6706">
        <ele>2128.9768066406</ele>
        <time>2011-06-14T09:20:16Z</time>
      </trkpt>
      <trkpt lat="42.85534" lon="0.67058">
        <ele>2129.9382324219</ele>
        <time>2011-06-14T09:20:21Z</time>
      </trkpt>
      <trkpt lat="42.85528" lon="0.67053">
        <ele>2130.4189453125</ele>
        <time>2011-06-14T09:20:28Z</time>
      </trkpt>
      <trkpt lat="42.85522" lon="0.67049">
        <ele>2131.8608398438</ele>
        <time>2011-06-14T09:20:35Z</time>
      </trkpt>
      <trkpt lat="42.85518" lon="0.67047">
        <ele>2134.2641601562</ele>
        <time>2011-06-14T09:20:42Z</time>
      </trkpt>
      <trkpt lat="42.85516" lon="0.67046">
        <ele>2134.7448730469</ele>
        <time>2011-06-14T09:20:50Z</time>
      </trkpt>
      <trkpt lat="42.85517" lon="0.67047">
        <ele>2134.2641601562</ele>
        <time>2011-06-14T09:20:56Z</time>
      </trkpt>
      <trkpt lat="42.85522" lon="0.6705">
        <ele>2131.8608398438</ele>
        <time>2011-06-14T09:21:01Z</time>
      </trkpt>
      <trkpt lat="42.8553" lon="0.67055">
        <ele>2129.4575195312</ele>
        <time>2011-06-14T09:21:07Z</time>
      </trkpt>
      <trkpt lat="42.85538" lon="0.67061">
        <ele>2128.015625</ele>
        <time>2011-06-14T09:21:14Z</time>
      </trkpt>
      <trkpt lat="42.85545" lon="0.67068">
        <ele>2126.0930175781</ele>
        <time>2011-06-14T09:21:21Z</time>
      </trkpt>
      <trkpt lat="42.85549" lon="0.67073">
        <ele>2123.689453125</ele>
        <time>2011-06-14T09:21:27Z</time>
      </trkpt>
      <trkpt lat="42.85551" lon="0.67077">
        <ele>2121.2861328125</ele>
        <time>2011-06-14T09:21:37Z</time>
      </trkpt>
      <trkpt lat="42.85561" lon="0.67084">
        <ele>2117.9216308594</ele>
        <time>2011-06-14T09:21:43Z</time>
      </trkpt>
      <trkpt lat="42.85569" lon="0.67088">
        <ele>2116.4797363281</ele>
        <time>2011-06-14T09:21:48Z</time>
      </trkpt>
      <trkpt lat="42.85577" lon="0.6709">
        <ele>2113.595703125</ele>
        <time>2011-06-14T09:21:54Z</time>
      </trkpt>
      <trkpt lat="42.85583" lon="0.67093">
        <ele>2112.1538085938</ele>
        <time>2011-06-14T09:21:58Z</time>
      </trkpt>
      <trkpt lat="42.85593" lon="0.67097">
        <ele>2110.2312011719</ele>
        <time>2011-06-14T09:22:05Z</time>
      </trkpt>
      <trkpt lat="42.85603" lon="0.67098">
        <ele>2109.7504882812</ele>
        <time>2011-06-14T09:22:14Z</time>
      </trkpt>
      <trkpt lat="42.85606" lon="0.67106">
        <ele>2110.7119140625</ele>
        <time>2011-06-14T09:22:20Z</time>
      </trkpt>
      <trkpt lat="42.8561" lon="0.67115">
        <ele>2111.1926269531</ele>
        <time>2011-06-14T09:22:27Z</time>
      </trkpt>
      <trkpt lat="42.85611" lon="0.67117">
        <ele>2111.6733398438</ele>
        <time>2011-06-14T09:22:29Z</time>
      </trkpt>
      <trkpt lat="42.85612" lon="0.67124">
        <ele>2111.1926269531</ele>
        <time>2011-06-14T09:22:36Z</time>
      </trkpt>
      <trkpt lat="42.85616" lon="0.67133">
        <ele>2111.1926269531</ele>
        <time>2011-06-14T09:22:43Z</time>
      </trkpt>
      <trkpt lat="42.85621" lon="0.67145">
        <ele>2110.7119140625</ele>
        <time>2011-06-14T09:22:51Z</time>
      </trkpt>
      <trkpt lat="42.85625" lon="0.67158">
        <ele>2110.2312011719</ele>
        <time>2011-06-14T09:22:59Z</time>
      </trkpt>
      <trkpt lat="42.85628" lon="0.67169">
        <ele>2109.7504882812</ele>
        <time>2011-06-14T09:23:05Z</time>
      </trkpt>
      <trkpt lat="42.8563" lon="0.67181">
        <ele>2108.7893066406</ele>
        <time>2011-06-14T09:23:12Z</time>
      </trkpt>
      <trkpt lat="42.85631" lon="0.67189">
        <ele>2107.8278808594</ele>
        <time>2011-06-14T09:23:18Z</time>
      </trkpt>
      <trkpt lat="42.85632" lon="0.67194">
        <ele>2107.3471679688</ele>
        <time>2011-06-14T09:23:25Z</time>
      </trkpt>
      <trkpt lat="42.85634" lon="0.67204">
        <ele>2105.4245605469</ele>
        <time>2011-06-14T09:23:31Z</time>
      </trkpt>
      <trkpt lat="42.85636" lon="0.67213">
        <ele>2105.4245605469</ele>
        <time>2011-06-14T09:23:37Z</time>
      </trkpt>
      <trkpt lat="42.85637" lon="0.6722">
        <ele>2105.4245605469</ele>
        <time>2011-06-14T09:23:41Z</time>
      </trkpt>
      <trkpt lat="42.85641" lon="0.67233">
        <ele>2105.4245605469</ele>
        <time>2011-06-14T09:23:48Z</time>
      </trkpt>
      <trkpt lat="42.85644" lon="0.67247">
        <ele>2105.9050292969</ele>
        <time>2011-06-14T09:23:55Z</time>
      </trkpt>
      <trkpt lat="42.85646" lon="0.6726">
        <ele>2106.3857421875</ele>
        <time>2011-06-14T09:24:02Z</time>
      </trkpt>
      <trkpt lat="42.85648" lon="0.67273">
        <ele>2106.3857421875</ele>
        <time>2011-06-14T09:24:09Z</time>
      </trkpt>
      <trkpt lat="42.85648" lon="0.67275">
        <ele>2105.9050292969</ele>
        <time>2011-06-14T09:24:12Z</time>
      </trkpt>
      <trkpt lat="42.85649" lon="0.6729">
        <ele>2105.4245605469</ele>
        <time>2011-06-14T09:24:21Z</time>
      </trkpt>
      <trkpt lat="42.85649" lon="0.67293">
        <ele>2105.9050292969</ele>
        <time>2011-06-14T09:24:28Z</time>
      </trkpt>
      <trkpt lat="42.85649" lon="0.67295">
        <ele>2105.4245605469</ele>
        <time>2011-06-14T09:24:36Z</time>
      </trkpt>
      <trkpt lat="42.85647" lon="0.67302">
        <ele>2104.4631347656</ele>
        <time>2011-06-14T09:24:44Z</time>
      </trkpt>
      <trkpt lat="42.85643" lon="0.67308">
        <ele>2103.501953125</ele>
        <time>2011-06-14T09:24:51Z</time>
      </trkpt>
      <trkpt lat="42.85644" lon="0.67308">
        <ele>2102.0598144531</ele>
        <time>2011-06-14T09:25:04Z</time>
      </trkpt>
      <trkpt lat="42.85643" lon="0.67308">
        <ele>2101.5793457031</ele>
        <time>2011-06-14T09:25:17Z</time>
      </trkpt>
      <trkpt lat="42.85641" lon="0.67312">
        <ele>2101.5793457031</ele>
        <time>2011-06-14T09:25:20Z</time>
      </trkpt>
      <trkpt lat="42.85635" lon="0.67328">
        <ele>2100.6179199219</ele>
        <time>2011-06-14T09:25:30Z</time>
      </trkpt>
      <trkpt lat="42.85632" lon="0.6734">
        <ele>2101.5793457031</ele>
        <time>2011-06-14T09:25:37Z</time>
      </trkpt>
      <trkpt lat="42.85631" lon="0.67344">
        <ele>2101.0986328125</ele>
        <time>2011-06-14T09:25:44Z</time>
      </trkpt>
      <trkpt lat="42.85627" lon="0.67355">
        <ele>2100.1374511719</ele>
        <time>2011-06-14T09:25:51Z</time>
      </trkpt>
      <trkpt lat="42.85622" lon="0.67373">
        <ele>2099.1760253906</ele>
        <time>2011-06-14T09:26:01Z</time>
      </trkpt>
      <trkpt lat="42.85618" lon="0.67388">
        <ele>2099.6567382812</ele>
        <time>2011-06-14T09:26:09Z</time>
      </trkpt>
      <trkpt lat="42.85614" lon="0.67403">
        <ele>2101.5793457031</ele>
        <time>2011-06-14T09:26:18Z</time>
      </trkpt>
      <trkpt lat="42.85612" lon="0.67415">
        <ele>2103.0212402344</ele>
        <time>2011-06-14T09:26:25Z</time>
      </trkpt>
      <trkpt lat="42.8561" lon="0.67425">
        <ele>2104.9438476562</ele>
        <time>2011-06-14T09:26:32Z</time>
      </trkpt>
      <trkpt lat="42.85607" lon="0.67436">
        <ele>2105.4245605469</ele>
        <time>2011-06-14T09:26:39Z</time>
      </trkpt>
      <trkpt lat="42.85604" lon="0.6745">
        <ele>2106.3857421875</ele>
        <time>2011-06-14T09:26:48Z</time>
      </trkpt>
      <trkpt lat="42.85603" lon="0.67459">
        <ele>2107.3471679688</ele>
        <time>2011-06-14T09:26:54Z</time>
      </trkpt>
      <trkpt lat="42.856" lon="0.6747">
        <ele>2108.7893066406</ele>
        <time>2011-06-14T09:27:01Z</time>
      </trkpt>
      <trkpt lat="42.85597" lon="0.67484">
        <ele>2110.2312011719</ele>
        <time>2011-06-14T09:27:12Z</time>
      </trkpt>
      <trkpt lat="42.85596" lon="0.67492">
        <ele>2110.7119140625</ele>
        <time>2011-06-14T09:27:19Z</time>
      </trkpt>
      <trkpt lat="42.85595" lon="0.67497">
        <ele>2111.1926269531</ele>
        <time>2011-06-14T09:27:24Z</time>
      </trkpt>
      <trkpt lat="42.85592" lon="0.67508">
        <ele>2111.1926269531</ele>
        <time>2011-06-14T09:27:31Z</time>
      </trkpt>
      <trkpt lat="42.8559" lon="0.67517">
        <ele>2111.6733398438</ele>
        <time>2011-06-14T09:27:38Z</time>
      </trkpt>
      <trkpt lat="42.8559" lon="0.67519">
        <ele>2112.1538085938</ele>
        <time>2011-06-14T09:27:39Z</time>
      </trkpt>
      <trkpt lat="42.85589" lon="0.67525">
        <ele>2113.115234375</ele>
        <time>2011-06-14T09:27:45Z</time>
      </trkpt>
      <trkpt lat="42.85588" lon="0.67533">
        <ele>2114.5571289062</ele>
        <time>2011-06-14T09:27:51Z</time>
      </trkpt>
      <trkpt lat="42.85585" lon="0.67547">
        <ele>2115.9990234375</ele>
        <time>2011-06-14T09:28:01Z</time>
      </trkpt>
      <trkpt lat="42.85582" lon="0.67558">
        <ele>2117.9216308594</ele>
        <time>2011-06-14T09:28:09Z</time>
      </trkpt>
      <trkpt lat="42.8558" lon="0.67569">
        <ele>2120.3249511719</ele>
        <time>2011-06-14T09:28:18Z</time>
      </trkpt>
      <trkpt lat="42.85579" lon="0.67576">
        <ele>2120.8056640625</ele>
        <time>2011-06-14T09:28:25Z</time>
      </trkpt>
      <trkpt lat="42.85576" lon="0.67582">
        <ele>2121.2861328125</ele>
        <time>2011-06-14T09:28:31Z</time>
      </trkpt>
      <trkpt lat="42.85573" lon="0.67591">
        <ele>2121.7668457031</ele>
        <time>2011-06-14T09:28:38Z</time>
      </trkpt>
      <trkpt lat="42.85572" lon="0.67599">
        <ele>2122.7282714844</ele>
        <time>2011-06-14T09:28:44Z</time>
      </trkpt>
      <trkpt lat="42.85571" lon="0.67606">
        <ele>2124.1704101562</ele>
        <time>2011-06-14T09:28:50Z</time>
      </trkpt>
      <trkpt lat="42.85569" lon="0.67615">
        <ele>2125.6123046875</ele>
        <time>2011-06-14T09:28:57Z</time>
      </trkpt>
      <trkpt lat="42.85567" lon="0.6762">
        <ele>2127.0544433594</ele>
        <time>2011-06-14T09:29:03Z</time>
      </trkpt>
      <trkpt lat="42.85565" lon="0.67628">
        <ele>2128.9768066406</ele>
        <time>2011-06-14T09:29:10Z</time>
      </trkpt>
      <trkpt lat="42.85565" lon="0.67635">
        <ele>2130.8996582031</ele>
        <time>2011-06-14T09:29:17Z</time>
      </trkpt>
      <trkpt lat="42.85564" lon="0.67642">
        <ele>2132.8220214844</ele>
        <time>2011-06-14T09:29:24Z</time>
      </trkpt>
      <trkpt lat="42.85564" lon="0.67647">
        <ele>2134.7448730469</ele>
        <time>2011-06-14T09:29:30Z</time>
      </trkpt>
      <trkpt lat="42.85563" lon="0.67648">
        <ele>2135.2253417969</ele>
        <time>2011-06-14T09:29:35Z</time>
      </trkpt>
      <trkpt lat="42.85561" lon="0.67653">
        <ele>2136.1867675781</ele>
        <time>2011-06-14T09:29:43Z</time>
      </trkpt>
      <trkpt lat="42.85559" lon="0.67656">
        <ele>2137.6286621094</ele>
        <time>2011-06-14T09:29:48Z</time>
      </trkpt>
      <trkpt lat="42.85558" lon="0.67661">
        <ele>2139.5512695312</ele>
        <time>2011-06-14T09:29:54Z</time>
      </trkpt>
      <trkpt lat="42.85556" lon="0.67665">
        <ele>2141.4741210938</ele>
        <time>2011-06-14T09:30:02Z</time>
      </trkpt>
      <trkpt lat="42.85555" lon="0.67669">
        <ele>2143.3967285156</ele>
        <time>2011-06-14T09:30:09Z</time>
      </trkpt>
      <trkpt lat="42.85553" lon="0.67676">
        <ele>2145.8000488281</ele>
        <time>2011-06-14T09:30:17Z</time>
      </trkpt>
      <trkpt lat="42.85551" lon="0.67681">
        <ele>2146.7612304688</ele>
        <time>2011-06-14T09:30:23Z</time>
      </trkpt>
      <trkpt lat="42.85549" lon="0.67683">
        <ele>2147.2419433594</ele>
        <time>2011-06-14T09:30:28Z</time>
      </trkpt>
      <trkpt lat="42.85548" lon="0.67687">
        <ele>2147.72265625</ele>
        <time>2011-06-14T09:30:33Z</time>
      </trkpt>
      <trkpt lat="42.85546" lon="0.67694">
        <ele>2148.6838378906</ele>
        <time>2011-06-14T09:30:41Z</time>
      </trkpt>
      <trkpt lat="42.85546" lon="0.67696">
        <ele>2149.1645507812</ele>
        <time>2011-06-14T09:30:49Z</time>
      </trkpt>
      <trkpt lat="42.85545" lon="0.67701">
        <ele>2150.6064453125</ele>
        <time>2011-06-14T09:30:56Z</time>
      </trkpt>
      <trkpt lat="42.85545" lon="0.67705">
        <ele>2152.0483398438</ele>
        <time>2011-06-14T09:31:01Z</time>
      </trkpt>
      <trkpt lat="42.85544" lon="0.67707">
        <ele>2153.009765625</ele>
        <time>2011-06-14T09:31:07Z</time>
      </trkpt>
      <trkpt lat="42.85543" lon="0.6771">
        <ele>2154.9323730469</ele>
        <time>2011-06-14T09:31:13Z</time>
      </trkpt>
      <trkpt lat="42.85542" lon="0.67714">
        <ele>2155.8935546875</ele>
        <time>2011-06-14T09:31:20Z</time>
      </trkpt>
      <trkpt lat="42.85542" lon="0.67719">
        <ele>2157.3359375</ele>
        <time>2011-06-14T09:31:27Z</time>
      </trkpt>
      <trkpt lat="42.8554" lon="0.67725">
        <ele>2158.7778320312</ele>
        <time>2011-06-14T09:31:34Z</time>
      </trkpt>
      <trkpt lat="42.8554" lon="0.67728">
        <ele>2160.2197265625</ele>
        <time>2011-06-14T09:31:39Z</time>
      </trkpt>
      <trkpt lat="42.8554" lon="0.67733">
        <ele>2161.1811523438</ele>
        <time>2011-06-14T09:31:44Z</time>
      </trkpt>
      <trkpt lat="42.85539" lon="0.6774">
        <ele>2163.1037597656</ele>
        <time>2011-06-14T09:31:51Z</time>
      </trkpt>
      <trkpt lat="42.85539" lon="0.67746">
        <ele>2164.5456542969</ele>
        <time>2011-06-14T09:31:57Z</time>
      </trkpt>
      <trkpt lat="42.85537" lon="0.67752">
        <ele>2165.9875488281</ele>
        <time>2011-06-14T09:32:03Z</time>
      </trkpt>
      <trkpt lat="42.85537" lon="0.67759">
        <ele>2166.9489746094</ele>
        <time>2011-06-14T09:32:09Z</time>
      </trkpt>
      <trkpt lat="42.85536" lon="0.67767">
        <ele>2168.3908691406</ele>
        <time>2011-06-14T09:32:16Z</time>
      </trkpt>
      <trkpt lat="42.85536" lon="0.67774">
        <ele>2169.3522949219</ele>
        <time>2011-06-14T09:32:22Z</time>
      </trkpt>
      <trkpt lat="42.85532" lon="0.67782">
        <ele>2169.8327636719</ele>
        <time>2011-06-14T09:32:29Z</time>
      </trkpt>
      <trkpt lat="42.8553" lon="0.67788">
        <ele>2170.3134765625</ele>
        <time>2011-06-14T09:32:34Z</time>
      </trkpt>
      <trkpt lat="42.85523" lon="0.67802">
        <ele>2177.04296875</ele>
        <time>2011-06-14T09:37:22Z</time>
      </trkpt>
      <trkpt lat="42.85523" lon="0.67802">
        <ele>2177.04296875</ele>
        <time>2011-06-14T09:37:23Z</time>
      </trkpt>
      <trkpt lat="42.85521" lon="0.67804">
        <ele>2174.6396484375</ele>
        <time>2011-06-14T09:37:29Z</time>
      </trkpt>
      <trkpt lat="42.85516" lon="0.67806">
        <ele>2170.7941894531</ele>
        <time>2011-06-14T09:37:37Z</time>
      </trkpt>
      <trkpt lat="42.85512" lon="0.67807">
        <ele>2168.3908691406</ele>
        <time>2011-06-14T09:37:45Z</time>
      </trkpt>
      <trkpt lat="42.85509" lon="0.6781">
        <ele>2165.5070800781</ele>
        <time>2011-06-14T09:38:07Z</time>
      </trkpt>
      <trkpt lat="42.85503" lon="0.67814">
        <ele>2162.623046875</ele>
        <time>2011-06-14T09:38:14Z</time>
      </trkpt>
      <trkpt lat="42.85497" lon="0.67817">
        <ele>2160.2197265625</ele>
        <time>2011-06-14T09:38:19Z</time>
      </trkpt>
      <trkpt lat="42.8549" lon="0.67819">
        <ele>2156.8552246094</ele>
        <time>2011-06-14T09:38:26Z</time>
      </trkpt>
      <trkpt lat="42.85485" lon="0.67818">
        <ele>2153.9711914062</ele>
        <time>2011-06-14T09:38:33Z</time>
      </trkpt>
      <trkpt lat="42.8548" lon="0.67817">
        <ele>2152.5290527344</ele>
        <time>2011-06-14T09:38:39Z</time>
      </trkpt>
      <trkpt lat="42.85476" lon="0.67816">
        <ele>2150.1259765625</ele>
        <time>2011-06-14T09:38:45Z</time>
      </trkpt>
      <trkpt lat="42.85469" lon="0.67817">
        <ele>2147.2419433594</ele>
        <time>2011-06-14T09:38:51Z</time>
      </trkpt>
      <trkpt lat="42.85462" lon="0.67817">
        <ele>2143.8774414062</ele>
        <time>2011-06-14T09:38:58Z</time>
      </trkpt>
      <trkpt lat="42.85458" lon="0.67817">
        <ele>2142.916015625</ele>
        <time>2011-06-14T09:39:02Z</time>
      </trkpt>
      <trkpt lat="42.85452" lon="0.67818">
        <ele>2140.9934082031</ele>
        <time>2011-06-14T09:39:08Z</time>
      </trkpt>
      <trkpt lat="42.85447" lon="0.67816">
        <ele>2138.5900878906</ele>
        <time>2011-06-14T09:39:13Z</time>
      </trkpt>
      <trkpt lat="42.85444" lon="0.67815">
        <ele>2138.109375</ele>
        <time>2011-06-14T09:39:15Z</time>
      </trkpt>
      <trkpt lat="42.85434" lon="0.67808">
        <ele>2134.7448730469</ele>
        <time>2011-06-14T09:39:24Z</time>
      </trkpt>
      <trkpt lat="42.8543" lon="0.67808">
        <ele>2133.302734375</ele>
        <time>2011-06-14T09:39:27Z</time>
      </trkpt>
      <trkpt lat="42.85424" lon="0.67805">
        <ele>2130.8996582031</ele>
        <time>2011-06-14T09:39:32Z</time>
      </trkpt>
      <trkpt lat="42.85417" lon="0.67804">
        <ele>2128.9768066406</ele>
        <time>2011-06-14T09:39:37Z</time>
      </trkpt>
      <trkpt lat="42.85408" lon="0.67803">
        <ele>2126.5737304688</ele>
        <time>2011-06-14T09:39:42Z</time>
      </trkpt>
      <trkpt lat="42.85398" lon="0.67799">
        <ele>2123.208984375</ele>
        <time>2011-06-14T09:39:49Z</time>
      </trkpt>
      <trkpt lat="42.85389" lon="0.67795">
        <ele>2121.2861328125</ele>
        <time>2011-06-14T09:39:55Z</time>
      </trkpt>
      <trkpt lat="42.85378" lon="0.67792">
        <ele>2118.8830566406</ele>
        <time>2011-06-14T09:40:03Z</time>
      </trkpt>
      <trkpt lat="42.85369" lon="0.67793">
        <ele>2116.9604492188</ele>
        <time>2011-06-14T09:40:11Z</time>
      </trkpt>
      <trkpt lat="42.8536" lon="0.67792">
        <ele>2115.9990234375</ele>
        <time>2011-06-14T09:40:18Z</time>
      </trkpt>
      <trkpt lat="42.85349" lon="0.67792">
        <ele>2116.9604492188</ele>
        <time>2011-06-14T09:40:27Z</time>
      </trkpt>
      <trkpt lat="42.8534" lon="0.67797">
        <ele>2118.8830566406</ele>
        <time>2011-06-14T09:40:36Z</time>
      </trkpt>
      <trkpt lat="42.85338" lon="0.67799">
        <ele>2118.8830566406</ele>
        <time>2011-06-14T09:40:38Z</time>
      </trkpt>
      <trkpt lat="42.85332" lon="0.67798">
        <ele>2120.8056640625</ele>
        <time>2011-06-14T09:40:45Z</time>
      </trkpt>
      <trkpt lat="42.85331" lon="0.67798">
        <ele>2120.8056640625</ele>
        <time>2011-06-14T09:40:51Z</time>
      </trkpt>
      <trkpt lat="42.85327" lon="0.67799">
        <ele>2121.2861328125</ele>
        <time>2011-06-14T09:40:58Z</time>
      </trkpt>
      <trkpt lat="42.85321" lon="0.67799">
        <ele>2122.2475585938</ele>
        <time>2011-06-14T09:41:06Z</time>
      </trkpt>
      <trkpt lat="42.85316" lon="0.67797">
        <ele>2123.689453125</ele>
        <time>2011-06-14T09:41:12Z</time>
      </trkpt>
      <trkpt lat="42.85312" lon="0.67795">
        <ele>2124.6511230469</ele>
        <time>2011-06-14T09:41:17Z</time>
      </trkpt>
      <trkpt lat="42.85304" lon="0.67796">
        <ele>2125.1315917969</ele>
        <time>2011-06-14T09:41:24Z</time>
      </trkpt>
      <trkpt lat="42.85294" lon="0.67806">
        <ele>2125.1315917969</ele>
        <time>2011-06-14T09:41:34Z</time>
      </trkpt>
      <trkpt lat="42.85283" lon="0.67815">
        <ele>2126.0930175781</ele>
        <time>2011-06-14T09:41:44Z</time>
      </trkpt>
      <trkpt lat="42.85276" lon="0.67824">
        <ele>2125.6123046875</ele>
        <time>2011-06-14T09:41:51Z</time>
      </trkpt>
      <trkpt lat="42.85269" lon="0.67832">
        <ele>2123.689453125</ele>
        <time>2011-06-14T09:41:59Z</time>
      </trkpt>
      <trkpt lat="42.85267" lon="0.67833">
        <ele>2123.208984375</ele>
        <time>2011-06-14T09:42:01Z</time>
      </trkpt>
      <trkpt lat="42.85257" lon="0.67837">
        <ele>2120.3249511719</ele>
        <time>2011-06-14T09:42:07Z</time>
      </trkpt>
      <trkpt lat="42.85251" lon="0.67839">
        <ele>2119.8442382812</ele>
        <time>2011-06-14T09:42:09Z</time>
      </trkpt>
      <trkpt lat="42.85239" lon="0.67845">
        <ele>2117.4409179688</ele>
        <time>2011-06-14T09:42:15Z</time>
      </trkpt>
      <trkpt lat="42.85231" lon="0.67848">
        <ele>2115.9990234375</ele>
        <time>2011-06-14T09:42:23Z</time>
      </trkpt>
      <trkpt lat="42.85224" lon="0.6785">
        <ele>2115.0378417969</ele>
        <time>2011-06-14T09:42:29Z</time>
      </trkpt>
      <trkpt lat="42.85212" lon="0.67852">
        <ele>2115.0378417969</ele>
        <time>2011-06-14T09:42:39Z</time>
      </trkpt>
      <trkpt lat="42.85201" lon="0.67855">
        <ele>2116.4797363281</ele>
        <time>2011-06-14T09:42:48Z</time>
      </trkpt>
      <trkpt lat="42.85189" lon="0.67861">
        <ele>2117.4409179688</ele>
        <time>2011-06-14T09:42:57Z</time>
      </trkpt>
      <trkpt lat="42.85178" lon="0.67869">
        <ele>2117.9216308594</ele>
        <time>2011-06-14T09:43:06Z</time>
      </trkpt>
      <trkpt lat="42.85167" lon="0.67873">
        <ele>2118.8830566406</ele>
        <time>2011-06-14T09:43:15Z</time>
      </trkpt>
      <trkpt lat="42.85157" lon="0.67878">
        <ele>2120.8056640625</ele>
        <time>2011-06-14T09:43:24Z</time>
      </trkpt>
      <trkpt lat="42.85147" lon="0.67883">
        <ele>2122.2475585938</ele>
        <time>2011-06-14T09:43:33Z</time>
      </trkpt>
      <trkpt lat="42.8514" lon="0.67886">
        <ele>2123.208984375</ele>
        <time>2011-06-14T09:43:39Z</time>
      </trkpt>
      <trkpt lat="42.85132" lon="0.67892">
        <ele>2124.1704101562</ele>
        <time>2011-06-14T09:43:46Z</time>
      </trkpt>
      <trkpt lat="42.85123" lon="0.67897">
        <ele>2125.1315917969</ele>
        <time>2011-06-14T09:43:54Z</time>
      </trkpt>
      <trkpt lat="42.85117" lon="0.67894">
        <ele>2125.6123046875</ele>
        <time>2011-06-14T09:43:59Z</time>
      </trkpt>
      <trkpt lat="42.85115" lon="0.67891">
        <ele>2126.0930175781</ele>
        <time>2011-06-14T09:44:02Z</time>
      </trkpt>
      <trkpt lat="42.85109" lon="0.67888">
        <ele>2128.015625</ele>
        <time>2011-06-14T09:44:09Z</time>
      </trkpt>
      <trkpt lat="42.85103" lon="0.67889">
        <ele>2128.4963378906</ele>
        <time>2011-06-14T09:44:15Z</time>
      </trkpt>
      <trkpt lat="42.85098" lon="0.67892">
        <ele>2129.4575195312</ele>
        <time>2011-06-14T09:44:20Z</time>
      </trkpt>
      <trkpt lat="42.85089" lon="0.67896">
        <ele>2130.8996582031</ele>
        <time>2011-06-14T09:44:29Z</time>
      </trkpt>
      <trkpt lat="42.85079" lon="0.679">
        <ele>2133.302734375</ele>
        <time>2011-06-14T09:44:39Z</time>
      </trkpt>
      <trkpt lat="42.85073" lon="0.67903">
        <ele>2134.7448730469</ele>
        <time>2011-06-14T09:44:45Z</time>
      </trkpt>
      <trkpt lat="42.85065" lon="0.67908">
        <ele>2137.1479492188</ele>
        <time>2011-06-14T09:44:53Z</time>
      </trkpt>
      <trkpt lat="42.85057" lon="0.67916">
        <ele>2139.0705566406</ele>
        <time>2011-06-14T09:45:02Z</time>
      </trkpt>
      <trkpt lat="42.85048" lon="0.67921">
        <ele>2140.0322265625</ele>
        <time>2011-06-14T09:45:11Z</time>
      </trkpt>
      <trkpt lat="42.85041" lon="0.67925">
        <ele>2140.5126953125</ele>
        <time>2011-06-14T09:45:18Z</time>
      </trkpt>
      <trkpt lat="42.85031" lon="0.67922">
        <ele>2140.5126953125</ele>
        <time>2011-06-14T09:45:27Z</time>
      </trkpt>
      <trkpt lat="42.85023" lon="0.6792">
        <ele>2140.0322265625</ele>
        <time>2011-06-14T09:45:33Z</time>
      </trkpt>
      <trkpt lat="42.85017" lon="0.67916">
        <ele>2139.0705566406</ele>
        <time>2011-06-14T09:45:38Z</time>
      </trkpt>
      <trkpt lat="42.85008" lon="0.6791">
        <ele>2138.109375</ele>
        <time>2011-06-14T09:45:45Z</time>
      </trkpt>
      <trkpt lat="42.84996" lon="0.67903">
        <ele>2136.1867675781</ele>
        <time>2011-06-14T09:45:54Z</time>
      </trkpt>
      <trkpt lat="42.84986" lon="0.67896">
        <ele>2134.2641601562</ele>
        <time>2011-06-14T09:46:03Z</time>
      </trkpt>
      <trkpt lat="42.84974" lon="0.6789">
        <ele>2132.3415527344</ele>
        <time>2011-06-14T09:46:12Z</time>
      </trkpt>
      <trkpt lat="42.84964" lon="0.67885">
        <ele>2131.3801269531</ele>
        <time>2011-06-14T09:46:19Z</time>
      </trkpt>
      <trkpt lat="42.84956" lon="0.67883">
        <ele>2129.4575195312</ele>
        <time>2011-06-14T09:46:26Z</time>
      </trkpt>
      <trkpt lat="42.84946" lon="0.67885">
        <ele>2127.0544433594</ele>
        <time>2011-06-14T09:46:33Z</time>
      </trkpt>
      <trkpt lat="42.84929" lon="0.67887">
        <ele>2122.2475585938</ele>
        <time>2011-06-14T09:46:41Z</time>
      </trkpt>
      <trkpt lat="42.84913" lon="0.6789">
        <ele>2118.40234375</ele>
        <time>2011-06-14T09:46:47Z</time>
      </trkpt>
      <trkpt lat="42.84895" lon="0.67888">
        <ele>2114.5571289062</ele>
        <time>2011-06-14T09:46:54Z</time>
      </trkpt>
      <trkpt lat="42.84884" lon="0.67887">
        <ele>2112.6345214844</ele>
        <time>2011-06-14T09:46:59Z</time>
      </trkpt>
      <trkpt lat="42.84874" lon="0.67885">
        <ele>2112.1538085938</ele>
        <time>2011-06-14T09:47:07Z</time>
      </trkpt>
      <trkpt lat="42.84868" lon="0.67875">
        <ele>2112.1538085938</ele>
        <time>2011-06-14T09:47:14Z</time>
      </trkpt>
      <trkpt lat="42.84864" lon="0.67865">
        <ele>2112.6345214844</ele>
        <time>2011-06-14T09:47:23Z</time>
      </trkpt>
      <trkpt lat="42.84861" lon="0.67862">
        <ele>2112.6345214844</ele>
        <time>2011-06-14T09:47:31Z</time>
      </trkpt>
      <trkpt lat="42.84855" lon="0.67853">
        <ele>2113.115234375</ele>
        <time>2011-06-14T09:47:41Z</time>
      </trkpt>
      <trkpt lat="42.8485" lon="0.67844">
        <ele>2114.0764160156</ele>
        <time>2011-06-14T09:47:48Z</time>
      </trkpt>
      <trkpt lat="42.84845" lon="0.67834">
        <ele>2115.0378417969</ele>
        <time>2011-06-14T09:47:55Z</time>
      </trkpt>
      <trkpt lat="42.84837" lon="0.67823">
        <ele>2116.4797363281</ele>
        <time>2011-06-14T09:48:04Z</time>
      </trkpt>
      <trkpt lat="42.84833" lon="0.67815">
        <ele>2117.4409179688</ele>
        <time>2011-06-14T09:48:10Z</time>
      </trkpt>
      <trkpt lat="42.84826" lon="0.67803">
        <ele>2119.3637695312</ele>
        <time>2011-06-14T09:48:19Z</time>
      </trkpt>
      <trkpt lat="42.84821" lon="0.67795">
        <ele>2120.3249511719</ele>
        <time>2011-06-14T09:48:26Z</time>
      </trkpt>
      <trkpt lat="42.84816" lon="0.67785">
        <ele>2121.7668457031</ele>
        <time>2011-06-14T09:48:33Z</time>
      </trkpt>
      <trkpt lat="42.84812" lon="0.67776">
        <ele>2121.7668457031</ele>
        <time>2011-06-14T09:48:41Z</time>
      </trkpt>
      <trkpt lat="42.84805" lon="0.67769">
        <ele>2122.7282714844</ele>
        <time>2011-06-14T09:48:49Z</time>
      </trkpt>
      <trkpt lat="42.848" lon="0.67765">
        <ele>2123.689453125</ele>
        <time>2011-06-14T09:48:54Z</time>
      </trkpt>
      <trkpt lat="42.84794" lon="0.6776">
        <ele>2124.6511230469</ele>
        <time>2011-06-14T09:49:00Z</time>
      </trkpt>
      <trkpt lat="42.84788" lon="0.67756">
        <ele>2125.6123046875</ele>
        <time>2011-06-14T09:49:06Z</time>
      </trkpt>
      <trkpt lat="42.8478" lon="0.67754">
        <ele>2127.0544433594</ele>
        <time>2011-06-14T09:49:13Z</time>
      </trkpt>
      <trkpt lat="42.84775" lon="0.6775">
        <ele>2127.5349121094</ele>
        <time>2011-06-14T09:49:18Z</time>
      </trkpt>
      <trkpt lat="42.84769" lon="0.67742">
        <ele>2128.9768066406</ele>
        <time>2011-06-14T09:49:25Z</time>
      </trkpt>
      <trkpt lat="42.84765" lon="0.67733">
        <ele>2130.4189453125</ele>
        <time>2011-06-14T09:49:32Z</time>
      </trkpt>
      <trkpt lat="42.84759" lon="0.67722">
        <ele>2132.3415527344</ele>
        <time>2011-06-14T09:49:41Z</time>
      </trkpt>
      <trkpt lat="42.84756" lon="0.67718">
        <ele>2133.302734375</ele>
        <time>2011-06-14T09:49:45Z</time>
      </trkpt>
      <trkpt lat="42.8475" lon="0.6771">
        <ele>2135.2253417969</ele>
        <time>2011-06-14T09:49:52Z</time>
      </trkpt>
      <trkpt lat="42.84748" lon="0.67706">
        <ele>2136.1867675781</ele>
        <time>2011-06-14T09:49:55Z</time>
      </trkpt>
      <trkpt lat="42.84746" lon="0.67702">
        <ele>2136.6672363281</ele>
        <time>2011-06-14T09:49:59Z</time>
      </trkpt>
      <trkpt lat="42.84745" lon="0.67698">
        <ele>2138.109375</ele>
        <time>2011-06-14T09:50:05Z</time>
      </trkpt>
      <trkpt lat="42.84742" lon="0.67693">
        <ele>2139.5512695312</ele>
        <time>2011-06-14T09:50:11Z</time>
      </trkpt>
      <trkpt lat="42.8474" lon="0.67688">
        <ele>2140.9934082031</ele>
        <time>2011-06-14T09:50:17Z</time>
      </trkpt>
      <trkpt lat="42.84737" lon="0.67682">
        <ele>2142.435546875</ele>
        <time>2011-06-14T09:50:23Z</time>
      </trkpt>
      <trkpt lat="42.84734" lon="0.67676">
        <ele>2143.8774414062</ele>
        <time>2011-06-14T09:50:29Z</time>
      </trkpt>
      <trkpt lat="42.84731" lon="0.6767">
        <ele>2145.3193359375</ele>
        <time>2011-06-14T09:50:35Z</time>
      </trkpt>
      <trkpt lat="42.84727" lon="0.67664">
        <ele>2146.7612304688</ele>
        <time>2011-06-14T09:50:42Z</time>
      </trkpt>
      <trkpt lat="42.84724" lon="0.6766">
        <ele>2148.203125</ele>
        <time>2011-06-14T09:50:47Z</time>
      </trkpt>
      <trkpt lat="42.8472" lon="0.67654">
        <ele>2149.6452636719</ele>
        <time>2011-06-14T09:50:55Z</time>
      </trkpt>
      <trkpt lat="42.84719" lon="0.6765">
        <ele>2150.1259765625</ele>
        <time>2011-06-14T09:51:01Z</time>
      </trkpt>
      <trkpt lat="42.84716" lon="0.67646">
        <ele>2150.6064453125</ele>
        <time>2011-06-14T09:51:05Z</time>
      </trkpt>
      <trkpt lat="42.84714" lon="0.67639">
        <ele>2152.0483398438</ele>
        <time>2011-06-14T09:51:12Z</time>
      </trkpt>
      <trkpt lat="42.84711" lon="0.67633">
        <ele>2153.9711914062</ele>
        <time>2011-06-14T09:51:19Z</time>
      </trkpt>
      <trkpt lat="42.8471" lon="0.67628">
        <ele>2155.4130859375</ele>
        <time>2011-06-14T09:51:24Z</time>
      </trkpt>
      <trkpt lat="42.84708" lon="0.67621">
        <ele>2157.3359375</ele>
        <time>2011-06-14T09:51:31Z</time>
      </trkpt>
      <trkpt lat="42.84707" lon="0.67617">
        <ele>2158.7778320312</ele>
        <time>2011-06-14T09:51:36Z</time>
      </trkpt>
      <trkpt lat="42.84706" lon="0.67613">
        <ele>2159.7390136719</ele>
        <time>2011-06-14T09:51:41Z</time>
      </trkpt>
      <trkpt lat="42.84703" lon="0.67608">
        <ele>2161.1811523438</ele>
        <time>2011-06-14T09:51:47Z</time>
      </trkpt>
      <trkpt lat="42.84702" lon="0.67602">
        <ele>2163.1037597656</ele>
        <time>2011-06-14T09:51:53Z</time>
      </trkpt>
      <trkpt lat="42.84704" lon="0.67592">
        <ele>2165.0263671875</ele>
        <time>2011-06-14T09:52:02Z</time>
      </trkpt>
      <trkpt lat="42.84702" lon="0.67587">
        <ele>2165.9875488281</ele>
        <time>2011-06-14T09:52:08Z</time>
      </trkpt>
      <trkpt lat="42.84698" lon="0.67581">
        <ele>2168.3908691406</ele>
        <time>2011-06-14T09:52:15Z</time>
      </trkpt>
      <trkpt lat="42.84697" lon="0.67576">
        <ele>2170.3134765625</ele>
        <time>2011-06-14T09:52:23Z</time>
      </trkpt>
      <trkpt lat="42.84694" lon="0.67575">
        <ele>2170.3134765625</ele>
        <time>2011-06-14T09:52:28Z</time>
      </trkpt>
      <trkpt lat="42.84694" lon="0.67573">
        <ele>2170.7941894531</ele>
        <time>2011-06-14T09:52:34Z</time>
      </trkpt>
      <trkpt lat="42.84692" lon="0.6757">
        <ele>2170.3134765625</ele>
        <time>2011-06-14T09:52:41Z</time>
      </trkpt>
      <trkpt lat="42.84692" lon="0.67569">
        <ele>2170.7941894531</ele>
        <time>2011-06-14T09:52:47Z</time>
      </trkpt>
      <trkpt lat="42.84693" lon="0.67569">
        <ele>2171.2746582031</ele>
        <time>2011-06-14T09:52:51Z</time>
      </trkpt>
      <trkpt lat="42.84691" lon="0.67565">
        <ele>2172.236328125</ele>
        <time>2011-06-14T09:52:56Z</time>
      </trkpt>
      <trkpt lat="42.8469" lon="0.67562">
        <ele>2174.1589355469</ele>
        <time>2011-06-14T09:53:02Z</time>
      </trkpt>
      <trkpt lat="42.84689" lon="0.67561">
        <ele>2174.1589355469</ele>
        <time>2011-06-14T09:53:12Z</time>
      </trkpt>
      <trkpt lat="42.84688" lon="0.67559">
        <ele>2175.6008300781</ele>
        <time>2011-06-14T09:53:22Z</time>
      </trkpt>
      <trkpt lat="42.84685" lon="0.67555">
        <ele>2178.0041503906</ele>
        <time>2011-06-14T09:53:29Z</time>
      </trkpt>
      <trkpt lat="42.84681" lon="0.67551">
        <ele>2180.4074707031</ele>
        <time>2011-06-14T09:53:35Z</time>
      </trkpt>
      <trkpt lat="42.84677" lon="0.67548">
        <ele>2181.8493652344</ele>
        <time>2011-06-14T09:53:42Z</time>
      </trkpt>
      <trkpt lat="42.84674" lon="0.67546">
        <ele>2183.7719726562</ele>
        <time>2011-06-14T09:53:47Z</time>
      </trkpt>
      <trkpt lat="42.8467" lon="0.67544">
        <ele>2185.2138671875</ele>
        <time>2011-06-14T09:53:52Z</time>
      </trkpt>
      <trkpt lat="42.84667" lon="0.67542">
        <ele>2186.6557617188</ele>
        <time>2011-06-14T09:53:57Z</time>
      </trkpt>
      <trkpt lat="42.84663" lon="0.67541">
        <ele>2188.0981445312</ele>
        <time>2011-06-14T09:54:03Z</time>
      </trkpt>
      <trkpt lat="42.84658" lon="0.67539">
        <ele>2189.5400390625</ele>
        <time>2011-06-14T09:54:10Z</time>
      </trkpt>
      <trkpt lat="42.84656" lon="0.67539">
        <ele>2190.0207519531</ele>
        <time>2011-06-14T09:54:15Z</time>
      </trkpt>
      <trkpt lat="42.84656" lon="0.67539">
        <ele>2190.0207519531</ele>
        <time>2011-06-14T09:54:24Z</time>
      </trkpt>
      <trkpt lat="42.84651" lon="0.67538">
        <ele>2191.4626464844</ele>
        <time>2011-06-14T09:54:30Z</time>
      </trkpt>
      <trkpt lat="42.84645" lon="0.67536">
        <ele>2192.9045410156</ele>
        <time>2011-06-14T09:54:37Z</time>
      </trkpt>
      <trkpt lat="42.84641" lon="0.67534">
        <ele>2194.3464355469</ele>
        <time>2011-06-14T09:54:42Z</time>
      </trkpt>
      <trkpt lat="42.84637" lon="0.67532">
        <ele>2195.7885742188</ele>
        <time>2011-06-14T09:54:47Z</time>
      </trkpt>
      <trkpt lat="42.84632" lon="0.67533">
        <ele>2196.7497558594</ele>
        <time>2011-06-14T09:54:53Z</time>
      </trkpt>
      <trkpt lat="42.84627" lon="0.67532">
        <ele>2197.7111816406</ele>
        <time>2011-06-14T09:54:58Z</time>
      </trkpt>
      <trkpt lat="42.84621" lon="0.67529">
        <ele>2199.6337890625</ele>
        <time>2011-06-14T09:55:04Z</time>
      </trkpt>
      <trkpt lat="42.84615" lon="0.67526">
        <ele>2201.5563964844</ele>
        <time>2011-06-14T09:55:12Z</time>
      </trkpt>
      <trkpt lat="42.8461" lon="0.6752">
        <ele>2202.0368652344</ele>
        <time>2011-06-14T09:55:22Z</time>
      </trkpt>
      <trkpt lat="42.8461" lon="0.67517">
        <ele>2201.5563964844</ele>
        <time>2011-06-14T09:55:33Z</time>
      </trkpt>
      <trkpt lat="42.8461" lon="0.67514">
        <ele>2201.5563964844</ele>
        <time>2011-06-14T09:55:39Z</time>
      </trkpt>
      <trkpt lat="42.84611" lon="0.67506">
        <ele>2201.5563964844</ele>
        <time>2011-06-14T09:55:44Z</time>
      </trkpt>
      <trkpt lat="42.84611" lon="0.675">
        <ele>2201.5563964844</ele>
        <time>2011-06-14T09:55:48Z</time>
      </trkpt>
      <trkpt lat="42.84611" lon="0.67488">
        <ele>2201.0756835938</ele>
        <time>2011-06-14T09:55:54Z</time>
      </trkpt>
      <trkpt lat="42.84611" lon="0.67488">
        <ele>2200.5949707031</ele>
        <time>2011-06-14T09:56:06Z</time>
      </trkpt>
      <trkpt lat="42.84611" lon="0.6748">
        <ele>2200.5949707031</ele>
        <time>2011-06-14T09:56:13Z</time>
      </trkpt>
      <trkpt lat="42.8461" lon="0.6746">
        <ele>2198.6723632812</ele>
        <time>2011-06-14T09:56:19Z</time>
      </trkpt>
      <trkpt lat="42.84605" lon="0.6744">
        <ele>2196.7497558594</ele>
        <time>2011-06-14T09:56:25Z</time>
      </trkpt>
      <trkpt lat="42.846" lon="0.67419">
        <ele>2192.9045410156</ele>
        <time>2011-06-14T09:56:31Z</time>
      </trkpt>
      <trkpt lat="42.84593" lon="0.67403">
        <ele>2190.5012207031</ele>
        <time>2011-06-14T09:56:36Z</time>
      </trkpt>
      <trkpt lat="42.84584" lon="0.6738">
        <ele>2189.0593261719</ele>
        <time>2011-06-14T09:56:42Z</time>
      </trkpt>
      <trkpt lat="42.84574" lon="0.67361">
        <ele>2187.6171875</ele>
        <time>2011-06-14T09:56:48Z</time>
      </trkpt>
      <trkpt lat="42.84565" lon="0.67344">
        <ele>2184.2526855469</ele>
        <time>2011-06-14T09:56:53Z</time>
      </trkpt>
      <trkpt lat="42.84554" lon="0.67325">
        <ele>2182.810546875</ele>
        <time>2011-06-14T09:56:59Z</time>
      </trkpt>
      <trkpt lat="42.84547" lon="0.67313">
        <ele>2182.810546875</ele>
        <time>2011-06-14T09:57:03Z</time>
      </trkpt>
      <trkpt lat="42.84539" lon="0.67299">
        <ele>2183.7719726562</ele>
        <time>2011-06-14T09:57:08Z</time>
      </trkpt>
      <trkpt lat="42.84531" lon="0.67288">
        <ele>2182.330078125</ele>
        <time>2011-06-14T09:57:13Z</time>
      </trkpt>
      <trkpt lat="42.84526" lon="0.67277">
        <ele>2179.9267578125</ele>
        <time>2011-06-14T09:57:17Z</time>
      </trkpt>
      <trkpt lat="42.84516" lon="0.67261">
        <ele>2176.5622558594</ele>
        <time>2011-06-14T09:57:23Z</time>
      </trkpt>
      <trkpt lat="42.84509" lon="0.6725">
        <ele>2174.6396484375</ele>
        <time>2011-06-14T09:57:27Z</time>
      </trkpt>
      <trkpt lat="42.84506" lon="0.67244">
        <ele>2173.1977539062</ele>
        <time>2011-06-14T09:57:29Z</time>
      </trkpt>
      <trkpt lat="42.84497" lon="0.67225">
        <ele>2169.8327636719</ele>
        <time>2011-06-14T09:57:35Z</time>
      </trkpt>
      <trkpt lat="42.84496" lon="0.67222">
        <ele>2168.8715820312</ele>
        <time>2011-06-14T09:57:36Z</time>
      </trkpt>
      <trkpt lat="42.84484" lon="0.67205">
        <ele>2163.5842285156</ele>
        <time>2011-06-14T09:57:43Z</time>
      </trkpt>
      <trkpt lat="42.84475" lon="0.67188">
        <ele>2160.2197265625</ele>
        <time>2011-06-14T09:57:49Z</time>
      </trkpt>
      <trkpt lat="42.84468" lon="0.67169">
        <ele>2157.8166503906</ele>
        <time>2011-06-14T09:57:55Z</time>
      </trkpt>
      <trkpt lat="42.84464" lon="0.67154">
        <ele>2156.3745117188</ele>
        <time>2011-06-14T09:58:00Z</time>
      </trkpt>
      <trkpt lat="42.84462" lon="0.67143">
        <ele>2156.3745117188</ele>
        <time>2011-06-14T09:58:03Z</time>
      </trkpt>
      <trkpt lat="42.84457" lon="0.67126">
        <ele>2156.3745117188</ele>
        <time>2011-06-14T09:58:08Z</time>
      </trkpt>
      <trkpt lat="42.84453" lon="0.67105">
        <ele>2157.3359375</ele>
        <time>2011-06-14T09:58:14Z</time>
      </trkpt>
      <trkpt lat="42.84448" lon="0.67089">
        <ele>2156.8552246094</ele>
        <time>2011-06-14T09:58:19Z</time>
      </trkpt>
      <trkpt lat="42.84445" lon="0.67077">
        <ele>2155.8935546875</ele>
        <time>2011-06-14T09:58:23Z</time>
      </trkpt>
      <trkpt lat="42.84439" lon="0.67061">
        <ele>2154.9323730469</ele>
        <time>2011-06-14T09:58:28Z</time>
      </trkpt>
      <trkpt lat="42.84433" lon="0.67042">
        <ele>2153.009765625</ele>
        <time>2011-06-14T09:58:34Z</time>
      </trkpt>
      <trkpt lat="42.84431" lon="0.67024">
        <ele>2149.1645507812</ele>
        <time>2011-06-14T09:58:40Z</time>
      </trkpt>
      <trkpt lat="42.84431" lon="0.67005">
        <ele>2146.2807617188</ele>
        <time>2011-06-14T09:58:46Z</time>
      </trkpt>
      <trkpt lat="42.84431" lon="0.66985">
        <ele>2143.8774414062</ele>
        <time>2011-06-14T09:58:52Z</time>
      </trkpt>
      <trkpt lat="42.84427" lon="0.66965">
        <ele>2140.5126953125</ele>
        <time>2011-06-14T09:58:58Z</time>
      </trkpt>
      <trkpt lat="42.84425" lon="0.6695">
        <ele>2138.109375</ele>
        <time>2011-06-14T09:59:03Z</time>
      </trkpt>
      <trkpt lat="42.84422" lon="0.66928">
        <ele>2135.2253417969</ele>
        <time>2011-06-14T09:59:10Z</time>
      </trkpt>
      <trkpt lat="42.8442" lon="0.66912">
        <ele>2132.8220214844</ele>
        <time>2011-06-14T09:59:15Z</time>
      </trkpt>
      <trkpt lat="42.84417" lon="0.66896">
        <ele>2130.8996582031</ele>
        <time>2011-06-14T09:59:20Z</time>
      </trkpt>
      <trkpt lat="42.84415" lon="0.66877">
        <ele>2128.4963378906</ele>
        <time>2011-06-14T09:59:27Z</time>
      </trkpt>
      <trkpt lat="42.84415" lon="0.66869">
        <ele>2127.5349121094</ele>
        <time>2011-06-14T09:59:33Z</time>
      </trkpt>
      <trkpt lat="42.84418" lon="0.66863">
        <ele>2127.0544433594</ele>
        <time>2011-06-14T09:59:41Z</time>
      </trkpt>
      <trkpt lat="42.84417" lon="0.66861">
        <ele>2126.0930175781</ele>
        <time>2011-06-14T09:59:51Z</time>
      </trkpt>
      <trkpt lat="42.84416" lon="0.66861">
        <ele>2125.1315917969</ele>
        <time>2011-06-14T09:59:58Z</time>
      </trkpt>
      <trkpt lat="42.84416" lon="0.66861">
        <ele>2125.1315917969</ele>
        <time>2011-06-14T10:00:00Z</time>
      </trkpt>
      <trkpt lat="42.84414" lon="0.66849">
        <ele>2123.689453125</ele>
        <time>2011-06-14T10:00:05Z</time>
      </trkpt>
      <trkpt lat="42.84411" lon="0.66829">
        <ele>2121.2861328125</ele>
        <time>2011-06-14T10:00:11Z</time>
      </trkpt>
      <trkpt lat="42.84409" lon="0.66807">
        <ele>2117.4409179688</ele>
        <time>2011-06-14T10:00:18Z</time>
      </trkpt>
      <trkpt lat="42.84407" lon="0.66794">
        <ele>2115.0378417969</ele>
        <time>2011-06-14T10:00:23Z</time>
      </trkpt>
      <trkpt lat="42.84402" lon="0.6678">
        <ele>2113.115234375</ele>
        <time>2011-06-14T10:00:28Z</time>
      </trkpt>
      <trkpt lat="42.84397" lon="0.66759">
        <ele>2109.7504882812</ele>
        <time>2011-06-14T10:00:35Z</time>
      </trkpt>
      <trkpt lat="42.84394" lon="0.66737">
        <ele>2107.3471679688</ele>
        <time>2011-06-14T10:00:42Z</time>
      </trkpt>
      <trkpt lat="42.84388" lon="0.66723">
        <ele>2105.9050292969</ele>
        <time>2011-06-14T10:00:47Z</time>
      </trkpt>
      <trkpt lat="42.84376" lon="0.66706">
        <ele>2102.5405273438</ele>
        <time>2011-06-14T10:00:54Z</time>
      </trkpt>
      <trkpt lat="42.84365" lon="0.6669">
        <ele>2100.6179199219</ele>
        <time>2011-06-14T10:01:00Z</time>
      </trkpt>
      <trkpt lat="42.84358" lon="0.66675">
        <ele>2099.1760253906</ele>
        <time>2011-06-14T10:01:05Z</time>
      </trkpt>
      <trkpt lat="42.84347" lon="0.6666">
        <ele>2096.7727050781</ele>
        <time>2011-06-14T10:01:11Z</time>
      </trkpt>
      <trkpt lat="42.84338" lon="0.66641">
        <ele>2095.3308105469</ele>
        <time>2011-06-14T10:01:17Z</time>
      </trkpt>
      <trkpt lat="42.84328" lon="0.66624">
        <ele>2094.3693847656</ele>
        <time>2011-06-14T10:01:23Z</time>
      </trkpt>
      <trkpt lat="42.84319" lon="0.66605">
        <ele>2092.4470214844</ele>
        <time>2011-06-14T10:01:30Z</time>
      </trkpt>
      <trkpt lat="42.8431" lon="0.66589">
        <ele>2092.4470214844</ele>
        <time>2011-06-14T10:01:36Z</time>
      </trkpt>
      <trkpt lat="42.84301" lon="0.66578">
        <ele>2092.9274902344</ele>
        <time>2011-06-14T10:01:41Z</time>
      </trkpt>
      <trkpt lat="42.8429" lon="0.6656">
        <ele>2092.4470214844</ele>
        <time>2011-06-14T10:01:48Z</time>
      </trkpt>
      <trkpt lat="42.84282" lon="0.66543">
        <ele>2092.9274902344</ele>
        <time>2011-06-14T10:01:54Z</time>
      </trkpt>
      <trkpt lat="42.84274" lon="0.66527">
        <ele>2093.8889160156</ele>
        <time>2011-06-14T10:02:00Z</time>
      </trkpt>
      <trkpt lat="42.84266" lon="0.66513">
        <ele>2094.8500976562</ele>
        <time>2011-06-14T10:02:05Z</time>
      </trkpt>
      <trkpt lat="42.84262" lon="0.66506">
        <ele>2093.8889160156</ele>
        <time>2011-06-14T10:02:09Z</time>
      </trkpt>
      <trkpt lat="42.84259" lon="0.66501">
        <ele>2093.8889160156</ele>
        <time>2011-06-14T10:02:13Z</time>
      </trkpt>
      <trkpt lat="42.84256" lon="0.66498">
        <ele>2092.9274902344</ele>
        <time>2011-06-14T10:02:16Z</time>
      </trkpt>
      <trkpt lat="42.84249" lon="0.66487">
        <ele>2091.4853515625</ele>
        <time>2011-06-14T10:02:26Z</time>
      </trkpt>
      <trkpt lat="42.84241" lon="0.66478">
        <ele>2088.6015625</ele>
        <time>2011-06-14T10:02:35Z</time>
      </trkpt>
      <trkpt lat="42.84232" lon="0.66468">
        <ele>2086.1982421875</ele>
        <time>2011-06-14T10:02:41Z</time>
      </trkpt>
      <trkpt lat="42.84224" lon="0.66456">
        <ele>2085.2368164062</ele>
        <time>2011-06-14T10:02:46Z</time>
      </trkpt>
      <trkpt lat="42.84219" lon="0.66447">
        <ele>2083.794921875</ele>
        <time>2011-06-14T10:02:49Z</time>
      </trkpt>
      <trkpt lat="42.84204" lon="0.66428">
        <ele>2083.3142089844</ele>
        <time>2011-06-14T10:02:56Z</time>
      </trkpt>
      <trkpt lat="42.84195" lon="0.66414">
        <ele>2082.3530273438</ele>
        <time>2011-06-14T10:03:01Z</time>
      </trkpt>
      <trkpt lat="42.84193" lon="0.66412">
        <ele>2081.8723144531</ele>
        <time>2011-06-14T10:03:02Z</time>
      </trkpt>
      <trkpt lat="42.84187" lon="0.66402">
        <ele>2080.9111328125</ele>
        <time>2011-06-14T10:03:07Z</time>
      </trkpt>
      <trkpt lat="42.84182" lon="0.66393">
        <ele>2078.5078125</ele>
        <time>2011-06-14T10:03:17Z</time>
      </trkpt>
      <trkpt lat="42.84179" lon="0.66388">
        <ele>2077.5463867188</ele>
        <time>2011-06-14T10:03:26Z</time>
      </trkpt>
      <trkpt lat="42.8418" lon="0.66389">
        <ele>2075.1428222656</ele>
        <time>2011-06-14T10:03:48Z</time>
      </trkpt>
      <trkpt lat="42.8418" lon="0.66389">
        <ele>2075.1428222656</ele>
        <time>2011-06-14T10:03:49Z</time>
      </trkpt>
    </trkseg>
  </trk>
  <trk>
    <name><![CDATA[Randocourse]]></name>
    <trkseg>
      <trkpt lat="42.8418" lon="0.66389">
        <ele>2074.181640625</ele>
        <time>2011-06-14T10:03:53Z</time>
      </trkpt>
      <trkpt lat="42.84177" lon="0.66386">
        <ele>2072.7397460938</ele>
        <time>2011-06-14T10:04:04Z</time>
      </trkpt>
      <trkpt lat="42.84174" lon="0.6638">
        <ele>2072.2590332031</ele>
        <time>2011-06-14T10:04:09Z</time>
      </trkpt>
      <trkpt lat="42.84169" lon="0.66374">
        <ele>2072.2590332031</ele>
        <time>2011-06-14T10:04:15Z</time>
      </trkpt>
      <trkpt lat="42.84164" lon="0.66366">
        <ele>2071.7783203125</ele>
        <time>2011-06-14T10:04:22Z</time>
      </trkpt>
      <trkpt lat="42.84162" lon="0.66363">
        <ele>2071.7783203125</ele>
        <time>2011-06-14T10:04:24Z</time>
      </trkpt>
      <trkpt lat="42.84156" lon="0.6635">
        <ele>2071.7783203125</ele>
        <time>2011-06-14T10:04:31Z</time>
      </trkpt>
      <trkpt lat="42.84151" lon="0.66335">
        <ele>2071.7783203125</ele>
        <time>2011-06-14T10:04:36Z</time>
      </trkpt>
      <trkpt lat="42.84146" lon="0.66317">
        <ele>2070.8171386719</ele>
        <time>2011-06-14T10:04:42Z</time>
      </trkpt>
      <trkpt lat="42.84141" lon="0.66305">
        <ele>2069.3752441406</ele>
        <time>2011-06-14T10:04:47Z</time>
      </trkpt>
      <trkpt lat="42.84134" lon="0.66287">
        <ele>2067.4523925781</ele>
        <time>2011-06-14T10:04:53Z</time>
      </trkpt>
      <trkpt lat="42.84125" lon="0.66271">
        <ele>2065.5300292969</ele>
        <time>2011-06-14T10:04:58Z</time>
      </trkpt>
      <trkpt lat="42.84117" lon="0.66258">
        <ele>2063.6071777344</ele>
        <time>2011-06-14T10:05:02Z</time>
      </trkpt>
      <trkpt lat="42.84109" lon="0.66247">
        <ele>2060.7233886719</ele>
        <time>2011-06-14T10:05:06Z</time>
      </trkpt>
      <trkpt lat="42.84097" lon="0.6623">
        <ele>2058.3198242188</ele>
        <time>2011-06-14T10:05:12Z</time>
      </trkpt>
      <trkpt lat="42.84087" lon="0.66218">
        <ele>2056.8779296875</ele>
        <time>2011-06-14T10:05:17Z</time>
      </trkpt>
      <trkpt lat="42.84081" lon="0.66208">
        <ele>2054.9553222656</ele>
        <time>2011-06-14T10:05:21Z</time>
      </trkpt>
      <trkpt lat="42.84073" lon="0.66195">
        <ele>2052.5520019531</ele>
        <time>2011-06-14T10:05:26Z</time>
      </trkpt>
      <trkpt lat="42.84063" lon="0.66184">
        <ele>2051.1101074219</ele>
        <time>2011-06-14T10:05:31Z</time>
      </trkpt>
      <trkpt lat="42.84053" lon="0.66172">
        <ele>2050.6293945312</ele>
        <time>2011-06-14T10:05:36Z</time>
      </trkpt>
      <trkpt lat="42.84047" lon="0.66158">
        <ele>2051.5908203125</ele>
        <time>2011-06-14T10:05:41Z</time>
      </trkpt>
      <trkpt lat="42.84045" lon="0.66156">
        <ele>2052.0712890625</ele>
        <time>2011-06-14T10:05:42Z</time>
      </trkpt>
      <trkpt lat="42.84042" lon="0.66151">
        <ele>2052.0712890625</ele>
        <time>2011-06-14T10:05:46Z</time>
      </trkpt>
      <trkpt lat="42.84037" lon="0.66146">
        <ele>2052.0712890625</ele>
        <time>2011-06-14T10:05:51Z</time>
      </trkpt>
      <trkpt lat="42.84026" lon="0.66135">
        <ele>2052.5520019531</ele>
        <time>2011-06-14T10:06:00Z</time>
      </trkpt>
      <trkpt lat="42.84019" lon="0.66126">
        <ele>2052.0712890625</ele>
        <time>2011-06-14T10:06:06Z</time>
      </trkpt>
      <trkpt lat="42.8401" lon="0.66117">
        <ele>2051.5908203125</ele>
        <time>2011-06-14T10:06:13Z</time>
      </trkpt>
      <trkpt lat="42.84003" lon="0.66109">
        <ele>2052.5520019531</ele>
        <time>2011-06-14T10:06:20Z</time>
      </trkpt>
      <trkpt lat="42.83998" lon="0.66099">
        <ele>2053.5134277344</ele>
        <time>2011-06-14T10:06:27Z</time>
      </trkpt>
      <trkpt lat="42.83991" lon="0.66092">
        <ele>2055.4360351562</ele>
        <time>2011-06-14T10:06:35Z</time>
      </trkpt>
      <trkpt lat="42.83985" lon="0.66087">
        <ele>2056.3972167969</ele>
        <time>2011-06-14T10:06:43Z</time>
      </trkpt>
      <trkpt lat="42.83978" lon="0.66079">
        <ele>2054.9553222656</ele>
        <time>2011-06-14T10:06:49Z</time>
      </trkpt>
      <trkpt lat="42.83973" lon="0.66071">
        <ele>2053.0327148438</ele>
        <time>2011-06-14T10:06:53Z</time>
      </trkpt>
      <trkpt lat="42.83964" lon="0.66063">
        <ele>2049.1875</ele>
        <time>2011-06-14T10:06:59Z</time>
      </trkpt>
      <trkpt lat="42.83952" lon="0.66057">
        <ele>2046.3037109375</ele>
        <time>2011-06-14T10:07:04Z</time>
      </trkpt>
      <trkpt lat="42.83941" lon="0.66049">
        <ele>2043.4194335938</ele>
        <time>2011-06-14T10:07:10Z</time>
      </trkpt>
      <trkpt lat="42.83935" lon="0.66045">
        <ele>2041.9775390625</ele>
        <time>2011-06-14T10:07:15Z</time>
      </trkpt>
      <trkpt lat="42.83926" lon="0.66034">
        <ele>2037.6516113281</ele>
        <time>2011-06-14T10:07:22Z</time>
      </trkpt>
      <trkpt lat="42.83917" lon="0.66028">
        <ele>2034.7678222656</ele>
        <time>2011-06-14T10:07:27Z</time>
      </trkpt>
      <trkpt lat="42.83906" lon="0.6602">
        <ele>2031.4030761719</ele>
        <time>2011-06-14T10:07:32Z</time>
      </trkpt>
      <trkpt lat="42.83893" lon="0.66011">
        <ele>2027.5576171875</ele>
        <time>2011-06-14T10:07:38Z</time>
      </trkpt>
      <trkpt lat="42.83881" lon="0.66003">
        <ele>2024.673828125</ele>
        <time>2011-06-14T10:07:43Z</time>
      </trkpt>
      <trkpt lat="42.8387" lon="0.65994">
        <ele>2020.3479003906</ele>
        <time>2011-06-14T10:07:49Z</time>
      </trkpt>
      <trkpt lat="42.83859" lon="0.65989">
        <ele>2017.9445800781</ele>
        <time>2011-06-14T10:07:54Z</time>
      </trkpt>
      <trkpt lat="42.83849" lon="0.65982">
        <ele>2015.5415039062</ele>
        <time>2011-06-14T10:07:59Z</time>
      </trkpt>
      <trkpt lat="42.8384" lon="0.65978">
        <ele>2012.6574707031</ele>
        <time>2011-06-14T10:08:04Z</time>
      </trkpt>
      <trkpt lat="42.83835" lon="0.65976">
        <ele>2010.7346191406</ele>
        <time>2011-06-14T10:08:07Z</time>
      </trkpt>
      <trkpt lat="42.83831" lon="0.65971">
        <ele>2008.8120117188</ele>
        <time>2011-06-14T10:08:14Z</time>
      </trkpt>
      <trkpt lat="42.83828" lon="0.65971">
        <ele>2007.3701171875</ele>
        <time>2011-06-14T10:08:17Z</time>
      </trkpt>
      <trkpt lat="42.83818" lon="0.65961">
        <ele>2004.4860839844</ele>
        <time>2011-06-14T10:08:24Z</time>
      </trkpt>
      <trkpt lat="42.83815" lon="0.65959">
        <ele>2003.0441894531</ele>
        <time>2011-06-14T10:08:27Z</time>
      </trkpt>
      <trkpt lat="42.83808" lon="0.65952">
        <ele>2001.1215820312</ele>
        <time>2011-06-14T10:08:32Z</time>
      </trkpt>
      <trkpt lat="42.83798" lon="0.65942">
        <ele>1999.6796875</ele>
        <time>2011-06-14T10:08:37Z</time>
      </trkpt>
      <trkpt lat="42.83787" lon="0.65937">
        <ele>1996.7956542969</ele>
        <time>2011-06-14T10:08:42Z</time>
      </trkpt>
      <trkpt lat="42.83778" lon="0.65934">
        <ele>1993.9116210938</ele>
        <time>2011-06-14T10:08:47Z</time>
      </trkpt>
      <trkpt lat="42.83765" lon="0.65925">
        <ele>1991.0275878906</ele>
        <time>2011-06-14T10:08:53Z</time>
      </trkpt>
      <trkpt lat="42.83753" lon="0.65917">
        <ele>1990.06640625</ele>
        <time>2011-06-14T10:08:58Z</time>
      </trkpt>
      <trkpt lat="42.83741" lon="0.65907">
        <ele>1989.1049804688</ele>
        <time>2011-06-14T10:09:03Z</time>
      </trkpt>
      <trkpt lat="42.8373" lon="0.65895">
        <ele>1989.1049804688</ele>
        <time>2011-06-14T10:09:08Z</time>
      </trkpt>
      <trkpt lat="42.83715" lon="0.65879">
        <ele>1988.6245117188</ele>
        <time>2011-06-14T10:09:15Z</time>
      </trkpt>
      <trkpt lat="42.83706" lon="0.65869">
        <ele>1988.1437988281</ele>
        <time>2011-06-14T10:09:20Z</time>
      </trkpt>
      <trkpt lat="42.83698" lon="0.6586">
        <ele>1987.1823730469</ele>
        <time>2011-06-14T10:09:24Z</time>
      </trkpt>
      <trkpt lat="42.83694" lon="0.65853">
        <ele>1987.6630859375</ele>
        <time>2011-06-14T10:09:28Z</time>
      </trkpt>
      <trkpt lat="42.83693" lon="0.65847">
        <ele>1987.1823730469</ele>
        <time>2011-06-14T10:09:32Z</time>
      </trkpt>
      <trkpt lat="42.83686" lon="0.65836">
        <ele>1986.7016601562</ele>
        <time>2011-06-14T10:09:40Z</time>
      </trkpt>
      <trkpt lat="42.83683" lon="0.65833">
        <ele>1986.2211914062</ele>
        <time>2011-06-14T10:09:43Z</time>
      </trkpt>
      <trkpt lat="42.83678" lon="0.65831">
        <ele>1985.7404785156</ele>
        <time>2011-06-14T10:09:47Z</time>
      </trkpt>
      <trkpt lat="42.83675" lon="0.65831">
        <ele>1985.259765625</ele>
        <time>2011-06-14T10:09:49Z</time>
      </trkpt>
      <trkpt lat="42.83665" lon="0.65827">
        <ele>1984.2985839844</ele>
        <time>2011-06-14T10:09:57Z</time>
      </trkpt>
      <trkpt lat="42.83663" lon="0.65826">
        <ele>1983.3371582031</ele>
        <time>2011-06-14T10:09:59Z</time>
      </trkpt>
      <trkpt lat="42.83654" lon="0.65814">
        <ele>1982.8564453125</ele>
        <time>2011-06-14T10:10:04Z</time>
      </trkpt>
      <trkpt lat="42.83644" lon="0.65802">
        <ele>1980.9340820312</ele>
        <time>2011-06-14T10:10:09Z</time>
      </trkpt>
      <trkpt lat="42.83632" lon="0.65785">
        <ele>1980.4533691406</ele>
        <time>2011-06-14T10:10:15Z</time>
      </trkpt>
      <trkpt lat="42.8363" lon="0.65784">
        <ele>1980.4533691406</ele>
        <time>2011-06-14T10:10:16Z</time>
      </trkpt>
      <trkpt lat="42.83619" lon="0.65769">
        <ele>1979.4916992188</ele>
        <time>2011-06-14T10:10:22Z</time>
      </trkpt>
      <trkpt lat="42.83608" lon="0.65754">
        <ele>1978.0498046875</ele>
        <time>2011-06-14T10:10:28Z</time>
      </trkpt>
      <trkpt lat="42.83599" lon="0.6574">
        <ele>1977.0886230469</ele>
        <time>2011-06-14T10:10:33Z</time>
      </trkpt>
      <trkpt lat="42.83587" lon="0.65724">
        <ele>1975.646484375</ele>
        <time>2011-06-14T10:10:40Z</time>
      </trkpt>
      <trkpt lat="42.83577" lon="0.65717">
        <ele>1974.2045898438</ele>
        <time>2011-06-14T10:10:45Z</time>
      </trkpt>
      <trkpt lat="42.83572" lon="0.65717">
        <ele>1972.7626953125</ele>
        <time>2011-06-14T10:10:49Z</time>
      </trkpt>
      <trkpt lat="42.83568" lon="0.65717">
        <ele>1971.3205566406</ele>
        <time>2011-06-14T10:10:56Z</time>
      </trkpt>
      <trkpt lat="42.83564" lon="0.65718">
        <ele>1971.3205566406</ele>
        <time>2011-06-14T10:11:06Z</time>
      </trkpt>
      <trkpt lat="42.83562" lon="0.65719">
        <ele>1970.8400878906</ele>
        <time>2011-06-14T10:11:08Z</time>
      </trkpt>
      <trkpt lat="42.83554" lon="0.65721">
        <ele>1967.4753417969</ele>
        <time>2011-06-14T10:11:14Z</time>
      </trkpt>
      <trkpt lat="42.83548" lon="0.65721">
        <ele>1966.5141601562</ele>
        <time>2011-06-14T10:11:18Z</time>
      </trkpt>
      <trkpt lat="42.8354" lon="0.65723">
        <ele>1964.5915527344</ele>
        <time>2011-06-14T10:11:24Z</time>
      </trkpt>
      <trkpt lat="42.83533" lon="0.65725">
        <ele>1962.6687011719</ele>
        <time>2011-06-14T10:11:29Z</time>
      </trkpt>
      <trkpt lat="42.83523" lon="0.65727">
        <ele>1960.2653808594</ele>
        <time>2011-06-14T10:11:38Z</time>
      </trkpt>
      <trkpt lat="42.83522" lon="0.65726">
        <ele>1960.2653808594</ele>
        <time>2011-06-14T10:11:45Z</time>
      </trkpt>
      <trkpt lat="42.83518" lon="0.65724">
        <ele>1957.3815917969</ele>
        <time>2011-06-14T10:11:51Z</time>
      </trkpt>
      <trkpt lat="42.83511" lon="0.65718">
        <ele>1954.9782714844</ele>
        <time>2011-06-14T10:11:57Z</time>
      </trkpt>
      <trkpt lat="42.83504" lon="0.65711">
        <ele>1952.0942382812</ele>
        <time>2011-06-14T10:12:03Z</time>
      </trkpt>
      <trkpt lat="42.83501" lon="0.65708">
        <ele>1951.6137695312</ele>
        <time>2011-06-14T10:12:06Z</time>
      </trkpt>
      <trkpt lat="42.83498" lon="0.65702">
        <ele>1949.6911621094</ele>
        <time>2011-06-14T10:12:12Z</time>
      </trkpt>
      <trkpt lat="42.83495" lon="0.65699">
        <ele>1948.2490234375</ele>
        <time>2011-06-14T10:12:17Z</time>
      </trkpt>
      <trkpt lat="42.83487" lon="0.65692">
        <ele>1946.3264160156</ele>
        <time>2011-06-14T10:12:25Z</time>
      </trkpt>
      <trkpt lat="42.83486" lon="0.6569">
        <ele>1945.845703125</ele>
        <time>2011-06-14T10:12:33Z</time>
      </trkpt>
      <trkpt lat="42.83484" lon="0.65685">
        <ele>1944.4035644531</ele>
        <time>2011-06-14T10:12:43Z</time>
      </trkpt>
      <trkpt lat="42.83482" lon="0.65677">
        <ele>1942.0004882812</ele>
        <time>2011-06-14T10:12:51Z</time>
      </trkpt>
      <trkpt lat="42.83479" lon="0.65669">
        <ele>1939.1164550781</ele>
        <time>2011-06-14T10:12:58Z</time>
      </trkpt>
      <trkpt lat="42.83481" lon="0.65668">
        <ele>1938.1552734375</ele>
        <time>2011-06-14T10:13:02Z</time>
      </trkpt>
      <trkpt lat="42.83478" lon="0.65663">
        <ele>1936.7131347656</ele>
        <time>2011-06-14T10:13:08Z</time>
      </trkpt>
      <trkpt lat="42.83478" lon="0.65663">
        <ele>1935.751953125</ele>
        <time>2011-06-14T10:13:15Z</time>
      </trkpt>
      <trkpt lat="42.83479" lon="0.65662">
        <ele>1935.751953125</ele>
        <time>2011-06-14T10:13:20Z</time>
      </trkpt>
      <trkpt lat="42.83484" lon="0.65663">
        <ele>1934.7907714844</ele>
        <time>2011-06-14T10:13:24Z</time>
      </trkpt>
      <trkpt lat="42.83485" lon="0.65663">
        <ele>1933.3486328125</ele>
        <time>2011-06-14T10:13:27Z</time>
      </trkpt>
      <trkpt lat="42.83484" lon="0.65657">
        <ele>1934.3100585938</ele>
        <time>2011-06-14T10:13:50Z</time>
      </trkpt>
      <trkpt lat="42.83485" lon="0.65658">
        <ele>1934.3100585938</ele>
        <time>2011-06-14T10:13:51Z</time>
      </trkpt>
      <trkpt lat="42.83487" lon="0.65658">
        <ele>1933.8293457031</ele>
        <time>2011-06-14T10:16:44Z</time>
      </trkpt>
      <trkpt lat="42.83487" lon="0.65658">
        <ele>1934.3100585938</ele>
        <time>2011-06-14T10:16:45Z</time>
      </trkpt>
      <trkpt lat="42.83488" lon="0.65657">
        <ele>1934.3100585938</ele>
        <time>2011-06-14T10:16:47Z</time>
      </trkpt>
      <trkpt lat="42.83498" lon="0.65657">
        <ele>1934.3100585938</ele>
        <time>2011-06-14T10:16:55Z</time>
      </trkpt>
      <trkpt lat="42.83503" lon="0.65657">
        <ele>1934.7907714844</ele>
        <time>2011-06-14T10:16:59Z</time>
      </trkpt>
      <trkpt lat="42.83511" lon="0.65653">
        <ele>1935.2712402344</ele>
        <time>2011-06-14T10:17:05Z</time>
      </trkpt>
      <trkpt lat="42.83517" lon="0.65649">
        <ele>1934.7907714844</ele>
        <time>2011-06-14T10:17:11Z</time>
      </trkpt>
      <trkpt lat="42.83521" lon="0.65646">
        <ele>1934.7907714844</ele>
        <time>2011-06-14T10:17:14Z</time>
      </trkpt>
      <trkpt lat="42.83525" lon="0.65643">
        <ele>1933.3486328125</ele>
        <time>2011-06-14T10:17:17Z</time>
      </trkpt>
      <trkpt lat="42.8353" lon="0.6564">
        <ele>1931.9064941406</ele>
        <time>2011-06-14T10:17:21Z</time>
      </trkpt>
      <trkpt lat="42.83538" lon="0.65633">
        <ele>1931.42578125</ele>
        <time>2011-06-14T10:17:29Z</time>
      </trkpt>
      <trkpt lat="42.83542" lon="0.6563">
        <ele>1931.9064941406</ele>
        <time>2011-06-14T10:17:33Z</time>
      </trkpt>
      <trkpt lat="42.83549" lon="0.65625">
        <ele>1931.42578125</ele>
        <time>2011-06-14T10:17:38Z</time>
      </trkpt>
      <trkpt lat="42.83556" lon="0.65619">
        <ele>1933.3486328125</ele>
        <time>2011-06-14T10:17:46Z</time>
      </trkpt>
      <trkpt lat="42.83563" lon="0.65611">
        <ele>1933.8293457031</ele>
        <time>2011-06-14T10:17:53Z</time>
      </trkpt>
      <trkpt lat="42.83564" lon="0.6561">
        <ele>1933.8293457031</ele>
        <time>2011-06-14T10:17:54Z</time>
      </trkpt>
      <trkpt lat="42.83568" lon="0.65607">
        <ele>1934.7907714844</ele>
        <time>2011-06-14T10:17:57Z</time>
      </trkpt>
      <trkpt lat="42.83575" lon="0.656">
        <ele>1934.7907714844</ele>
        <time>2011-06-14T10:18:04Z</time>
      </trkpt>
      <trkpt lat="42.83581" lon="0.65595">
        <ele>1935.2712402344</ele>
        <time>2011-06-14T10:18:10Z</time>
      </trkpt>
      <trkpt lat="42.83585" lon="0.65592">
        <ele>1935.2712402344</ele>
        <time>2011-06-14T10:18:15Z</time>
      </trkpt>
      <trkpt lat="42.8359" lon="0.65584">
        <ele>1934.3100585938</ele>
        <time>2011-06-14T10:18:21Z</time>
      </trkpt>
      <trkpt lat="42.83595" lon="0.65577">
        <ele>1933.3486328125</ele>
        <time>2011-06-14T10:18:27Z</time>
      </trkpt>
      <trkpt lat="42.836" lon="0.65573">
        <ele>1931.42578125</ele>
        <time>2011-06-14T10:18:33Z</time>
      </trkpt>
      <trkpt lat="42.83609" lon="0.65566">
        <ele>1928.5419921875</ele>
        <time>2011-06-14T10:18:42Z</time>
      </trkpt>
      <trkpt lat="42.83615" lon="0.65561">
        <ele>1927.1000976562</ele>
        <time>2011-06-14T10:18:48Z</time>
      </trkpt>
      <trkpt lat="42.83621" lon="0.65557">
        <ele>1924.6967773438</ele>
        <time>2011-06-14T10:18:53Z</time>
      </trkpt>
      <trkpt lat="42.83629" lon="0.65553">
        <ele>1923.2548828125</ele>
        <time>2011-06-14T10:18:59Z</time>
      </trkpt>
      <trkpt lat="42.83635" lon="0.65552">
        <ele>1922.2934570312</ele>
        <time>2011-06-14T10:19:05Z</time>
      </trkpt>
      <trkpt lat="42.8364" lon="0.65551">
        <ele>1921.8127441406</ele>
        <time>2011-06-14T10:19:09Z</time>
      </trkpt>
      <trkpt lat="42.83642" lon="0.6555">
        <ele>1921.33203125</ele>
        <time>2011-06-14T10:19:11Z</time>
      </trkpt>
      <trkpt lat="42.83645" lon="0.65551">
        <ele>1921.33203125</ele>
        <time>2011-06-14T10:19:18Z</time>
      </trkpt>
      <trkpt lat="42.83651" lon="0.6555">
        <ele>1919.8901367188</ele>
        <time>2011-06-14T10:19:23Z</time>
      </trkpt>
      <trkpt lat="42.83658" lon="0.65549">
        <ele>1917.4868164062</ele>
        <time>2011-06-14T10:19:31Z</time>
      </trkpt>
      <trkpt lat="42.83659" lon="0.65549">
        <ele>1917.0063476562</ele>
        <time>2011-06-14T10:19:37Z</time>
      </trkpt>
      <trkpt lat="42.83664" lon="0.65545">
        <ele>1914.6027832031</ele>
        <time>2011-06-14T10:19:43Z</time>
      </trkpt>
      <trkpt lat="42.83673" lon="0.65545">
        <ele>1912.6801757812</ele>
        <time>2011-06-14T10:19:50Z</time>
      </trkpt>
      <trkpt lat="42.83675" lon="0.65544">
        <ele>1912.1994628906</ele>
        <time>2011-06-14T10:19:52Z</time>
      </trkpt>
      <trkpt lat="42.83683" lon="0.65543">
        <ele>1910.2768554688</ele>
        <time>2011-06-14T10:19:59Z</time>
      </trkpt>
      <trkpt lat="42.83689" lon="0.65544">
        <ele>1908.3542480469</ele>
        <time>2011-06-14T10:20:07Z</time>
      </trkpt>
      <trkpt lat="42.83689" lon="0.65544">
        <ele>1908.3542480469</ele>
        <time>2011-06-14T10:20:16Z</time>
      </trkpt>
      <trkpt lat="42.83691" lon="0.65544">
        <ele>1907.3930664062</ele>
        <time>2011-06-14T10:20:25Z</time>
      </trkpt>
      <trkpt lat="42.83698" lon="0.65546">
        <ele>1905.4704589844</ele>
        <time>2011-06-14T10:20:32Z</time>
      </trkpt>
      <trkpt lat="42.83704" lon="0.65547">
        <ele>1904.0285644531</ele>
        <time>2011-06-14T10:20:38Z</time>
      </trkpt>
      <trkpt lat="42.83709" lon="0.65547">
        <ele>1902.5864257812</ele>
        <time>2011-06-14T10:20:44Z</time>
      </trkpt>
      <trkpt lat="42.83714" lon="0.65544">
        <ele>1901.14453125</ele>
        <time>2011-06-14T10:20:49Z</time>
      </trkpt>
      <trkpt lat="42.8372" lon="0.65542">
        <ele>1899.7023925781</ele>
        <time>2011-06-14T10:20:54Z</time>
      </trkpt>
      <trkpt lat="42.83727" lon="0.65538">
        <ele>1896.818359375</ele>
        <time>2011-06-14T10:21:01Z</time>
      </trkpt>
      <trkpt lat="42.83733" lon="0.65535">
        <ele>1896.337890625</ele>
        <time>2011-06-14T10:21:06Z</time>
      </trkpt>
      <trkpt lat="42.83738" lon="0.65532">
        <ele>1894.4150390625</ele>
        <time>2011-06-14T10:21:12Z</time>
      </trkpt>
      <trkpt lat="42.83746" lon="0.65526">
        <ele>1892.9731445312</ele>
        <time>2011-06-14T10:21:20Z</time>
      </trkpt>
      <trkpt lat="42.83748" lon="0.65524">
        <ele>1892.4926757812</ele>
        <time>2011-06-14T10:21:22Z</time>
      </trkpt>
      <trkpt lat="42.83752" lon="0.65524">
        <ele>1892.4926757812</ele>
        <time>2011-06-14T10:21:28Z</time>
      </trkpt>
      <trkpt lat="42.83757" lon="0.6552">
        <ele>1891.0505371094</ele>
        <time>2011-06-14T10:21:34Z</time>
      </trkpt>
      <trkpt lat="42.83764" lon="0.65511">
        <ele>1888.1667480469</ele>
        <time>2011-06-14T10:21:41Z</time>
      </trkpt>
      <trkpt lat="42.83767" lon="0.65508">
        <ele>1887.6860351562</ele>
        <time>2011-06-14T10:21:43Z</time>
      </trkpt>
      <trkpt lat="42.83775" lon="0.65501">
        <ele>1885.2827148438</ele>
        <time>2011-06-14T10:21:51Z</time>
      </trkpt>
      <trkpt lat="42.83776" lon="0.65499">
        <ele>1884.3215332031</ele>
        <time>2011-06-14T10:21:53Z</time>
      </trkpt>
      <trkpt lat="42.83783" lon="0.65492">
        <ele>1882.8791503906</ele>
        <time>2011-06-14T10:22:00Z</time>
      </trkpt>
      <trkpt lat="42.83788" lon="0.65486">
        <ele>1880.4760742188</ele>
        <time>2011-06-14T10:22:07Z</time>
      </trkpt>
      <trkpt lat="42.83792" lon="0.65482">
        <ele>1879.0339355469</ele>
        <time>2011-06-14T10:22:11Z</time>
      </trkpt>
      <trkpt lat="42.83799" lon="0.65475">
        <ele>1877.1115722656</ele>
        <time>2011-06-14T10:22:18Z</time>
      </trkpt>
      <trkpt lat="42.83806" lon="0.65469">
        <ele>1875.1887207031</ele>
        <time>2011-06-14T10:22:24Z</time>
      </trkpt>
      <trkpt lat="42.83815" lon="0.6546">
        <ele>1872.7856445312</ele>
        <time>2011-06-14T10:22:32Z</time>
      </trkpt>
      <trkpt lat="42.83821" lon="0.65454">
        <ele>1870.8630371094</ele>
        <time>2011-06-14T10:22:37Z</time>
      </trkpt>
      <trkpt lat="42.83829" lon="0.65448">
        <ele>1868.4597167969</ele>
        <time>2011-06-14T10:22:43Z</time>
      </trkpt>
      <trkpt lat="42.8383" lon="0.65447">
        <ele>1867.9787597656</ele>
        <time>2011-06-14T10:22:45Z</time>
      </trkpt>
      <trkpt lat="42.83837" lon="0.65439">
        <ele>1865.0949707031</ele>
        <time>2011-06-14T10:22:51Z</time>
      </trkpt>
      <trkpt lat="42.83846" lon="0.65431">
        <ele>1863.1723632812</ele>
        <time>2011-06-14T10:22:58Z</time>
      </trkpt>
      <trkpt lat="42.83852" lon="0.65425">
        <ele>1860.7690429688</ele>
        <time>2011-06-14T10:23:03Z</time>
      </trkpt>
      <trkpt lat="42.83859" lon="0.65418">
        <ele>1859.3271484375</ele>
        <time>2011-06-14T10:23:10Z</time>
      </trkpt>
      <trkpt lat="42.83868" lon="0.65413">
        <ele>1856.923828125</ele>
        <time>2011-06-14T10:23:16Z</time>
      </trkpt>
      <trkpt lat="42.83874" lon="0.65406">
        <ele>1855.4819335938</ele>
        <time>2011-06-14T10:23:22Z</time>
      </trkpt>
      <trkpt lat="42.83881" lon="0.654">
        <ele>1854.5205078125</ele>
        <time>2011-06-14T10:23:28Z</time>
      </trkpt>
      <trkpt lat="42.83887" lon="0.65394">
        <ele>1853.0786132812</ele>
        <time>2011-06-14T10:23:33Z</time>
      </trkpt>
      <trkpt lat="42.83894" lon="0.65384">
        <ele>1849.7138671875</ele>
        <time>2011-06-14T10:23:41Z</time>
      </trkpt>
      <trkpt lat="42.83901" lon="0.65375">
        <ele>1847.7912597656</ele>
        <time>2011-06-14T10:23:49Z</time>
      </trkpt>
      <trkpt lat="42.83907" lon="0.65366">
        <ele>1846.3493652344</ele>
        <time>2011-06-14T10:23:56Z</time>
      </trkpt>
      <trkpt lat="42.83911" lon="0.6536">
        <ele>1845.8686523438</ele>
        <time>2011-06-14T10:24:02Z</time>
      </trkpt>
      <trkpt lat="42.83918" lon="0.6535">
        <ele>1843.9460449219</ele>
        <time>2011-06-14T10:24:09Z</time>
      </trkpt>
      <trkpt lat="42.83924" lon="0.6534">
        <ele>1841.5427246094</ele>
        <time>2011-06-14T10:24:16Z</time>
      </trkpt>
      <trkpt lat="42.83929" lon="0.65333">
        <ele>1840.1008300781</ele>
        <time>2011-06-14T10:24:21Z</time>
      </trkpt>
      <trkpt lat="42.83934" lon="0.65325">
        <ele>1838.1782226562</ele>
        <time>2011-06-14T10:24:26Z</time>
      </trkpt>
      <trkpt lat="42.83938" lon="0.65315">
        <ele>1837.216796875</ele>
        <time>2011-06-14T10:24:32Z</time>
      </trkpt>
      <trkpt lat="42.83944" lon="0.65304">
        <ele>1835.2939453125</ele>
        <time>2011-06-14T10:24:39Z</time>
      </trkpt>
      <trkpt lat="42.8395" lon="0.65294">
        <ele>1833.8520507812</ele>
        <time>2011-06-14T10:24:46Z</time>
      </trkpt>
      <trkpt lat="42.83955" lon="0.65285">
        <ele>1832.41015625</ele>
        <time>2011-06-14T10:24:52Z</time>
      </trkpt>
      <trkpt lat="42.8396" lon="0.65275">
        <ele>1830.9682617188</ele>
        <time>2011-06-14T10:24:58Z</time>
      </trkpt>
      <trkpt lat="42.83965" lon="0.65264">
        <ele>1829.5261230469</ele>
        <time>2011-06-14T10:25:05Z</time>
      </trkpt>
      <trkpt lat="42.8397" lon="0.65254">
        <ele>1828.5649414062</ele>
        <time>2011-06-14T10:25:12Z</time>
      </trkpt>
      <trkpt lat="42.83971" lon="0.65253">
        <ele>1828.0842285156</ele>
        <time>2011-06-14T10:25:13Z</time>
      </trkpt>
      <trkpt lat="42.83976" lon="0.65247">
        <ele>1827.123046875</ele>
        <time>2011-06-14T10:25:20Z</time>
      </trkpt>
      <trkpt lat="42.83979" lon="0.65243">
        <ele>1826.1616210938</ele>
        <time>2011-06-14T10:25:25Z</time>
      </trkpt>
      <trkpt lat="42.83979" lon="0.65241">
        <ele>1826.1616210938</ele>
        <time>2011-06-14T10:25:26Z</time>
      </trkpt>
      <trkpt lat="42.83979" lon="0.65236">
        <ele>1824.7197265625</ele>
        <time>2011-06-14T10:25:29Z</time>
      </trkpt>
      <trkpt lat="42.83981" lon="0.65225">
        <ele>1821.8356933594</ele>
        <time>2011-06-14T10:25:35Z</time>
      </trkpt>
      <trkpt lat="42.83981" lon="0.65222">
        <ele>1821.3549804688</ele>
        <time>2011-06-14T10:25:36Z</time>
      </trkpt>
      <trkpt lat="42.83981" lon="0.65216">
        <ele>1819.9128417969</ele>
        <time>2011-06-14T10:25:39Z</time>
      </trkpt>
      <trkpt lat="42.83984" lon="0.65202">
        <ele>1816.5483398438</ele>
        <time>2011-06-14T10:25:45Z</time>
      </trkpt>
      <trkpt lat="42.83984" lon="0.65197">
        <ele>1815.1064453125</ele>
        <time>2011-06-14T10:25:50Z</time>
      </trkpt>
      <trkpt lat="42.83985" lon="0.65191">
        <ele>1813.6643066406</ele>
        <time>2011-06-14T10:25:56Z</time>
      </trkpt>
      <trkpt lat="42.83985" lon="0.6519">
        <ele>1813.1838378906</ele>
        <time>2011-06-14T10:25:57Z</time>
      </trkpt>
      <trkpt lat="42.83988" lon="0.65178">
        <ele>1810.2998046875</ele>
        <time>2011-06-14T10:26:03Z</time>
      </trkpt>
      <trkpt lat="42.8399" lon="0.65167">
        <ele>1807.8967285156</ele>
        <time>2011-06-14T10:26:09Z</time>
      </trkpt>
      <trkpt lat="42.83991" lon="0.65163">
        <ele>1806.4545898438</ele>
        <time>2011-06-14T10:26:11Z</time>
      </trkpt>
      <trkpt lat="42.83991" lon="0.65153">
        <ele>1804.0515136719</ele>
        <time>2011-06-14T10:26:16Z</time>
      </trkpt>
      <trkpt lat="42.83993" lon="0.65145">
        <ele>1801.6479492188</ele>
        <time>2011-06-14T10:26:21Z</time>
      </trkpt>
      <trkpt lat="42.83993" lon="0.65137">
        <ele>1800.2060546875</ele>
        <time>2011-06-14T10:26:26Z</time>
      </trkpt>
      <trkpt lat="42.83994" lon="0.65129">
        <ele>1798.283203125</ele>
        <time>2011-06-14T10:26:31Z</time>
      </trkpt>
      <trkpt lat="42.83995" lon="0.65126">
        <ele>1797.3220214844</ele>
        <time>2011-06-14T10:26:33Z</time>
      </trkpt>
      <trkpt lat="42.83997" lon="0.65118">
        <ele>1795.8801269531</ele>
        <time>2011-06-14T10:26:38Z</time>
      </trkpt>
      <trkpt lat="42.84" lon="0.65107">
        <ele>1794.4379882812</ele>
        <time>2011-06-14T10:26:44Z</time>
      </trkpt>
      <trkpt lat="42.84" lon="0.65096">
        <ele>1792.0349121094</ele>
        <time>2011-06-14T10:26:49Z</time>
      </trkpt>
      <trkpt lat="42.84001" lon="0.6509">
        <ele>1791.5541992188</ele>
        <time>2011-06-14T10:26:51Z</time>
      </trkpt>
      <trkpt lat="42.84003" lon="0.65074">
        <ele>1787.7087402344</ele>
        <time>2011-06-14T10:26:58Z</time>
      </trkpt>
      <trkpt lat="42.84004" lon="0.65065">
        <ele>1786.2668457031</ele>
        <time>2011-06-14T10:27:03Z</time>
      </trkpt>
      <trkpt lat="42.84004" lon="0.65055">
        <ele>1783.8635253906</ele>
        <time>2011-06-14T10:27:08Z</time>
      </trkpt>
      <trkpt lat="42.84006" lon="0.65048">
        <ele>1782.4216308594</ele>
        <time>2011-06-14T10:27:12Z</time>
      </trkpt>
      <trkpt lat="42.84007" lon="0.65036">
        <ele>1780.0183105469</ele>
        <time>2011-06-14T10:27:19Z</time>
      </trkpt>
      <trkpt lat="42.84007" lon="0.65031">
        <ele>1779.5375976562</ele>
        <time>2011-06-14T10:27:22Z</time>
      </trkpt>
      <trkpt lat="42.8401" lon="0.65019">
        <ele>1777.1345214844</ele>
        <time>2011-06-14T10:27:30Z</time>
      </trkpt>
      <trkpt lat="42.84012" lon="0.65007">
        <ele>1775.2116699219</ele>
        <time>2011-06-14T10:27:36Z</time>
      </trkpt>
      <trkpt lat="42.84013" lon="0.65003">
        <ele>1774.2504882812</ele>
        <time>2011-06-14T10:27:38Z</time>
      </trkpt>
      <trkpt lat="42.84013" lon="0.64987">
        <ele>1771.3662109375</ele>
        <time>2011-06-14T10:27:45Z</time>
      </trkpt>
      <trkpt lat="42.84012" lon="0.64976">
        <ele>1769.9243164062</ele>
        <time>2011-06-14T10:27:51Z</time>
      </trkpt>
      <trkpt lat="42.84012" lon="0.64975">
        <ele>1769.4438476562</ele>
        <time>2011-06-14T10:27:57Z</time>
      </trkpt>
      <trkpt lat="42.84011" lon="0.6497">
        <ele>1768.9631347656</ele>
        <time>2011-06-14T10:28:02Z</time>
      </trkpt>
      <trkpt lat="42.8401" lon="0.64964">
        <ele>1768.0017089844</ele>
        <time>2011-06-14T10:28:05Z</time>
      </trkpt>
      <trkpt lat="42.84008" lon="0.64955">
        <ele>1766.5598144531</ele>
        <time>2011-06-14T10:28:11Z</time>
      </trkpt>
      <trkpt lat="42.84013" lon="0.64954">
        <ele>1767.5209960938</ele>
        <time>2011-06-14T10:29:03Z</time>
      </trkpt>
      <trkpt lat="42.84013" lon="0.64954">
        <ele>1767.0405273438</ele>
        <time>2011-06-14T10:29:04Z</time>
      </trkpt>
      <trkpt lat="42.84013" lon="0.64954">
        <ele>1767.5209960938</ele>
        <time>2011-06-14T10:29:05Z</time>
      </trkpt>
      <trkpt lat="42.84011" lon="0.64952">
        <ele>1767.0405273438</ele>
        <time>2011-06-14T10:32:00Z</time>
      </trkpt>
      <trkpt lat="42.84012" lon="0.64952">
        <ele>1767.0405273438</ele>
        <time>2011-06-14T10:32:01Z</time>
      </trkpt>
      <trkpt lat="42.84016" lon="0.64947">
        <ele>1766.0791015625</ele>
        <time>2011-06-14T10:32:06Z</time>
      </trkpt>
      <trkpt lat="42.84021" lon="0.64941">
        <ele>1766.5598144531</ele>
        <time>2011-06-14T10:32:12Z</time>
      </trkpt>
      <trkpt lat="42.84024" lon="0.64938">
        <ele>1766.0791015625</ele>
        <time>2011-06-14T10:32:19Z</time>
      </trkpt>
      <trkpt lat="42.84026" lon="0.64935">
        <ele>1766.5598144531</ele>
        <time>2011-06-14T10:32:24Z</time>
      </trkpt>
      <trkpt lat="42.84029" lon="0.64929">
        <ele>1765.5986328125</ele>
        <time>2011-06-14T10:32:30Z</time>
      </trkpt>
      <trkpt lat="42.84035" lon="0.64922">
        <ele>1764.1564941406</ele>
        <time>2011-06-14T10:32:38Z</time>
      </trkpt>
      <trkpt lat="42.84039" lon="0.64915">
        <ele>1763.1953125</ele>
        <time>2011-06-14T10:32:46Z</time>
      </trkpt>
      <trkpt lat="42.84041" lon="0.64908">
        <ele>1762.7145996094</ele>
        <time>2011-06-14T10:32:52Z</time>
      </trkpt>
      <trkpt lat="42.84044" lon="0.64902">
        <ele>1762.2338867188</ele>
        <time>2011-06-14T10:32:57Z</time>
      </trkpt>
      <trkpt lat="42.84048" lon="0.64894">
        <ele>1761.7534179688</ele>
        <time>2011-06-14T10:33:03Z</time>
      </trkpt>
      <trkpt lat="42.84053" lon="0.64883">
        <ele>1760.7919921875</ele>
        <time>2011-06-14T10:33:10Z</time>
      </trkpt>
      <trkpt lat="42.84054" lon="0.6488">
        <ele>1760.3112792969</ele>
        <time>2011-06-14T10:33:12Z</time>
      </trkpt>
      <trkpt lat="42.84061" lon="0.64867">
        <ele>1760.7919921875</ele>
        <time>2011-06-14T10:33:21Z</time>
      </trkpt>
      <trkpt lat="42.84062" lon="0.64866">
        <ele>1760.7919921875</ele>
        <time>2011-06-14T10:33:22Z</time>
      </trkpt>
      <trkpt lat="42.84067" lon="0.64856">
        <ele>1762.2338867188</ele>
        <time>2011-06-14T10:33:29Z</time>
      </trkpt>
      <trkpt lat="42.84075" lon="0.6484">
        <ele>1763.67578125</ele>
        <time>2011-06-14T10:33:40Z</time>
      </trkpt>
      <trkpt lat="42.84079" lon="0.64835">
        <ele>1764.6372070312</ele>
        <time>2011-06-14T10:33:45Z</time>
      </trkpt>
      <trkpt lat="42.84085" lon="0.64827">
        <ele>1766.0791015625</ele>
        <time>2011-06-14T10:33:53Z</time>
      </trkpt>
      <trkpt lat="42.84088" lon="0.64823">
        <ele>1766.5598144531</ele>
        <time>2011-06-14T10:33:57Z</time>
      </trkpt>
      <trkpt lat="42.84093" lon="0.64817">
        <ele>1767.5209960938</ele>
        <time>2011-06-14T10:34:04Z</time>
      </trkpt>
      <trkpt lat="42.84097" lon="0.64814">
        <ele>1768.0017089844</ele>
        <time>2011-06-14T10:34:10Z</time>
      </trkpt>
      <trkpt lat="42.84101" lon="0.6481">
        <ele>1768.482421875</ele>
        <time>2011-06-14T10:34:16Z</time>
      </trkpt>
      <trkpt lat="42.84103" lon="0.64807">
        <ele>1768.0017089844</ele>
        <time>2011-06-14T10:34:22Z</time>
      </trkpt>
      <trkpt lat="42.84111" lon="0.64802">
        <ele>1768.482421875</ele>
        <time>2011-06-14T10:34:30Z</time>
      </trkpt>
      <trkpt lat="42.8412" lon="0.64795">
        <ele>1768.0017089844</ele>
        <time>2011-06-14T10:34:38Z</time>
      </trkpt>
      <trkpt lat="42.84125" lon="0.64794">
        <ele>1768.482421875</ele>
        <time>2011-06-14T10:34:43Z</time>
      </trkpt>
      <trkpt lat="42.84129" lon="0.64792">
        <ele>1768.482421875</ele>
        <time>2011-06-14T10:35:05Z</time>
      </trkpt>
      <trkpt lat="42.84129" lon="0.64792">
        <ele>1768.482421875</ele>
        <time>2011-06-14T10:35:06Z</time>
      </trkpt>
      <trkpt lat="42.84132" lon="0.64785">
        <ele>1767.5209960938</ele>
        <time>2011-06-14T10:35:12Z</time>
      </trkpt>
      <trkpt lat="42.84133" lon="0.64778">
        <ele>1765.5986328125</ele>
        <time>2011-06-14T10:35:18Z</time>
      </trkpt>
      <trkpt lat="42.84135" lon="0.6477">
        <ele>1764.6372070312</ele>
        <time>2011-06-14T10:35:24Z</time>
      </trkpt>
      <trkpt lat="42.84143" lon="0.64764">
        <ele>1763.67578125</ele>
        <time>2011-06-14T10:35:32Z</time>
      </trkpt>
      <trkpt lat="42.8415" lon="0.64759">
        <ele>1761.2727050781</ele>
        <time>2011-06-14T10:35:38Z</time>
      </trkpt>
      <trkpt lat="42.84156" lon="0.64757">
        <ele>1759.3500976562</ele>
        <time>2011-06-14T10:35:44Z</time>
      </trkpt>
      <trkpt lat="42.84157" lon="0.64756">
        <ele>1759.8305664062</ele>
        <time>2011-06-14T10:35:45Z</time>
      </trkpt>
      <trkpt lat="42.84161" lon="0.64753">
        <ele>1758.388671875</ele>
        <time>2011-06-14T10:35:52Z</time>
      </trkpt>
      <trkpt lat="42.84165" lon="0.64748">
        <ele>1756.4660644531</ele>
        <time>2011-06-14T10:35:58Z</time>
      </trkpt>
      <trkpt lat="42.84166" lon="0.64741">
        <ele>1754.5432128906</ele>
        <time>2011-06-14T10:36:04Z</time>
      </trkpt>
      <trkpt lat="42.84167" lon="0.64734">
        <ele>1754.0627441406</ele>
        <time>2011-06-14T10:36:09Z</time>
      </trkpt>
      <trkpt lat="42.84168" lon="0.64733">
        <ele>1753.58203125</ele>
        <time>2011-06-14T10:36:10Z</time>
      </trkpt>
      <trkpt lat="42.84172" lon="0.6472">
        <ele>1749.7368164062</ele>
        <time>2011-06-14T10:36:18Z</time>
      </trkpt>
      <trkpt lat="42.84173" lon="0.64716">
        <ele>1748.775390625</ele>
        <time>2011-06-14T10:36:21Z</time>
      </trkpt>
      <trkpt lat="42.84171" lon="0.64708">
        <ele>1746.3723144531</ele>
        <time>2011-06-14T10:36:27Z</time>
      </trkpt>
      <trkpt lat="42.84167" lon="0.64698">
        <ele>1742.5270996094</ele>
        <time>2011-06-14T10:36:34Z</time>
      </trkpt>
      <trkpt lat="42.84164" lon="0.64687">
        <ele>1738.2009277344</ele>
        <time>2011-06-14T10:36:42Z</time>
      </trkpt>
      <trkpt lat="42.84163" lon="0.64678">
        <ele>1734.8364257812</ele>
        <time>2011-06-14T10:36:48Z</time>
      </trkpt>
      <trkpt lat="42.84162" lon="0.64674">
        <ele>1733.3942871094</ele>
        <time>2011-06-14T10:36:51Z</time>
      </trkpt>
      <trkpt lat="42.84162" lon="0.64669">
        <ele>1730.9912109375</ele>
        <time>2011-06-14T10:36:55Z</time>
      </trkpt>
      <trkpt lat="42.84158" lon="0.64662">
        <ele>1728.587890625</ele>
        <time>2011-06-14T10:37:00Z</time>
      </trkpt>
      <trkpt lat="42.84154" lon="0.64654">
        <ele>1725.2231445312</ele>
        <time>2011-06-14T10:37:06Z</time>
      </trkpt>
      <trkpt lat="42.84148" lon="0.64645">
        <ele>1722.3391113281</ele>
        <time>2011-06-14T10:37:12Z</time>
      </trkpt>
      <trkpt lat="42.84142" lon="0.64638">
        <ele>1719.4553222656</ele>
        <time>2011-06-14T10:37:18Z</time>
      </trkpt>
      <trkpt lat="42.84137" lon="0.64628">
        <ele>1715.6101074219</ele>
        <time>2011-06-14T10:37:25Z</time>
      </trkpt>
      <trkpt lat="42.84137" lon="0.64625">
        <ele>1714.6486816406</ele>
        <time>2011-06-14T10:37:27Z</time>
      </trkpt>
      <trkpt lat="42.84134" lon="0.64622">
        <ele>1713.2067871094</ele>
        <time>2011-06-14T10:37:30Z</time>
      </trkpt>
      <trkpt lat="42.84132" lon="0.64611">
        <ele>1708.880859375</ele>
        <time>2011-06-14T10:37:38Z</time>
      </trkpt>
      <trkpt lat="42.84132" lon="0.64602">
        <ele>1705.0354003906</ele>
        <time>2011-06-14T10:37:44Z</time>
      </trkpt>
      <trkpt lat="42.84136" lon="0.64596">
        <ele>1702.6320800781</ele>
        <time>2011-06-14T10:37:49Z</time>
      </trkpt>
      <trkpt lat="42.8414" lon="0.64589">
        <ele>1700.2290039062</ele>
        <time>2011-06-14T10:37:54Z</time>
      </trkpt>
      <trkpt lat="42.84142" lon="0.64585">
        <ele>1698.3061523438</ele>
        <time>2011-06-14T10:37:59Z</time>
      </trkpt>
      <trkpt lat="42.8414" lon="0.64579">
        <ele>1696.3837890625</ele>
        <time>2011-06-14T10:38:03Z</time>
      </trkpt>
      <trkpt lat="42.84142" lon="0.64573">
        <ele>1694.9416503906</ele>
        <time>2011-06-14T10:38:07Z</time>
      </trkpt>
      <trkpt lat="42.84146" lon="0.64564">
        <ele>1691.0961914062</ele>
        <time>2011-06-14T10:38:13Z</time>
      </trkpt>
      <trkpt lat="42.84145" lon="0.64558">
        <ele>1689.1735839844</ele>
        <time>2011-06-14T10:38:17Z</time>
      </trkpt>
      <trkpt lat="42.84144" lon="0.64552">
        <ele>1687.2509765625</ele>
        <time>2011-06-14T10:38:23Z</time>
      </trkpt>
      <trkpt lat="42.84145" lon="0.64543">
        <ele>1684.3671875</ele>
        <time>2011-06-14T10:38:28Z</time>
      </trkpt>
      <trkpt lat="42.84146" lon="0.64538">
        <ele>1681.9638671875</ele>
        <time>2011-06-14T10:38:32Z</time>
      </trkpt>
      <trkpt lat="42.84145" lon="0.64533">
        <ele>1680.0412597656</ele>
        <time>2011-06-14T10:38:35Z</time>
      </trkpt>
      <trkpt lat="42.84146" lon="0.64526">
        <ele>1678.1186523438</ele>
        <time>2011-06-14T10:38:39Z</time>
      </trkpt>
      <trkpt lat="42.84146" lon="0.64516">
        <ele>1674.2731933594</ele>
        <time>2011-06-14T10:38:46Z</time>
      </trkpt>
      <trkpt lat="42.84146" lon="0.64511">
        <ele>1673.3120117188</ele>
        <time>2011-06-14T10:38:49Z</time>
      </trkpt>
      <trkpt lat="42.84144" lon="0.64498">
        <ele>1669.466796875</ele>
        <time>2011-06-14T10:38:57Z</time>
      </trkpt>
      <trkpt lat="42.84144" lon="0.64487">
        <ele>1667.0634765625</ele>
        <time>2011-06-14T10:39:03Z</time>
      </trkpt>
      <trkpt lat="42.84145" lon="0.64474">
        <ele>1663.2182617188</ele>
        <time>2011-06-14T10:39:11Z</time>
      </trkpt>
      <trkpt lat="42.84146" lon="0.64465">
        <ele>1661.2956542969</ele>
        <time>2011-06-14T10:39:18Z</time>
      </trkpt>
      <trkpt lat="42.84146" lon="0.64459">
        <ele>1659.8532714844</ele>
        <time>2011-06-14T10:39:23Z</time>
      </trkpt>
      <trkpt lat="42.84147" lon="0.64452">
        <ele>1658.4113769531</ele>
        <time>2011-06-14T10:39:28Z</time>
      </trkpt>
      <trkpt lat="42.84151" lon="0.64448">
        <ele>1656.0080566406</ele>
        <time>2011-06-14T10:39:33Z</time>
      </trkpt>
      <trkpt lat="42.84151" lon="0.64447">
        <ele>1655.5275878906</ele>
        <time>2011-06-14T10:39:34Z</time>
      </trkpt>
      <trkpt lat="42.84151" lon="0.64443">
        <ele>1654.5661621094</ele>
        <time>2011-06-14T10:39:37Z</time>
      </trkpt>
      <trkpt lat="42.84152" lon="0.64431">
        <ele>1652.1628417969</ele>
        <time>2011-06-14T10:39:44Z</time>
      </trkpt>
      <trkpt lat="42.84153" lon="0.64423">
        <ele>1651.2016601562</ele>
        <time>2011-06-14T10:39:49Z</time>
      </trkpt>
      <trkpt lat="42.84154" lon="0.64421">
        <ele>1650.7209472656</ele>
        <time>2011-06-14T10:39:50Z</time>
      </trkpt>
      <trkpt lat="42.84156" lon="0.64405">
        <ele>1646.8757324219</ele>
        <time>2011-06-14T10:39:58Z</time>
      </trkpt>
      <trkpt lat="42.84156" lon="0.64394">
        <ele>1644.4724121094</ele>
        <time>2011-06-14T10:40:04Z</time>
      </trkpt>
      <trkpt lat="42.84157" lon="0.64386">
        <ele>1642.5498046875</ele>
        <time>2011-06-14T10:40:10Z</time>
      </trkpt>
      <trkpt lat="42.84159" lon="0.64376">
        <ele>1640.146484375</ele>
        <time>2011-06-14T10:40:15Z</time>
      </trkpt>
      <trkpt lat="42.84159" lon="0.64362">
        <ele>1636.7817382812</ele>
        <time>2011-06-14T10:40:21Z</time>
      </trkpt>
      <trkpt lat="42.84161" lon="0.64356">
        <ele>1635.8205566406</ele>
        <time>2011-06-14T10:40:25Z</time>
      </trkpt>
      <trkpt lat="42.84162" lon="0.64343">
        <ele>1633.8979492188</ele>
        <time>2011-06-14T10:40:32Z</time>
      </trkpt>
      <trkpt lat="42.84164" lon="0.64328">
        <ele>1631.4946289062</ele>
        <time>2011-06-14T10:40:39Z</time>
      </trkpt>
      <trkpt lat="42.84167" lon="0.64315">
        <ele>1630.5334472656</ele>
        <time>2011-06-14T10:40:46Z</time>
      </trkpt>
      <trkpt lat="42.84174" lon="0.6431">
        <ele>1629.5720214844</ele>
        <time>2011-06-14T10:40:53Z</time>
      </trkpt>
      <trkpt lat="42.84178" lon="0.64311">
        <ele>1628.6108398438</ele>
        <time>2011-06-14T10:40:59Z</time>
      </trkpt>
      <trkpt lat="42.8418" lon="0.64308">
        <ele>1628.1301269531</ele>
        <time>2011-06-14T10:41:04Z</time>
      </trkpt>
      <trkpt lat="42.84183" lon="0.64304">
        <ele>1626.2072753906</ele>
        <time>2011-06-14T10:41:10Z</time>
      </trkpt>
      <trkpt lat="42.84182" lon="0.64292">
        <ele>1623.8039550781</ele>
        <time>2011-06-14T10:41:19Z</time>
      </trkpt>
      <trkpt lat="42.84181" lon="0.64283">
        <ele>1623.3234863281</ele>
        <time>2011-06-14T10:41:24Z</time>
      </trkpt>
      <trkpt lat="42.84175" lon="0.64268">
        <ele>1623.8039550781</ele>
        <time>2011-06-14T10:41:35Z</time>
      </trkpt>
      <trkpt lat="42.84172" lon="0.64265">
        <ele>1624.7653808594</ele>
        <time>2011-06-14T10:41:40Z</time>
      </trkpt>
      <trkpt lat="42.84169" lon="0.64265">
        <ele>1619.4782714844</ele>
        <time>2011-06-14T10:44:13Z</time>
      </trkpt>
      <trkpt lat="42.84169" lon="0.64265">
        <ele>1619.4782714844</ele>
        <time>2011-06-14T10:44:14Z</time>
      </trkpt>
      <trkpt lat="42.8417" lon="0.64262">
        <ele>1618.9975585938</ele>
        <time>2011-06-14T10:44:15Z</time>
      </trkpt>
      <trkpt lat="42.84172" lon="0.64254">
        <ele>1618.0361328125</ele>
        <time>2011-06-14T10:44:20Z</time>
      </trkpt>
      <trkpt lat="42.84174" lon="0.64245">
        <ele>1617.0749511719</ele>
        <time>2011-06-14T10:44:28Z</time>
      </trkpt>
      <trkpt lat="42.84174" lon="0.64238">
        <ele>1616.1135253906</ele>
        <time>2011-06-14T10:44:32Z</time>
      </trkpt>
      <trkpt lat="42.84174" lon="0.64224">
        <ele>1614.6716308594</ele>
        <time>2011-06-14T10:44:39Z</time>
      </trkpt>
      <trkpt lat="42.84173" lon="0.6422">
        <ele>1614.6716308594</ele>
        <time>2011-06-14T10:44:41Z</time>
      </trkpt>
      <trkpt lat="42.84173" lon="0.64205">
        <ele>1613.2297363281</ele>
        <time>2011-06-14T10:44:48Z</time>
      </trkpt>
      <trkpt lat="42.84175" lon="0.64185">
        <ele>1611.7875976562</ele>
        <time>2011-06-14T10:44:54Z</time>
      </trkpt>
      <trkpt lat="42.84173" lon="0.64162">
        <ele>1608.4228515625</ele>
        <time>2011-06-14T10:45:01Z</time>
      </trkpt>
      <trkpt lat="42.84166" lon="0.64143">
        <ele>1604.5776367188</ele>
        <time>2011-06-14T10:45:07Z</time>
      </trkpt>
      <trkpt lat="42.8416" lon="0.64129">
        <ele>1601.6938476562</ele>
        <time>2011-06-14T10:45:12Z</time>
      </trkpt>
      <trkpt lat="42.84153" lon="0.64115">
        <ele>1599.2905273438</ele>
        <time>2011-06-14T10:45:17Z</time>
      </trkpt>
      <trkpt lat="42.84143" lon="0.64096">
        <ele>1594.4836425781</ele>
        <time>2011-06-14T10:45:24Z</time>
      </trkpt>
      <trkpt lat="42.84141" lon="0.64094">
        <ele>1594.0031738281</ele>
        <time>2011-06-14T10:45:25Z</time>
      </trkpt>
      <trkpt lat="42.84127" lon="0.64081">
        <ele>1588.2353515625</ele>
        <time>2011-06-14T10:45:32Z</time>
      </trkpt>
      <trkpt lat="42.84119" lon="0.64068">
        <ele>1583.4287109375</ele>
        <time>2011-06-14T10:45:38Z</time>
      </trkpt>
      <trkpt lat="42.84118" lon="0.64067">
        <ele>1582.4675292969</ele>
        <time>2011-06-14T10:45:39Z</time>
      </trkpt>
      <trkpt lat="42.84113" lon="0.64054">
        <ele>1579.1025390625</ele>
        <time>2011-06-14T10:45:45Z</time>
      </trkpt>
      <trkpt lat="42.84105" lon="0.64034">
        <ele>1573.3349609375</ele>
        <time>2011-06-14T10:45:53Z</time>
      </trkpt>
      <trkpt lat="42.84102" lon="0.64018">
        <ele>1570.4509277344</ele>
        <time>2011-06-14T10:45:59Z</time>
      </trkpt>
      <trkpt lat="42.84101" lon="0.64002">
        <ele>1568.0476074219</ele>
        <time>2011-06-14T10:46:04Z</time>
      </trkpt>
      <trkpt lat="42.84101" lon="0.6398">
        <ele>1564.2023925781</ele>
        <time>2011-06-14T10:46:11Z</time>
      </trkpt>
      <trkpt lat="42.841" lon="0.63957">
        <ele>1561.318359375</ele>
        <time>2011-06-14T10:46:18Z</time>
      </trkpt>
      <trkpt lat="42.84098" lon="0.63938">
        <ele>1559.3957519531</ele>
        <time>2011-06-14T10:46:24Z</time>
      </trkpt>
      <trkpt lat="42.84097" lon="0.63935">
        <ele>1558.9150390625</ele>
        <time>2011-06-14T10:46:26Z</time>
      </trkpt>
      <trkpt lat="42.84094" lon="0.63925">
        <ele>1557.4731445312</ele>
        <time>2011-06-14T10:46:31Z</time>
      </trkpt>
      <trkpt lat="42.84093" lon="0.63923">
        <ele>1556.9924316406</ele>
        <time>2011-06-14T10:46:33Z</time>
      </trkpt>
      <trkpt lat="42.84091" lon="0.63917">
        <ele>1556.51171875</ele>
        <time>2011-06-14T10:46:39Z</time>
      </trkpt>
      <trkpt lat="42.84091" lon="0.63916">
        <ele>1556.0310058594</ele>
        <time>2011-06-14T10:46:44Z</time>
      </trkpt>
      <trkpt lat="42.84088" lon="0.63896">
        <ele>1553.6279296875</ele>
        <time>2011-06-14T10:46:50Z</time>
      </trkpt>
      <trkpt lat="42.84086" lon="0.63876">
        <ele>1550.2634277344</ele>
        <time>2011-06-14T10:46:56Z</time>
      </trkpt>
      <trkpt lat="42.84084" lon="0.63855">
        <ele>1546.8984375</ele>
        <time>2011-06-14T10:47:03Z</time>
      </trkpt>
      <trkpt lat="42.84081" lon="0.63842">
        <ele>1542.5727539062</ele>
        <time>2011-06-14T10:47:08Z</time>
      </trkpt>
      <trkpt lat="42.84077" lon="0.63829">
        <ele>1536.8046875</ele>
        <time>2011-06-14T10:47:14Z</time>
      </trkpt>
      <trkpt lat="42.84072" lon="0.63818">
        <ele>1531.998046875</ele>
        <time>2011-06-14T10:47:21Z</time>
      </trkpt>
      <trkpt lat="42.84067" lon="0.63807">
        <ele>1528.1528320312</ele>
        <time>2011-06-14T10:47:27Z</time>
      </trkpt>
      <trkpt lat="42.84065" lon="0.63803">
        <ele>1526.2302246094</ele>
        <time>2011-06-14T10:47:29Z</time>
      </trkpt>
      <trkpt lat="42.84061" lon="0.63792">
        <ele>1522.3850097656</ele>
        <time>2011-06-14T10:47:35Z</time>
      </trkpt>
      <trkpt lat="42.84055" lon="0.63781">
        <ele>1519.0205078125</ele>
        <time>2011-06-14T10:47:40Z</time>
      </trkpt>
      <trkpt lat="42.84053" lon="0.63775">
        <ele>1517.5783691406</ele>
        <time>2011-06-14T10:47:44Z</time>
      </trkpt>
      <trkpt lat="42.84052" lon="0.63763">
        <ele>1514.6943359375</ele>
        <time>2011-06-14T10:47:52Z</time>
      </trkpt>
      <trkpt lat="42.84051" lon="0.63751">
        <ele>1514.2136230469</ele>
        <time>2011-06-14T10:47:59Z</time>
      </trkpt>
      <trkpt lat="42.84051" lon="0.6374">
        <ele>1512.7717285156</ele>
        <time>2011-06-14T10:48:06Z</time>
      </trkpt>
      <trkpt lat="42.8405" lon="0.63731">
        <ele>1510.8491210938</ele>
        <time>2011-06-14T10:48:12Z</time>
      </trkpt>
      <trkpt lat="42.84048" lon="0.63718">
        <ele>1509.4072265625</ele>
        <time>2011-06-14T10:48:20Z</time>
      </trkpt>
      <trkpt lat="42.84046" lon="0.63705">
        <ele>1507.4846191406</ele>
        <time>2011-06-14T10:48:28Z</time>
      </trkpt>
      <trkpt lat="42.84044" lon="0.63692">
        <ele>1505.5620117188</ele>
        <time>2011-06-14T10:48:34Z</time>
      </trkpt>
      <trkpt lat="42.84042" lon="0.63679">
        <ele>1503.1586914062</ele>
        <time>2011-06-14T10:48:39Z</time>
      </trkpt>
      <trkpt lat="42.84043" lon="0.63667">
        <ele>1501.2360839844</ele>
        <time>2011-06-14T10:48:43Z</time>
      </trkpt>
      <trkpt lat="42.84045" lon="0.63645">
        <ele>1496.4294433594</ele>
        <time>2011-06-14T10:48:50Z</time>
      </trkpt>
      <trkpt lat="42.84045" lon="0.63631">
        <ele>1494.0261230469</ele>
        <time>2011-06-14T10:48:56Z</time>
      </trkpt>
      <trkpt lat="42.84047" lon="0.63615">
        <ele>1491.6228027344</ele>
        <time>2011-06-14T10:49:02Z</time>
      </trkpt>
      <trkpt lat="42.8405" lon="0.636">
        <ele>1489.7001953125</ele>
        <time>2011-06-14T10:49:10Z</time>
      </trkpt>
      <trkpt lat="42.8405" lon="0.63598">
        <ele>1489.7001953125</ele>
        <time>2011-06-14T10:49:11Z</time>
      </trkpt>
      <trkpt lat="42.84052" lon="0.63585">
        <ele>1487.296875</ele>
        <time>2011-06-14T10:49:17Z</time>
      </trkpt>
      <trkpt lat="42.84053" lon="0.63576">
        <ele>1485.3742675781</ele>
        <time>2011-06-14T10:49:20Z</time>
      </trkpt>
      <trkpt lat="42.84054" lon="0.63558">
        <ele>1482.970703125</ele>
        <time>2011-06-14T10:49:27Z</time>
      </trkpt>
      <trkpt lat="42.84054" lon="0.63553">
        <ele>1482.0095214844</ele>
        <time>2011-06-14T10:49:30Z</time>
      </trkpt>
      <trkpt lat="42.84054" lon="0.63543">
        <ele>1479.6062011719</ele>
        <time>2011-06-14T10:49:35Z</time>
      </trkpt>
      <trkpt lat="42.84056" lon="0.63529">
        <ele>1476.7224121094</ele>
        <time>2011-06-14T10:49:41Z</time>
      </trkpt>
      <trkpt lat="42.84058" lon="0.63524">
        <ele>1475.2802734375</ele>
        <time>2011-06-14T10:49:44Z</time>
      </trkpt>
      <trkpt lat="42.84057" lon="0.63508">
        <ele>1473.3579101562</ele>
        <time>2011-06-14T10:49:49Z</time>
      </trkpt>
      <trkpt lat="42.84054" lon="0.63498">
        <ele>1469.5126953125</ele>
        <time>2011-06-14T10:49:55Z</time>
      </trkpt>
      <trkpt lat="42.84053" lon="0.6349">
        <ele>1467.1091308594</ele>
        <time>2011-06-14T10:49:58Z</time>
      </trkpt>
      <trkpt lat="42.84048" lon="0.6347">
        <ele>1464.2250976562</ele>
        <time>2011-06-14T10:50:05Z</time>
      </trkpt>
      <trkpt lat="42.84047" lon="0.63458">
        <ele>1461.8220214844</ele>
        <time>2011-06-14T10:50:11Z</time>
      </trkpt>
      <trkpt lat="42.84048" lon="0.63454">
        <ele>1461.8220214844</ele>
        <time>2011-06-14T10:50:15Z</time>
      </trkpt>
      <trkpt lat="42.84048" lon="0.63452">
        <ele>1461.3413085938</ele>
        <time>2011-06-14T10:50:16Z</time>
      </trkpt>
      <trkpt lat="42.84055" lon="0.63434">
        <ele>1457.9768066406</ele>
        <time>2011-06-14T10:50:23Z</time>
      </trkpt>
      <trkpt lat="42.84057" lon="0.63422">
        <ele>1456.5346679688</ele>
        <time>2011-06-14T10:50:27Z</time>
      </trkpt>
      <trkpt lat="42.84061" lon="0.6341">
        <ele>1454.6120605469</ele>
        <time>2011-06-14T10:50:31Z</time>
      </trkpt>
      <trkpt lat="42.84069" lon="0.63396">
        <ele>1452.2087402344</ele>
        <time>2011-06-14T10:50:37Z</time>
      </trkpt>
      <trkpt lat="42.8407" lon="0.63396">
        <ele>1452.2087402344</ele>
        <time>2011-06-14T10:50:38Z</time>
      </trkpt>
      <trkpt lat="42.84072" lon="0.63391">
        <ele>1451.2473144531</ele>
        <time>2011-06-14T10:50:42Z</time>
      </trkpt>
      <trkpt lat="42.84079" lon="0.63384">
        <ele>1448.36328125</ele>
        <time>2011-06-14T10:50:50Z</time>
      </trkpt>
      <trkpt lat="42.84078" lon="0.63381">
        <ele>1447.4020996094</ele>
        <time>2011-06-14T10:50:55Z</time>
      </trkpt>
      <trkpt lat="42.84076" lon="0.6338">
        <ele>1446.9213867188</ele>
        <time>2011-06-14T10:50:58Z</time>
      </trkpt>
      <trkpt lat="42.84089" lon="0.63376">
        <ele>1451.7280273438</ele>
        <time>2011-06-14T11:10:18Z</time>
      </trkpt>
      <trkpt lat="42.8409" lon="0.63376">
        <ele>1451.7280273438</ele>
        <time>2011-06-14T11:10:19Z</time>
      </trkpt>
      <trkpt lat="42.84092" lon="0.63372">
        <ele>1451.2473144531</ele>
        <time>2011-06-14T11:10:21Z</time>
      </trkpt>
      <trkpt lat="42.84103" lon="0.63371">
        <ele>1448.8439941406</ele>
        <time>2011-06-14T11:10:30Z</time>
      </trkpt>
      <trkpt lat="42.84111" lon="0.63372">
        <ele>1444.9987792969</ele>
        <time>2011-06-14T11:10:36Z</time>
      </trkpt>
      <trkpt lat="42.84119" lon="0.63371">
        <ele>1443.5568847656</ele>
        <time>2011-06-14T11:10:42Z</time>
      </trkpt>
      <trkpt lat="42.84124" lon="0.63371">
        <ele>1442.595703125</ele>
        <time>2011-06-14T11:10:46Z</time>
      </trkpt>
      <trkpt lat="42.84134" lon="0.63374">
        <ele>1442.595703125</ele>
        <time>2011-06-14T11:10:53Z</time>
      </trkpt>
      <trkpt lat="42.84142" lon="0.63382">
        <ele>1440.6728515625</ele>
        <time>2011-06-14T11:10:58Z</time>
      </trkpt>
      <trkpt lat="42.8415" lon="0.63389">
        <ele>1438.7504882812</ele>
        <time>2011-06-14T11:11:02Z</time>
      </trkpt>
      <trkpt lat="42.84156" lon="0.63399">
        <ele>1437.3083496094</ele>
        <time>2011-06-14T11:11:06Z</time>
      </trkpt>
      <trkpt lat="42.84161" lon="0.63415">
        <ele>1434.4243164062</ele>
        <time>2011-06-14T11:11:11Z</time>
      </trkpt>
      <trkpt lat="42.84164" lon="0.63427">
        <ele>1433.462890625</ele>
        <time>2011-06-14T11:11:14Z</time>
      </trkpt>
      <trkpt lat="42.84171" lon="0.63452">
        <ele>1430.5791015625</ele>
        <time>2011-06-14T11:11:21Z</time>
      </trkpt>
      <trkpt lat="42.84179" lon="0.63468">
        <ele>1430.0983886719</ele>
        <time>2011-06-14T11:11:26Z</time>
      </trkpt>
      <trkpt lat="42.84182" lon="0.63475">
        <ele>1429.6176757812</ele>
        <time>2011-06-14T11:11:28Z</time>
      </trkpt>
      <trkpt lat="42.84184" lon="0.63486">
        <ele>1428.17578125</ele>
        <time>2011-06-14T11:11:31Z</time>
      </trkpt>
      <trkpt lat="42.84195" lon="0.63498">
        <ele>1425.7724609375</ele>
        <time>2011-06-14T11:11:36Z</time>
      </trkpt>
      <trkpt lat="42.84207" lon="0.63506">
        <ele>1425.2917480469</ele>
        <time>2011-06-14T11:11:41Z</time>
      </trkpt>
      <trkpt lat="42.84218" lon="0.63511">
        <ele>1425.2917480469</ele>
        <time>2011-06-14T11:11:45Z</time>
      </trkpt>
      <trkpt lat="42.84228" lon="0.63515">
        <ele>1426.2531738281</ele>
        <time>2011-06-14T11:11:49Z</time>
      </trkpt>
      <trkpt lat="42.84238" lon="0.63517">
        <ele>1426.2531738281</ele>
        <time>2011-06-14T11:11:53Z</time>
      </trkpt>
      <trkpt lat="42.84249" lon="0.63521">
        <ele>1426.7338867188</ele>
        <time>2011-06-14T11:11:58Z</time>
      </trkpt>
      <trkpt lat="42.84263" lon="0.63527">
        <ele>1425.2917480469</ele>
        <time>2011-06-14T11:12:03Z</time>
      </trkpt>
      <trkpt lat="42.84277" lon="0.63534">
        <ele>1423.3693847656</ele>
        <time>2011-06-14T11:12:09Z</time>
      </trkpt>
      <trkpt lat="42.84287" lon="0.63543">
        <ele>1420.4853515625</ele>
        <time>2011-06-14T11:12:13Z</time>
      </trkpt>
      <trkpt lat="42.84299" lon="0.63556">
        <ele>1417.6010742188</ele>
        <time>2011-06-14T11:12:18Z</time>
      </trkpt>
      <trkpt lat="42.84306" lon="0.6357">
        <ele>1414.7172851562</ele>
        <time>2011-06-14T11:12:23Z</time>
      </trkpt>
      <trkpt lat="42.84311" lon="0.63575">
        <ele>1412.3139648438</ele>
        <time>2011-06-14T11:12:26Z</time>
      </trkpt>
      <trkpt lat="42.84334" lon="0.63576">
        <ele>1410.3913574219</ele>
        <time>2011-06-14T11:12:33Z</time>
      </trkpt>
      <trkpt lat="42.84349" lon="0.63569">
        <ele>1411.8334960938</ele>
        <time>2011-06-14T11:12:39Z</time>
      </trkpt>
      <trkpt lat="42.84363" lon="0.63563">
        <ele>1411.3527832031</ele>
        <time>2011-06-14T11:12:44Z</time>
      </trkpt>
      <trkpt lat="42.84376" lon="0.63557">
        <ele>1413.275390625</ele>
        <time>2011-06-14T11:12:49Z</time>
      </trkpt>
      <trkpt lat="42.84391" lon="0.63552">
        <ele>1415.1979980469</ele>
        <time>2011-06-14T11:12:55Z</time>
      </trkpt>
      <trkpt lat="42.84406" lon="0.63553">
        <ele>1414.7172851562</ele>
        <time>2011-06-14T11:13:00Z</time>
      </trkpt>
      <trkpt lat="42.84421" lon="0.63551">
        <ele>1413.275390625</ele>
        <time>2011-06-14T11:13:05Z</time>
      </trkpt>
      <trkpt lat="42.84435" lon="0.63547">
        <ele>1407.98828125</ele>
        <time>2011-06-14T11:13:10Z</time>
      </trkpt>
      <trkpt lat="42.8445" lon="0.63544">
        <ele>1405.1042480469</ele>
        <time>2011-06-14T11:13:15Z</time>
      </trkpt>
      <trkpt lat="42.84464" lon="0.63544">
        <ele>1404.1430664062</ele>
        <time>2011-06-14T11:13:20Z</time>
      </trkpt>
      <trkpt lat="42.84477" lon="0.63548">
        <ele>1404.6235351562</ele>
        <time>2011-06-14T11:13:25Z</time>
      </trkpt>
      <trkpt lat="42.84493" lon="0.63555">
        <ele>1403.1813964844</ele>
        <time>2011-06-14T11:13:31Z</time>
      </trkpt>
      <trkpt lat="42.84501" lon="0.63561">
        <ele>1401.7395019531</ele>
        <time>2011-06-14T11:13:34Z</time>
      </trkpt>
      <trkpt lat="42.84511" lon="0.63572">
        <ele>1398.3747558594</ele>
        <time>2011-06-14T11:13:39Z</time>
      </trkpt>
      <trkpt lat="42.84525" lon="0.63587">
        <ele>1395.0102539062</ele>
        <time>2011-06-14T11:13:45Z</time>
      </trkpt>
      <trkpt lat="42.84533" lon="0.63594">
        <ele>1393.0876464844</ele>
        <time>2011-06-14T11:13:49Z</time>
      </trkpt>
      <trkpt lat="42.84543" lon="0.63598">
        <ele>1391.6457519531</ele>
        <time>2011-06-14T11:13:55Z</time>
      </trkpt>
      <trkpt lat="42.84553" lon="0.63602">
        <ele>1390.6843261719</ele>
        <time>2011-06-14T11:14:02Z</time>
      </trkpt>
      <trkpt lat="42.84563" lon="0.63604">
        <ele>1390.6843261719</ele>
        <time>2011-06-14T11:14:08Z</time>
      </trkpt>
      <trkpt lat="42.8457" lon="0.63609">
        <ele>1390.6843261719</ele>
        <time>2011-06-14T11:14:13Z</time>
      </trkpt>
      <trkpt lat="42.84572" lon="0.63618">
        <ele>1390.6843261719</ele>
        <time>2011-06-14T11:14:18Z</time>
      </trkpt>
      <trkpt lat="42.84573" lon="0.6363">
        <ele>1391.1650390625</ele>
        <time>2011-06-14T11:14:25Z</time>
      </trkpt>
      <trkpt lat="42.84572" lon="0.63638">
        <ele>1391.1650390625</ele>
        <time>2011-06-14T11:14:30Z</time>
      </trkpt>
      <trkpt lat="42.84571" lon="0.63651">
        <ele>1389.7231445312</ele>
        <time>2011-06-14T11:14:38Z</time>
      </trkpt>
      <trkpt lat="42.84572" lon="0.63653">
        <ele>1389.7231445312</ele>
        <time>2011-06-14T11:14:39Z</time>
      </trkpt>
      <trkpt lat="42.84573" lon="0.63668">
        <ele>1391.1650390625</ele>
        <time>2011-06-14T11:14:48Z</time>
      </trkpt>
      <trkpt lat="42.84568" lon="0.63678">
        <ele>1391.6457519531</ele>
        <time>2011-06-14T11:14:54Z</time>
      </trkpt>
      <trkpt lat="42.84563" lon="0.6369">
        <ele>1391.1650390625</ele>
        <time>2011-06-14T11:15:01Z</time>
      </trkpt>
      <trkpt lat="42.84561" lon="0.63699">
        <ele>1390.6843261719</ele>
        <time>2011-06-14T11:15:07Z</time>
      </trkpt>
      <trkpt lat="42.84557" lon="0.6371">
        <ele>1391.6457519531</ele>
        <time>2011-06-14T11:15:13Z</time>
      </trkpt>
      <trkpt lat="42.84546" lon="0.63727">
        <ele>1392.6071777344</ele>
        <time>2011-06-14T11:15:23Z</time>
      </trkpt>
      <trkpt lat="42.84541" lon="0.6374">
        <ele>1394.5295410156</ele>
        <time>2011-06-14T11:15:31Z</time>
      </trkpt>
      <trkpt lat="42.84536" lon="0.6375">
        <ele>1393.0876464844</ele>
        <time>2011-06-14T11:15:38Z</time>
      </trkpt>
      <trkpt lat="42.84528" lon="0.63759">
        <ele>1389.7231445312</ele>
        <time>2011-06-14T11:15:44Z</time>
      </trkpt>
      <trkpt lat="42.84521" lon="0.6377">
        <ele>1387.8002929688</ele>
        <time>2011-06-14T11:15:50Z</time>
      </trkpt>
      <trkpt lat="42.84516" lon="0.63784">
        <ele>1387.3195800781</ele>
        <time>2011-06-14T11:15:58Z</time>
      </trkpt>
      <trkpt lat="42.84515" lon="0.63794">
        <ele>1386.3583984375</ele>
        <time>2011-06-14T11:16:04Z</time>
      </trkpt>
      <trkpt lat="42.84515" lon="0.63801">
        <ele>1387.8002929688</ele>
        <time>2011-06-14T11:16:08Z</time>
      </trkpt>
      <trkpt lat="42.84524" lon="0.63815">
        <ele>1394.5295410156</ele>
        <time>2011-06-14T11:16:14Z</time>
      </trkpt>
      <trkpt lat="42.84525" lon="0.63827">
        <ele>1397.4135742188</ele>
        <time>2011-06-14T11:16:20Z</time>
      </trkpt>
      <trkpt lat="42.84529" lon="0.63838">
        <ele>1401.7395019531</ele>
        <time>2011-06-14T11:16:25Z</time>
      </trkpt>
      <trkpt lat="42.84538" lon="0.63851">
        <ele>1409.9106445312</ele>
        <time>2011-06-14T11:16:31Z</time>
      </trkpt>
      <trkpt lat="42.84541" lon="0.6386">
        <ele>1413.275390625</ele>
        <time>2011-06-14T11:16:35Z</time>
      </trkpt>
      <trkpt lat="42.84533" lon="0.63875">
        <ele>1407.0268554688</ele>
        <time>2011-06-14T11:16:41Z</time>
      </trkpt>
      <trkpt lat="42.84522" lon="0.6389">
        <ele>1400.7780761719</ele>
        <time>2011-06-14T11:16:45Z</time>
      </trkpt>
      <trkpt lat="42.84516" lon="0.63904">
        <ele>1395.4909667969</ele>
        <time>2011-06-14T11:16:49Z</time>
      </trkpt>
      <trkpt lat="42.84504" lon="0.63926">
        <ele>1390.2038574219</ele>
        <time>2011-06-14T11:16:55Z</time>
      </trkpt>
      <trkpt lat="42.84502" lon="0.6393">
        <ele>1390.2038574219</ele>
        <time>2011-06-14T11:16:56Z</time>
      </trkpt>
      <trkpt lat="42.84501" lon="0.63946">
        <ele>1388.7619628906</ele>
        <time>2011-06-14T11:17:00Z</time>
      </trkpt>
      <trkpt lat="42.845" lon="0.63957">
        <ele>1389.2424316406</ele>
        <time>2011-06-14T11:17:03Z</time>
      </trkpt>
      <trkpt lat="42.84498" lon="0.63965">
        <ele>1390.2038574219</ele>
        <time>2011-06-14T11:17:05Z</time>
      </trkpt>
      <trkpt lat="42.84497" lon="0.63985">
        <ele>1389.2424316406</ele>
        <time>2011-06-14T11:17:10Z</time>
      </trkpt>
      <trkpt lat="42.84502" lon="0.63993">
        <ele>1387.3195800781</ele>
        <time>2011-06-14T11:17:13Z</time>
      </trkpt>
      <trkpt lat="42.84515" lon="0.63997">
        <ele>1386.3583984375</ele>
        <time>2011-06-14T11:17:17Z</time>
      </trkpt>
      <trkpt lat="42.84532" lon="0.63998">
        <ele>1382.9936523438</ele>
        <time>2011-06-14T11:17:22Z</time>
      </trkpt>
      <trkpt lat="42.8455" lon="0.64001">
        <ele>1383.4743652344</ele>
        <time>2011-06-14T11:17:27Z</time>
      </trkpt>
      <trkpt lat="42.84562" lon="0.64006">
        <ele>1383.4743652344</ele>
        <time>2011-06-14T11:17:31Z</time>
      </trkpt>
      <trkpt lat="42.84575" lon="0.6401">
        <ele>1384.4357910156</ele>
        <time>2011-06-14T11:17:36Z</time>
      </trkpt>
      <trkpt lat="42.84585" lon="0.64014">
        <ele>1384.4357910156</ele>
        <time>2011-06-14T11:17:40Z</time>
      </trkpt>
      <trkpt lat="42.84593" lon="0.64021">
        <ele>1382.9936523438</ele>
        <time>2011-06-14T11:17:44Z</time>
      </trkpt>
      <trkpt lat="42.84602" lon="0.64031">
        <ele>1381.5517578125</ele>
        <time>2011-06-14T11:17:49Z</time>
      </trkpt>
      <trkpt lat="42.84611" lon="0.6404">
        <ele>1381.0712890625</ele>
        <time>2011-06-14T11:17:53Z</time>
      </trkpt>
      <trkpt lat="42.84615" lon="0.64045">
        <ele>1380.5905761719</ele>
        <time>2011-06-14T11:17:55Z</time>
      </trkpt>
      <trkpt lat="42.84624" lon="0.64053">
        <ele>1379.1484375</ele>
        <time>2011-06-14T11:17:59Z</time>
      </trkpt>
      <trkpt lat="42.84626" lon="0.64056">
        <ele>1379.1484375</ele>
        <time>2011-06-14T11:18:00Z</time>
      </trkpt>
      <trkpt lat="42.84644" lon="0.64076">
        <ele>1377.7065429688</ele>
        <time>2011-06-14T11:18:08Z</time>
      </trkpt>
      <trkpt lat="42.84647" lon="0.6409">
        <ele>1378.1872558594</ele>
        <time>2011-06-14T11:18:12Z</time>
      </trkpt>
      <trkpt lat="42.84647" lon="0.64093">
        <ele>1379.1484375</ele>
        <time>2011-06-14T11:18:13Z</time>
      </trkpt>
      <trkpt lat="42.84653" lon="0.64112">
        <ele>1379.6291503906</ele>
        <time>2011-06-14T11:18:18Z</time>
      </trkpt>
      <trkpt lat="42.84657" lon="0.64127">
        <ele>1377.7065429688</ele>
        <time>2011-06-14T11:18:22Z</time>
      </trkpt>
      <trkpt lat="42.84662" lon="0.64143">
        <ele>1375.3032226562</ele>
        <time>2011-06-14T11:18:27Z</time>
      </trkpt>
      <trkpt lat="42.8467" lon="0.64153">
        <ele>1374.8227539062</ele>
        <time>2011-06-14T11:18:31Z</time>
      </trkpt>
      <trkpt lat="42.84682" lon="0.6416">
        <ele>1374.3420410156</ele>
        <time>2011-06-14T11:18:36Z</time>
      </trkpt>
      <trkpt lat="42.84692" lon="0.64166">
        <ele>1374.3420410156</ele>
        <time>2011-06-14T11:18:40Z</time>
      </trkpt>
      <trkpt lat="42.84703" lon="0.64182">
        <ele>1373.861328125</ele>
        <time>2011-06-14T11:18:46Z</time>
      </trkpt>
      <trkpt lat="42.84708" lon="0.64199">
        <ele>1372.9001464844</ele>
        <time>2011-06-14T11:18:51Z</time>
      </trkpt>
      <trkpt lat="42.84708" lon="0.64215">
        <ele>1370.9772949219</ele>
        <time>2011-06-14T11:18:56Z</time>
      </trkpt>
      <trkpt lat="42.84708" lon="0.64217">
        <ele>1370.4965820312</ele>
        <time>2011-06-14T11:18:57Z</time>
      </trkpt>
      <trkpt lat="42.8471" lon="0.64228">
        <ele>1369.0546875</ele>
        <time>2011-06-14T11:19:03Z</time>
      </trkpt>
      <trkpt lat="42.8471" lon="0.64231">
        <ele>1369.0546875</ele>
        <time>2011-06-14T11:19:04Z</time>
      </trkpt>
      <trkpt lat="42.84709" lon="0.64244">
        <ele>1367.1320800781</ele>
        <time>2011-06-14T11:19:12Z</time>
      </trkpt>
      <trkpt lat="42.84706" lon="0.64256">
        <ele>1365.6901855469</ele>
        <time>2011-06-14T11:19:19Z</time>
      </trkpt>
      <trkpt lat="42.84698" lon="0.64267">
        <ele>1365.2094726562</ele>
        <time>2011-06-14T11:19:25Z</time>
      </trkpt>
      <trkpt lat="42.84694" lon="0.64272">
        <ele>1364.248046875</ele>
        <time>2011-06-14T11:19:28Z</time>
      </trkpt>
      <trkpt lat="42.84685" lon="0.6428">
        <ele>1361.3642578125</ele>
        <time>2011-06-14T11:19:34Z</time>
      </trkpt>
      <trkpt lat="42.84674" lon="0.64293">
        <ele>1357.0383300781</ele>
        <time>2011-06-14T11:19:43Z</time>
      </trkpt>
      <trkpt lat="42.84669" lon="0.64304">
        <ele>1356.0769042969</ele>
        <time>2011-06-14T11:19:49Z</time>
      </trkpt>
      <trkpt lat="42.84671" lon="0.64315">
        <ele>1357.5190429688</ele>
        <time>2011-06-14T11:19:54Z</time>
      </trkpt>
      <trkpt lat="42.84688" lon="0.64332">
        <ele>1366.1706542969</ele>
        <time>2011-06-14T11:20:02Z</time>
      </trkpt>
      <trkpt lat="42.84692" lon="0.64341">
        <ele>1365.2094726562</ele>
        <time>2011-06-14T11:20:08Z</time>
      </trkpt>
      <trkpt lat="42.847" lon="0.64357">
        <ele>1366.1706542969</ele>
        <time>2011-06-14T11:20:17Z</time>
      </trkpt>
      <trkpt lat="42.84704" lon="0.64367">
        <ele>1365.2094726562</ele>
        <time>2011-06-14T11:20:23Z</time>
      </trkpt>
      <trkpt lat="42.84708" lon="0.64378">
        <ele>1363.7673339844</ele>
        <time>2011-06-14T11:20:29Z</time>
      </trkpt>
      <trkpt lat="42.8471" lon="0.64386">
        <ele>1361.8449707031</ele>
        <time>2011-06-14T11:20:34Z</time>
      </trkpt>
      <trkpt lat="42.84716" lon="0.64396">
        <ele>1363.2868652344</ele>
        <time>2011-06-14T11:20:40Z</time>
      </trkpt>
      <trkpt lat="42.84718" lon="0.64407">
        <ele>1362.8061523438</ele>
        <time>2011-06-14T11:20:43Z</time>
      </trkpt>
      <trkpt lat="42.84724" lon="0.64427">
        <ele>1362.3254394531</ele>
        <time>2011-06-14T11:20:48Z</time>
      </trkpt>
      <trkpt lat="42.84727" lon="0.64441">
        <ele>1362.3254394531</ele>
        <time>2011-06-14T11:20:52Z</time>
      </trkpt>
      <trkpt lat="42.84728" lon="0.64445">
        <ele>1362.3254394531</ele>
        <time>2011-06-14T11:20:53Z</time>
      </trkpt>
      <trkpt lat="42.8473" lon="0.64457">
        <ele>1362.3254394531</ele>
        <time>2011-06-14T11:20:56Z</time>
      </trkpt>
      <trkpt lat="42.8473" lon="0.64475">
        <ele>1362.3254394531</ele>
        <time>2011-06-14T11:21:01Z</time>
      </trkpt>
      <trkpt lat="42.84729" lon="0.6448">
        <ele>1362.8061523438</ele>
        <time>2011-06-14T11:21:02Z</time>
      </trkpt>
      <trkpt lat="42.84724" lon="0.645">
        <ele>1362.8061523438</ele>
        <time>2011-06-14T11:21:07Z</time>
      </trkpt>
      <trkpt lat="42.84724" lon="0.6452">
        <ele>1361.8449707031</ele>
        <time>2011-06-14T11:21:12Z</time>
      </trkpt>
      <trkpt lat="42.84719" lon="0.64544">
        <ele>1359.4416503906</ele>
        <time>2011-06-14T11:21:18Z</time>
      </trkpt>
      <trkpt lat="42.8472" lon="0.64547">
        <ele>1358.4802246094</ele>
        <time>2011-06-14T11:21:19Z</time>
      </trkpt>
      <trkpt lat="42.84715" lon="0.64562">
        <ele>1357.0383300781</ele>
        <time>2011-06-14T11:21:23Z</time>
      </trkpt>
      <trkpt lat="42.8471" lon="0.6458">
        <ele>1355.1154785156</ele>
        <time>2011-06-14T11:21:28Z</time>
      </trkpt>
      <trkpt lat="42.84706" lon="0.64595">
        <ele>1355.1154785156</ele>
        <time>2011-06-14T11:21:32Z</time>
      </trkpt>
      <trkpt lat="42.84705" lon="0.64599">
        <ele>1354.634765625</ele>
        <time>2011-06-14T11:21:33Z</time>
      </trkpt>
      <trkpt lat="42.84705" lon="0.64612">
        <ele>1352.2314453125</ele>
        <time>2011-06-14T11:21:37Z</time>
      </trkpt>
      <trkpt lat="42.84705" lon="0.64614">
        <ele>1352.2314453125</ele>
        <time>2011-06-14T11:21:38Z</time>
      </trkpt>
      <trkpt lat="42.84709" lon="0.64631">
        <ele>1358.4802246094</ele>
        <time>2011-06-14T11:21:47Z</time>
      </trkpt>
      <trkpt lat="42.84709" lon="0.64636">
        <ele>1358.4802246094</ele>
        <time>2011-06-14T11:21:50Z</time>
      </trkpt>
      <trkpt lat="42.84712" lon="0.64643">
        <ele>1362.3254394531</ele>
        <time>2011-06-14T11:21:54Z</time>
      </trkpt>
      <trkpt lat="42.84715" lon="0.64655">
        <ele>1367.6125488281</ele>
        <time>2011-06-14T11:22:00Z</time>
      </trkpt>
      <trkpt lat="42.84714" lon="0.64662">
        <ele>1366.1706542969</ele>
        <time>2011-06-14T11:22:04Z</time>
      </trkpt>
      <trkpt lat="42.84718" lon="0.64669">
        <ele>1363.7673339844</ele>
        <time>2011-06-14T11:22:10Z</time>
      </trkpt>
      <trkpt lat="42.84729" lon="0.64671">
        <ele>1364.7287597656</ele>
        <time>2011-06-14T11:22:18Z</time>
      </trkpt>
      <trkpt lat="42.84742" lon="0.64668">
        <ele>1364.248046875</ele>
        <time>2011-06-14T11:22:27Z</time>
      </trkpt>
      <trkpt lat="42.84753" lon="0.64667">
        <ele>1363.2868652344</ele>
        <time>2011-06-14T11:22:34Z</time>
      </trkpt>
      <trkpt lat="42.84761" lon="0.64667">
        <ele>1361.8449707031</ele>
        <time>2011-06-14T11:22:40Z</time>
      </trkpt>
      <trkpt lat="42.84771" lon="0.64667">
        <ele>1359.9221191406</ele>
        <time>2011-06-14T11:22:46Z</time>
      </trkpt>
      <trkpt lat="42.84783" lon="0.6467">
        <ele>1358.4802246094</ele>
        <time>2011-06-14T11:22:55Z</time>
      </trkpt>
      <trkpt lat="42.8479" lon="0.64673">
        <ele>1357.9997558594</ele>
        <time>2011-06-14T11:23:00Z</time>
      </trkpt>
      <trkpt lat="42.84793" lon="0.64677">
        <ele>1358.4802246094</ele>
        <time>2011-06-14T11:23:04Z</time>
      </trkpt>
      <trkpt lat="42.848" lon="0.64687">
        <ele>1358.4802246094</ele>
        <time>2011-06-14T11:23:10Z</time>
      </trkpt>
      <trkpt lat="42.84801" lon="0.64691">
        <ele>1358.9609375</ele>
        <time>2011-06-14T11:23:12Z</time>
      </trkpt>
      <trkpt lat="42.84806" lon="0.6471">
        <ele>1358.4802246094</ele>
        <time>2011-06-14T11:23:21Z</time>
      </trkpt>
      <trkpt lat="42.84813" lon="0.64726">
        <ele>1359.9221191406</ele>
        <time>2011-06-14T11:23:29Z</time>
      </trkpt>
      <trkpt lat="42.84815" lon="0.64741">
        <ele>1358.4802246094</ele>
        <time>2011-06-14T11:23:36Z</time>
      </trkpt>
      <trkpt lat="42.84814" lon="0.64751">
        <ele>1358.4802246094</ele>
        <time>2011-06-14T11:23:41Z</time>
      </trkpt>
      <trkpt lat="42.84813" lon="0.64762">
        <ele>1360.8835449219</ele>
        <time>2011-06-14T11:23:47Z</time>
      </trkpt>
      <trkpt lat="42.84814" lon="0.64768">
        <ele>1362.8061523438</ele>
        <time>2011-06-14T11:23:50Z</time>
      </trkpt>
      <trkpt lat="42.84813" lon="0.64778">
        <ele>1366.1706542969</ele>
        <time>2011-06-14T11:23:55Z</time>
      </trkpt>
      <trkpt lat="42.84811" lon="0.64784">
        <ele>1366.6513671875</ele>
        <time>2011-06-14T11:23:58Z</time>
      </trkpt>
      <trkpt lat="42.84814" lon="0.64796">
        <ele>1368.5739746094</ele>
        <time>2011-06-14T11:24:04Z</time>
      </trkpt>
      <trkpt lat="42.84822" lon="0.64813">
        <ele>1368.5739746094</ele>
        <time>2011-06-14T11:24:13Z</time>
      </trkpt>
      <trkpt lat="42.84822" lon="0.64815">
        <ele>1367.6125488281</ele>
        <time>2011-06-14T11:24:14Z</time>
      </trkpt>
      <trkpt lat="42.84824" lon="0.64824">
        <ele>1364.7287597656</ele>
        <time>2011-06-14T11:24:19Z</time>
      </trkpt>
      <trkpt lat="42.84826" lon="0.64833">
        <ele>1361.8449707031</ele>
        <time>2011-06-14T11:24:24Z</time>
      </trkpt>
      <trkpt lat="42.84834" lon="0.64846">
        <ele>1361.3642578125</ele>
        <time>2011-06-14T11:24:31Z</time>
      </trkpt>
      <trkpt lat="42.84839" lon="0.64851">
        <ele>1361.3642578125</ele>
        <time>2011-06-14T11:24:35Z</time>
      </trkpt>
      <trkpt lat="42.84845" lon="0.64848">
        <ele>1361.3642578125</ele>
        <time>2011-06-14T11:24:39Z</time>
      </trkpt>
      <trkpt lat="42.84849" lon="0.64836">
        <ele>1360.8835449219</ele>
        <time>2011-06-14T11:24:46Z</time>
      </trkpt>
      <trkpt lat="42.84855" lon="0.64823">
        <ele>1361.3642578125</ele>
        <time>2011-06-14T11:24:53Z</time>
      </trkpt>
      <trkpt lat="42.84857" lon="0.6481">
        <ele>1366.1706542969</ele>
        <time>2011-06-14T11:24:58Z</time>
      </trkpt>
      <trkpt lat="42.84859" lon="0.64799">
        <ele>1368.0932617188</ele>
        <time>2011-06-14T11:25:03Z</time>
      </trkpt>
      <trkpt lat="42.84867" lon="0.64794">
        <ele>1363.7673339844</ele>
        <time>2011-06-14T11:25:09Z</time>
      </trkpt>
      <trkpt lat="42.84871" lon="0.64789">
        <ele>1361.8449707031</ele>
        <time>2011-06-14T11:25:13Z</time>
      </trkpt>
      <trkpt lat="42.84872" lon="0.64788">
        <ele>1361.8449707031</ele>
        <time>2011-06-14T11:25:14Z</time>
      </trkpt>
      <trkpt lat="42.84882" lon="0.64779">
        <ele>1361.3642578125</ele>
        <time>2011-06-14T11:25:24Z</time>
      </trkpt>
      <trkpt lat="42.84882" lon="0.64759">
        <ele>1379.1484375</ele>
        <time>2011-06-14T11:25:32Z</time>
      </trkpt>
      <trkpt lat="42.84889" lon="0.64747">
        <ele>1382.5131835938</ele>
        <time>2011-06-14T11:25:38Z</time>
      </trkpt>
      <trkpt lat="42.84889" lon="0.64741">
        <ele>1386.8388671875</ele>
        <time>2011-06-14T11:25:40Z</time>
      </trkpt>
      <trkpt lat="42.84891" lon="0.64723">
        <ele>1400.2976074219</ele>
        <time>2011-06-14T11:25:47Z</time>
      </trkpt>
      <trkpt lat="42.84892" lon="0.6472">
        <ele>1399.8168945312</ele>
        <time>2011-06-14T11:25:49Z</time>
      </trkpt>
      <trkpt lat="42.84894" lon="0.64709">
        <ele>1403.1813964844</ele>
        <time>2011-06-14T11:25:54Z</time>
      </trkpt>
      <trkpt lat="42.84896" lon="0.647">
        <ele>1403.1813964844</ele>
        <time>2011-06-14T11:25:59Z</time>
      </trkpt>
      <trkpt lat="42.84898" lon="0.64693">
        <ele>1404.1430664062</ele>
        <time>2011-06-14T11:26:03Z</time>
      </trkpt>
      <trkpt lat="42.84901" lon="0.64684">
        <ele>1403.1813964844</ele>
        <time>2011-06-14T11:26:08Z</time>
      </trkpt>
      <trkpt lat="42.84904" lon="0.64673">
        <ele>1400.2976074219</ele>
        <time>2011-06-14T11:26:13Z</time>
      </trkpt>
      <trkpt lat="42.8491" lon="0.6466">
        <ele>1390.2038574219</ele>
        <time>2011-06-14T11:26:18Z</time>
      </trkpt>
      <trkpt lat="42.84912" lon="0.64651">
        <ele>1384.9165039062</ele>
        <time>2011-06-14T11:26:21Z</time>
      </trkpt>
      <trkpt lat="42.84919" lon="0.64635">
        <ele>1374.8227539062</ele>
        <time>2011-06-14T11:26:26Z</time>
      </trkpt>
      <trkpt lat="42.84925" lon="0.64623">
        <ele>1370.0158691406</ele>
        <time>2011-06-14T11:26:30Z</time>
      </trkpt>
      <trkpt lat="42.8493" lon="0.64605">
        <ele>1363.2868652344</ele>
        <time>2011-06-14T11:26:35Z</time>
      </trkpt>
      <trkpt lat="42.84935" lon="0.64588">
        <ele>1356.5576171875</ele>
        <time>2011-06-14T11:26:40Z</time>
      </trkpt>
      <trkpt lat="42.84937" lon="0.64567">
        <ele>1358.4802246094</ele>
        <time>2011-06-14T11:26:45Z</time>
      </trkpt>
      <trkpt lat="42.84938" lon="0.64549">
        <ele>1354.154296875</ele>
        <time>2011-06-14T11:26:50Z</time>
      </trkpt>
      <trkpt lat="42.84937" lon="0.64528">
        <ele>1355.5961914062</ele>
        <time>2011-06-14T11:26:55Z</time>
      </trkpt>
      <trkpt lat="42.84939" lon="0.64516">
        <ele>1351.7509765625</ele>
        <time>2011-06-14T11:26:59Z</time>
      </trkpt>
      <trkpt lat="42.8494" lon="0.64507">
        <ele>1349.8283691406</ele>
        <time>2011-06-14T11:27:04Z</time>
      </trkpt>
      <trkpt lat="42.8494" lon="0.64498">
        <ele>1348.8669433594</ele>
        <time>2011-06-14T11:27:10Z</time>
      </trkpt>
      <trkpt lat="42.8494" lon="0.64495">
        <ele>1349.34765625</ele>
        <time>2011-06-14T11:27:12Z</time>
      </trkpt>
      <trkpt lat="42.8494" lon="0.64486">
        <ele>1349.8283691406</ele>
        <time>2011-06-14T11:27:17Z</time>
      </trkpt>
      <trkpt lat="42.8494" lon="0.64477">
        <ele>1352.7121582031</ele>
        <time>2011-06-14T11:27:21Z</time>
      </trkpt>
      <trkpt lat="42.84938" lon="0.64465">
        <ele>1354.634765625</ele>
        <time>2011-06-14T11:27:28Z</time>
      </trkpt>
      <trkpt lat="42.84939" lon="0.64457">
        <ele>1353.1928710938</ele>
        <time>2011-06-14T11:27:32Z</time>
      </trkpt>
      <trkpt lat="42.84941" lon="0.64449">
        <ele>1351.7509765625</ele>
        <time>2011-06-14T11:27:37Z</time>
      </trkpt>
      <trkpt lat="42.84942" lon="0.64445">
        <ele>1350.7895507812</ele>
        <time>2011-06-14T11:27:40Z</time>
      </trkpt>
      <trkpt lat="42.84945" lon="0.64436">
        <ele>1348.8669433594</ele>
        <time>2011-06-14T11:27:48Z</time>
      </trkpt>
      <trkpt lat="42.84949" lon="0.64425">
        <ele>1345.9831542969</ele>
        <time>2011-06-14T11:27:56Z</time>
      </trkpt>
      <trkpt lat="42.84952" lon="0.64412">
        <ele>1348.8669433594</ele>
        <time>2011-06-14T11:28:03Z</time>
      </trkpt>
      <trkpt lat="42.84953" lon="0.64409">
        <ele>1348.3862304688</ele>
        <time>2011-06-14T11:28:05Z</time>
      </trkpt>
      <trkpt lat="42.84956" lon="0.64402">
        <ele>1346.9443359375</ele>
        <time>2011-06-14T11:28:10Z</time>
      </trkpt>
      <trkpt lat="42.84961" lon="0.64388">
        <ele>1346.9443359375</ele>
        <time>2011-06-14T11:28:18Z</time>
      </trkpt>
      <trkpt lat="42.84963" lon="0.64372">
        <ele>1348.3862304688</ele>
        <time>2011-06-14T11:28:26Z</time>
      </trkpt>
      <trkpt lat="42.84964" lon="0.64365">
        <ele>1350.3090820312</ele>
        <time>2011-06-14T11:28:30Z</time>
      </trkpt>
      <trkpt lat="42.84967" lon="0.64345">
        <ele>1355.5961914062</ele>
        <time>2011-06-14T11:28:37Z</time>
      </trkpt>
      <trkpt lat="42.84967" lon="0.64326">
        <ele>1362.3254394531</ele>
        <time>2011-06-14T11:28:41Z</time>
      </trkpt>
      <trkpt lat="42.84971" lon="0.64306">
        <ele>1364.7287597656</ele>
        <time>2011-06-14T11:28:46Z</time>
      </trkpt>
      <trkpt lat="42.84974" lon="0.64299">
        <ele>1362.8061523438</ele>
        <time>2011-06-14T11:28:48Z</time>
      </trkpt>
      <trkpt lat="42.84982" lon="0.64282">
        <ele>1360.4028320312</ele>
        <time>2011-06-14T11:28:53Z</time>
      </trkpt>
      <trkpt lat="42.84983" lon="0.64259">
        <ele>1367.6125488281</ele>
        <time>2011-06-14T11:28:58Z</time>
      </trkpt>
      <trkpt lat="42.84986" lon="0.6425">
        <ele>1362.3254394531</ele>
        <time>2011-06-14T11:29:01Z</time>
      </trkpt>
      <trkpt lat="42.84994" lon="0.64232">
        <ele>1357.0383300781</ele>
        <time>2011-06-14T11:29:07Z</time>
      </trkpt>
      <trkpt lat="42.84999" lon="0.64212">
        <ele>1356.5576171875</ele>
        <time>2011-06-14T11:29:13Z</time>
      </trkpt>
      <trkpt lat="42.84999" lon="0.64209">
        <ele>1356.0769042969</ele>
        <time>2011-06-14T11:29:14Z</time>
      </trkpt>
      <trkpt lat="42.85006" lon="0.64189">
        <ele>1349.8283691406</ele>
        <time>2011-06-14T11:29:20Z</time>
      </trkpt>
      <trkpt lat="42.85008" lon="0.64168">
        <ele>1353.1928710938</ele>
        <time>2011-06-14T11:29:25Z</time>
      </trkpt>
      <trkpt lat="42.85008" lon="0.64151">
        <ele>1357.0383300781</ele>
        <time>2011-06-14T11:29:29Z</time>
      </trkpt>
      <trkpt lat="42.85011" lon="0.64137">
        <ele>1356.0769042969</ele>
        <time>2011-06-14T11:29:35Z</time>
      </trkpt>
      <trkpt lat="42.85013" lon="0.64123">
        <ele>1353.1928710938</ele>
        <time>2011-06-14T11:29:44Z</time>
      </trkpt>
      <trkpt lat="42.85017" lon="0.6411">
        <ele>1347.9057617188</ele>
        <time>2011-06-14T11:29:52Z</time>
      </trkpt>
      <trkpt lat="42.85019" lon="0.641">
        <ele>1345.0217285156</ele>
        <time>2011-06-14T11:29:58Z</time>
      </trkpt>
      <trkpt lat="42.85019" lon="0.64093">
        <ele>1345.9831542969</ele>
        <time>2011-06-14T11:30:02Z</time>
      </trkpt>
      <trkpt lat="42.85016" lon="0.64084">
        <ele>1351.7509765625</ele>
        <time>2011-06-14T11:30:05Z</time>
      </trkpt>
      <trkpt lat="42.85014" lon="0.6407">
        <ele>1358.9609375</ele>
        <time>2011-06-14T11:30:10Z</time>
      </trkpt>
      <trkpt lat="42.85014" lon="0.64064">
        <ele>1357.9997558594</ele>
        <time>2011-06-14T11:30:13Z</time>
      </trkpt>
      <trkpt lat="42.85015" lon="0.64047">
        <ele>1354.154296875</ele>
        <time>2011-06-14T11:30:22Z</time>
      </trkpt>
      <trkpt lat="42.85016" lon="0.64035">
        <ele>1353.1928710938</ele>
        <time>2011-06-14T11:30:28Z</time>
      </trkpt>
      <trkpt lat="42.85015" lon="0.64027">
        <ele>1354.634765625</ele>
        <time>2011-06-14T11:30:32Z</time>
      </trkpt>
      <trkpt lat="42.85015" lon="0.64018">
        <ele>1353.6735839844</ele>
        <time>2011-06-14T11:30:36Z</time>
      </trkpt>
      <trkpt lat="42.85017" lon="0.64011">
        <ele>1352.7121582031</ele>
        <time>2011-06-14T11:30:40Z</time>
      </trkpt>
      <trkpt lat="42.85017" lon="0.64009">
        <ele>1352.7121582031</ele>
        <time>2011-06-14T11:30:41Z</time>
      </trkpt>
      <trkpt lat="42.85017" lon="0.64001">
        <ele>1353.1928710938</ele>
        <time>2011-06-14T11:30:45Z</time>
      </trkpt>
      <trkpt lat="42.85016" lon="0.63993">
        <ele>1350.7895507812</ele>
        <time>2011-06-14T11:30:49Z</time>
      </trkpt>
      <trkpt lat="42.85016" lon="0.63977">
        <ele>1351.7509765625</ele>
        <time>2011-06-14T11:30:56Z</time>
      </trkpt>
      <trkpt lat="42.85017" lon="0.63968">
        <ele>1348.8669433594</ele>
        <time>2011-06-14T11:31:00Z</time>
      </trkpt>
      <trkpt lat="42.8502" lon="0.63961">
        <ele>1349.8283691406</ele>
        <time>2011-06-14T11:31:04Z</time>
      </trkpt>
      <trkpt lat="42.85023" lon="0.63958">
        <ele>1347.4250488281</ele>
        <time>2011-06-14T11:31:06Z</time>
      </trkpt>
      <trkpt lat="42.85029" lon="0.6395">
        <ele>1341.1765136719</ele>
        <time>2011-06-14T11:31:11Z</time>
      </trkpt>
      <trkpt lat="42.85032" lon="0.63949">
        <ele>1340.2153320312</ele>
        <time>2011-06-14T11:31:13Z</time>
      </trkpt>
      <trkpt lat="42.85035" lon="0.63943">
        <ele>1341.6572265625</ele>
        <time>2011-06-14T11:31:17Z</time>
      </trkpt>
      <trkpt lat="42.8504" lon="0.63935">
        <ele>1344.541015625</ele>
        <time>2011-06-14T11:31:22Z</time>
      </trkpt>
      <trkpt lat="42.85052" lon="0.63928">
        <ele>1344.541015625</ele>
        <time>2011-06-14T11:31:31Z</time>
      </trkpt>
      <trkpt lat="42.85057" lon="0.63926">
        <ele>1344.060546875</ele>
        <time>2011-06-14T11:31:33Z</time>
      </trkpt>
      <trkpt lat="42.85069" lon="0.6392">
        <ele>1340.2153320312</ele>
        <time>2011-06-14T11:31:39Z</time>
      </trkpt>
      <trkpt lat="42.85078" lon="0.63912">
        <ele>1341.6572265625</ele>
        <time>2011-06-14T11:31:44Z</time>
      </trkpt>
      <trkpt lat="42.85087" lon="0.63905">
        <ele>1341.1765136719</ele>
        <time>2011-06-14T11:31:48Z</time>
      </trkpt>
      <trkpt lat="42.85101" lon="0.63898">
        <ele>1338.2924804688</ele>
        <time>2011-06-14T11:31:53Z</time>
      </trkpt>
      <trkpt lat="42.85111" lon="0.63892">
        <ele>1333.9665527344</ele>
        <time>2011-06-14T11:31:57Z</time>
      </trkpt>
      <trkpt lat="42.8512" lon="0.63884">
        <ele>1330.6020507812</ele>
        <time>2011-06-14T11:32:01Z</time>
      </trkpt>
      <trkpt lat="42.85131" lon="0.63874">
        <ele>1326.7568359375</ele>
        <time>2011-06-14T11:32:06Z</time>
      </trkpt>
      <trkpt lat="42.85138" lon="0.63866">
        <ele>1325.3146972656</ele>
        <time>2011-06-14T11:32:09Z</time>
      </trkpt>
      <trkpt lat="42.85141" lon="0.63864">
        <ele>1325.3146972656</ele>
        <time>2011-06-14T11:32:10Z</time>
      </trkpt>
      <trkpt lat="42.85145" lon="0.63841">
        <ele>1330.6020507812</ele>
        <time>2011-06-14T11:32:16Z</time>
      </trkpt>
      <trkpt lat="42.85148" lon="0.6382">
        <ele>1336.3698730469</ele>
        <time>2011-06-14T11:32:21Z</time>
      </trkpt>
      <trkpt lat="42.85158" lon="0.63801">
        <ele>1336.3698730469</ele>
        <time>2011-06-14T11:32:27Z</time>
      </trkpt>
      <trkpt lat="42.8516" lon="0.63798">
        <ele>1335.4084472656</ele>
        <time>2011-06-14T11:32:28Z</time>
      </trkpt>
      <trkpt lat="42.85172" lon="0.63782">
        <ele>1333.4858398438</ele>
        <time>2011-06-14T11:32:34Z</time>
      </trkpt>
      <trkpt lat="42.85183" lon="0.63773">
        <ele>1331.5632324219</ele>
        <time>2011-06-14T11:32:39Z</time>
      </trkpt>
      <trkpt lat="42.85192" lon="0.63762">
        <ele>1330.1213378906</ele>
        <time>2011-06-14T11:32:44Z</time>
      </trkpt>
      <trkpt lat="42.85197" lon="0.63753">
        <ele>1331.0827636719</ele>
        <time>2011-06-14T11:32:47Z</time>
      </trkpt>
      <trkpt lat="42.85202" lon="0.63735">
        <ele>1337.8117675781</ele>
        <time>2011-06-14T11:32:52Z</time>
      </trkpt>
      <trkpt lat="42.85204" lon="0.63729">
        <ele>1339.734375</ele>
        <time>2011-06-14T11:32:54Z</time>
      </trkpt>
      <trkpt lat="42.85208" lon="0.63721">
        <ele>1341.1765136719</ele>
        <time>2011-06-14T11:32:58Z</time>
      </trkpt>
      <trkpt lat="42.85209" lon="0.63717">
        <ele>1343.0991210938</ele>
        <time>2011-06-14T11:33:00Z</time>
      </trkpt>
      <trkpt lat="42.85214" lon="0.63713">
        <ele>1340.2153320312</ele>
        <time>2011-06-14T11:33:04Z</time>
      </trkpt>
      <trkpt lat="42.85225" lon="0.6371">
        <ele>1334.9279785156</ele>
        <time>2011-06-14T11:33:10Z</time>
      </trkpt>
      <trkpt lat="42.8523" lon="0.63706">
        <ele>1331.0827636719</ele>
        <time>2011-06-14T11:33:14Z</time>
      </trkpt>
      <trkpt lat="42.85239" lon="0.63704">
        <ele>1325.7954101562</ele>
        <time>2011-06-14T11:33:20Z</time>
      </trkpt>
      <trkpt lat="42.85249" lon="0.63701">
        <ele>1322.9113769531</ele>
        <time>2011-06-14T11:33:26Z</time>
      </trkpt>
      <trkpt lat="42.85255" lon="0.63701">
        <ele>1322.4306640625</ele>
        <time>2011-06-14T11:33:30Z</time>
      </trkpt>
      <trkpt lat="42.85263" lon="0.63703">
        <ele>1320.9887695312</ele>
        <time>2011-06-14T11:33:35Z</time>
      </trkpt>
      <trkpt lat="42.85275" lon="0.63707">
        <ele>1320.9887695312</ele>
        <time>2011-06-14T11:33:42Z</time>
      </trkpt>
      <trkpt lat="42.85283" lon="0.6371">
        <ele>1321.4692382812</ele>
        <time>2011-06-14T11:33:47Z</time>
      </trkpt>
      <trkpt lat="42.85294" lon="0.63713">
        <ele>1321.9499511719</ele>
        <time>2011-06-14T11:33:53Z</time>
      </trkpt>
      <trkpt lat="42.8531" lon="0.63714">
        <ele>1320.9887695312</ele>
        <time>2011-06-14T11:33:58Z</time>
      </trkpt>
      <trkpt lat="42.85322" lon="0.63709">
        <ele>1319.0661621094</ele>
        <time>2011-06-14T11:34:03Z</time>
      </trkpt>
      <trkpt lat="42.85333" lon="0.63699">
        <ele>1317.6240234375</ele>
        <time>2011-06-14T11:34:08Z</time>
      </trkpt>
      <trkpt lat="42.85334" lon="0.63697">
        <ele>1317.6240234375</ele>
        <time>2011-06-14T11:34:09Z</time>
      </trkpt>
      <trkpt lat="42.85343" lon="0.63681">
        <ele>1317.6240234375</ele>
        <time>2011-06-14T11:34:14Z</time>
      </trkpt>
      <trkpt lat="42.85347" lon="0.63663">
        <ele>1319.0661621094</ele>
        <time>2011-06-14T11:34:18Z</time>
      </trkpt>
      <trkpt lat="42.85352" lon="0.63645">
        <ele>1320.02734375</ele>
        <time>2011-06-14T11:34:23Z</time>
      </trkpt>
      <trkpt lat="42.85356" lon="0.63628">
        <ele>1320.02734375</ele>
        <time>2011-06-14T11:34:28Z</time>
      </trkpt>
      <trkpt lat="42.85358" lon="0.6361">
        <ele>1321.4692382812</ele>
        <time>2011-06-14T11:34:33Z</time>
      </trkpt>
      <trkpt lat="42.85359" lon="0.63593">
        <ele>1322.4306640625</ele>
        <time>2011-06-14T11:34:38Z</time>
      </trkpt>
      <trkpt lat="42.85363" lon="0.63576">
        <ele>1322.9113769531</ele>
        <time>2011-06-14T11:34:42Z</time>
      </trkpt>
      <trkpt lat="42.85366" lon="0.63565">
        <ele>1322.9113769531</ele>
        <time>2011-06-14T11:34:45Z</time>
      </trkpt>
      <trkpt lat="42.85371" lon="0.63554">
        <ele>1320.9887695312</ele>
        <time>2011-06-14T11:34:50Z</time>
      </trkpt>
      <trkpt lat="42.85376" lon="0.63548">
        <ele>1318.1047363281</ele>
        <time>2011-06-14T11:34:55Z</time>
      </trkpt>
      <trkpt lat="42.8538" lon="0.63541">
        <ele>1315.7016601562</ele>
        <time>2011-06-14T11:34:59Z</time>
      </trkpt>
      <trkpt lat="42.85387" lon="0.63534">
        <ele>1312.3369140625</ele>
        <time>2011-06-14T11:35:05Z</time>
      </trkpt>
      <trkpt lat="42.85395" lon="0.63526">
        <ele>1311.8564453125</ele>
        <time>2011-06-14T11:35:12Z</time>
      </trkpt>
      <trkpt lat="42.85406" lon="0.63517">
        <ele>1315.2209472656</ele>
        <time>2011-06-14T11:35:22Z</time>
      </trkpt>
      <trkpt lat="42.85407" lon="0.63516">
        <ele>1315.7016601562</ele>
        <time>2011-06-14T11:35:23Z</time>
      </trkpt>
      <trkpt lat="42.85417" lon="0.63513">
        <ele>1316.6628417969</ele>
        <time>2011-06-14T11:35:30Z</time>
      </trkpt>
      <trkpt lat="42.85427" lon="0.63509">
        <ele>1318.1047363281</ele>
        <time>2011-06-14T11:35:37Z</time>
      </trkpt>
      <trkpt lat="42.85436" lon="0.63507">
        <ele>1318.5854492188</ele>
        <time>2011-06-14T11:35:44Z</time>
      </trkpt>
      <trkpt lat="42.8544" lon="0.63506">
        <ele>1318.5854492188</ele>
        <time>2011-06-14T11:35:47Z</time>
      </trkpt>
      <trkpt lat="42.85454" lon="0.63503">
        <ele>1318.5854492188</ele>
        <time>2011-06-14T11:35:57Z</time>
      </trkpt>
      <trkpt lat="42.85466" lon="0.63499">
        <ele>1318.5854492188</ele>
        <time>2011-06-14T11:36:06Z</time>
      </trkpt>
      <trkpt lat="42.85466" lon="0.635">
        <ele>1318.5854492188</ele>
        <time>2011-06-14T11:36:08Z</time>
      </trkpt>
      <trkpt lat="42.85458" lon="0.63502">
        <ele>1317.6240234375</ele>
        <time>2011-06-14T11:36:14Z</time>
      </trkpt>
      <trkpt lat="42.85453" lon="0.63503">
        <ele>1317.6240234375</ele>
        <time>2011-06-14T11:36:17Z</time>
      </trkpt>
      <trkpt lat="42.85451" lon="0.63497">
        <ele>1315.7016601562</ele>
        <time>2011-06-14T11:36:22Z</time>
      </trkpt>
      <trkpt lat="42.8546" lon="0.63483">
        <ele>1309.93359375</ele>
        <time>2011-06-14T11:36:28Z</time>
      </trkpt>
      <trkpt lat="42.85469" lon="0.63471">
        <ele>1305.6076660156</ele>
        <time>2011-06-14T11:36:33Z</time>
      </trkpt>
      <trkpt lat="42.85484" lon="0.63452">
        <ele>1300.3205566406</ele>
        <time>2011-06-14T11:36:40Z</time>
      </trkpt>
      <trkpt lat="42.85496" lon="0.6344">
        <ele>1296.4753417969</ele>
        <time>2011-06-14T11:36:45Z</time>
      </trkpt>
      <trkpt lat="42.85507" lon="0.63425">
        <ele>1292.1494140625</ele>
        <time>2011-06-14T11:36:50Z</time>
      </trkpt>
      <trkpt lat="42.85518" lon="0.63411">
        <ele>1289.2651367188</ele>
        <time>2011-06-14T11:36:55Z</time>
      </trkpt>
      <trkpt lat="42.8553" lon="0.63397">
        <ele>1286.8618164062</ele>
        <time>2011-06-14T11:37:01Z</time>
      </trkpt>
      <trkpt lat="42.8554" lon="0.63383">
        <ele>1284.4587402344</ele>
        <time>2011-06-14T11:37:06Z</time>
      </trkpt>
      <trkpt lat="42.85549" lon="0.63365">
        <ele>1282.5361328125</ele>
        <time>2011-06-14T11:37:12Z</time>
      </trkpt>
      <trkpt lat="42.85556" lon="0.6335">
        <ele>1281.5747070312</ele>
        <time>2011-06-14T11:37:17Z</time>
      </trkpt>
      <trkpt lat="42.85563" lon="0.63336">
        <ele>1279.6520996094</ele>
        <time>2011-06-14T11:37:22Z</time>
      </trkpt>
      <trkpt lat="42.85572" lon="0.6332">
        <ele>1277.7294921875</ele>
        <time>2011-06-14T11:37:28Z</time>
      </trkpt>
      <trkpt lat="42.85579" lon="0.6331">
        <ele>1276.7683105469</ele>
        <time>2011-06-14T11:37:32Z</time>
      </trkpt>
      <trkpt lat="42.8558" lon="0.63307">
        <ele>1276.2875976562</ele>
        <time>2011-06-14T11:37:34Z</time>
      </trkpt>
      <trkpt lat="42.85586" lon="0.633">
        <ele>1274.8454589844</ele>
        <time>2011-06-14T11:37:40Z</time>
      </trkpt>
      <trkpt lat="42.85592" lon="0.63294">
        <ele>1274.3647460938</ele>
        <time>2011-06-14T11:37:44Z</time>
      </trkpt>
      <trkpt lat="42.85594" lon="0.63284">
        <ele>1270.0388183594</ele>
        <time>2011-06-14T11:37:49Z</time>
      </trkpt>
      <trkpt lat="42.85597" lon="0.63278">
        <ele>1267.6354980469</ele>
        <time>2011-06-14T11:37:53Z</time>
      </trkpt>
      <trkpt lat="42.85598" lon="0.63276">
        <ele>1266.6743164062</ele>
        <time>2011-06-14T11:37:54Z</time>
      </trkpt>
      <trkpt lat="42.856" lon="0.63273">
        <ele>1265.7131347656</ele>
        <time>2011-06-14T11:37:56Z</time>
      </trkpt>
      <trkpt lat="42.85607" lon="0.63264">
        <ele>1264.7517089844</ele>
        <time>2011-06-14T11:38:02Z</time>
      </trkpt>
      <trkpt lat="42.85612" lon="0.63258">
        <ele>1263.7902832031</ele>
        <time>2011-06-14T11:38:06Z</time>
      </trkpt>
      <trkpt lat="42.85618" lon="0.6325">
        <ele>1261.8679199219</ele>
        <time>2011-06-14T11:38:11Z</time>
      </trkpt>
      <trkpt lat="42.85623" lon="0.63242">
        <ele>1259.9448242188</ele>
        <time>2011-06-14T11:38:17Z</time>
      </trkpt>
      <trkpt lat="42.8563" lon="0.63234">
        <ele>1258.0224609375</ele>
        <time>2011-06-14T11:38:23Z</time>
      </trkpt>
      <trkpt lat="42.85634" lon="0.6323">
        <ele>1255.619140625</ele>
        <time>2011-06-14T11:38:27Z</time>
      </trkpt>
      <trkpt lat="42.85639" lon="0.63223">
        <ele>1254.1772460938</ele>
        <time>2011-06-14T11:38:32Z</time>
      </trkpt>
      <trkpt lat="42.85653" lon="0.63207">
        <ele>1251.2932128906</ele>
        <time>2011-06-14T11:38:40Z</time>
      </trkpt>
      <trkpt lat="42.85666" lon="0.63197">
        <ele>1249.8513183594</ele>
        <time>2011-06-14T11:38:46Z</time>
      </trkpt>
      <trkpt lat="42.8568" lon="0.63195">
        <ele>1248.8898925781</ele>
        <time>2011-06-14T11:38:52Z</time>
      </trkpt>
      <trkpt lat="42.85693" lon="0.6319">
        <ele>1247.9287109375</ele>
        <time>2011-06-14T11:38:59Z</time>
      </trkpt>
      <trkpt lat="42.85705" lon="0.63178">
        <ele>1246.0061035156</ele>
        <time>2011-06-14T11:39:05Z</time>
      </trkpt>
      <trkpt lat="42.85712" lon="0.63166">
        <ele>1244.5639648438</ele>
        <time>2011-06-14T11:39:09Z</time>
      </trkpt>
      <trkpt lat="42.85715" lon="0.63156">
        <ele>1243.6025390625</ele>
        <time>2011-06-14T11:39:13Z</time>
      </trkpt>
      <trkpt lat="42.85716" lon="0.63152">
        <ele>1243.1218261719</ele>
        <time>2011-06-14T11:39:15Z</time>
      </trkpt>
      <trkpt lat="42.85715" lon="0.63142">
        <ele>1241.6799316406</ele>
        <time>2011-06-14T11:39:20Z</time>
      </trkpt>
      <trkpt lat="42.85713" lon="0.63128">
        <ele>1239.7573242188</ele>
        <time>2011-06-14T11:39:26Z</time>
      </trkpt>
      <trkpt lat="42.85712" lon="0.63112">
        <ele>1236.3928222656</ele>
        <time>2011-06-14T11:39:33Z</time>
      </trkpt>
      <trkpt lat="42.85713" lon="0.63099">
        <ele>1234.4702148438</ele>
        <time>2011-06-14T11:39:37Z</time>
      </trkpt>
      <trkpt lat="42.85714" lon="0.63096">
        <ele>1233.9895019531</ele>
        <time>2011-06-14T11:39:38Z</time>
      </trkpt>
      <trkpt lat="42.85718" lon="0.6309">
        <ele>1231.5861816406</ele>
        <time>2011-06-14T11:39:43Z</time>
      </trkpt>
      <trkpt lat="42.85727" lon="0.63087">
        <ele>1228.2216796875</ele>
        <time>2011-06-14T11:39:50Z</time>
      </trkpt>
      <trkpt lat="42.8573" lon="0.63073">
        <ele>1226.7795410156</ele>
        <time>2011-06-14T11:39:57Z</time>
      </trkpt>
      <trkpt lat="42.8573" lon="0.63069">
        <ele>1226.298828125</ele>
        <time>2011-06-14T11:39:59Z</time>
      </trkpt>
      <trkpt lat="42.85732" lon="0.6305">
        <ele>1225.8181152344</ele>
        <time>2011-06-14T11:40:06Z</time>
      </trkpt>
      <trkpt lat="42.85733" lon="0.63033">
        <ele>1223.8955078125</ele>
        <time>2011-06-14T11:40:12Z</time>
      </trkpt>
      <trkpt lat="42.85735" lon="0.63022">
        <ele>1221.9729003906</ele>
        <time>2011-06-14T11:40:16Z</time>
      </trkpt>
      <trkpt lat="42.85735" lon="0.63011">
        <ele>1219.5698242188</ele>
        <time>2011-06-14T11:40:21Z</time>
      </trkpt>
      <trkpt lat="42.85736" lon="0.63004">
        <ele>1217.6469726562</ele>
        <time>2011-06-14T11:40:26Z</time>
      </trkpt>
      <trkpt lat="42.85736" lon="0.63003">
        <ele>1216.6857910156</ele>
        <time>2011-06-14T11:40:33Z</time>
      </trkpt>
      <trkpt lat="42.85737" lon="0.63003">
        <ele>1213.8017578125</ele>
        <time>2011-06-14T11:40:43Z</time>
      </trkpt>
      <trkpt lat="42.85736" lon="0.63001">
        <ele>1210.9177246094</ele>
        <time>2011-06-14T11:40:55Z</time>
      </trkpt>
      <trkpt lat="42.85736" lon="0.62997">
        <ele>1210.9177246094</ele>
        <time>2011-06-14T11:40:58Z</time>
      </trkpt>
      <trkpt lat="42.85738" lon="0.62982">
        <ele>1209.4758300781</ele>
        <time>2011-06-14T11:41:04Z</time>
      </trkpt>
      <trkpt lat="42.85738" lon="0.62956">
        <ele>1210.4370117188</ele>
        <time>2011-06-14T11:41:11Z</time>
      </trkpt>
      <trkpt lat="42.85739" lon="0.62939">
        <ele>1209.4758300781</ele>
        <time>2011-06-14T11:41:16Z</time>
      </trkpt>
      <trkpt lat="42.8574" lon="0.62923">
        <ele>1206.1110839844</ele>
        <time>2011-06-14T11:41:21Z</time>
      </trkpt>
      <trkpt lat="42.8574" lon="0.62903">
        <ele>1201.3046875</ele>
        <time>2011-06-14T11:41:27Z</time>
      </trkpt>
      <trkpt lat="42.85741" lon="0.62885">
        <ele>1196.9787597656</ele>
        <time>2011-06-14T11:41:33Z</time>
      </trkpt>
      <trkpt lat="42.85741" lon="0.62882">
        <ele>1196.017578125</ele>
        <time>2011-06-14T11:41:34Z</time>
      </trkpt>
      <trkpt lat="42.85741" lon="0.62868">
        <ele>1193.1333007812</ele>
        <time>2011-06-14T11:41:39Z</time>
      </trkpt>
      <trkpt lat="42.85745" lon="0.62867">
        <ele>1191.2106933594</ele>
        <time>2011-06-14T11:41:43Z</time>
      </trkpt>
      <trkpt lat="42.85752" lon="0.62869">
        <ele>1190.2495117188</ele>
        <time>2011-06-14T11:41:50Z</time>
      </trkpt>
      <trkpt lat="42.85758" lon="0.62871">
        <ele>1193.1333007812</ele>
        <time>2011-06-14T11:44:54Z</time>
      </trkpt>
      <trkpt lat="42.85758" lon="0.62871">
        <ele>1193.1333007812</ele>
        <time>2011-06-14T11:44:55Z</time>
      </trkpt>
      <trkpt lat="42.85765" lon="0.62876">
        <ele>1189.7687988281</ele>
        <time>2011-06-14T11:44:59Z</time>
      </trkpt>
      <trkpt lat="42.8577" lon="0.62872">
        <ele>1187.3654785156</ele>
        <time>2011-06-14T11:45:02Z</time>
      </trkpt>
      <trkpt lat="42.85768" lon="0.62857">
        <ele>1185.4428710938</ele>
        <time>2011-06-14T11:45:06Z</time>
      </trkpt>
      <trkpt lat="42.85762" lon="0.62831">
        <ele>1183.0395507812</ele>
        <time>2011-06-14T11:45:12Z</time>
      </trkpt>
      <trkpt lat="42.8576" lon="0.62815">
        <ele>1181.1171875</ele>
        <time>2011-06-14T11:45:16Z</time>
      </trkpt>
      <trkpt lat="42.85754" lon="0.62797">
        <ele>1179.1940917969</ele>
        <time>2011-06-14T11:45:21Z</time>
      </trkpt>
      <trkpt lat="42.85753" lon="0.62787">
        <ele>1177.7521972656</ele>
        <time>2011-06-14T11:45:24Z</time>
      </trkpt>
      <trkpt lat="42.85761" lon="0.62785">
        <ele>1174.3876953125</ele>
        <time>2011-06-14T11:45:27Z</time>
      </trkpt>
      <trkpt lat="42.85772" lon="0.62792">
        <ele>1170.5424804688</ele>
        <time>2011-06-14T11:45:32Z</time>
      </trkpt>
      <trkpt lat="42.85778" lon="0.62791">
        <ele>1169.1005859375</ele>
        <time>2011-06-14T11:45:34Z</time>
      </trkpt>
      <trkpt lat="42.85783" lon="0.6279">
        <ele>1168.1391601562</ele>
        <time>2011-06-14T11:45:36Z</time>
      </trkpt>
      <trkpt lat="42.85793" lon="0.62777">
        <ele>1165.7360839844</ele>
        <time>2011-06-14T11:45:41Z</time>
      </trkpt>
      <trkpt lat="42.85793" lon="0.62774">
        <ele>1166.2165527344</ele>
        <time>2011-06-14T11:45:42Z</time>
      </trkpt>
      <trkpt lat="42.85791" lon="0.62749">
        <ele>1160.4484863281</ele>
        <time>2011-06-14T11:45:49Z</time>
      </trkpt>
      <trkpt lat="42.85785" lon="0.62733">
        <ele>1156.1225585938</ele>
        <time>2011-06-14T11:45:54Z</time>
      </trkpt>
      <trkpt lat="42.85783" lon="0.62727">
        <ele>1154.6806640625</ele>
        <time>2011-06-14T11:45:56Z</time>
      </trkpt>
      <trkpt lat="42.85785" lon="0.62719">
        <ele>1151.3161621094</ele>
        <time>2011-06-14T11:46:01Z</time>
      </trkpt>
      <trkpt lat="42.85792" lon="0.62715">
        <ele>1148.9128417969</ele>
        <time>2011-06-14T11:46:05Z</time>
      </trkpt>
      <trkpt lat="42.85798" lon="0.62714">
        <ele>1146.9899902344</ele>
        <time>2011-06-14T11:46:08Z</time>
      </trkpt>
      <trkpt lat="42.85808" lon="0.62716">
        <ele>1144.1062011719</ele>
        <time>2011-06-14T11:46:12Z</time>
      </trkpt>
      <trkpt lat="42.85822" lon="0.62722">
        <ele>1141.7028808594</ele>
        <time>2011-06-14T11:46:17Z</time>
      </trkpt>
      <trkpt lat="42.85833" lon="0.6272">
        <ele>1138.3383789062</ele>
        <time>2011-06-14T11:46:21Z</time>
      </trkpt>
      <trkpt lat="42.85842" lon="0.62713">
        <ele>1136.4157714844</ele>
        <time>2011-06-14T11:46:25Z</time>
      </trkpt>
      <trkpt lat="42.85851" lon="0.62707">
        <ele>1134.4931640625</ele>
        <time>2011-06-14T11:46:29Z</time>
      </trkpt>
      <trkpt lat="42.85857" lon="0.62697">
        <ele>1136.8962402344</ele>
        <time>2011-06-14T11:46:32Z</time>
      </trkpt>
      <trkpt lat="42.85857" lon="0.62686">
        <ele>1137.8576660156</ele>
        <time>2011-06-14T11:46:37Z</time>
      </trkpt>
      <trkpt lat="42.85859" lon="0.62676">
        <ele>1137.8576660156</ele>
        <time>2011-06-14T11:46:42Z</time>
      </trkpt>
      <trkpt lat="42.8586" lon="0.62674">
        <ele>1136.4157714844</ele>
        <time>2011-06-14T11:46:44Z</time>
      </trkpt>
      <trkpt lat="42.85865" lon="0.62665">
        <ele>1134.4931640625</ele>
        <time>2011-06-14T11:46:49Z</time>
      </trkpt>
      <trkpt lat="42.85865" lon="0.62663">
        <ele>1134.0124511719</ele>
        <time>2011-06-14T11:46:50Z</time>
      </trkpt>
      <trkpt lat="42.85868" lon="0.62652">
        <ele>1130.6477050781</ele>
        <time>2011-06-14T11:46:56Z</time>
      </trkpt>
      <trkpt lat="42.8587" lon="0.62646">
        <ele>1129.2055664062</ele>
        <time>2011-06-14T11:46:59Z</time>
      </trkpt>
      <trkpt lat="42.8587" lon="0.62636">
        <ele>1128.7250976562</ele>
        <time>2011-06-14T11:47:04Z</time>
      </trkpt>
      <trkpt lat="42.85864" lon="0.62632">
        <ele>1127.763671875</ele>
        <time>2011-06-14T11:47:09Z</time>
      </trkpt>
      <trkpt lat="42.85857" lon="0.62631">
        <ele>1126.8024902344</ele>
        <time>2011-06-14T11:47:14Z</time>
      </trkpt>
      <trkpt lat="42.85852" lon="0.62632">
        <ele>1124.8798828125</ele>
        <time>2011-06-14T11:47:17Z</time>
      </trkpt>
      <trkpt lat="42.85839" lon="0.62634">
        <ele>1121.0346679688</ele>
        <time>2011-06-14T11:47:24Z</time>
      </trkpt>
      <trkpt lat="42.85835" lon="0.62633">
        <ele>1120.0732421875</ele>
        <time>2011-06-14T11:47:26Z</time>
      </trkpt>
      <trkpt lat="42.85832" lon="0.62619">
        <ele>1116.2280273438</ele>
        <time>2011-06-14T11:47:31Z</time>
      </trkpt>
      <trkpt lat="42.85833" lon="0.62617">
        <ele>1115.7473144531</ele>
        <time>2011-06-14T11:47:32Z</time>
      </trkpt>
      <trkpt lat="42.85841" lon="0.62595">
        <ele>1112.3825683594</ele>
        <time>2011-06-14T11:47:39Z</time>
      </trkpt>
      <trkpt lat="42.85845" lon="0.62583">
        <ele>1109.9792480469</ele>
        <time>2011-06-14T11:47:44Z</time>
      </trkpt>
      <trkpt lat="42.85847" lon="0.62574">
        <ele>1108.0568847656</ele>
        <time>2011-06-14T11:47:49Z</time>
      </trkpt>
      <trkpt lat="42.85845" lon="0.62569">
        <ele>1106.6147460938</ele>
        <time>2011-06-14T11:47:52Z</time>
      </trkpt>
      <trkpt lat="42.85835" lon="0.62564">
        <ele>1102.76953125</ele>
        <time>2011-06-14T11:47:59Z</time>
      </trkpt>
      <trkpt lat="42.85831" lon="0.62561">
        <ele>1101.8083496094</ele>
        <time>2011-06-14T11:48:01Z</time>
      </trkpt>
      <trkpt lat="42.8583" lon="0.62549">
        <ele>1099.4047851562</ele>
        <time>2011-06-14T11:48:06Z</time>
      </trkpt>
      <trkpt lat="42.85836" lon="0.62544">
        <ele>1098.9240722656</ele>
        <time>2011-06-14T11:48:10Z</time>
      </trkpt>
      <trkpt lat="42.85838" lon="0.62541">
        <ele>1098.9240722656</ele>
        <time>2011-06-14T11:48:12Z</time>
      </trkpt>
      <trkpt lat="42.85841" lon="0.62535">
        <ele>1098.9240722656</ele>
        <time>2011-06-14T11:48:14Z</time>
      </trkpt>
      <trkpt lat="42.85837" lon="0.62527">
        <ele>1097.4821777344</ele>
        <time>2011-06-14T11:48:20Z</time>
      </trkpt>
      <trkpt lat="42.85831" lon="0.62529">
        <ele>1097.962890625</ele>
        <time>2011-06-14T11:48:24Z</time>
      </trkpt>
      <trkpt lat="42.85824" lon="0.62526">
        <ele>1096.0402832031</ele>
        <time>2011-06-14T11:48:30Z</time>
      </trkpt>
      <trkpt lat="42.85826" lon="0.62518">
        <ele>1094.5981445312</ele>
        <time>2011-06-14T11:48:35Z</time>
      </trkpt>
      <trkpt lat="42.85826" lon="0.62514">
        <ele>1094.1176757812</ele>
        <time>2011-06-14T11:48:37Z</time>
      </trkpt>
      <trkpt lat="42.85826" lon="0.62501">
        <ele>1091.7143554688</ele>
        <time>2011-06-14T11:48:43Z</time>
      </trkpt>
      <trkpt lat="42.85829" lon="0.62488">
        <ele>1090.2724609375</ele>
        <time>2011-06-14T11:48:50Z</time>
      </trkpt>
      <trkpt lat="42.85828" lon="0.62475">
        <ele>1088.3498535156</ele>
        <time>2011-06-14T11:48:57Z</time>
      </trkpt>
      <trkpt lat="42.85828" lon="0.62468">
        <ele>1087.3884277344</ele>
        <time>2011-06-14T11:49:01Z</time>
      </trkpt>
      <trkpt lat="42.85832" lon="0.62462">
        <ele>1085.9465332031</ele>
        <time>2011-06-14T11:49:06Z</time>
      </trkpt>
      <trkpt lat="42.85838" lon="0.62456">
        <ele>1084.5046386719</ele>
        <time>2011-06-14T11:49:11Z</time>
      </trkpt>
      <trkpt lat="42.85841" lon="0.6245">
        <ele>1083.54296875</ele>
        <time>2011-06-14T11:49:14Z</time>
      </trkpt>
      <trkpt lat="42.85834" lon="0.62444">
        <ele>1082.1010742188</ele>
        <time>2011-06-14T11:49:21Z</time>
      </trkpt>
      <trkpt lat="42.85826" lon="0.62441">
        <ele>1081.6203613281</ele>
        <time>2011-06-14T11:49:26Z</time>
      </trkpt>
      <trkpt lat="42.85819" lon="0.62441">
        <ele>1079.6977539062</ele>
        <time>2011-06-14T11:49:32Z</time>
      </trkpt>
      <trkpt lat="42.85816" lon="0.62442">
        <ele>1079.2170410156</ele>
        <time>2011-06-14T11:49:34Z</time>
      </trkpt>
      <trkpt lat="42.85806" lon="0.62443">
        <ele>1076.8139648438</ele>
        <time>2011-06-14T11:49:40Z</time>
      </trkpt>
      <trkpt lat="42.85802" lon="0.62435">
        <ele>1075.3718261719</ele>
        <time>2011-06-14T11:49:45Z</time>
      </trkpt>
      <trkpt lat="42.85802" lon="0.62423">
        <ele>1072.4880371094</ele>
        <time>2011-06-14T11:49:50Z</time>
      </trkpt>
      <trkpt lat="42.85807" lon="0.62411">
        <ele>1069.6042480469</ele>
        <time>2011-06-14T11:49:55Z</time>
      </trkpt>
      <trkpt lat="42.85816" lon="0.62395">
        <ele>1067.2006835938</ele>
        <time>2011-06-14T11:50:01Z</time>
      </trkpt>
      <trkpt lat="42.85825" lon="0.6238">
        <ele>1065.2780761719</ele>
        <time>2011-06-14T11:50:07Z</time>
      </trkpt>
      <trkpt lat="42.85835" lon="0.6237">
        <ele>1063.35546875</ele>
        <time>2011-06-14T11:50:12Z</time>
      </trkpt>
      <trkpt lat="42.85843" lon="0.62357">
        <ele>1061.9135742188</ele>
        <time>2011-06-14T11:50:17Z</time>
      </trkpt>
      <trkpt lat="42.85851" lon="0.62353">
        <ele>1060.4714355469</ele>
        <time>2011-06-14T11:50:21Z</time>
      </trkpt>
      <trkpt lat="42.8586" lon="0.62359">
        <ele>1060.4714355469</ele>
        <time>2011-06-14T11:50:25Z</time>
      </trkpt>
      <trkpt lat="42.85865" lon="0.62372">
        <ele>1061.9135742188</ele>
        <time>2011-06-14T11:50:29Z</time>
      </trkpt>
      <trkpt lat="42.85865" lon="0.62384">
        <ele>1061.9135742188</ele>
        <time>2011-06-14T11:50:35Z</time>
      </trkpt>
      <trkpt lat="42.85866" lon="0.62388">
        <ele>1061.4328613281</ele>
        <time>2011-06-14T11:50:37Z</time>
      </trkpt>
      <trkpt lat="42.8587" lon="0.62405">
        <ele>1058.548828125</ele>
        <time>2011-06-14T11:50:45Z</time>
      </trkpt>
      <trkpt lat="42.85871" lon="0.62407">
        <ele>1059.0295410156</ele>
        <time>2011-06-14T11:50:46Z</time>
      </trkpt>
      <trkpt lat="42.85875" lon="0.6242">
        <ele>1056.6262207031</ele>
        <time>2011-06-14T11:50:53Z</time>
      </trkpt>
      <trkpt lat="42.85875" lon="0.62422">
        <ele>1056.1455078125</ele>
        <time>2011-06-14T11:50:54Z</time>
      </trkpt>
      <trkpt lat="42.85886" lon="0.62429">
        <ele>1051.8195800781</ele>
        <time>2011-06-14T11:51:01Z</time>
      </trkpt>
      <trkpt lat="42.85898" lon="0.62435">
        <ele>1047.9743652344</ele>
        <time>2011-06-14T11:51:07Z</time>
      </trkpt>
      <trkpt lat="42.85905" lon="0.62433">
        <ele>1047.4936523438</ele>
        <time>2011-06-14T11:51:11Z</time>
      </trkpt>
      <trkpt lat="42.85903" lon="0.6242">
        <ele>1045.5710449219</ele>
        <time>2011-06-14T11:51:18Z</time>
      </trkpt>
      <trkpt lat="42.85901" lon="0.62408">
        <ele>1043.6484375</ele>
        <time>2011-06-14T11:51:24Z</time>
      </trkpt>
      <trkpt lat="42.85899" lon="0.62394">
        <ele>1042.2065429688</ele>
        <time>2011-06-14T11:51:31Z</time>
      </trkpt>
      <trkpt lat="42.85898" lon="0.62391">
        <ele>1041.7258300781</ele>
        <time>2011-06-14T11:51:32Z</time>
      </trkpt>
      <trkpt lat="42.85894" lon="0.62378">
        <ele>1041.7258300781</ele>
        <time>2011-06-14T11:51:37Z</time>
      </trkpt>
      <trkpt lat="42.85891" lon="0.62363">
        <ele>1040.7644042969</ele>
        <time>2011-06-14T11:51:41Z</time>
      </trkpt>
      <trkpt lat="42.85891" lon="0.62355">
        <ele>1039.3225097656</ele>
        <time>2011-06-14T11:51:44Z</time>
      </trkpt>
      <trkpt lat="42.8589" lon="0.62343">
        <ele>1038.8420410156</ele>
        <time>2011-06-14T11:51:48Z</time>
      </trkpt>
      <trkpt lat="42.85887" lon="0.62337">
        <ele>1039.3225097656</ele>
        <time>2011-06-14T11:51:51Z</time>
      </trkpt>
      <trkpt lat="42.85886" lon="0.62333">
        <ele>1037.8806152344</ele>
        <time>2011-06-14T11:51:53Z</time>
      </trkpt>
      <trkpt lat="42.85885" lon="0.62324">
        <ele>1036.9191894531</ele>
        <time>2011-06-14T11:51:58Z</time>
      </trkpt>
      <trkpt lat="42.85889" lon="0.62317">
        <ele>1036.9191894531</ele>
        <time>2011-06-14T11:52:02Z</time>
      </trkpt>
      <trkpt lat="42.85891" lon="0.62313">
        <ele>1036.4387207031</ele>
        <time>2011-06-14T11:52:04Z</time>
      </trkpt>
      <trkpt lat="42.85891" lon="0.62308">
        <ele>1034.5158691406</ele>
        <time>2011-06-14T11:52:07Z</time>
      </trkpt>
      <trkpt lat="42.85889" lon="0.62301">
        <ele>1034.03515625</ele>
        <time>2011-06-14T11:52:11Z</time>
      </trkpt>
      <trkpt lat="42.85889" lon="0.62286">
        <ele>1034.03515625</ele>
        <time>2011-06-14T11:52:16Z</time>
      </trkpt>
      <trkpt lat="42.85887" lon="0.62273">
        <ele>1033.0737304688</ele>
        <time>2011-06-14T11:52:20Z</time>
      </trkpt>
      <trkpt lat="42.85888" lon="0.62264">
        <ele>1031.1513671875</ele>
        <time>2011-06-14T11:52:23Z</time>
      </trkpt>
      <trkpt lat="42.85897" lon="0.6227">
        <ele>1026.8254394531</ele>
        <time>2011-06-14T11:52:29Z</time>
      </trkpt>
      <trkpt lat="42.85901" lon="0.62278">
        <ele>1025.3833007812</ele>
        <time>2011-06-14T11:52:32Z</time>
      </trkpt>
      <trkpt lat="42.85905" lon="0.62286">
        <ele>1020.5769042969</ele>
        <time>2011-06-14T11:52:37Z</time>
      </trkpt>
      <trkpt lat="42.85909" lon="0.62282">
        <ele>1019.134765625</ele>
        <time>2011-06-14T11:52:41Z</time>
      </trkpt>
      <trkpt lat="42.85916" lon="0.6227">
        <ele>1018.1733398438</ele>
        <time>2011-06-14T11:52:46Z</time>
      </trkpt>
      <trkpt lat="42.85918" lon="0.62265">
        <ele>1017.6926269531</ele>
        <time>2011-06-14T11:52:48Z</time>
      </trkpt>
      <trkpt lat="42.85921" lon="0.62243">
        <ele>1017.6926269531</ele>
        <time>2011-06-14T11:52:54Z</time>
      </trkpt>
      <trkpt lat="42.85922" lon="0.62239">
        <ele>1017.6926269531</ele>
        <time>2011-06-14T11:52:55Z</time>
      </trkpt>
      <trkpt lat="42.8593" lon="0.62219">
        <ele>1015.2895507812</ele>
        <time>2011-06-14T11:53:01Z</time>
      </trkpt>
      <trkpt lat="42.85936" lon="0.62192">
        <ele>1008.5603027344</ele>
        <time>2011-06-14T11:53:08Z</time>
      </trkpt>
      <trkpt lat="42.85935" lon="0.62174">
        <ele>1005.1958007812</ele>
        <time>2011-06-14T11:53:13Z</time>
      </trkpt>
      <trkpt lat="42.85941" lon="0.62159">
        <ele>1003.2729492188</ele>
        <time>2011-06-14T11:53:18Z</time>
      </trkpt>
      <trkpt lat="42.85944" lon="0.62156">
        <ele>1002.3115234375</ele>
        <time>2011-06-14T11:53:20Z</time>
      </trkpt>
      <trkpt lat="42.85944" lon="0.62143">
        <ele>999.90844726562</ele>
        <time>2011-06-14T11:53:25Z</time>
      </trkpt>
      <trkpt lat="42.85934" lon="0.62137">
        <ele>997.50512695312</ele>
        <time>2011-06-14T11:53:29Z</time>
      </trkpt>
      <trkpt lat="42.85928" lon="0.62138">
        <ele>996.06323242188</ele>
        <time>2011-06-14T11:53:32Z</time>
      </trkpt>
      <trkpt lat="42.85923" lon="0.62141">
        <ele>995.10180664062</ele>
        <time>2011-06-14T11:53:34Z</time>
      </trkpt>
      <trkpt lat="42.85916" lon="0.6214">
        <ele>994.140625</ele>
        <time>2011-06-14T11:53:37Z</time>
      </trkpt>
      <trkpt lat="42.85915" lon="0.62139">
        <ele>993.65991210938</ele>
        <time>2011-06-14T11:53:38Z</time>
      </trkpt>
      <trkpt lat="42.85914" lon="0.62135">
        <ele>996.06323242188</ele>
        <time>2011-06-14T11:54:18Z</time>
      </trkpt>
      <trkpt lat="42.85915" lon="0.62134">
        <ele>996.06323242188</ele>
        <time>2011-06-14T11:54:19Z</time>
      </trkpt>
      <trkpt lat="42.85915" lon="0.62129">
        <ele>991.7373046875</ele>
        <time>2011-06-14T11:54:22Z</time>
      </trkpt>
      <trkpt lat="42.85916" lon="0.62127">
        <ele>990.77587890625</ele>
        <time>2011-06-14T11:54:23Z</time>
      </trkpt>
      <trkpt lat="42.85922" lon="0.62116">
        <ele>989.81469726562</ele>
        <time>2011-06-14T11:54:29Z</time>
      </trkpt>
      <trkpt lat="42.85923" lon="0.62113">
        <ele>989.81469726562</ele>
        <time>2011-06-14T11:54:31Z</time>
      </trkpt>
      <trkpt lat="42.85935" lon="0.62105">
        <ele>987.89184570312</ele>
        <time>2011-06-14T11:54:38Z</time>
      </trkpt>
      <trkpt lat="42.85942" lon="0.62094">
        <ele>985.48852539062</ele>
        <time>2011-06-14T11:54:43Z</time>
      </trkpt>
      <trkpt lat="42.85938" lon="0.62079">
        <ele>985.00805664062</ele>
        <time>2011-06-14T11:54:48Z</time>
      </trkpt>
      <trkpt lat="42.85927" lon="0.62075">
        <ele>982.1240234375</ele>
        <time>2011-06-14T11:54:53Z</time>
      </trkpt>
      <trkpt lat="42.85923" lon="0.62077">
        <ele>981.16284179688</ele>
        <time>2011-06-14T11:54:55Z</time>
      </trkpt>
      <trkpt lat="42.85913" lon="0.62076">
        <ele>979.23999023438</ele>
        <time>2011-06-14T11:55:02Z</time>
      </trkpt>
      <trkpt lat="42.85906" lon="0.62072">
        <ele>977.31762695312</ele>
        <time>2011-06-14T11:55:07Z</time>
      </trkpt>
      <trkpt lat="42.85896" lon="0.6207">
        <ele>975.39477539062</ele>
        <time>2011-06-14T11:55:14Z</time>
      </trkpt>
      <trkpt lat="42.85888" lon="0.6207">
        <ele>973.95288085938</ele>
        <time>2011-06-14T11:55:18Z</time>
      </trkpt>
      <trkpt lat="42.85879" lon="0.62076">
        <ele>974.91430664062</ele>
        <time>2011-06-14T11:55:24Z</time>
      </trkpt>
      <trkpt lat="42.85873" lon="0.62081">
        <ele>973.47241210938</ele>
        <time>2011-06-14T11:55:27Z</time>
      </trkpt>
      <trkpt lat="42.85863" lon="0.6209">
        <ele>970.107421875</ele>
        <time>2011-06-14T11:55:33Z</time>
      </trkpt>
      <trkpt lat="42.85862" lon="0.62091">
        <ele>969.626953125</ele>
        <time>2011-06-14T11:55:34Z</time>
      </trkpt>
      <trkpt lat="42.85853" lon="0.62091">
        <ele>966.74291992188</ele>
        <time>2011-06-14T11:55:41Z</time>
      </trkpt>
      <trkpt lat="42.85847" lon="0.6209">
        <ele>963.85888671875</ele>
        <time>2011-06-14T11:55:46Z</time>
      </trkpt>
      <trkpt lat="42.85844" lon="0.62091">
        <ele>962.89770507812</ele>
        <time>2011-06-14T11:55:48Z</time>
      </trkpt>
      <trkpt lat="42.85836" lon="0.62091">
        <ele>960.013671875</ele>
        <time>2011-06-14T11:55:53Z</time>
      </trkpt>
      <trkpt lat="42.85828" lon="0.62092">
        <ele>957.61059570312</ele>
        <time>2011-06-14T11:55:58Z</time>
      </trkpt>
      <trkpt lat="42.85817" lon="0.62091">
        <ele>956.16845703125</ele>
        <time>2011-06-14T11:56:03Z</time>
      </trkpt>
      <trkpt lat="42.85808" lon="0.62082">
        <ele>954.72631835938</ele>
        <time>2011-06-14T11:56:08Z</time>
      </trkpt>
      <trkpt lat="42.858" lon="0.62077">
        <ele>954.24584960938</ele>
        <time>2011-06-14T11:56:14Z</time>
      </trkpt>
      <trkpt lat="42.85793" lon="0.62071">
        <ele>954.24584960938</ele>
        <time>2011-06-14T11:56:19Z</time>
      </trkpt>
      <trkpt lat="42.8579" lon="0.62068">
        <ele>954.72631835938</ele>
        <time>2011-06-14T11:56:21Z</time>
      </trkpt>
      <trkpt lat="42.85777" lon="0.62057">
        <ele>951.84252929688</ele>
        <time>2011-06-14T11:56:27Z</time>
      </trkpt>
      <trkpt lat="42.85769" lon="0.62054">
        <ele>950.40063476562</ele>
        <time>2011-06-14T11:56:30Z</time>
      </trkpt>
      <trkpt lat="42.85763" lon="0.62051">
        <ele>948.95849609375</ele>
        <time>2011-06-14T11:56:33Z</time>
      </trkpt>
      <trkpt lat="42.85754" lon="0.62046">
        <ele>947.03588867188</ele>
        <time>2011-06-14T11:56:37Z</time>
      </trkpt>
      <trkpt lat="42.85739" lon="0.62039">
        <ele>944.63256835938</ele>
        <time>2011-06-14T11:56:43Z</time>
      </trkpt>
      <trkpt lat="42.85725" lon="0.62033">
        <ele>942.71020507812</ele>
        <time>2011-06-14T11:56:48Z</time>
      </trkpt>
      <trkpt lat="42.85722" lon="0.62032">
        <ele>942.2294921875</ele>
        <time>2011-06-14T11:56:52Z</time>
      </trkpt>
      <trkpt lat="42.85723" lon="0.62032">
        <ele>940.78735351562</ele>
        <time>2011-06-14T11:57:04Z</time>
      </trkpt>
      <trkpt lat="42.85722" lon="0.62031">
        <ele>940.30688476562</ele>
        <time>2011-06-14T11:57:09Z</time>
      </trkpt>
      <trkpt lat="42.85721" lon="0.6203">
        <ele>940.30688476562</ele>
        <time>2011-06-14T11:57:10Z</time>
      </trkpt>
      <trkpt lat="42.85708" lon="0.62018">
        <ele>939.34521484375</ele>
        <time>2011-06-14T11:57:20Z</time>
      </trkpt>
      <trkpt lat="42.85697" lon="0.62011">
        <ele>937.9033203125</ele>
        <time>2011-06-14T11:57:26Z</time>
      </trkpt>
      <trkpt lat="42.85686" lon="0.62013">
        <ele>936.46142578125</ele>
        <time>2011-06-14T11:57:30Z</time>
      </trkpt>
      <trkpt lat="42.85678" lon="0.62014">
        <ele>934.05810546875</ele>
        <time>2011-06-14T11:57:33Z</time>
      </trkpt>
      <trkpt lat="42.85666" lon="0.62015">
        <ele>933.0966796875</ele>
        <time>2011-06-14T11:57:38Z</time>
      </trkpt>
      <trkpt lat="42.85647" lon="0.62015">
        <ele>933.0966796875</ele>
        <time>2011-06-14T11:57:45Z</time>
      </trkpt>
      <trkpt lat="42.8564" lon="0.6202">
        <ele>933.57739257812</ele>
        <time>2011-06-14T11:57:49Z</time>
      </trkpt>
      <trkpt lat="42.85632" lon="0.62026">
        <ele>931.65478515625</ele>
        <time>2011-06-14T11:57:57Z</time>
      </trkpt>
      <trkpt lat="42.8563" lon="0.62029">
        <ele>931.17431640625</ele>
        <time>2011-06-14T11:57:59Z</time>
      </trkpt>
      <trkpt lat="42.85622" lon="0.6203">
        <ele>931.17431640625</ele>
        <time>2011-06-14T11:58:06Z</time>
      </trkpt>
      <trkpt lat="42.85617" lon="0.62031">
        <ele>930.69360351562</ele>
        <time>2011-06-14T11:58:13Z</time>
      </trkpt>
      <trkpt lat="42.85616" lon="0.62031">
        <ele>930.69360351562</ele>
        <time>2011-06-14T11:58:14Z</time>
      </trkpt>
    </trkseg>
  </trk>
</gpx>